<<back to data home page
Ready for Rain this Winter season?? Stay in touch!! - DONATE ANY AMOUNT BY CLICKING THIS LINK!!!


    Month/Day/Year       Maximum   Minimum    Rel    Dew       Rainfall  Seasonal  Soil     Soil      Baro       Wind    Wind        Peak    Peak Gust  Evap     Leaf     Net
    and                  Air Temp  Air Temp   Hum    Point     Inches    Rainfall  Temp     Moisture  Pressure   Speed   Direction   Gust    Direction  Pan      Wetness  Radiation
    Local Time           Deg F     Deg F      %      Deg F               Inches    Deg F    dS/m      mbar       MPH     comp  deg   MPH     comp  deg  Inches   mV       W_m2
----------------------------------------------------------------------------------------------------------------------------------------------------------------------------------
   01/20/2019 11:50      71.5      70.8       38     44.3      0.00      9.92      55.7     0.49      1018.7     1.3       N   352   3.4     NNW   336   9.67    266      263.3
   01/20/2019 11:40      71.0      69.8       39     44.2      0.00      9.92      55.7     0.49      1019.0     1.1     WNW   298   2.8      NW   307   9.67    266      266.8
   01/20/2019 11:30      70.3      69.4       40     44.3      0.00      9.92      55.7     0.49      1019.2     1.7       N   350   4.0       W   275   9.67    266      297.6
   01/20/2019 11:20      70.6      69.7       41     45.5      0.00      9.92      55.7     0.49      1019.4     1.6     WNW   299   3.4       W   264   9.68    266      261.6
   01/20/2019 11:10      70.6      69.6       40     44.8      0.00      9.92      55.7     0.49      1019.5     0.8     WSW   258   3.5       W   271   9.68    266      287.8
   01/20/2019 11:00      69.7      67.6       41     43.9      0.00      9.92      55.7     0.49      1019.6     0.1     SSE   164   0.8      SE   138   9.68    266      279.2
   01/20/2019 10:50      67.6      66.2       44     44.1      0.00      9.92      55.8     0.49      1019.7     0.6       N     4   1.9     NNE    30   9.67    266      284.4
   01/20/2019 10:40      66.5      65.2       45     43.9      0.00      9.92      55.8     0.49      1019.8     1.0     NNW   334   3.0     NNW   333   9.67    266      258.5
   01/20/2019 10:30      65.5      64.9       46     43.6      0.00      9.92      55.8     0.49      1020.0     2.2       W   268   3.8     WSW   238   9.67    266      206.0
   01/20/2019 10:20      65.5      65.1       46     44.1      0.00      9.92      55.8     0.49      1020.0     1.4     WNW   282   2.9       W   264   9.67    266      178.4
   01/20/2019 10:10      65.5      64.8       47     44.5      0.00      9.92      55.9     0.49      1020.1     1.7       W   276   3.3     WSW   257   9.68    267      208.1
   01/20/2019 10:00      65.5      63.9       50     45.5      0.00      9.92      55.9     0.49      1020.1     0.3     WNW   291   1.8     WNW   282   9.68    267      177.0
   01/20/2019 09:50      64.0      61.9       54     45.8      0.00      9.92      55.9     0.49      1020.1     0.3     NNW   341   1.6     NNE    14   9.67    267      251.4
   01/20/2019 09:40      62.0      60.6       57     45.9      0.00      9.92      55.9     0.49      1020.1     0.5       N   356   1.4     NNW   346   9.68    267      229.1
   01/20/2019 09:30      60.7      59.4       61     46.5      0.00      9.92      56.0     0.49      1020.2     0.6      NE    41   1.4     NNE    18   9.68    268      218.5
   01/20/2019 09:20      59.4      58.3       61     45.4      0.00      9.92      56.0     0.49      1020.3     0.8     NNE    24   1.7     NNE    32   9.68    268      180.4
   01/20/2019 09:10      58.4      56.8       63     45.1      0.00      9.92      56.0     0.49      1020.3     0.3      NW   314   1.5      NW   308   9.67    268      140.8
   01/20/2019 09:00      57.0      55.5       67     45.3      0.00      9.92      56.0     0.49      1020.3     1.4       W   276   2.7     WSW   259   9.67    268      158.8
   01/20/2019 08:50      55.8      53.5       71     45.5      0.00      9.92      56.1     0.49      1020.3     0.2     NNW   327   1.1     NNW   332   9.68    269      137.6
   01/20/2019 08:40      53.6      50.7       76     44.7      0.00      9.92      56.1     0.49      1020.2     0.7      SE   140   1.9      SE   135   9.68    277      149.0
   01/20/2019 08:30      50.8      48.7       81     44.2      0.00      9.92      56.1     0.49      1020.3     0.8      SE   134   2.1      SE   139   9.68    299      153.5
   01/20/2019 08:20      48.8      47.3       84     43.4      0.00      9.92      56.1     0.49      1020.4     0.4      SE   130   1.2      SE   136   9.68    323       91.7
   01/20/2019 08:10      47.5      46.5       86     43.1      0.00      9.92      56.2     0.49      1020.4     0.2     ESE   113   1.0      SE   130   9.68    331       57.2
   01/20/2019 08:00      46.7      45.4       89     42.9      0.00      9.92      56.2     0.49      1020.3     0.9     WSW   237   2.3     WSW   252   9.68    337       42.4
   01/20/2019 07:50      45.6      44.8       89     42.1      0.00      9.92      56.2     0.49      1020.1     0.2     WSW   238   1.6     WSW   237   9.68    338       32.5
   01/20/2019 07:40      45.0      44.5       89     41.8      0.00      9.92      56.2     0.49      1020.2     0.0       N   355   0.2       N   355   9.68    338       19.1
   01/20/2019 07:30      44.9      44.3       90     41.7      0.00      9.92      56.3     0.49      1020.0     0.2       N     2   0.8     NNE    20   9.68    337        8.7
   01/20/2019 07:20      44.9      44.2       90     41.8      0.00      9.92      56.3     0.49      1020.0     0.7      SE   138   1.7      SE   137   9.68    335       -3.9
   01/20/2019 07:10      44.6      43.7       91     41.6      0.00      9.92      56.3     0.49      1020.2     0.4     SSE   154   1.1     SSE   154   9.68    333      -11.2
   01/20/2019 07:00      43.9      43.3       90     40.9      0.00      9.92      56.4     0.49      1020.1     0.5     SSE   152   1.3      SE   144   9.68    332      -13.8
   01/20/2019 06:50      43.8      43.2       90     40.7      0.00      9.92      56.4     0.49      1020.0     0.3     SSE   155   1.2      SE   136   9.68    330      -15.1
   01/20/2019 06:40      44.4      43.5       89     40.9      0.00      9.92      56.4     0.49      1019.8     0.7      SE   138   1.3      SE   143   9.68    328      -18.2
   01/20/2019 06:30      44.5      44.0       90     41.3      0.00      9.92      56.4     0.49      1019.6     0.4     NNE    15   1.3       N     0   9.68    325      -18.2
   01/20/2019 06:20      44.3      43.9       89     41.1      0.00      9.92      56.4     0.49      1019.4     0.1     WSW   259   0.9     WSW   258   9.68    322      -18.5
   01/20/2019 06:10      44.6      44.0       89     41.2      0.00      9.92      56.5     0.49      1019.3     0.0      SE   135   0.3      SE   135   9.68    319      -19.0
   01/20/2019 06:00      44.6      44.2       89     41.5      0.00      9.92      56.5     0.49      1019.5     0.1       E    93   0.7      NE    45   9.68    317      -19.9
   01/20/2019 05:50      44.5      44.0       89     41.2      0.00      9.92      56.5     0.49      1019.5     0.0     ESE   118   0.5     SSE   149   9.68    314      -20.6
   01/20/2019 05:40      44.6      44.0       90     41.5      0.00      9.92      56.5     0.49      1019.3     1.1      SE   142   2.5      SE   140   9.68    312      -21.7
   01/20/2019 05:30      44.4      44.0       89     41.1      0.00      9.92      56.6     0.49      1019.4     1.3      SE   146   2.0      SE   145   9.68    310      -22.7
   01/20/2019 05:20      44.3      44.0       89     41.1      0.00      9.92      56.6     0.49      1019.5     0.5       S   170   1.4      SE   143   9.68    307      -23.0
   01/20/2019 05:10      44.6      44.0       89     41.0      0.00      9.92      56.6     0.49      1019.5     0.3     SSE   165   1.4      SE   145   9.68    305      -23.2
   01/20/2019 05:00      44.7      44.2       89     41.4      0.00      9.92      56.6     0.49      1019.5     0.5       S   185   1.5      SE   145   9.68    304      -23.7
   01/20/2019 04:50      44.8      44.2       89     41.3      0.00      9.92      56.7     0.49      1019.6     0.2     SSE   150   1.0     SSE   149   9.68    302      -24.4
   01/20/2019 04:40      44.8      44.5       88     41.4      0.00      9.92      56.7     0.49      1019.7     0.0     SSE   156   0.8     SSE   155   9.68    300      -25.4
   01/20/2019 04:30      45.4      44.6       88     41.5      0.00      9.92      56.7     0.49      1019.8     0.0     SSE   161   0.5     SSE   158   9.68    298      -25.9
   01/20/2019 04:20      45.2      44.9       87     41.5      0.00      9.92      56.8     0.49      1019.9     0.3     SSE   168   0.8     SSE   168   9.68    296      -26.4
   01/20/2019 04:10      45.4      44.9       87     41.4      0.00      9.92      56.8     0.49      1019.8     0.0       N     0   0.0       S   171   9.68    294      -28.3
   01/20/2019 04:00      45.6      45.0       87     41.5      0.00      9.92      56.8     0.49      1019.8     0.4       S   178   1.0       S   178   9.68    293      -29.9
   01/20/2019 03:50      45.9      45.3       86     41.6      0.00      9.92      56.8     0.49      1019.9     0.0     SSW   194   0.8     SSW   194   9.68    292      -31.8
   01/20/2019 03:40      46.1      45.6       86     42.0      0.00      9.92      56.8     0.49      1019.8     0.0     SSE   165   0.5     SSE   165   9.68    290      -33.0
   01/20/2019 03:30      46.2      45.7       86     42.0      0.00      9.92      56.9     0.49      1019.8     0.0     SSE   165   0.0     SSE   165   9.68    288      -35.1
   01/20/2019 03:20      46.2      45.8       86     42.2      0.00      9.92      56.9     0.49      1019.9     0.5     SSE   159   0.9     SSE   157   9.68    287      -36.5
   01/20/2019 03:10      46.6      46.0       86     42.1      0.00      9.92      56.9     0.49      1020.1     0.3     SSE   160   0.9     SSE   164   9.68    285      -38.8
   01/20/2019 03:00      46.6      46.2       86     42.3      0.00      9.92      56.9     0.49      1020.2     0.0       S   180   1.0       S   181   9.69    284      -40.1
   01/20/2019 02:50      46.7      46.3       86     42.5      0.00      9.92      56.9     0.49      1020.3     0.3     SSE   164   1.1       S   181   9.69    282      -39.8
   01/20/2019 02:40      46.7      46.3       86     42.5      0.00      9.92      57.0     0.49      1020.4     0.4     SSE   155   0.9     SSE   153   9.69    281      -40.4
   01/20/2019 02:30      47.1      46.3       84     42.1      0.00      9.92      57.0     0.49      1020.6     0.2     SSE   161   0.9     SSE   164   9.69    279      -43.6
   01/20/2019 02:20      47.2      46.8       84     42.3      0.00      9.92      57.0     0.49      1020.9     0.3       S   181   1.1     SSE   159   9.69    278      -44.7
   01/20/2019 02:10      47.1      46.9       84     42.3      0.00      9.92      57.0     0.49      1020.9     0.3     SSE   161   1.1     SSE   166   9.69    277      -45.9
   01/20/2019 02:00      47.2      46.9       84     42.3      0.00      9.92      57.0     0.49      1021.0     0.0     SSW   201   0.5     SSW   192   9.69    276      -46.6
   01/20/2019 01:50      47.7      46.9       83     42.2      0.00      9.92      57.0     0.49      1021.1     0.2     SSE   150   1.1     SSE   149   9.69    275      -49.3
   01/20/2019 01:40      47.8      47.3       82     42.3      0.00      9.92      57.0     0.49      1021.2     0.0       S   186   0.5       S   180   9.69    275      -52.4
   01/20/2019 01:30      48.1      47.4       81     42.2      0.00      9.92      57.1     0.49      1021.3     0.0       S   170   0.5       S   170   9.69    274      -53.7
   01/20/2019 01:20      48.6      47.8       81     42.6      0.00      9.92      57.1     0.49      1021.1     0.2     SSE   167   0.9     SSE   162   9.69    273      -54.3
   01/20/2019 01:10      48.5      47.8       82     42.7      0.00      9.92      57.1     0.49      1021.1     0.2       S   173   0.9       S   173   9.69    271      -55.1
   01/20/2019 01:00      48.3      47.9       82     42.8      0.00      9.92      57.1     0.49      1021.3     0.0     SSE   168   0.5     SSE   163   9.69    271      -55.6
   01/20/2019 00:50      48.8      48.0       81     42.7      0.00      9.92      57.1     0.49      1021.4     0.0       N     0   0.0      SE   124   9.69    270      -58.3
   01/20/2019 00:40      48.8      48.2       81     43.0      0.00      9.92      57.1     0.49      1021.5     0.9      SE   138   2.0      SE   141   9.69    271      -59.1
   01/20/2019 00:30      48.7      48.2       81     42.9      0.00      9.92      57.2     0.49      1021.6     1.1     SSE   154   1.6      SE   137   9.69    270      -58.7
   01/20/2019 00:20      49.0      48.4       80     42.8      0.00      9.92      57.2     0.49      1021.8     0.6       S   170   1.3      SE   146   9.69    271      -60.0
   01/20/2019 00:10      49.0      48.7       81     43.1      0.00      9.92      57.2     0.49      1021.9     0.5     SSE   160   1.2     SSE   155   9.69    270      -59.3
   01/20/2019 00:00      49.0      48.5       81     43.3      0.00      9.92      57.2     0.49      1022.0     0.3       S   180   1.0     SSE   164   9.69    270      -59.6
   01/19/2019 23:50      49.1      48.4       81     43.2      0.00      9.92      57.2     0.49      1022.0     0.5       S   171   1.9     SSE   165   9.69    270      -61.2
   01/19/2019 23:40      49.7      48.8       79     42.9      0.00      9.92      57.2     0.49      1022.0     0.7     SSE   157   1.2      SE   138   9.69    270      -60.0
   01/19/2019 23:30      50.2      49.3       79     43.3      0.00      9.92      57.2     0.49      1022.1     0.7       S   171   2.0     SSW   200   9.69    270      -60.1
   01/19/2019 23:20      50.3      49.9       78     43.6      0.00      9.92      57.2     0.49      1022.3     0.6       S   188   1.3      SW   221   9.69    270      -60.1
   01/19/2019 23:10      50.8      50.0       78     43.7      0.00      9.92      57.3     0.49      1022.3     0.3      SE   139   1.4      SE   140   9.69    270      -60.4
   01/19/2019 23:00      51.1      50.3       77     43.6      0.00      9.92      57.3     0.49      1022.4     0.2     SSE   169   0.9     SSE   154   9.70    270      -58.0
   01/19/2019 22:50      51.5      50.8       75     43.6      0.00      9.92      57.3     0.49      1022.4     0.4     SSE   162   1.3       S   175   9.70    270      -57.5
   01/19/2019 22:40      51.8      51.3       74     43.4      0.00      9.92      57.3     0.49      1022.3     0.6     SSE   167   1.2       S   182   9.70    270      -56.0
   01/19/2019 22:30      52.0      51.4       74     43.8      0.00      9.92      57.3     0.49      1022.1     0.2       S   177   1.1       S   182   9.70    269      -55.4
   01/19/2019 22:20      52.5      51.6       73     43.6      0.00      9.92      57.3     0.50      1022.2     0.4     SSE   156   0.9       S   179   9.70    269      -55.2
   01/19/2019 22:10      52.4      51.9       72     43.5      0.00      9.92      57.3     0.49      1022.1     0.2       S   172   1.0     SSW   208   9.70    269      -53.1
   01/19/2019 22:00      52.4      52.0       74     44.1      0.00      9.92      57.2     0.50      1022.1     0.5       S   169   2.3       S   175   9.70    269      -52.0
   01/19/2019 21:50      52.5      51.9       75     44.3      0.00      9.92      57.3     0.50      1022.1     0.2     SSE   164   1.1     SSE   155   9.70    269      -52.0
   01/19/2019 21:40      52.5      52.1       73     44.0      0.00      9.92      57.3     0.50      1022.0     0.3       S   175   1.0       S   191   9.70    269      -52.4
   01/19/2019 21:30      52.8      52.1       74     44.2      0.00      9.92      57.3     0.50      1022.0     0.6     SSE   168   1.4      SE   145   9.70    269      -52.5
   01/19/2019 21:20      52.8      52.3       74     44.4      0.00      9.92      57.3     0.50      1022.0     0.6     SSE   161   1.7      SW   218   9.70    269      -54.0
   01/19/2019 21:10      52.9      52.1       75     44.7      0.00      9.92      57.3     0.50      1022.0     0.6     SSE   158   1.8       S   184   9.70    269      -57.1
   01/19/2019 21:00      53.5      52.5       74     44.8      0.00      9.92      57.3     0.50      1022.0     0.4     SSE   147   1.6      SE   144   9.70    269      -56.8
   01/19/2019 20:50      53.9      53.2       72     44.7      0.00      9.92      57.3     0.50      1021.9     0.5     SSE   154   1.2      SE   139   9.71    269      -57.6
   01/19/2019 20:40      54.8      53.6       68     44.0      0.00      9.92      57.3     0.50      1021.9     1.2     SSE   163   2.6       S   183   9.71    269      -56.9
   01/19/2019 20:30      54.7      54.0       69     44.4      0.00      9.92      57.3     0.50      1021.9     1.0     SSW   210   2.1      SW   219   9.71    269      -59.1
   01/19/2019 20:20      55.1      54.1       70     44.8      0.00      9.92      57.2     0.50      1021.9     0.4       S   190   1.2       S   184   9.71    268      -61.3
   01/19/2019 20:10      54.9      54.5       69     44.8      0.00      9.92      57.2     0.50      1021.8     0.5     ESE   105   1.6      SE   134   9.71    268      -60.2
   01/19/2019 20:00      54.9      54.6       70     45.2      0.00      9.92      57.2     0.50      1021.8     1.1     SSE   151   2.1      SE   139   9.71    268      -62.0
   01/19/2019 19:50      55.4      54.6       70     45.3      0.00      9.92      57.2     0.50      1021.8     0.7     SSE   158   1.5     SSE   155   9.71    268      -63.0
   01/19/2019 19:40      56.1      55.0       67     44.6      0.00      9.92      57.2     0.50      1021.8     1.1     SSE   161   1.9       S   180   9.71    268      -63.6
   01/19/2019 19:30      56.8      55.8       64     44.1      0.00      9.92      57.2     0.50      1021.6     0.8       S   185   2.5     SSE   149   9.71    268      -64.9
   01/19/2019 19:20      57.4      56.5       62     44.1      0.00      9.92      57.1     0.50      1021.6     1.2     SSE   165   2.5       S   170   9.71    268      -66.9
   01/19/2019 19:10      57.7      56.6       62     44.3      0.00      9.92      57.1     0.50      1021.5     0.9      SE   124   2.5     SSE   157   9.71    268      -67.3
   01/19/2019 19:00      58.6      57.0       61     44.0      0.00      9.92      57.1     0.50      1021.4     0.6     SSE   152   2.1       S   172   9.71    268      -68.5
   01/19/2019 18:50      58.6      58.0       59     43.9      0.00      9.92      57.0     0.50      1021.4     1.2     SSW   208   2.5       S   190   9.71    267      -68.6
   01/19/2019 18:40      59.3      58.0       59     44.2      0.00      9.92      57.0     0.50      1021.2     1.1       S   176   2.3       S   181   9.72    267      -70.5
   01/19/2019 18:30      60.0      59.0       56     43.8      0.00      9.92      57.0     0.50      1021.1     1.2     SSE   159   2.5      SE   137   9.72    267      -71.6
   01/19/2019 18:20      61.3      59.5       55     44.1      0.00      9.92      57.0     0.50      1021.1     1.6     SSE   152   2.6     SSE   151   9.72    267      -72.9
   01/19/2019 18:10      62.8      61.0       50     43.1      0.00      9.92      56.9     0.50      1021.0     1.2       S   190   2.0     SSW   201   9.72    266      -73.5
   01/19/2019 18:00      65.2      62.5       47     43.0      0.00      9.92      56.9     0.50      1020.9     1.9      SW   224   2.6      SW   227   9.72    267      -72.3
   01/19/2019 17:50      67.1      65.0       42     42.2      0.00      9.92      56.9     0.50      1020.9     1.9      SW   228   2.8     WSW   238   9.72    266      -75.2
   01/19/2019 17:40      68.2      67.0       39     41.6      0.00      9.92      56.8     0.50      1020.9     1.4       W   279   2.9       N   350   9.72    266      -79.8
   01/19/2019 17:30      68.6      67.9       38     41.5      0.00      9.92      56.8     0.50      1021.0     1.5     WNW   283   3.3       W   276   9.73    266      -80.6
   01/19/2019 17:20      69.8      68.5       36     41.0      0.00      9.92      56.8     0.50      1021.0     1.5      NW   304   4.8     WNW   300   9.73    265      -80.2
   01/19/2019 17:10      70.5      69.5       35     41.0      0.00      9.92      56.7     0.50      1021.0     1.5     WNW   297   4.2     WNW   303   9.73    265      -76.3
   01/19/2019 17:00      71.3      70.2       34     41.1      0.00      9.92      56.7     0.50      1021.0     1.1      NW   307   3.2     WNW   296   9.73    265      -71.5
   01/19/2019 16:50      72.1      71.1       33     41.2      0.00      9.92      56.6     0.50      1021.1     1.7     NNW   340   4.6     NNW   336   9.73    264      -67.4
   01/19/2019 16:40      72.9      71.9       33     41.8      0.00      9.92      56.6     0.50      1021.2     1.5      NW   308   3.9     WNW   303   9.73    264      -54.6
   01/19/2019 16:30      73.7      72.5       32     41.2      0.00      9.92      56.5     0.50      1021.3     3.5     NNW   342   7.2      NW   319   9.74    264      -28.6
   01/19/2019 16:20      74.4      73.4       31     41.1      0.00      9.92      56.5     0.49      1021.3     3.0     NNW   330   6.2      NW   316   9.74    263      -11.2
   01/19/2019 16:10      74.9      74.1       30     40.8      0.00      9.92      56.5     0.49      1021.3     2.2     NNW   331   5.6      NW   325   9.74    263        5.5
   01/19/2019 16:00      75.2      74.6       29     40.3      0.00      9.92      56.4     0.49      1021.4     2.9     NNW   334   6.2       N     3   9.74    263       33.7
   01/19/2019 15:50      75.4      74.7       28     39.5      0.00      9.92      56.4     0.49      1021.5     3.0     NNW   338   6.7     WNW   301   9.74    263       57.7
   01/19/2019 15:40      75.9      75.1       27     39.4      0.00      9.92      56.3     0.49      1021.6     3.2     NNW   328   6.4     WNW   294   9.74    263       82.0
   01/19/2019 15:30      76.3      75.5       26     38.8      0.00      9.92      56.3     0.49      1021.7     3.1      NW   326   6.1     WNW   286   9.74    263      104.2
   01/19/2019 15:20      76.6      75.9       26     38.7      0.00      9.92      56.3     0.49      1021.7     2.9      NW   322   6.6     NNW   346   9.74    263      129.5
   01/19/2019 15:10      76.6      76.0       25     38.0      0.00      9.92      56.2     0.49      1021.7     2.9      NW   321   6.0      NW   311   9.75    263      145.3
   01/19/2019 15:00      77.7      76.3       25     38.7      0.00      9.92      56.2     0.49      1021.7     3.4      NW   307   5.5     WNW   303   9.75    263      166.3
   01/19/2019 14:50      78.5      77.4       24     38.3      0.00      9.92      56.1     0.49      1021.8     1.9     NNW   345   3.8     NNW   341   9.75    263      177.4
   01/19/2019 14:40      78.4      76.5       25     38.6      0.00      9.92      56.1     0.49      1022.0     1.4      NW   310   4.4     WNW   290   9.75    263      197.0
   01/19/2019 14:30      77.1      76.5       25     37.9      0.00      9.92      56.0     0.49      1022.1     2.9     NNE    19   5.1     NNE    12   9.75    263      209.3
   01/19/2019 14:20      78.0      76.6       24     37.8      0.00      9.92      56.0     0.49      1022.2     3.0     NNW   348   6.4       N   353   9.75    263      232.7
   01/19/2019 14:10      78.2      77.3       24     37.8      0.00      9.92      55.9     0.49      1022.3     2.2       N   358   6.1       N     6   9.75    263      250.8
   01/19/2019 14:00      78.4      77.3       23     37.0      0.00      9.92      55.9     0.49      1022.4     1.6      NW   319   4.5       N     0   9.75    263      265.0
   01/19/2019 13:50      77.9      76.9       23     36.3      0.00      9.92      55.9     0.49      1022.5     1.9      NW   324   5.2     NNW   343   9.75    263      278.8
   01/19/2019 13:40      77.4      76.7       24     37.2      0.00      9.92      55.8     0.49      1022.6     2.4       N    11   4.6     NNE    13   9.75    263      287.0
   01/19/2019 13:30      78.0      77.0       25     38.3      0.00      9.92      55.8     0.49      1022.9     2.5     NNE    16   5.7     NNE    29   9.75    263      302.3
   01/19/2019 13:20      77.9      76.2       26     39.5      0.00      9.92      55.7     0.49      1023.1     2.2       N   358   9.3       N     0   9.75    263      315.6
   01/19/2019 13:10      78.3      76.5       26     39.6      0.00      9.92      55.7     0.49      1023.1     2.2     ENE    57   5.5     NNE    28   9.75    263      324.5
   01/19/2019 13:00      78.4      76.6       27     41.1      0.00      9.92      55.7     0.49      1023.4     0.6     ESE   110   2.3     NNE    29   9.75    263      331.7
   01/19/2019 12:50      76.8      75.8       28     40.7      0.00      9.92      55.6     0.49      1023.6     1.4     SSW   213   3.6      SW   216   9.75    264      339.4
   01/19/2019 12:40      77.4      76.0       26     39.5      0.00      9.92      55.6     0.49      1023.9     1.5      NW   321   4.3       N     5   9.75    263      344.6
   01/19/2019 12:30      77.7      76.2       28     41.6      0.00      9.92      55.6     0.49      1024.0     0.7       W   263   2.7     NNE    16   9.75    264      352.7
   01/19/2019 12:20      76.3      73.2       28     39.3      0.00      9.92      55.6     0.49      1024.3     0.5     SSW   201   2.0      SW   221   9.75    264      332.5
   01/19/2019 12:10      74.7      73.0       31     41.3      0.00      9.92      55.6     0.49      1024.5     2.8     SSW   198   4.4      SW   226   9.75    265      358.6
   01/19/2019 12:00      74.4      73.2       30     40.6      0.00      9.92      55.6     0.49      1024.6     1.8     WSW   248   3.9     SSW   204   9.75    264      359.7
   01/19/2019 11:50      74.7      73.2       32     41.9      0.00      9.92      55.6     0.49      1024.8     1.2      SW   221   4.1     SSW   205   9.75    265      357.8
   01/19/2019 11:40      73.3      72.6       31     40.9      0.00      9.92      55.6     0.49      1025.0     2.2     WNW   292   5.0     WSW   249   9.75    265      356.3
   01/19/2019 11:30      73.3      72.7       31     40.4      0.00      9.92      55.6     0.49      1025.2     1.5     WSW   254   4.1     ENE    61   9.75    265      351.9
   01/19/2019 11:20      73.3      72.7       31     40.7      0.00      9.92      55.6     0.49      1025.3     1.3       N    10   4.6       W   267   9.75    265      347.5
   01/19/2019 11:10      73.4      71.5       32     41.3      0.00      9.92      55.6     0.49      1025.5     1.4     NNW   329   4.9     NNE    32   9.75    265      335.9
   01/19/2019 11:00      71.5      70.5       33     40.2      0.00      9.92      55.6     0.49      1025.7     2.3     NNE    20   5.7      NE    34   9.75    265      337.2
   01/19/2019 10:50      70.8      70.0       33     39.9      0.00      9.92      55.6     0.49      1025.8     3.0     NNE    18   4.8       N     3   9.75    266      329.2
   01/19/2019 10:40      70.4      69.6       34     40.4      0.00      9.92      55.6     0.49      1025.8     3.2      NE    36   5.4       N   350   9.75    266      319.5
   01/19/2019 10:30      70.0      69.2       35     40.6      0.00      9.92      55.7     0.49      1025.8     3.0      NE    43   5.6      NE    51   9.75    266      311.6
   01/19/2019 10:20      70.5      69.7       35     41.3      0.00      9.92      55.7     0.49      1025.7     1.7      NE    41   4.0      NE    42   9.75    266      299.4
   01/19/2019 10:10      70.3      68.7       36     41.3      0.00      9.92      55.7     0.49      1025.8     1.0      SE   125   2.2     ESE   114   9.75    266      289.2
   01/19/2019 10:00      69.0      68.2       37     41.4      0.00      9.92      55.8     0.49      1025.8     1.7     ESE   101   3.2       E    85   9.75    266      275.6
   01/19/2019 09:50      68.9      68.0       37     41.2      0.00      9.92      55.8     0.49      1025.8     1.2       E    95   2.8     ESE   102   9.75    266      241.9
   01/19/2019 09:40      68.6      67.3       38     41.4      0.00      9.92      55.8     0.49      1025.8     1.0     ENE    72   2.6     ENE    69   9.75    266      239.9
   01/19/2019 09:30      67.5      67.0       39     41.6      0.00      9.92      55.8     0.49      1025.8     1.1     ENE    78   3.5     ESE   120   9.75    266      225.4
   01/19/2019 09:20      67.4      66.4       40     41.6      0.00      9.92      55.8     0.50      1025.7     1.0     ESE   109   2.0      SE   137   9.75    266      207.0
   01/19/2019 09:10      66.6      64.1       44     43.1      0.00      9.92      55.9     0.50      1025.7     0.7       E    93   2.7       E    97   9.76    267      184.1
   01/19/2019 09:00      64.3      61.4       53     45.7      0.00      9.92      55.9     0.50      1025.7     0.4       E    84   2.0      SE   136   9.76    268      159.6
   01/19/2019 08:50      61.8      59.3       56     44.9      0.00      9.92      55.9     0.50      1025.5     1.1     ENE    79   2.6      NE    42   9.76    268      153.9
   01/19/2019 08:40      59.5      57.1       65     46.6      0.00      9.92      55.9     0.50      1025.4     0.6     SSE   158   2.0       S   175   9.76    268      132.0
   01/19/2019 08:30      57.2      54.6       67     44.9      0.00      9.92      56.0     0.50      1025.4     1.0       S   181   2.9     SSW   198   9.76    268      110.5
   01/19/2019 08:20      54.7      52.1       69     43.7      0.00      9.92      56.0     0.50      1025.4     0.8     SSE   154   2.6     NNE    19   9.76    269       91.3
   01/19/2019 08:10      52.4      50.8       74     43.5      0.00      9.92      56.0     0.50      1025.5     0.7     ENE    60   2.8       N    10   9.76    270       29.5
   01/19/2019 08:00      51.1      50.2       74     42.8      0.00      9.92      56.1     0.50      1025.5     1.2       S   169   3.1     SSW   194   9.76    271      -21.9
   01/19/2019 07:50      50.2      47.6       78     42.2      0.00      9.92      56.0     0.50      1025.4     0.6     SSE   161   2.2     WSW   251   9.76    271      -38.0
   01/19/2019 07:40      48.0      46.6       81     41.5      0.00      9.92      56.1     0.50      1025.3     0.3       N    11   1.6     NNE    19   9.76    271      -41.2
   01/19/2019 07:30      47.4      46.8       80     41.2      0.00      9.92      56.1     0.50      1025.3     0.8     SSW   193   2.2       S   175   9.76    271      -44.5
   01/19/2019 07:20      47.4      46.9       80     41.3      0.00      9.92      56.1     0.50      1025.2     0.9     SSE   160   2.4      SE   141   9.76    271      -48.6
   01/19/2019 07:10      47.3      46.9       80     41.3      0.00      9.92      56.1     0.50      1025.1     0.5       S   172   1.8      SE   146   9.76    271      -52.2
   01/19/2019 07:00      48.1      46.9       78     41.0      0.00      9.92      56.1     0.50      1024.9     0.7       S   176   2.2      SW   226   9.76    271      -56.7
   01/19/2019 06:50      48.1      47.4       78     41.2      0.00      9.92      56.2     0.50      1024.7     0.5      SE   131   1.9      SE   126   9.76    271      -58.8
   01/19/2019 06:40      47.8      47.2       79     41.1      0.00      9.92      56.2     0.50      1024.7     1.2     SSE   168   3.1       S   180   9.76    271      -58.6
   01/19/2019 06:30      47.8      47.1       79     41.4      0.00      9.92      56.2     0.50      1024.6     1.1     SSE   151   2.0      SE   137   9.76    271      -59.6
   01/19/2019 06:20      48.3      47.4       78     41.3      0.00      9.92      56.2     0.50      1024.6     0.6     SSE   151   1.5      SE   132   9.76    271      -60.5
   01/19/2019 06:10      48.8      47.6       78     41.4      0.00      9.92      56.2     0.50      1024.5     1.1     SSE   159   2.5      SE   144   9.76    271      -61.2
   01/19/2019 06:00      49.5      48.6       75     41.4      0.00      9.92      56.3     0.50      1024.4     1.1     SSE   158   2.1       S   176   9.76    270      -60.7
   01/19/2019 05:50      49.4      47.8       77     41.5      0.00      9.92      56.3     0.50      1024.4     1.7     SSE   148   3.5      SE   134   9.76    270      -61.2
   01/19/2019 05:40      48.6      48.1       78     41.6      0.00      9.92      56.3     0.50      1024.3     1.4     SSE   154   3.4      SE   142   9.76    270      -61.0
   01/19/2019 05:30      49.2      48.1       76     41.4      0.00      9.92      56.3     0.50      1024.2     1.4     SSE   158   2.8      SE   137   9.76    270      -61.0
   01/19/2019 05:20      49.5      48.9       75     41.5      0.00      9.92      56.3     0.50      1024.1     0.9     SSE   152   2.3     SSE   150   9.76    270      -60.8
   01/19/2019 05:10      49.6      49.1       75     41.8      0.00      9.92      56.3     0.50      1024.1     1.4     SSE   152   3.1      SE   140   9.76    270      -61.3
   01/19/2019 05:00      50.3      49.3       73     41.6      0.00      9.92      56.4     0.50      1024.1     1.2      SE   146   2.9      SE   140   9.76    270      -61.9
   01/19/2019 04:50      51.0      49.9       72     41.7      0.00      9.92      56.4     0.50      1024.1     1.1     SSE   162   2.1     SSE   156   9.76    270      -61.9
   01/19/2019 04:40      51.8      50.8       69     41.6      0.00      9.92      56.4     0.50      1024.1     1.1     SSE   163   2.7       S   177   9.77    270      -62.5
   01/19/2019 04:30      51.4      50.3       72     41.9      0.00      9.92      56.4     0.50      1024.1     1.6     SSE   164   2.3     SSE   149   9.77    270      -62.7
   01/19/2019 04:20      52.0      50.3       71     41.9      0.00      9.92      56.4     0.50      1024.1     1.4       S   181   2.6       S   190   9.77    270      -63.3
   01/19/2019 04:10      52.3      51.3       68     41.8      0.00      9.92      56.5     0.50      1024.2     1.8     SSE   161   3.3      SE   133   9.77    270      -64.0
   01/19/2019 04:00      52.7      51.6       67     41.8      0.00      9.92      56.4     0.50      1024.3     1.7     SSE   160   4.4      SE   134   9.77    270      -64.7
   01/19/2019 03:50      55.1      52.4       63     41.5      0.00      9.92      56.5     0.50      1024.3     2.5       S   172   4.8     SSW   214   9.77    269      -64.3
   01/19/2019 03:40      57.0      53.5       59     41.2      0.00      9.92      56.5     0.50      1024.5     2.7     SSW   198   5.0     SSW   200   9.77    269      -63.4
   01/19/2019 03:30      59.0      57.1       52     40.5      0.00      9.92      56.5     0.50      1024.6     2.7      SW   228   4.6       W   264   9.77    269      -66.3
   01/19/2019 03:20      58.7      58.0       51     40.4      0.00      9.92      56.5     0.50      1024.8     2.2     WNW   294   4.1     WNW   297   9.77    269      -68.2
   01/19/2019 03:10      58.3      57.4       53     40.7      0.00      9.92      56.5     0.50      1025.0     2.5     NNW   327   5.3       N     0   9.77    269      -66.7
   01/19/2019 03:00      58.5      57.5       52     40.7      0.00      9.92      56.6     0.50      1025.1     2.7       W   265   5.2      NW   323   9.77    269      -66.9
   01/19/2019 02:50      58.7      57.6       53     40.8      0.00      9.92      56.6     0.50      1025.2     1.3     WSW   256   3.8     WSW   244   9.77    269      -67.4
   01/19/2019 02:40      58.9      58.4       51     40.7      0.00      9.92      56.6     0.50      1025.2     1.5     WNW   283   4.3     WNW   281   9.77    269      -68.1
   01/19/2019 02:30      58.9      58.4       51     40.7      0.00      9.92      56.6     0.50      1025.2     2.3      NW   315   5.1      NW   313   9.77    269      -67.6
   01/19/2019 02:20      58.6      57.6       53     40.8      0.00      9.92      56.6     0.50      1025.1     1.8      NW   317   5.9     WSW   252   9.77    269      -65.6
   01/19/2019 02:10      57.7      52.1       59     41.1      0.00      9.92      56.6     0.50      1025.2     2.2     WNW   302   8.0       N     4   9.77    269      -63.8
   01/19/2019 02:00      52.5      51.5       69     42.3      0.00      9.92      56.6     0.50      1025.2     1.1     SSW   198   2.4     SSW   197   9.77    270      -62.3
   01/19/2019 01:50      53.7      52.2       66     42.0      0.00      9.92      56.7     0.50      1025.2     1.8       S   169   3.2     SSW   200   9.77    270      -63.3
   01/19/2019 01:40      55.2      52.9       65     42.3      0.00      9.92      56.7     0.50      1025.1     1.4     SSE   153   3.2      SE   139   9.77    270      -65.0
   01/19/2019 01:30      56.6      54.9       58     41.5      0.00      9.92      56.7     0.50      1025.2     0.9       S   171   3.2     SSE   163   9.77    269      -65.8
   01/19/2019 01:20      58.9      56.4       54     41.2      0.00      9.92      56.7     0.50      1025.2     1.4     SSE   160   3.2      SE   143   9.77    269      -68.1
   01/19/2019 01:10      59.2      58.6       51     40.8      0.00      9.92      56.7     0.50      1025.3     1.3       N     9   4.7     NNE    29   9.77    268      -69.8
   01/19/2019 01:00      59.2      58.8       51     40.9      0.00      9.92      56.8     0.50      1025.3     2.6       N   359   7.8     NNW   338   9.78    268      -70.4
   01/19/2019 00:50      59.2      58.6       52     41.1      0.00      9.92      56.8     0.50      1025.5     2.2     NNE    16   6.4     NNW   335   9.78    269      -70.7
   01/19/2019 00:40      59.9      59.1       50     41.1      0.00      9.92      56.8     0.50      1025.6     2.6     NNW   333   8.4     NNW   333   9.78    269      -71.0
   01/19/2019 00:30      59.9      59.4       50     41.2      0.00      9.92      56.8     0.50      1025.7     3.8       N   360  10.5       N    10   9.78    269      -69.5
   01/19/2019 00:20      59.4      57.5       54     41.8      0.00      9.92      56.8     0.50      1025.8     4.5       N     1  10.4      NW   322   9.78    269      -67.8
   01/19/2019 00:10      57.6      54.5       61     42.7      0.00      9.92      56.8     0.50      1025.8     3.6       N   356   9.2     NNW   343   9.78    270      -67.0
   01/19/2019 00:00      55.7      54.3       67     43.9      0.00      9.92      56.8     0.50      1025.9     0.8     SSW   213   2.6     WSW   253   9.78    270      -68.6
   01/18/2019 23:50      57.2      55.5       62     43.4      0.00      9.92      56.8     0.50      1025.9     1.6      SE   137   3.4     SSE   147   9.78    269      -70.0
   01/18/2019 23:40      59.2      56.9       54     41.6      0.00      9.92      56.9     0.50      1025.9     3.1     ENE    67   7.3     NNW   348   9.78    269      -70.1
   01/18/2019 23:30      59.5      58.6       51     41.1      0.00      9.92      56.8     0.50      1025.7     3.9       N   353   7.6     NNE    16   9.78    269      -68.7
   01/18/2019 23:20      59.5      57.9       52     41.0      0.00      9.92      56.9     0.50      1025.8     2.5      NW   318   5.8     WSW   257   9.78    269      -67.1
   01/18/2019 23:10      57.9      56.5       56     41.7      0.00      9.92      56.9     0.50      1025.9     1.1       S   179   4.1     NNW   328   9.78    270      -66.5
   01/18/2019 23:00      57.8      56.4       58     42.0      0.00      9.92      56.9     0.50      1025.9     0.6     ESE   109   2.1      SE   129   9.78    269      -65.5
   01/18/2019 22:50      58.6      57.8       54     41.7      0.00      9.92      56.9     0.50      1025.9     1.6     NNE    13   3.7       N     5   9.78    269      -66.2
   01/18/2019 22:40      58.2      56.3       56     42.0      0.00      9.92      56.9     0.50      1025.8     2.6     NNW   348   4.3     NNW   347   9.78    270      -64.9
   01/18/2019 22:30      56.4      54.1       66     43.6      0.00      9.92      56.9     0.50      1025.7     2.2       N     7   4.7     NNE    18   9.78    270      -63.8
   01/18/2019 22:20      54.9      54.1       68     44.2      0.00      9.92      56.9     0.50      1025.7     1.0       N     7   2.6       N   355   9.78    270      -64.2
   01/18/2019 22:10      55.5      54.6       65     43.7      0.00      9.92      56.9     0.50      1025.7     1.6      NW   322   3.3      SW   227   9.79    270      -64.3
   01/18/2019 22:00      56.6      54.9       64     43.6      0.00      9.92      56.9     0.50      1025.7     0.9     SSE   169   3.3      SW   233   9.79    270      -65.2
   01/18/2019 21:50      58.6      56.5       59     43.2      0.00      9.92      56.9     0.50      1025.5     0.8     ESE   122   2.4       S   187   9.79    270      -66.0
   01/18/2019 21:40      59.7      57.5       57     43.0      0.00      9.92      56.9     0.50      1025.2     2.2     SSW   196   3.9      SW   223   9.79    269      -65.1
   01/18/2019 21:30      61.9      59.5       51     42.5      0.00      9.92      56.9     0.50      1025.2     1.0     SSW   204   3.6     WSW   240   9.79    269      -66.8
   01/18/2019 21:20      62.0      60.8       48     41.9      0.00      9.92      56.9     0.50      1025.2     3.4      NW   321   7.5       W   275   9.79    269      -67.5
   01/18/2019 21:10      60.8      54.9       62     44.1      0.00      9.92      56.9     0.50      1025.2     3.0      NW   315   8.9     WNW   281   9.79    270      -64.3
   01/18/2019 21:00      55.2      54.7       76     47.4      0.00      9.92      56.9     0.50      1025.2     1.3      NW   305   3.1     WNW   283   9.79    271      -65.5
   01/18/2019 20:50      55.7      54.6       75     47.4      0.00      9.92      56.9     0.50      1025.2     0.4     WSW   253   1.6     WSW   259   9.79    271      -67.0
   01/18/2019 20:40      56.1      55.4       74     47.6      0.00      9.92      56.9     0.50      1025.2     1.5      NW   316   4.7       W   261   9.79    270      -68.0
   01/18/2019 20:30      56.7      55.9       72     47.5      0.00      9.92      56.9     0.50      1025.2     4.0     WSW   244   7.2     WSW   238   9.79    270      -67.2
   01/18/2019 20:20      57.1      56.4       72     47.7      0.00      9.92      56.9     0.50      1025.1     4.4      SW   229   5.7      SW   227   9.79    270      -66.9
   01/18/2019 20:10      57.3      56.5       72     48.0      0.00      9.92      56.9     0.50      1025.1     4.7      SW   227   6.8      SW   219   9.79    270      -66.9
   01/18/2019 20:00      57.3      56.7       72     48.0      0.00      9.92      56.9     0.50      1025.2     3.2     WSW   238   6.8      SW   218   9.80    270      -65.8
   01/18/2019 19:50      57.3      56.7       73     48.3      0.00      9.92      56.9     0.50      1025.1     4.6      SW   232   8.2      SW   225   9.80    270      -65.0
   01/18/2019 19:40      57.1      56.5       73     48.4      0.00      9.92      56.9     0.50      1025.2     4.4      SW   231   6.4     SSW   208   9.80    270      -65.1
   01/18/2019 19:30      56.9      55.9       75     48.4      0.00      9.92      56.9     0.50      1025.2     3.7     WSW   243   5.8     WSW   243   9.80    270      -64.7
   01/18/2019 19:20      56.4      55.9       74     48.1      0.00      9.92      56.9     0.50      1025.2     1.5      SW   230   3.6     WSW   237   9.80    270      -63.9
   01/18/2019 19:10      56.6      55.9       75     48.3      0.00      9.92      56.8     0.50      1025.1     2.1      SW   225   2.9     SSW   203   9.80    270      -64.1
   01/18/2019 19:00      57.4      56.0       73     48.1      0.00      9.92      56.9     0.50      1024.9     1.3     WSW   245   2.4      SW   233   9.80    271      -64.2
   01/18/2019 18:50      57.4      56.9       71     48.0      0.00      9.92      56.9     0.50      1024.8     1.9      SW   225   2.9     WSW   237   9.80    270      -63.6
   01/18/2019 18:40      57.2      56.4       74     48.8      0.00      9.92      56.8     0.50      1024.7     1.7     SSW   202   3.4     SSW   196   9.80    270      -63.4
   01/18/2019 18:30      56.9      55.9       78     49.6      0.00      9.92      56.8     0.50      1024.5     2.1     SSW   213   3.6     SSW   205   9.80    270      -63.4
   01/18/2019 18:20      56.1      55.4       79     49.4      0.00      9.92      56.8     0.50      1024.5     1.8     SSW   191   2.6     SSW   195   9.80    271      -62.9
   01/18/2019 18:10      55.9      54.8       81     49.6      0.00      9.92      56.8     0.50      1024.3     1.2     SSW   206   2.7      SW   220   9.80    270      -64.9
   01/18/2019 18:00      56.4      55.6       83     50.7      0.00      9.92      56.7     0.50      1024.2     0.9     SSW   210   1.8     SSW   213   9.81    271      -66.1
   01/18/2019 17:50      57.2      56.1       81     51.0      0.00      9.92      56.7     0.50      1024.0     0.8     SSE   167   1.9      SE   139   9.81    270      -66.7
   01/18/2019 17:40      58.6      57.0       78     50.8      0.00      9.92      56.7     0.50      1023.9     1.0       S   184   2.1     SSW   204   9.81    271      -66.0
   01/18/2019 17:30      59.2      58.3       76     51.0      0.00      9.92      56.6     0.50      1023.8     1.6       S   188   2.3     SSW   195   9.81    270      -67.3
   01/18/2019 17:20      60.3      58.8       74     51.2      0.00      9.92      56.6     0.50      1023.7     1.3       S   173   2.6     SSE   165   9.81    270      -67.7
   01/18/2019 17:10      60.6      59.9       73     51.5      0.00      9.92      56.6     0.50      1023.7     1.0      SE   126   2.7      SE   146   9.81    269      -65.1
   01/18/2019 17:00      61.3      60.3       72     51.7      0.00      9.92      56.6     0.50      1023.6     1.0     ESE   112   2.9       S   187   9.81    269      -59.9
   01/18/2019 16:50      62.1      60.9       70     51.5      0.00      9.92      56.6     0.50      1023.5     1.6     SSE   148   3.3      SE   134   9.81    269      -55.1
   01/18/2019 16:40      62.7      61.8       69     52.0      0.00      9.92      56.5     0.50      1023.5     1.5      SE   134   3.6      SE   133   9.81    268      -42.4
   01/18/2019 16:30      62.8      62.4       68     51.9      0.00      9.92      56.5     0.50      1023.5     1.9     SSE   149   3.5     ESE   117   9.82    268      -20.6
   01/18/2019 16:20      63.2      62.5       67     51.8      0.00      9.92      56.5     0.50      1023.5     2.2     SSE   164   4.7       S   176   9.82    268       -6.6
   01/18/2019 16:10      63.3      62.8       67     51.7      0.00      9.92      56.4     0.50      1023.4     2.8       S   173   5.2       S   189   9.82    268       23.9
   01/18/2019 16:00      63.6      63.0       66     51.9      0.00      9.92      56.4     0.50      1023.4     2.5       S   169   5.1       S   170   9.82    268       31.3
   01/18/2019 15:50      64.9      63.3       65     52.2      0.00      9.92      56.4     0.50      1023.3     2.7      SE   141   6.0      SE   128   9.82    268       31.8
   01/18/2019 15:40      66.1      64.4       64     52.7      0.00      9.92      56.3     0.50      1023.3     2.2     ESE   115   4.4     SSE   158   9.82    267       85.9
   01/18/2019 15:30      66.5      65.4       62     52.6      0.00      9.92      56.4     0.50      1023.2     1.7     ESE   120   5.0      SE   133   9.82    267      107.5
   01/18/2019 15:20      66.5      65.4       64     53.1      0.00      9.92      56.3     0.51      1023.2     1.7       S   188   5.1       S   186   9.82    267      138.0
   01/18/2019 15:10      66.7      65.3       64     53.4      0.00      9.92      56.3     0.51      1023.1     3.1     ESE   102   6.2     ENE    75   9.82    267      150.3
   01/18/2019 15:00      68.5      66.4       57     51.7      0.00      9.92      56.2     0.50      1023.0     2.8       E    84   9.4     ENE    68   9.82    266      175.4
   01/18/2019 14:50      70.4      68.3       49     49.4      0.00      9.92      56.2     0.50      1022.9     1.2      NE    41   3.8       N     6   9.82    266      163.3
   01/18/2019 14:40      69.2      68.6       47     47.6      0.00      9.92      56.2     0.50      1022.8     1.4     WNW   293   2.5       N    10   9.82    265      176.6
   01/18/2019 14:30      70.0      68.9       46     47.5      0.00      9.92      56.1     0.50      1022.9     1.1     WNW   286   3.0     SSW   199   9.82    265      222.5
   01/18/2019 14:20      69.3      68.3       47     47.9      0.00      9.92      56.1     0.50      1022.9     2.2       W   269   5.7     WNW   293   9.82    265      246.0
   01/18/2019 14:10      69.3      68.5       48     48.2      0.00      9.92      56.1     0.50      1022.9     1.6     WNW   298   3.6      SW   233   9.82    266      262.7
   01/18/2019 14:00      70.1      68.2       47     48.2      0.00      9.92      56.1     0.50      1022.9     2.6       W   260   4.6     WSW   242   9.82    266      274.5
   01/18/2019 13:50      70.4      68.1       46     48.0      0.00      9.92      56.0     0.50      1022.9     0.3      NW   324   1.8     NNW   342   9.82    266      289.7
   01/18/2019 13:40      68.1      67.2       48     47.3      0.00      9.92      56.0     0.50      1022.9     1.5     NNW   334   4.1      NW   326   9.82    266      308.2
   01/18/2019 13:30      68.5      67.3       48     47.7      0.00      9.92      56.0     0.50      1022.9     2.1     WSW   237   5.5     WSW   243   9.82    267      321.7
   01/18/2019 13:20      67.9      66.8       48     46.9      0.00      9.92      56.0     0.50      1023.1     1.5      SW   233   4.0       W   273   9.82    266      326.4
   01/18/2019 13:10      67.0      66.3       50     47.1      0.00      9.92      56.0     0.51      1023.2     1.6     WSW   254   3.8      SW   226   9.83    267      332.2
   01/18/2019 13:00      67.8      66.4       51     48.2      0.00      9.92      55.9     0.50      1023.2     1.3     SSE   159   2.9      SE   142   9.83    267      327.1
   01/18/2019 12:50      67.1      66.0       50     47.2      0.00      9.92      55.9     0.51      1023.4     0.7       E    91   2.2       S   172   9.83    267      300.3
   01/18/2019 12:40      66.0      64.9       52     47.6      0.00      9.92      55.9     0.51      1023.5     1.2       W   259   4.3     WSW   258   9.83    268      414.9
   01/18/2019 12:30      65.7      64.9       54     48.1      0.00      9.92      55.9     0.50      1023.8     0.9     SSE   154   3.9     SSW   208   9.83    268      455.0
   01/18/2019 12:20      66.2      64.9       55     49.0      0.00      9.92      55.9     0.51      1023.9     1.5     WSW   254   3.2     WSW   254   9.83    268      451.4
   01/18/2019 12:10      66.0      64.1       56     48.8      0.00      9.92      55.9     0.51      1023.9     0.4     SSW   207   1.8      SE   131   9.83    268      446.7
   01/18/2019 12:00      64.2      62.2       58     48.2      0.00      9.92      55.9     0.51      1024.1     0.6     WNW   296   1.6     ENE    72   9.83    268      422.8
   01/18/2019 11:50      63.6      62.2       59     48.4      0.00      9.92      55.9     0.51      1024.2     1.4     ENE    64   3.5     NNE    21   9.83    269      410.4
   01/18/2019 11:40      63.8      63.0       59     49.0      0.00      9.92      55.9     0.51      1024.4     0.9      SE   125   3.4      SE   135   9.83    269      418.5
   01/18/2019 11:30      63.0      61.0       64     49.5      0.00      9.92      55.9     0.51      1024.6     0.8     ESE   104   3.3      SE   127   9.83    270      409.4
   01/18/2019 11:20      61.1      59.5       71     51.1      0.00      9.92      55.9     0.51      1024.8     0.9     NNE    21   2.5       N     4   9.83    270      415.5
   01/18/2019 11:10      59.8      58.6       75     51.3      0.00      9.92      55.9     0.51      1025.0     1.5     NNE    30   3.3      NE    40   9.83    271      406.9
   01/18/2019 11:00      59.2      58.5       78     51.9      0.00      9.92      55.9     0.51      1025.2     1.7     NNE    16   3.4     NNE    29   9.83    277      368.0
   01/18/2019 10:50      58.8      56.9       82     52.2      0.00      9.92      55.9     0.51      1025.5     0.6     NNE    24   2.5       N     8   9.83    282      371.0
   01/18/2019 10:40      57.1      55.9       86     52.5      0.00      9.92      56.0     0.51      1025.6     0.7     NNE    15   2.6       S   180   9.83    285      250.6
   01/18/2019 10:30      56.3      55.0       89     52.4      0.00      9.92      55.9     0.51      1025.6     0.8     NNW   344   1.9     NNW   345   9.83    287      245.6
   01/18/2019 10:20      55.0      54.3       91     52.0      0.00      9.92      55.9     0.51      1025.5     0.9       N     2   2.3      NE    39   9.84    289      281.5
   01/18/2019 10:10      54.9      54.0       92     52.0      0.00      9.92      56.0     0.51      1025.4     1.5      NE    40   2.9      NE    56   9.84    292      219.1
   01/18/2019 10:00      54.9      53.7       94     52.5      0.00      9.92      56.0     0.51      1025.3     1.1     ENE    64   2.2      NE    53   9.84    294      224.8
   01/18/2019 09:50      54.0      53.5       95     52.2      0.00      9.92      56.0     0.51      1025.2     0.9     NNW   331   2.9      NE    36   9.84    295      210.5
   01/18/2019 09:40      53.6      52.4       95     51.6      0.00      9.92      56.0     0.51      1025.0     2.0       W   263   4.7       W   262   9.84    305      361.3
   01/18/2019 09:30      52.5      51.8       95     50.7      0.00      9.92      56.0     0.51      1025.1     1.8     WNW   290   3.0       W   276   9.84    342      184.2
   01/18/2019 09:20      52.2      51.7       95     50.5      0.00      9.92      56.0     0.51      1025.0     2.4       W   272   4.4       W   277   9.84    360      125.9
   01/18/2019 09:10      52.0      51.4       96     50.4      0.00      9.92      56.0     0.51      1024.8     1.5       W   265   3.8     WSW   255   9.84    378      117.4
   01/18/2019 09:00      51.6      51.1       96     50.1      0.00      9.92      56.1     0.51      1024.9     1.9       W   266   3.8      SW   230   9.84    395      100.2
   01/18/2019 08:50      51.4      50.9       96     49.9      0.00      9.92      56.1     0.51      1025.0     1.2       W   272   2.9     WSW   255   9.84    405       92.7
   01/18/2019 08:40      51.1      50.8       95     49.6      0.00      9.92      56.1     0.51      1025.1     1.3      SW   220   2.4      SW   217   9.84    410       72.0
   01/18/2019 08:30      51.1      50.7       95     49.7      0.00      9.92      56.1     0.51      1025.0     0.5     ESE   118   2.2       E    96   9.84    412       66.7
   01/18/2019 08:20      51.0      50.5       95     49.3      0.00      9.92      56.1     0.51      1024.8     1.0      NE    39   2.2     ENE    61   9.84    413       53.7
   01/18/2019 08:10      50.9      50.5       95     49.3      0.00      9.92      56.1     0.51      1024.7     0.7     NNE    19   1.6     NNE    26   9.84    414       41.0
   01/18/2019 08:00      51.0      50.5       95     49.3      0.00      9.92      56.2     0.51      1024.6     0.2      NE    35   1.4      NE    54   9.84    415       38.5
   01/18/2019 07:50      51.0      50.4       95     49.2      0.00      9.92      56.2     0.51      1024.5     0.1      SE   125   1.1      SE   135   9.85    417       31.2
   01/18/2019 07:40      50.8      50.2       95     49.1      0.00      9.92      56.2     0.51      1024.4     0.0       N     0   0.0     NNW   340   9.85    413       23.0
   01/18/2019 07:30      50.5      49.8       95     48.9      0.00      9.92      56.2     0.51      1024.3     0.1       N     8   1.2       N     8   9.85    408       12.7
   01/18/2019 07:20      50.0      49.5       95     48.5      0.00      9.92      56.2     0.51      1024.3     0.4       N   354   1.2       N   349   9.85    401        4.5
   01/18/2019 07:10      49.9      49.3       95     48.1      0.00      9.92      56.3     0.51      1024.2     0.0     SSW   199   0.9     SSW   199   9.85    399        1.6
   01/18/2019 07:00      49.7      49.3       95     48.0      0.00      9.92      56.3     0.51      1024.0     0.9       S   188   1.8       S   185   9.85    397        0.3
   01/18/2019 06:50      49.8      49.3       95     48.0      0.00      9.92      56.3     0.51      1024.1     0.4       E    81   1.3     ESE   120   9.85    396       -0.6
   01/18/2019 06:40      49.6      48.9       95     47.9      0.00      9.92      56.3     0.51      1024.1     1.5     SSW   210   2.6      SW   215   9.85    396       -1.0
   01/18/2019 06:30      49.0      48.4       95     47.2      0.00      9.92      56.3     0.51      1024.0     1.0     SSW   201   2.0     SSW   205   9.85    397       -1.2
   01/18/2019 06:20      49.4      48.3       94     47.3      0.00      9.92      56.3     0.51      1024.0     0.1      SE   137   0.8      SE   142   9.85    395       -1.9
   01/18/2019 06:10      49.7      49.0       95     47.8      0.00      9.92      56.3     0.51      1023.7     0.8     WSW   259   2.1     WSW   252   9.85    392       -3.9
   01/18/2019 06:00      50.0      49.3       95     48.0      0.00      9.92      56.3     0.51      1023.3     0.3     SSW   205   1.1     SSW   203   9.85    386       -4.4
   01/18/2019 05:50      49.9      49.2       95     48.2      0.00      9.92      56.4     0.51      1023.1     1.0     ESE   123   2.4      SE   133   9.85    374       -5.1
   01/18/2019 05:40      49.4      48.9       95     47.5      0.00      9.92      56.4     0.51      1023.2     0.5     SSE   156   1.8      SE   141   9.86    358       -3.4
   01/18/2019 05:30      49.0      48.7       95     47.4      0.00      9.92      56.4     0.51      1023.3     0.2     SSE   152   0.9     SSE   148   9.86    352       -1.5
   01/18/2019 05:20      49.0      48.4       94     47.1      0.00      9.92      56.4     0.51      1023.2     0.0      SE   139   0.7      SE   139   9.86    350       -2.7
   01/18/2019 05:10      49.0      48.4       94     47.1      0.00      9.92      56.4     0.51      1023.1     0.5     SSW   191   1.5       S   188   9.86    345       -4.1
   01/18/2019 05:00      49.2      48.6       94     47.1      0.00      9.92      56.4     0.51      1023.0     0.1     SSE   165   0.9       S   174   9.86    337       -4.6
   01/18/2019 04:50      49.6      48.9       94     47.5      0.00      9.92      56.4     0.51      1023.0     0.6     SSE   153   1.2     SSE   147   9.86    330       -4.5
   01/18/2019 04:40      49.9      49.4       94     47.9      0.00      9.92      56.4     0.51      1023.0     0.8       S   179   2.0     SSW   192   9.86    324       -4.6
   01/18/2019 04:30      50.3      49.6       93     48.1      0.00      9.92      56.4     0.51      1023.3     0.6       S   169   1.4       S   182   9.86    318       -4.2
   01/18/2019 04:20      50.9      49.9       93     48.4      0.00      9.92      56.4     0.51      1023.3     0.9     SSW   201   1.5       S   190   9.86    313       -3.7
   01/18/2019 04:10      51.1      50.6       93     48.8      0.00      9.92      56.4     0.51      1023.3     0.6     SSW   212   1.4     WSW   254   9.87    309       -3.6
   01/18/2019 04:00      52.1      51.0       93     49.5      0.00      9.92      56.4     0.51      1023.3     1.2     WSW   239   1.9     WSW   253   9.87    305       -3.4
   01/18/2019 03:50      52.5      51.8       93     49.9      0.00      9.92      56.4     0.51      1023.3     0.5     NNE    30   1.8      NE    46   9.87    300       -4.6
   01/18/2019 03:40      53.0      52.1       92     50.3      0.00      9.92      56.4     0.51      1023.4     0.7     SSE   157   1.7      SE   142   9.87    294       -3.9
   01/18/2019 03:30      53.1      52.5       92     50.6      0.00      9.92      56.5     0.51      1023.4     1.8     SSE   157   4.3       S   190   9.87    289       -3.5
   01/18/2019 03:20      53.5      52.8       92     50.8      0.00      9.92      56.5     0.51      1023.5     1.2     SSW   192   2.8     SSW   202   9.87    285       -2.7
   01/18/2019 03:10      53.3      53.0       92     50.9      0.00      9.92      56.5     0.51      1023.5     0.4      SE   135   1.8     ESE   122   9.87    283       -2.9
   01/18/2019 03:00      53.5      53.0       92     50.8      0.00      9.92      56.5     0.51      1023.6     0.7      SE   143   1.9     ESE   117   9.87    282       -2.0
   01/18/2019 02:50      53.5      53.0       92     50.9      0.00      9.92      56.5     0.51      1023.6     0.2       S   176   1.0       S   183   9.87    281       -2.6
   01/18/2019 02:40      53.6      53.0       92     50.8      0.00      9.92      56.5     0.51      1023.8     0.0     SSE   146   0.4      SE   130   9.87    281       -1.9
   01/18/2019 02:30      53.8      53.2       91     50.9      0.00      9.92      56.5     0.51      1023.6     0.0       N     0   0.0     ENE    57   9.87    281       -2.0
   01/18/2019 02:20      54.1      53.5       91     51.2      0.00      9.92      56.5     0.51      1023.5     0.3     ENE    73   1.0     ENE    60   9.88    280       -2.4
   01/18/2019 02:10      54.4      53.8       91     51.4      0.00      9.92      56.5     0.51      1023.4     0.0      NE    35   0.0      NE    35   9.88    277       -2.5
   01/18/2019 02:00      54.6      54.1       91     51.6      0.00      9.92      56.5     0.51      1023.1     0.0       W   267   0.5       W   267   9.88    275       -2.0
   01/18/2019 01:50      54.4      54.1       91     51.6      0.00      9.92      56.5     0.51      1022.9     0.0     SSW   197   0.1       W   268   9.88    274       -1.9
   01/18/2019 01:40      54.8      54.2       91     51.7      0.00      9.92      56.6     0.52      1022.7     0.3     ENE    75   1.3       E    86   9.88    274       -2.3
   01/18/2019 01:30      54.9      54.4       91     51.9      0.00      9.92      56.5     0.52      1022.6     0.4      NE    38   1.2     NNE    26   9.88    274       -1.9
   01/18/2019 01:20      54.9      54.4       91     51.9      0.00      9.92      56.5     0.52      1022.6     0.7       E    86   2.5       E    97   9.88    273       -1.6
   01/18/2019 01:10      54.8      54.4       91     51.9      0.00      9.92      56.6     0.52      1022.6     0.1      SE   132   1.0      SE   138   9.88    273       -1.6
   01/18/2019 01:00      54.9      54.4       91     51.9      0.00      9.92      56.5     0.52      1022.7     0.0     NNE    32   0.9     ENE    71   9.88    274       -1.3
   01/18/2019 00:50      54.9      54.4       91     52.0      0.00      9.92      56.6     0.52      1022.6     0.0       E    92   0.2       E    92   9.88    273       -1.2
   01/18/2019 00:40      54.8      54.4       90     51.8      0.00      9.92      56.6     0.52      1022.7     0.2      SE   126   1.1     ESE   111   9.88    273       -1.5
   01/18/2019 00:30      54.9      54.4       90     51.8      0.00      9.92      56.6     0.52      1022.8     0.7     SSW   209   1.5      SW   225   9.88    273       -1.3
   01/18/2019 00:20      54.8      54.5       90     51.8      0.00      9.92      56.6     0.52      1022.8     0.0      SE   143   0.3      SE   143   9.89    273       -1.2
   01/18/2019 00:10      54.9      54.5       90     51.7      0.00      9.92      56.6     0.52      1022.9     0.9     ESE   117   1.7      SE   138   9.89    273       -1.5
   01/18/2019 00:00      54.9      54.5       89     51.5      0.00      9.92      56.6     0.52      1023.0     0.7     SSE   165   1.6      SE   140   9.89    273       -1.2
   01/17/2019 23:50      55.0      54.6       89     51.5      0.00      9.92      56.6     0.52      1023.0     0.1      SE   138   0.9      SE   131   9.89    273       -0.9
   01/17/2019 23:40      55.0      54.7       88     51.3      0.00      9.92      56.6     0.52      1023.0     0.0       E    95   0.7       S   180   9.89    273       -0.9
   01/17/2019 23:30      55.4      54.8       87     51.3      0.00      9.92      56.7     0.52      1022.9     0.5     SSE   165   1.8       S   175   9.89    273       -1.5
   01/17/2019 23:20      55.4      55.0       87     51.3      0.00      9.92      56.7     0.52      1023.0     1.1       S   176   2.0     SSW   196   9.89    273       -1.5
   01/17/2019 23:10      55.5      55.1       87     51.4      0.00      9.92      56.6     0.52      1023.1     1.5       S   183   2.4       S   179   9.89    273       -1.0
   01/17/2019 23:00      55.5      55.2       87     51.4      0.00      9.92      56.7     0.52      1023.3     0.5     SSE   161   1.6      SE   144   9.89    273       -0.7
   01/17/2019 22:50      55.7      55.2       86     51.3      0.00      9.92      56.7     0.52      1023.1     1.1       S   175   2.3       S   180   9.89    273       -0.7
   01/17/2019 22:40      55.7      55.1       86     51.3      0.00      9.92      56.7     0.52      1023.0     1.2       S   190   3.7       S   171   9.90    273       -1.4
   01/17/2019 22:30      55.4      55.1       87     51.3      0.00      9.92      56.7     0.52      1023.0     1.3     SSW   195   2.4       S   180   9.90    273       -1.7
   01/17/2019 22:20      55.4      55.0       87     51.4      0.00      9.92      56.7     0.52      1023.2     1.2     SSW   211   3.6      SW   216   9.90    273       -2.6
   01/17/2019 22:10      55.3      54.8       88     51.5      0.00      9.92      56.7     0.52      1023.2     1.7     SSW   211   3.9      SW   230   9.90    273       -3.1
   01/17/2019 22:00      54.9      54.5       89     51.5      0.00      9.92      56.7     0.52      1023.1     2.1      SW   221   3.8     SSW   205   9.90    273       -3.1
   01/17/2019 21:50      54.7      54.1       89     51.3      0.00      9.92      56.7     0.52      1023.0     2.5     SSW   208   4.6      SW   224   9.90    276       -3.2
   01/17/2019 21:40      54.5      54.0       90     51.3      0.00      9.92      56.7     0.52      1023.0     1.5      SW   223   3.0     WSW   243   9.90    283       -3.5
   01/17/2019 21:30      54.3      53.7       90     51.1      0.00      9.92      56.7     0.52      1022.9     2.5     SSW   198   4.1     SSW   195   9.90    285       -2.2
   01/17/2019 21:20      54.0      53.6       90     50.9      0.00      9.92      56.7     0.52      1022.6     1.8     SSW   199   3.0     SSW   198   9.91    287       -2.9
   01/17/2019 21:10      54.0      53.5       91     51.1      0.00      9.92      56.7     0.52      1022.3     2.7     SSW   210   4.6      SW   220   9.91    287       -4.4
   01/17/2019 21:00      53.8      53.3       92     51.4      0.00      9.92      56.8     0.52      1022.3     2.2      SW   227   4.6     SSW   208   9.91    288       -4.3
   01/17/2019 20:50      53.6      53.0       92     51.0      0.00      9.92      56.7     0.52      1022.5     1.9      SW   228   2.9       W   264   9.91    287       -3.0
   01/17/2019 20:40      53.3      52.8       92     50.7      0.00      9.92      56.7     0.53      1022.6     1.6     SSW   208   2.1      SW   225   9.91    285       -2.7
   01/17/2019 20:30      53.8      52.7       91     50.5      0.00      9.92      56.7     0.53      1022.8     1.0       S   176   2.0       S   183   9.91    283       -3.4
   01/17/2019 20:20      54.0      53.5       90     50.8      0.00      9.92      56.7     0.53      1023.1     0.2     SSE   157   1.2     SSE   154   9.92    280       -3.7
   01/17/2019 20:10      54.3      53.7       89     50.9      0.00      9.92      56.7     0.53      1023.2     0.0       N     0   0.0     SSE   159   9.92    277       -3.0
   01/17/2019 20:00      54.7      54.0       89     51.0      0.00      9.92      56.7     0.53      1023.2     0.4     SSE   165   1.4     SSW   208   9.92    275       -3.0
   01/17/2019 19:50      54.9      54.1       88     51.0      0.00      9.92      56.7     0.53      1023.1     1.9      SW   215   3.0      SW   220   9.92    274       -3.3
   01/17/2019 19:40      55.2      54.5       88     51.2      0.00      9.92      56.7     0.53      1022.7     1.3      SW   233   2.0     WSW   242   9.92    273       -3.0
   01/17/2019 19:30      55.7      54.9       86     51.1      0.00      9.92      56.7     0.53      1022.7     0.0       N     0   0.0      SE   143   9.92    273       -2.7
   01/17/2019 19:20      56.1      55.5       84     51.1      0.00      9.92      56.7     0.53      1022.8     0.0      SE   142   0.7     ESE   123   9.92    273       -3.5
   01/17/2019 19:10      56.0      55.6       85     51.3      0.00      9.92      56.7     0.53      1022.8     1.4      SW   231   2.5     WSW   246   9.93    272       -3.1
   01/17/2019 19:00      56.1      55.6       85     51.4      0.00      9.92      56.7     0.53      1022.7     0.6     SSW   193   2.2      SW   229   9.93    272       -2.1
   01/17/2019 18:50      56.3      55.8       84     51.1      0.00      9.92      56.6     0.53      1022.8     0.0     ESE   104   0.6       E    93   9.93    272       -1.9
   01/17/2019 18:40      56.3      55.9       83     50.9      0.00      9.92      56.6     0.53      1022.8     0.3     SSE   154   1.2       S   181   9.93    272       -2.1
   01/17/2019 18:30      56.1      55.8       83     50.9      0.00      9.92      56.6     0.53      1022.6     0.9      SW   230   1.6      SW   224   9.93    272       -2.5
   01/17/2019 18:20      56.0      55.6       83     50.6      0.00      9.92      56.6     0.53      1022.1     1.2     SSW   213   2.9       S   178   9.94    272       -2.9
   01/17/2019 18:10      56.3      55.7       82     50.4      0.00      9.92      56.6     0.53      1022.0     2.4       S   181   4.6       S   182   9.94    272       -3.3
   01/17/2019 18:00      56.2      55.8       81     50.2      0.00      9.92      56.6     0.53      1022.1     2.0     SSW   194   3.6     SSW   211   9.94    272       -3.3
   01/17/2019 17:50      56.6      55.8       80     50.1      0.00      9.92      56.5     0.53      1022.1     1.6       S   179   3.3       S   190   9.94    271       -2.8
   01/17/2019 17:40      57.0      56.3       77     49.5      0.00      9.92      56.5     0.53      1022.2     1.7       S   180   3.1       S   186   9.95    271       -2.9
   01/17/2019 17:30      57.4      56.7       76     49.4      0.00      9.92      56.5     0.53      1022.2     1.9     WSW   241   3.3      SW   235   9.95    271       -3.3
   01/17/2019 17:20      57.3      56.9       75     49.1      0.00      9.92      56.5     0.53      1021.8     1.7       W   270   3.2      NW   305   9.95    271       -2.4
   01/17/2019 17:10      57.6      57.0       73     48.7      0.00      9.92      56.4     0.53      1021.6     2.0      SW   235   4.8     SSW   214   9.95    271       -0.9
   01/17/2019 17:00      57.9      57.4       73     48.9      0.00      9.92      56.5     0.54      1021.6     3.6     WSW   242   5.7     WSW   239   9.96    271        0.8
   01/17/2019 16:50      58.2      57.6       74     49.6      0.00      9.92      56.4     0.54      1021.4     2.3     WSW   257   4.1     WSW   243   9.96    271        5.9
   01/17/2019 16:40      58.5      57.9       76     50.5      0.00      9.92      56.4     0.54      1021.4     2.7       W   262   8.2     SSW   199   9.96    271        8.4
   01/17/2019 16:30      59.0      58.1       79     52.1      0.00      9.92      56.4     0.54      1021.6     3.2      SW   234   6.7      SW   230   9.97    271       11.2
   01/17/2019 16:20      59.3      58.7       79     52.5      0.00      9.92      56.4     0.54      1021.4     3.4     WSW   251   5.8       W   269   9.97    272       13.7
   01/17/2019 16:10      59.6      59.0       80     52.9      0.00      9.92      56.3     0.54      1021.2     2.3       W   279   4.0       W   272   9.97    274       24.8
   01/17/2019 16:00      59.7      59.3       79     52.8      0.00      9.92      56.3     0.54      1021.1     1.7     WSW   251   5.0      SW   235   9.97    280       23.7
   01/17/2019 15:50      59.9      59.3       79     52.9      0.00      9.92      56.3     0.54      1021.2     3.7     WSW   249   6.9      SW   231   9.98    271       19.6
   01/17/2019 15:40      60.4      59.7       78     53.0      0.00      9.92      56.3     0.54      1021.1     3.5     WSW   249   6.4       W   273   9.98    271       36.2
   01/17/2019 15:30      60.5      60.0       76     52.7      0.00      9.92      56.2     0.54      1021.1     3.9     WSW   258   6.6       W   271   9.98    271       86.1
   01/17/2019 15:20      60.8      60.2       76     52.7      0.00      9.92      56.2     0.54      1020.7     3.8     WSW   255   6.3       W   268   9.99    271       92.8
   01/17/2019 15:10      60.9      60.4       77     53.2      0.00      9.92      56.2     0.54      1020.6     2.4     WSW   239   4.1     SSW   201   9.99    271       96.0
   01/17/2019 15:00      61.0      60.5       78     53.7      0.00      9.92      56.2     0.54      1020.6     2.7     WSW   249   5.1      SW   225   9.99    271       93.6
   01/17/2019 14:50      60.9      60.5       79     54.1      0.00      9.92      56.2     0.55      1020.6     2.4     WSW   257   5.0       W   272  10.00    272      102.1
   01/17/2019 14:40      61.4      60.6       81     55.2      0.00      9.92      56.1     0.55      1020.7     2.4     WSW   257   4.3      SW   216  10.00    272       99.3
   01/17/2019 14:30      61.5      60.5       83     56.0      0.00      9.92      56.1     0.55      1020.6     2.0     WNW   286   4.1      NW   308  10.01    272      134.8
   01/17/2019 14:20      60.9      60.2       85     56.1      0.00      9.92      56.0     0.55      1020.4     2.0     WSW   257   4.3      SW   231  10.01    272      152.3
   01/17/2019 14:10      60.5      59.9       87     56.2      0.00      9.92      56.0     0.55      1020.2     2.1      SW   221   3.6      SW   233  10.02    278      132.0
   01/17/2019 14:00      60.2      59.4       88     56.3      0.00      9.92      56.0     0.55      1020.2     1.9      SW   216   4.5      SW   236  10.02    283      139.4
   01/17/2019 13:50      59.7      59.3       90     56.4      0.00      9.92      56.0     0.55      1020.2     3.0     SSW   214   5.6      SW   226  10.03    287      117.6
   01/17/2019 13:40      59.6      59.0       90     56.4      0.00      9.92      56.0     0.55      1020.2     2.8     SSW   204   4.6       S   188  10.04    290      129.7
   01/17/2019 13:30      59.2      58.6       90     56.1      0.00      9.92      56.0     0.55      1020.1     1.8     SSW   192   3.7      SW   229  10.05    294      118.0
   01/17/2019 13:20      58.9      58.5       91     55.9      0.00      9.92      55.9     0.55      1020.0     2.5       S   171   4.6       S   189  10.06    296      100.1
   01/17/2019 13:10      58.8      58.4       91     55.9      0.00      9.92      55.9     0.55      1020.4     2.9      SW   231   7.0     WNW   288  10.07    302       98.9
   01/17/2019 13:00      59.8      58.5       91     56.4      0.01      9.92      55.9     0.55      1020.8     5.4       W   263   9.3     WSW   254  10.08    305      117.8
   01/17/2019 12:50      60.3      59.4       91     57.2      0.02      9.91      55.9     0.55      1020.8     3.4       W   266   5.7       W   262  10.08    369      125.7
   01/17/2019 12:40      60.2      59.8       91     57.3      0.04      9.89      55.9     0.55      1020.9     2.9       W   263   5.6       W   271  10.05    440       91.0
   01/17/2019 12:30      60.1      59.8       90     57.0      0.00      9.85      55.8     0.55      1020.8     2.6       W   259   5.1       W   262  10.04    341      123.3
   01/17/2019 12:20      60.1      59.5       89     56.6      0.00      9.85      55.8     0.55      1020.8     2.4     WSW   258   5.5       W   268  10.04    341      125.6
   01/17/2019 12:10      61.0      59.8       87     56.3      0.01      9.85      55.8     0.55      1021.0     3.7       W   266   6.6     WSW   251  10.04    326      117.1
   01/17/2019 12:00      61.5      60.5       84     56.2      0.00      9.84      55.8     0.55      1021.1     2.5       W   269   4.8     WSW   246  10.04    317       95.7
   01/17/2019 11:50      61.5      61.2       83     56.0      0.00      9.84      55.8     0.55      1021.2     2.2       W   267   5.2     WSW   246  10.04    309      110.0
   01/17/2019 11:40      61.5      61.2       82     55.8      0.00      9.84      55.8     0.55      1021.2     2.5       W   261   4.0       W   268  10.05    308       79.0
   01/17/2019 11:30      61.4      60.9       83     55.8      0.00      9.84      55.8     0.55      1021.4     2.3     WSW   236   3.6     SSW   208  10.05    310      125.2
   01/17/2019 11:20      61.1      60.5       85     56.3      0.00      9.84      55.8     0.55      1021.6     2.7      SW   218   4.8     WSW   237  10.06    312      125.1
   01/17/2019 11:10      60.7      60.1       89     57.0      0.00      9.84      55.7     0.56      1021.7     3.1     WSW   243   5.0      SW   235  10.07    315      134.9
   01/17/2019 11:00      60.5      59.9       91     57.6      0.00      9.84      55.7     0.56      1021.6     2.4       S   177   5.0     SSW   201  10.07    317      148.1
   01/17/2019 10:50      60.4      59.8       92     57.6      0.00      9.84      55.7     0.56      1021.5     1.9       S   169   3.6     ESE   116  10.08    319      113.8
   01/17/2019 10:40      60.1      59.8       92     57.6      0.00      9.84      55.7     0.56      1021.4     2.2       S   174   4.1     SSE   163  10.08    321      134.8
   01/17/2019 10:30      59.9      59.4       92     57.5      0.00      9.84      55.6     0.56      1021.5     2.2       S   180   3.8     SSW   196  10.09    328      125.4
   01/17/2019 10:20      59.8      59.4       92     57.3      0.00      9.84      55.7     0.56      1021.8     1.7     SSW   213   3.2     SSW   206  10.10    340       82.6
   01/17/2019 10:10      60.1      59.4       92     57.4      0.00      9.84      55.7     0.56      1021.8     2.1     WSW   253   3.5     SSW   211  10.10    342       51.1
   01/17/2019 10:00      59.9      59.5       92     57.4      0.00      9.84      55.7     0.56      1021.6     1.0     WSW   238   2.5      SW   218  10.11    329       55.8
   01/17/2019 09:50      59.8      59.4       93     57.4      0.00      9.84      55.6     0.57      1021.5     0.6      SW   230   2.5     WSW   250  10.12    330       50.9
   01/17/2019 09:40      59.8      59.3       93     57.3      0.00      9.84      55.6     0.57      1021.3     0.8      SW   217   2.7     SSW   196  10.12    340       54.0
   01/17/2019 09:30      59.7      59.3       93     57.4      0.01      9.84      55.6     0.57      1021.1     0.3     NNW   348   2.5     WNW   282  10.13    367       44.2
   01/17/2019 09:20      59.6      59.2       92     57.1      0.01      9.83      55.6     0.57      1020.8     0.2      NE    50   1.3      NE    41  10.13    453       27.6
   01/17/2019 09:10      59.6      59.3       92     57.1      0.01      9.82      55.6     0.57      1020.7     0.2     NNE    24   1.5      NE    39  10.13    443       28.3
   01/17/2019 09:00      59.4      59.0       92     56.9      0.02      9.81      55.5     0.57      1020.4     0.2      NE    42   1.2      NE    51  10.13    426       34.8
   01/17/2019 08:50      59.4      59.0       92     56.7      0.01      9.79      55.5     0.57      1020.3     1.2     SSE   152   2.7      SE   131  10.13    447       24.2
   01/17/2019 08:40      59.3      58.8       92     56.6      0.01      9.78      55.5     0.57      1020.2     1.9     SSW   192   4.3      SW   221  10.14    359       33.5
   01/17/2019 08:30      59.3      58.9       91     56.4      0.05      9.77      55.5     0.57      1020.1     2.7     SSW   201   6.4      SW   216  10.15    420       12.9
   01/17/2019 08:20      59.6      59.0       91     56.4      0.04      9.72      55.5     0.56      1020.0     2.7     SSW   206   4.7      SW   217  10.11    463        4.9
   01/17/2019 08:10      59.6      59.1       91     56.6      0.01      9.68      55.5     0.56      1019.7     2.6     SSW   204   5.7     SSW   203  10.10    411        7.2
   01/17/2019 08:00      59.4      58.9       91     56.5      0.00      9.67      55.5     0.56      1019.5     2.5     SSW   201   7.1     SSW   203  10.11    390       30.7
   01/17/2019 07:50      59.4      59.0       91     56.4      0.01      9.67      55.5     0.56      1019.2     1.8       S   173   4.4       S   172  10.11    428        9.5
   01/17/2019 07:40      59.5      59.1       91     56.5      0.02      9.66      55.5     0.56      1019.1     2.7       S   186  10.6       S   172  10.11    446        6.5
   01/17/2019 07:30      59.4      59.0       91     56.6      0.01      9.64      55.4     0.56      1019.1     3.2     SSW   195   8.0       S   179  10.10    380        5.5
   01/17/2019 07:20      59.2      58.7       92     56.6      0.01      9.63      55.4     0.56      1019.3     3.1       S   177   6.2      SW   216  10.10    442        4.1
   01/17/2019 07:10      59.1      58.6       92     56.5      0.01      9.62      55.4     0.56      1019.4     2.3       S   183   6.9     SSW   209  10.10    414        1.2
   01/17/2019 07:00      59.1      58.6       92     56.5      0.01      9.61      55.4     0.56      1019.4     2.1       S   183   5.7     WSW   253  10.10    432        0.3
   01/17/2019 06:50      59.0      58.6       92     56.4      0.01      9.60      55.4     0.56      1019.3     2.8       S   189   5.4     SSE   161  10.10    381        0.0
   01/17/2019 06:40      58.8      58.5       92     56.4      0.01      9.59      55.4     0.56      1019.1     3.5       S   177   6.1       S   183  10.10    422        0.0
   01/17/2019 06:30      58.8      58.4       92     56.4      0.01      9.58      55.4     0.56      1019.0     3.5     SSE   160   5.8     SSE   156  10.10    413        0.0
   01/17/2019 06:20      58.7      58.4       92     56.4      0.00      9.57      55.4     0.56      1018.7     3.3     SSE   166   5.8     SSE   167  10.11    437        0.0
   01/17/2019 06:10      58.7      58.3       93     56.3      0.01      9.57      55.4     0.56      1018.7     3.3       S   178   5.5     SSE   166  10.12    441        0.0
   01/17/2019 06:00      58.6      58.2       93     56.3      0.01      9.56      55.4     0.56      1018.5     2.8     SSE   161   5.2       S   180  10.12    407        0.0
   01/17/2019 05:50      58.5      58.2       93     56.2      0.01      9.55      55.4     0.56      1018.5     3.0     SSE   162   6.9       S   177  10.13    458        0.0
   01/17/2019 05:40      58.4      58.1       92     56.1      0.02      9.54      55.3     0.56      1018.5     2.9     SSE   156   6.1     SSE   166  10.12    460        0.0
   01/17/2019 05:30      58.6      58.1       92     56.0      0.01      9.52      55.3     0.56      1018.5     2.5     SSE   162   6.3       S   188  10.12    432        0.0
   01/17/2019 05:20      58.6      58.2       92     56.0      0.01      9.51      55.3     0.57      1018.4     3.2       S   175   7.3       S   173  10.13    440        0.0
   01/17/2019 05:10      58.8      58.3       92     56.0      0.02      9.50      55.3     0.57      1018.3     4.5     SSE   166   9.4       S   189  10.13    434        0.0
   01/17/2019 05:00      58.6      58.2       92     56.0      0.02      9.48      55.3     0.56      1018.4     4.3       S   176   8.4     SSW   193  10.12    439        0.0
   01/17/2019 04:50      58.5      58.2       92     56.0      0.07      9.46      55.3     0.56      1018.4     4.8     SSE   168  10.3     SSE   168  10.12    439        0.0
   01/17/2019 04:40      58.4      57.9       92     55.8      0.01      9.39      55.3     0.56      1018.5     3.9     SSE   162   9.7     SSE   150  10.09    442        0.0
   01/17/2019 04:30      58.3      57.9       92     55.7      0.00      9.38      55.3     0.56      1018.5     3.2     SSE   156   5.9     SSW   199  10.09    450        0.0
   01/17/2019 04:20      58.2      57.9       92     55.6      0.01      9.38      55.3     0.56      1018.5     2.9     SSE   160   5.2     SSW   200  10.10    444        0.0
   01/17/2019 04:10      58.3      57.9       91     55.5      0.01      9.37      55.2     0.56      1018.7     3.4     SSE   163   6.6       S   183  10.10    454        0.0
   01/17/2019 04:00      58.3      57.9       91     55.5      0.02      9.36      55.2     0.56      1019.1     2.9     SSE   159   6.5     SSE   162  10.10    435        0.0
   01/17/2019 03:50      58.3      57.9       91     55.5      0.01      9.34      55.2     0.56      1019.1     2.3      SE   139   5.4     ESE   112  10.10    466        0.0
   01/17/2019 03:40      58.2      57.9       91     55.5      0.01      9.33      55.2     0.56      1019.2     4.2     SSE   157   9.0       S   176  10.10    450        0.0
   01/17/2019 03:30      58.2      57.7       91     55.4      0.01      9.32      55.2     0.55      1019.2     2.9      SE   134   6.7       S   184  10.10    481       -0.0
   01/17/2019 03:20      58.2      57.7       91     55.3      0.03      9.31      55.2     0.55      1019.5     2.6      SE   132   8.7     ESE   122  10.10    463       -0.0
   01/17/2019 03:10      58.2      57.8       91     55.2      0.02      9.28      55.2     0.55      1019.6     3.7      SE   137   8.0      SE   134  10.09    493       -0.0
   01/17/2019 03:00      58.1      57.8       91     55.3      0.01      9.26      55.2     0.55      1019.6     4.5     SSE   151  10.2      SE   134  10.10    458       -0.1
   01/17/2019 02:50      58.1      57.7       91     55.4      0.01      9.25      55.2     0.54      1019.6     5.6     SSE   160  11.7       S   179  10.10    434       -0.0
   01/17/2019 02:40      58.2      57.7       92     55.5      0.02      9.24      55.2     0.54      1019.6     4.8       S   171  10.3     SSE   159  10.10    427       -0.3
   01/17/2019 02:30      58.1      57.5       92     55.5      0.01      9.22      55.2     0.54      1019.8     3.7     SSE   160   8.8       S   180  10.09    488       -1.1
   01/17/2019 02:20      57.9      57.4       92     55.4      0.01      9.21      55.1     0.54      1020.0     3.0       S   169   8.9     SSW   193  10.09    373       -0.7
   01/17/2019 02:10      58.0      57.5       93     55.6      0.01      9.20      55.2     0.54      1020.1     3.9     SSE   162   7.9       S   176  10.09    437       -0.7
   01/17/2019 02:00      58.1      57.6       94     56.0      0.01      9.19      55.1     0.54      1020.3     4.7     SSE   162   8.6       S   189  10.09    396       -0.9
   01/17/2019 01:50      58.0      57.4       94     56.2      0.01      9.18      55.1     0.54      1020.3     3.1     SSE   162   6.4      SE   143  10.09    440       -0.9
   01/17/2019 01:40      57.8      57.3       95     55.9      0.01      9.17      55.1     0.54      1020.1     1.6      SE   130   3.9      SE   140  10.08    443       -0.4
   01/17/2019 01:30      57.7      57.4       95     55.9      0.00      9.16      55.1     0.54      1020.3     1.4     ESE   105   4.9     SSE   151  10.08    401       -0.4
   01/17/2019 01:20      57.7      57.4       95     56.0      0.03      9.16      55.1     0.54      1020.4     0.9     ESE   117   3.1      SE   138  10.07    473       -0.4
   01/17/2019 01:10      57.6      57.3       95     56.0      0.02      9.13      55.1     0.54      1020.6     2.8     SSE   156   7.2       S   174  10.05    489       -0.5
   01/17/2019 01:00      57.5      57.1       95     55.9      0.00      9.11      55.1     0.54      1020.7     1.3       E    97   5.2     SSW   208  10.04    375       -0.2
   01/17/2019 00:50      57.5      57.0       95     55.9      0.00      9.11      55.1     0.54      1020.8     0.1      NE    48   1.0      NE    38  10.04    344       -0.5
   01/17/2019 00:40      57.6      57.2       95     56.0      0.00      9.11      55.1     0.54      1020.9     1.8       E    85   6.6      NE    53  10.05    376       -0.5
   01/17/2019 00:30      57.6      57.2       95     56.0      0.00      9.11      55.1     0.54      1021.2     0.8     ENE    70   2.7     ENE    75  10.05    436       -0.0
   01/17/2019 00:20      57.5      57.0       95     55.9      0.01      9.11      55.1     0.54      1021.4     0.9       E   100   4.0      SE   133  10.05    415       -0.0
   01/17/2019 00:10      57.4      56.9       95     55.8      0.01      9.10      55.1     0.54      1021.7     0.6     ENE    63   1.8     ENE    68  10.05    443        0.1
   01/17/2019 00:00      57.3      56.9       96     55.8      0.01      9.09      55.1     0.54      1021.8     0.7       E    89   2.4     SSE   165  10.05    457       -0.1
   01/16/2019 23:50      57.1      56.6       95     55.5      0.00      9.08      55.0     0.54      1021.9     0.2       E    83   1.5      NE    53  10.04    454        0.1
   01/16/2019 23:40      57.0      56.6       95     55.4      0.02      9.08      55.1     0.54      1022.0     0.3      NE    43   1.5      NE    56  10.04    450        0.2
   01/16/2019 23:30      57.2      56.8       95     55.6      0.00      9.06      55.0     0.54      1022.3     0.2      NE    42   1.1     NNE    32  10.03    435        0.3
   01/16/2019 23:20      57.5      56.9       95     55.8      0.00      9.06      55.0     0.54      1022.3     0.0      NE    56   0.4     NNE    28  10.03    374        0.0
   01/16/2019 23:10      57.2      56.5       96     55.6      0.01      9.06      55.0     0.54      1022.2     0.2     SSW   201   1.2     SSW   207  10.03    435        0.0
   01/16/2019 23:00      56.8      56.3       95     55.1      0.01      9.05      55.0     0.54      1022.1     0.3     SSW   194   2.0     SSW   194  10.03    435       -0.2
   01/16/2019 22:50      56.5      56.1       95     54.9      0.00      9.04      55.0     0.54      1022.0     0.2     WSW   237   1.2      SW   229  10.03    374        0.0
   01/16/2019 22:40      56.6      56.1       95     54.9      0.00      9.04      55.0     0.54      1021.8     0.0     WNW   298   0.4     WNW   298  10.04    378        0.0
   01/16/2019 22:30      56.6      56.1       95     54.9      0.01      9.04      55.0     0.54      1022.0     0.0      NW   305   0.2      NW   305  10.04    439        0.0
   01/16/2019 22:20      56.4      56.0       95     54.8      0.00      9.03      55.0     0.54      1022.0     0.0      NE    49   0.5      NE    49  10.04    435       -0.0
   01/16/2019 22:10      56.3      56.0       95     54.7      0.01      9.03      55.0     0.54      1021.8     0.0     ENE    69   1.0     ENE    60  10.04    446       -0.1
   01/16/2019 22:00      56.3      55.9       95     54.7      0.01      9.02      55.0     0.55      1021.8     0.2     ENE    70   1.7     NNE    30  10.04    439       -0.2
   01/16/2019 21:50      56.3      56.0       95     54.7      0.00      9.01      55.0     0.55      1021.7     1.5     ENE    61   3.5     ENE    67  10.04    376       -0.2
   01/16/2019 21:40      56.3      55.9       95     54.6      0.00      9.01      54.9     0.55      1021.6     1.6      NE    51   3.0     ENE    60  10.04    353       -0.2
   01/16/2019 21:30      56.4      55.9       95     54.6      0.00      9.01      54.9     0.55      1021.4     1.2      NE    53   2.2     NNE    29  10.05    351       -0.2
   01/16/2019 21:20      56.3      55.9       95     54.6      0.00      9.01      54.9     0.55      1021.3     1.5     ENE    69   3.2      NE    38  10.05    427       -0.2
   01/16/2019 21:10      56.3      55.9       95     54.6      0.00      9.01      54.9     0.55      1021.4     1.1       E    90   3.7     ENE    78  10.06    367       -0.2
   01/16/2019 21:00      56.3      55.9       95     54.6      0.00      9.01      54.9     0.55      1021.3     0.2      NE    46   1.1      NE    47  10.06    364       -0.4
   01/16/2019 20:50      56.3      55.8       95     54.6      0.00      9.01      54.9     0.55      1021.3     0.8     NNE    29   2.3      NW   320  10.07    348       -0.7
   01/16/2019 20:40      56.2      55.7       95     54.5      0.00      9.01      54.9     0.55      1021.6     0.4       N   351   1.2      NE    49  10.08    386       -0.9
   01/16/2019 20:30      56.0      55.6       95     54.3      0.00      9.01      54.8     0.55      1021.3     0.0     ESE   102   0.7     ESE   109  10.08    380       -1.0
   01/16/2019 20:20      56.2      55.6       95     54.4      0.00      9.01      54.8     0.55      1021.3     0.0       E    83   0.2      SE   127  10.09    356       -1.7
   01/16/2019 20:10      56.3      55.8       95     54.6      0.00      9.01      54.8     0.56      1021.5     0.0      NE    49   0.2      NE    49  10.10    354       -1.5
   01/16/2019 20:00      56.4      56.0       95     54.6      0.00      9.01      54.8     0.56      1021.5     0.1     NNE    24   1.2     NNW   340  10.11    355       -1.2
   01/16/2019 19:50      56.3      56.0       95     54.6      0.00      9.01      54.8     0.56      1021.4     0.3      NE    55   1.2      NE    53  10.12    358       -1.2
   01/16/2019 19:40      56.3      55.9       95     54.6      0.00      9.01      54.8     0.56      1021.5     0.0       N     0   0.0     ENE    67  10.13    360       -0.5
   01/16/2019 19:30      56.4      55.9       95     54.6      0.00      9.01      54.7     0.56      1021.3     0.2       E    86   1.1     ENE    67  10.14    363       -0.5
   01/16/2019 19:20      56.5      56.0       95     54.6      0.00      9.01      54.7     0.57      1021.2     0.6      NE    55   1.9     ENE    61  10.15    374       -0.6
   01/16/2019 19:10      56.8      56.3       95     54.9      0.01      9.01      54.7     0.57      1021.0     0.7     NNE    31   2.0     ENE    67  10.17    409       -0.4
   01/16/2019 19:00      56.7      56.4       95     55.0      0.01      9.00      54.7     0.56      1020.9     0.3     NNE    17   1.3      NE    43  10.18    442       -0.5
   01/16/2019 18:50      56.8      56.4       95     55.0      0.05      8.99      54.6     0.56      1021.0     0.9     WSW   259   2.1     WSW   248  10.18    455       -0.3
   01/16/2019 18:40      56.8      56.4       95     55.0      0.01      8.94      54.5     0.55      1020.9     0.0     NNE    17   0.9     NNE    17  10.17    409       -0.3
   01/16/2019 18:30      56.9      56.4       95     55.0      0.02      8.93      54.5     0.53      1020.7     0.1     NNE    18   1.0     NNE    21  10.18    439       -0.8
   01/16/2019 18:20      56.9      56.4       94     55.0      0.06      8.91      54.5     0.52      1020.7     0.0       E   101   0.9     ESE   102  10.16    470       -0.9
   01/16/2019 18:10      56.9      56.4       94     55.0      0.07      8.85      54.5     0.52      1020.7     0.8     ESE   121   3.4      SE   126  10.10    467       -1.0
   01/16/2019 18:00      56.9      56.5       94     55.0      0.01      8.78      54.4     0.51      1020.5     1.5       E    84   3.5       E    90  10.05    448       -1.1
   01/16/2019 17:50      57.1      56.6       94     55.2      0.00      8.77      54.4     0.51      1020.5     1.1     ENE    59   2.0       W   279  10.05    397       -1.1
   01/16/2019 17:40      57.2      56.8       94     55.3      0.00      8.77      54.4     0.51      1020.5     0.7     ENE    69   2.9     ENE    65  10.06    407       -1.1
   01/16/2019 17:30      57.2      56.8       94     55.3      0.00      8.77      54.4     0.51      1020.5     0.8       E    84   2.3       E    97  10.06    440       -1.1
   01/16/2019 17:20      57.4      56.9       94     55.3      0.01      8.77      54.3     0.51      1020.6     0.8     ENE    65   2.0     ENE    67  10.07    463       -0.6
   01/16/2019 17:10      57.5      57.0       94     55.4      0.02      8.76      54.3     0.51      1020.7     0.0     ENE    71   0.0     ENE    71  10.07    473       -0.1
   01/16/2019 17:00      57.4      57.0       94     55.3      0.07      8.74      54.3     0.51      1020.8     0.0     ENE    62   0.6     ENE    61  10.06    458        1.4
   01/16/2019 16:50      57.6      57.0       94     55.3      0.00      8.67      54.2     0.50      1020.8     0.5      SE   136   2.5     ESE   121  10.00    496        1.5
   01/16/2019 16:40      57.6      57.0       94     55.5      0.01      8.67      54.2     0.50      1020.7     0.9     ENE    70   3.8      NE    55  10.00    414        2.1
   01/16/2019 16:30      57.6      57.2       94     55.5      0.00      8.66      54.2     0.50      1020.6     1.3     ENE    70   2.9      NE    46   9.99    462        5.7
   01/16/2019 16:20      57.7      57.3       94     55.6      0.00      8.66      54.1     0.50      1020.6     1.8     ENE    63   4.2     NNE    29   9.99    359       20.3
   01/16/2019 16:10      57.7      57.4       94     55.7      0.00      8.66      54.2     0.50      1020.7     1.5      NE    49   2.8     ENE    58   9.99    412       31.2
   01/16/2019 16:00      57.7      57.4       94     55.7      0.01      8.66      54.1     0.50      1020.7     1.5      NE    43   3.5      NE    54   9.99    431       26.9
   01/16/2019 15:50      57.8      57.4       93     55.6      0.00      8.65      54.1     0.50      1020.9     1.2      NE    51   2.5     ENE    67   9.99    356       25.4
   01/16/2019 15:40      57.8      57.4       93     55.6      0.00      8.65      54.0     0.50      1021.0     1.0     ENE    64   2.6     ENE    57   9.99    341       25.9
   01/16/2019 15:30      57.7      57.3       93     55.6      0.00      8.65      54.0     0.50      1021.1     0.2       E    92   1.7     ESE   116   9.99    395       29.0
   01/16/2019 15:20      57.6      57.0       93     55.3      0.00      8.65      54.0     0.50      1021.1     1.3     ENE    71   3.9     ENE    68   9.99    411       37.2
   01/16/2019 15:10      57.6      57.2       93     55.4      0.01      8.65      54.0     0.50      1021.0     1.8     ENE    72   5.1       E    99   9.98    461       29.7
   01/16/2019 15:00      57.8      57.4       93     55.4      0.00      8.64      53.9     0.50      1020.9     1.9     ENE    66   4.6     ENE    66   9.98    422       43.0
   01/16/2019 14:50      57.7      57.4       93     55.4      0.01      8.64      53.9     0.50      1020.9     1.4      NE    56   4.1     NNE    20   9.98    429       40.1
   01/16/2019 14:40      57.9      57.4       92     55.3      0.00      8.63      53.9     0.50      1020.8     1.7     ENE    74   4.0       E    96   9.98    394       53.3
   01/16/2019 14:30      57.7      57.4       92     55.3      0.01      8.63      53.9     0.50      1020.8     2.0     ENE    71   7.0       E   100   9.97    452       70.9
   01/16/2019 14:20      58.1      57.4       92     55.3      0.00      8.62      53.9     0.50      1020.9     3.0       E    85   6.2     ENE    72   9.97    426       67.3
   01/16/2019 14:10      58.2      57.5       92     55.4      0.00      8.62      53.8     0.50      1020.8     2.6       E    81   7.2     ENE    77   9.97    368       54.9
   01/16/2019 14:00      58.5      58.0       92     55.8      0.00      8.62      53.8     0.50      1020.6     2.7       E    81   7.4       E    83   9.97    401      115.0
   01/16/2019 13:50      58.3      57.9       92     55.6      0.00      8.62      53.7     0.50      1020.8     2.9       E    92   6.8     ESE   105   9.96    354      199.3
   01/16/2019 13:40      58.2      57.9       92     55.6      0.00      8.62      53.7     0.51      1020.8     2.4       E    81   4.9     ESE   104   9.96    351      161.8
   01/16/2019 13:30      58.2      57.5       91     55.3      0.00      8.62      53.7     0.51      1020.9     2.9       E    80   6.1       E    88   9.96    374      136.9
   01/16/2019 13:20      58.2      57.5       91     55.3      0.01      8.62      53.7     0.51      1020.9     2.9       E    91   5.6      SE   129   9.96    422      135.7
   01/16/2019 13:10      58.2      57.6       92     55.4      0.00      8.61      53.7     0.51      1020.8     2.6       E    89   6.0      SE   125   9.96    428      109.4
   01/16/2019 13:00      58.2      57.4       92     55.3      0.00      8.61      53.6     0.51      1020.9     2.8       E    94   6.4     ESE   109   9.96    378      102.8
   01/16/2019 12:50      58.1      57.5       92     55.5      0.00      8.61      53.6     0.51      1021.0     3.5       E    86   7.6       E    90   9.96    385      167.6
   01/16/2019 12:40      58.3      57.8       92     55.8      0.00      8.61      53.6     0.51      1021.1     3.1       E    93   6.8      SE   124   9.96    342      219.1
   01/16/2019 12:30      58.1      57.6       93     55.8      0.00      8.61      53.6     0.51      1021.2     2.7     ENE    74   6.9     ENE    69   9.96    340      227.5
   01/16/2019 12:20      58.0      57.5       93     55.7      0.00      8.61      53.6     0.51      1021.3     3.1     ENE    72   7.7     ESE   104   9.96    358      183.3
   01/16/2019 12:10      57.7      57.4       93     55.6      0.00      8.61      53.5     0.51      1021.5     3.0     ENE    71   6.2      NE    55   9.96    351      191.6
   01/16/2019 12:00      57.9      57.5       93     55.7      0.00      8.61      53.5     0.51      1021.7     1.9     ENE    76   5.2     ENE    78   9.96    367      128.4
   01/16/2019 11:50      57.8      57.2       93     55.6      0.00      8.61      53.5     0.51      1021.9     2.7     ENE    76   7.0       E    99   9.96    368      186.1
   01/16/2019 11:40      57.7      57.2       94     55.6      0.00      8.61      53.5     0.51      1022.1     2.9       E    96   5.7     ESE   112   9.96    404      233.7
   01/16/2019 11:30      57.7      57.0       94     55.6      0.00      8.61      53.5     0.51      1022.2     2.9       E    89   5.9       E    93   9.95    440      201.0
   01/16/2019 11:20      57.5      57.0       94     55.4      0.00      8.61      53.5     0.51      1022.3     2.2       E    91   5.1     ESE   113   9.95    434      185.8
   01/16/2019 11:10      57.7      57.0       94     55.8      0.00      8.61      53.5     0.51      1022.3     2.8     ENE    65   5.2     ENE    57   9.95    328      208.8
   01/16/2019 11:00      57.4      56.1       95     55.2      0.00      8.61      53.5     0.51      1022.5     2.8       E    81   7.4     ESE   113   9.95    324      337.8
   01/16/2019 10:50      56.3      55.5       95     54.5      0.00      8.61      53.4     0.51      1022.7     1.9       E    86   4.7     ESE   106   9.95    314      156.0
   01/16/2019 10:40      55.6      55.3       95     54.0      0.00      8.61      53.5     0.51      1022.9     1.0      NE    56   2.2     SSE   155   9.95    343       99.0
   01/16/2019 10:30      55.4      54.8       95     53.6      0.00      8.61      53.4     0.51      1022.9     1.1      NE    42   2.2      NE    54   9.96    335       74.7
   01/16/2019 10:20      55.2      54.8       95     53.5      0.00      8.61      53.4     0.51      1022.9     1.5      NE    36   2.8     ENE    62   9.96    344       86.2
   01/16/2019 10:10      55.1      54.5       95     53.4      0.00      8.61      53.4     0.51      1022.9     1.3     NNE    33   3.0     NNE    16   9.96    345      109.4
   01/16/2019 10:00      55.0      54.4       95     53.3      0.00      8.61      53.4     0.51      1022.8     1.7      NE    51   3.1      NE    47   9.96    403       96.1
   01/16/2019 09:50      54.7      54.1       95     52.9      0.00      8.61      53.4     0.51      1022.6     1.5      NE    56   3.9      NE    54   9.96    407      115.1
   01/16/2019 09:40      54.3      54.0       95     52.7      0.00      8.61      53.4     0.51      1022.4     1.7      NE    49   3.7      NE    51   9.96    416       83.5
   01/16/2019 09:30      54.3      53.9       95     52.6      0.01      8.61      53.4     0.51      1022.2     1.6      NE    55   2.8      NE    38   9.96    479       96.5
   01/16/2019 09:20      54.3      53.7       95     52.5      0.00      8.60      53.4     0.51      1022.0     1.5     ENE    57   2.9      NE    52   9.96    464       81.5
   01/16/2019 09:10      54.1      53.6       95     52.4      0.00      8.60      53.4     0.51      1022.0     1.1      NE    46   2.1      NE    53   9.96    442       99.7
   01/16/2019 09:00      54.0      53.5       95     52.2      0.00      8.60      53.4     0.51      1021.9     0.8      NE    47   2.0     NNE    27   9.96    394       82.7
   01/16/2019 08:50      53.7      53.3       95     52.1      0.00      8.60      53.4     0.51      1021.8     0.4      NE    42   1.4     ENE    58   9.96    315       55.4
   01/16/2019 08:40      54.0      53.4       95     52.1      0.00      8.60      53.4     0.51      1021.7     0.1     NNE    28   0.6     NNE    30   9.97    318       57.1
   01/16/2019 08:30      53.8      53.1       95     52.0      0.00      8.60      53.4     0.51      1021.6     0.2       N   355   1.1     NNE    17   9.97    323       97.4
   01/16/2019 08:20      53.4      52.9       95     51.7      0.00      8.60      53.4     0.51      1021.5     0.4       N     8   1.6       N     3   9.97    333       66.8
   01/16/2019 08:10      53.1      52.5       95     51.5      0.00      8.60      53.4     0.51      1021.5     0.0     WNW   292   0.9       W   279   9.97    339       62.9
   01/16/2019 08:00      52.7      52.3       95     51.2      0.00      8.60      53.4     0.51      1021.4     0.5       W   262   1.5       W   259   9.97    347       44.0
   01/16/2019 07:50      52.5      52.1       95     51.0      0.00      8.60      53.4     0.51      1021.3     1.1      SW   227   2.1      SW   228   9.97    330       32.0
   01/16/2019 07:40      52.5      52.0       95     51.0      0.00      8.60      53.4     0.51      1021.2     1.0      SW   226   1.8      SW   219   9.97    324       23.7
   01/16/2019 07:30      52.3      51.9       95     50.8      0.00      8.60      53.4     0.51      1021.2     0.5     WSW   242   1.0     WSW   257   9.97    326       11.4
   01/16/2019 07:20      52.2      51.9       95     50.7      0.00      8.60      53.4     0.51      1021.0     0.0       N     0   0.0      SE   142   9.98    326        5.8
   01/16/2019 07:10      52.1      51.8       95     50.7      0.00      8.60      53.4     0.51      1020.9     0.0       N     0   0.0      SE   141   9.98    326        2.9
   01/16/2019 07:00      52.1      51.8       95     50.6      0.00      8.60      53.3     0.51      1020.9     0.2      SE   143   1.3      SE   144   9.98    326        0.7
   01/16/2019 06:50      52.1      51.8       95     50.6      0.00      8.60      53.3     0.51      1020.9     0.6     SSW   193   1.2      SW   217   9.98    327        0.2
   01/16/2019 06:40      52.1      51.7       95     50.7      0.00      8.60      53.3     0.51      1020.8     0.3      SW   215   1.0      SW   214   9.98    328       -0.0
   01/16/2019 06:30      52.1      51.8       95     50.6      0.00      8.60      53.4     0.51      1020.7     0.4     NNW   331   1.6     NNW   338   9.99    329       -0.0
   01/16/2019 06:20      52.1      51.7       95     50.6      0.00      8.60      53.3     0.51      1020.6     0.9      NW   309   1.8     WNW   292   9.99    330       -0.0
   01/16/2019 06:10      52.0      51.7       95     50.6      0.00      8.60      53.3     0.51      1020.5     0.3      NW   309   1.0      NW   317   9.99    332       -0.0
   01/16/2019 06:00      52.0      51.7       95     50.5      0.00      8.60      53.3     0.52      1020.3     0.6     WNW   301   1.6      NW   313   9.99    333       -0.1
   01/16/2019 05:50      52.0      51.6       95     50.5      0.00      8.60      53.3     0.52      1020.2     0.9     WNW   293   1.8      NW   311   9.99    335       -0.0
   01/16/2019 05:40      52.0      51.6       95     50.5      0.00      8.60      53.3     0.52      1020.2     0.7     WSW   248   1.4       W   264  10.00    337       -0.2
   01/16/2019 05:30      51.9      51.6       95     50.5      0.00      8.60      53.3     0.52      1020.1     0.0     NNE    16   0.4     NNE    16  10.00    340       -0.0
   01/16/2019 05:20      51.9      51.6       95     50.4      0.00      8.60      53.3     0.52      1020.0     0.3       N     1   1.3       N     8  10.00    373       -0.0
   01/16/2019 05:10      51.9      51.5       95     50.3      0.00      8.60      53.3     0.52      1020.0     0.2     ESE   120   1.0      SE   127  10.00    377        0.0
   01/16/2019 05:00      51.9      51.4       95     50.3      0.00      8.60      53.3     0.52      1020.0     0.4      SE   126   1.3     ESE   116  10.00    377        0.0
   01/16/2019 04:50      51.9      51.4       95     50.3      0.00      8.60      53.3     0.52      1020.1     0.5      SE   132   1.7      SE   137  10.01    360       -0.0
   01/16/2019 04:40      51.9      51.5       95     50.3      0.00      8.60      53.3     0.52      1020.2     0.0       E    97   0.8       E   101  10.01    341        0.0
   01/16/2019 04:30      51.8      51.4       95     50.3      0.00      8.60      53.3     0.52      1020.3     0.0     ENE    62   0.9      SE   143  10.01    340       -0.0
   01/16/2019 04:20      51.9      51.4       95     50.2      0.00      8.60      53.3     0.52      1020.4     0.5     SSE   148   1.4      SE   140  10.01    340        0.0
   01/16/2019 04:10      51.8      51.4       95     50.2      0.00      8.60      53.3     0.52      1020.6     0.1       S   174   1.2      SE   136  10.01    341       -0.2
   01/16/2019 04:00      51.6      51.3       95     50.1      0.00      8.60      53.3     0.52      1020.7     1.6     WSW   255   2.9     WSW   255  10.02    341       -0.5
   01/16/2019 03:50      51.5      51.1       95     49.9      0.00      8.60      53.3     0.52      1020.5     1.5      SW   227   2.3      SW   235  10.02    339       -0.4
   01/16/2019 03:40      51.7      51.2       95     49.9      0.00      8.60      53.3     0.52      1020.3     0.5       E    98   1.6     SSW   206  10.02    378       -2.2
   01/16/2019 03:30      51.9      51.4       95     50.2      0.01      8.60      53.3     0.52      1020.4     0.6      NE    45   1.5      NE    53  10.02    406       -0.8
   01/16/2019 03:20      51.8      51.4       95     50.2      0.00      8.59      53.3     0.52      1020.5     0.0       N     0   0.0      NE    35  10.02    426       -0.0
   01/16/2019 03:10      51.8      51.4       95     50.1      0.00      8.59      53.3     0.52      1020.6     0.0     NNW   333   1.0      NW   314  10.02    436       -0.0
   01/16/2019 03:00      51.7      51.3       95     50.0      0.01      8.59      53.3     0.52      1020.5     0.3       W   262   1.8      SW   232  10.02    444       -0.0
   01/16/2019 02:50      51.6      51.3       95     50.1      0.00      8.58      53.3     0.52      1020.4     0.7     WSW   248   2.1     WNW   286  10.02    395       -0.0
   01/16/2019 02:40      51.6      51.3       95     50.0      0.00      8.58      53.3     0.52      1020.3     1.1     WNW   288   2.1     WNW   284  10.02    353       -0.0
   01/16/2019 02:30      51.6      51.3       95     50.0      0.00      8.58      53.3     0.52      1020.2     0.2      NW   308   1.4       W   270  10.02    380       -0.2
   01/16/2019 02:20      51.6      51.2       95     49.9      0.00      8.58      53.3     0.52      1020.2     0.0      NW   308   0.7     NNW   327  10.02    384       -0.3
   01/16/2019 02:10      51.5      51.1       95     49.9      0.00      8.58      53.3     0.52      1020.2     0.0       N     0   0.0     WNW   287  10.02    374       -0.1
   01/16/2019 02:00      51.4      51.0       95     49.8      0.00      8.58      53.3     0.53      1020.1     0.2      SW   227   0.9      SW   226  10.02    374       -0.3
   01/16/2019 01:50      51.3      51.0       95     49.7      0.01      8.58      53.3     0.53      1020.1     0.8      SW   219   1.6      SW   219  10.02    382       -0.5
   01/16/2019 01:40      51.3      51.0       95     49.6      0.00      8.57      53.3     0.53      1020.0     0.0       N     0   0.0       E    79  10.02    397       -0.2
   01/16/2019 01:30      51.3      50.9       95     49.6      0.00      8.57      53.3     0.53      1019.9     0.0       N     0   0.0       E    79  10.02    432       -0.2
   01/16/2019 01:20      51.3      50.9       95     49.6      0.01      8.57      53.3     0.53      1019.8     0.2       E    94   0.7       E    95  10.02    446       -0.2
   01/16/2019 01:10      51.3      51.0       95     49.6      0.00      8.56      53.3     0.53      1019.8     0.5      SW   215   1.7      SW   217  10.02    333       -0.4
   01/16/2019 01:00      51.3      50.8       95     49.6      0.00      8.56      53.3     0.53      1019.8     0.5       W   273   1.9      NW   318  10.02    327       -0.6
   01/16/2019 00:50      51.2      50.6       95     49.4      0.00      8.56      53.3     0.53      1019.7     0.5     WSW   238   1.5     WNW   288  10.02    329       -0.7
   01/16/2019 00:40      51.1      50.6       95     49.3      0.00      8.56      53.3     0.53      1019.7     0.0      SW   234   0.4      SW   234  10.02    331       -0.7
   01/16/2019 00:30      51.0      50.5       95     49.2      0.00      8.56      53.3     0.53      1019.7     0.9      SW   222   2.0      SW   220  10.02    330       -1.0
   01/16/2019 00:20      50.8      50.4       95     49.1      0.00      8.56      53.3     0.53      1019.6     0.0       N     0   0.0     NNE    21  10.03    331       -1.0
   01/16/2019 00:10      50.7      50.3       95     48.9      0.00      8.56      53.3     0.53      1019.7     0.4     SSW   207   1.0       S   191  10.03    330       -0.6
   01/16/2019 00:00      51.0      50.4       95     49.1      0.00      8.56      53.3     0.53      1019.7     0.7       S   173   1.8       S   188  10.03    331       -1.5
   01/15/2019 23:50      50.9      50.5       95     49.2      0.00      8.56      53.3     0.53      1019.7     0.0       N     0   0.0     ENE    68  10.03    330       -0.7
   01/15/2019 23:40      50.8      50.5       95     49.0      0.00      8.56      53.3     0.53      1019.7     0.0     NNE    29   0.8     NNE    27  10.04    329       -0.7
   01/15/2019 23:30      50.8      50.3       94     49.0      0.00      8.56      53.3     0.53      1019.7     0.3       W   264   1.6       W   273  10.04    328       -0.8
   01/15/2019 23:20      50.6      50.3       94     48.9      0.00      8.56      53.3     0.53      1019.7     0.0       N     0   0.0     SSE   165  10.04    356       -0.7
   01/15/2019 23:10      50.6      50.2       94     48.8      0.00      8.56      53.3     0.53      1019.7     0.0     SSW   213   0.8     SSW   213  10.04    352       -0.7
   01/15/2019 23:00      50.6      50.3       94     48.9      0.00      8.56      53.3     0.53      1019.7     0.2       W   264   0.9     NNW   340  10.05    354       -1.3
   01/15/2019 22:50      50.6      50.2       94     48.9      0.00      8.56      53.3     0.53      1019.5     0.4       S   186   2.1      SW   224  10.05    355       -1.5
   01/15/2019 22:40      50.6      50.2       94     48.8      0.00      8.56      53.3     0.53      1019.4     1.4      SW   221   2.4     WSW   240  10.06    355       -1.7
   01/15/2019 22:30      50.8      50.3       94     48.9      0.00      8.56      53.3     0.53      1019.3     0.7     SSW   209   2.3     SSW   197  10.06    357       -1.1
   01/15/2019 22:20      50.6      50.3       94     48.9      0.00      8.56      53.3     0.53      1019.2     0.2      SW   235   1.6       W   270  10.06    361       -0.8
   01/15/2019 22:10      50.6      50.3       94     48.8      0.00      8.56      53.3     0.53      1019.0     0.6      NW   314   2.6     WNW   303  10.06    376       -0.8
   01/15/2019 22:00      50.5      50.2       94     48.8      0.01      8.56      53.3     0.53      1019.0     0.9       W   270   2.6       W   266  10.06    449       -0.8
   01/15/2019 21:50      50.5      50.2       94     48.7      0.00      8.55      53.3     0.53      1018.9     1.3      SW   236   3.0     WSW   247  10.06    367       -0.8
   01/15/2019 21:40      50.5      50.2       94     48.7      0.01      8.55      53.3     0.53      1018.9     0.4     NNW   328   1.9      NW   315  10.06    438       -0.8
   01/15/2019 21:30      50.5      50.1       94     48.7      0.01      8.54      53.3     0.53      1018.7     0.7     NNW   338   2.2     NNW   341  10.06    457       -0.8
   01/15/2019 21:20      50.5      50.1       94     48.7      0.00      8.53      53.3     0.53      1018.6     0.9     WNW   282   2.7     WNW   290  10.06    397       -0.9
   01/15/2019 21:10      50.6      50.0       94     48.6      0.00      8.53      53.3     0.53      1018.6     0.8       N     5   2.4     NNE    12  10.06    388       -1.1
   01/15/2019 21:00      50.3      49.9       94     48.4      0.01      8.53      53.2     0.53      1018.6     1.2       N     0   3.0       N     6  10.06    386       -1.1
   01/15/2019 20:50      50.1      49.8       94     48.3      0.00      8.52      53.3     0.53      1018.6     0.3      NE    39   1.4     NNE    32  10.07    383       -1.3
   01/15/2019 20:40      50.1      49.8       94     48.3      0.00      8.52      53.3     0.53      1018.5     0.8     ENE    59   2.4     ENE    67  10.08    393       -1.6
   01/15/2019 20:30      50.1      49.7       94     48.2      0.01      8.52      53.3     0.53      1018.4     1.3       E    88   4.6       E    88  10.08    423       -1.3
   01/15/2019 20:20      50.1      49.7       94     48.1      0.01      8.51      53.3     0.53      1018.2     2.2     ESE   107   5.1     ESE   117  10.08    424       -1.4
   01/15/2019 20:10      50.1      49.7       94     48.0      0.01      8.50      53.3     0.52      1017.9     2.8     ESE   103   7.4     ENE    72  10.09    450       -1.3
   01/15/2019 20:00      50.1      49.7       93     48.0      0.03      8.49      53.3     0.52      1018.0     1.5     ENE    77   4.1     ENE    72  10.08    497       -1.4
   01/15/2019 19:50      50.1      49.8       93     48.0      0.00      8.46      53.3     0.52      1018.1     1.9      SW   233   3.2     SSW   205  10.07    409       -1.4
   01/15/2019 19:40      50.1      49.7       93     48.0      0.01      8.46      53.3     0.52      1018.0     0.1      SW   220   1.0     SSW   198  10.07    432       -1.2
   01/15/2019 19:30      50.0      49.7       93     47.9      0.01      8.45      53.3     0.52      1017.9     0.1     ENE    65   0.8     ENE    64  10.07    444       -1.4
   01/15/2019 19:20      50.0      49.7       93     47.8      0.01      8.44      53.3     0.52      1017.7     0.2     NNE    17   1.3     NNW   332  10.07    435       -1.6
   01/15/2019 19:10      49.9      49.6       93     47.8      0.00      8.43      53.3     0.52      1017.7     0.8     WNW   294   2.0       W   262  10.06    432       -1.6
   01/15/2019 19:00      49.8      49.4       93     47.5      0.01      8.43      53.3     0.52      1017.4     0.5       N     3   1.8       N    10  10.06    420       -1.6
   01/15/2019 18:50      49.7      49.2       92     47.2      0.02      8.42      53.2     0.52      1017.2     1.5       E    94   3.4       E    80  10.05    448       -1.9
   01/15/2019 18:40      49.5      49.2       92     47.1      0.01      8.40      53.2     0.52      1017.0     2.0     ENE    76   4.0     ENE    77  10.05    448       -2.2
   01/15/2019 18:30      49.5      49.1       92     47.0      0.00      8.39      53.3     0.52      1016.9     2.7       E    87   7.8       E   101  10.05    427       -2.6
   01/15/2019 18:20      49.4      48.9       92     46.8      0.00      8.39      53.3     0.52      1016.7     3.0     ESE   103   7.2       E    83  10.06    354       -2.6
   01/15/2019 18:10      49.2      48.8       92     46.8      0.00      8.39      53.2     0.51      1016.5     4.4     ENE    77   9.1       E    80  10.06    361       -2.4
   01/15/2019 18:00      49.4      48.9       92     46.8      0.00      8.39      53.2     0.51      1016.4     3.4       E    90   7.6     ENE    77  10.06    378       -2.3
   01/15/2019 17:50      49.5      49.0       92     46.9      0.02      8.39      53.2     0.51      1016.4     3.6       E    85   7.8     ESE   115  10.06    441       -2.7
   01/15/2019 17:40      49.5      49.1       92     47.0      0.01      8.37      53.2     0.51      1016.5     3.8       E    81  10.1      SE   129  10.05    448       -3.1
   01/15/2019 17:30      49.7      49.2       92     47.1      0.00      8.36      53.2     0.51      1016.4     2.8     ENE    76   6.8     ENE    76  10.05    439       -3.1
   01/15/2019 17:20      49.9      49.4       92     47.2      0.01      8.36      53.2     0.51      1016.4     2.6     ENE    75   6.4     ESE   103  10.05    429       -1.9
   01/15/2019 17:10      49.9      49.5       92     47.3      0.00      8.35      53.2     0.51      1016.5     2.7       E    83   5.9       E    82  10.05    458        0.6
   01/15/2019 17:00      50.0      49.7       92     47.5      0.03      8.35      53.2     0.51      1016.3     2.6       E    80   7.8     ENE    60  10.04    450        7.0
   01/15/2019 16:50      50.2      49.8       92     47.6      0.02      8.32      53.2     0.50      1016.4     2.2       E    86   6.8     ENE    68  10.02    466        5.4
   01/15/2019 16:40      50.3      49.9       92     47.6      0.00      8.30      53.1     0.50      1016.1     2.7     ENE    66   5.4       E    98  10.01    437        3.5
   01/15/2019 16:30      50.5      50.0       91     47.7      0.00      8.30      53.1     0.50      1016.1     2.3     ENE    57   5.1     ENE    65  10.00    447        2.9
   01/15/2019 16:20      50.5      50.1       91     47.7      0.01      8.30      53.1     0.50      1016.0     2.4     ENE    63   6.9      SE   144  10.00    394        3.7
   01/15/2019 16:10      50.5      50.1       90     47.5      0.00      8.29      53.1     0.50      1016.1     2.0     ENE    70   5.6     ESE   108  10.00    463       14.6
   01/15/2019 16:00      50.5      50.1       90     47.3      0.01      8.29      53.1     0.50      1016.3     3.4       E    96   8.0     ENE    72  10.00    438       30.5
   01/15/2019 15:50      50.5      50.1       89     47.3      0.00      8.28      53.1     0.50      1016.4     2.4       E    80   5.9      NE    53   9.99    429       44.4
   01/15/2019 15:40      50.5      50.2       88     47.0      0.01      8.28      53.1     0.50      1016.5     2.2     ENE    78   4.6       E    97   9.99    400       39.0
   01/15/2019 15:30      50.8      50.3       87     46.8      0.01      8.27      53.0     0.50      1016.3     1.9     ENE    70   3.8       E    83   9.99    425       34.3
   01/15/2019 15:20      51.1      50.5       86     46.9      0.02      8.26      53.0     0.50      1016.3     2.5       E   100   7.3      SE   132   9.98    457       20.5
   01/15/2019 15:10      51.8      51.0       85     47.0      0.03      8.24      53.0     0.49      1016.4     3.5     ESE   109   8.1     ESE   109   9.95    449        9.5
   01/15/2019 15:00      52.4      51.4       85     47.6      0.02      8.21      53.0     0.49      1016.4     1.9       E    85   7.6       E   101   9.93    442        7.6
   01/15/2019 14:50      52.6      52.0       84     47.4      0.01      8.19      53.0     0.49      1016.6     1.2       E    92   3.1      SE   137   9.91    446       13.4
   01/15/2019 14:40      53.0      52.2       81     46.9      0.02      8.18      52.9     0.49      1016.5     2.2     ESE   121   5.8      SE   136   9.90    467       21.6
   01/15/2019 14:30      53.3      52.5       79     46.6      0.00      8.16      52.9     0.49      1016.2     3.4     ESE   124   5.5      SE   129   9.89    448       36.3
   01/15/2019 14:20      53.4      52.9       79     46.8      0.01      8.16      52.9     0.49      1016.0     2.9     ESE   109   5.6     ESE   119   9.88    405       32.4
   01/15/2019 14:10      53.3      52.9       79     46.7      0.00      8.15      52.9     0.49      1015.7     3.1     ESE   102   7.2       E    99   9.88    388       35.9
   01/15/2019 14:00      53.2      52.7       79     46.4      0.00      8.15      52.9     0.49      1015.7     1.2       E    79   2.9      NE    54   9.88    369       42.3
   01/15/2019 13:50      53.0      52.6       77     45.9      0.00      8.15      52.8     0.49      1015.8     2.3     ESE   122   5.5      SE   132   9.88    354       40.4
   01/15/2019 13:40      53.9      52.7       74     45.2      0.00      8.15      52.8     0.49      1015.8     4.0     ESE   105   8.6     ENE    63   9.88    355       36.9
   01/15/2019 13:30      54.3      53.5       71     44.8      0.01      8.15      52.8     0.49      1015.7     3.7     ESE   118   9.9      SE   139   9.88    328       28.5
   01/15/2019 13:20      54.5      54.0       70     44.7      0.00      8.14      52.8     0.50      1015.7     3.8      SE   126   7.5     SSE   168   9.88    331       35.9
   01/15/2019 13:10      54.9      54.4       70     45.1      0.00      8.14      52.8     0.49      1015.8     3.8     ESE   114   7.4     ESE   108   9.88    272       26.5
   01/15/2019 13:00      55.4      54.5       70     45.5      0.00      8.14      52.7     0.50      1016.0     4.2      SE   126   8.4      SE   128   9.88    272       60.7
   01/15/2019 12:50      55.4      55.0       70     45.4      0.00      8.14      52.7     0.50      1016.2     3.0      SE   126   6.1     ESE   114   9.88    272      100.5
   01/15/2019 12:40      55.4      55.0       68     44.7      0.00      8.14      52.7     0.50      1016.3     3.2       E    87   7.1     ENE    70   9.88    270      105.6
   01/15/2019 12:30      55.7      55.1       69     45.5      0.00      8.14      52.7     0.50      1016.6     2.1       E    85   6.9       E    82   9.88    283       83.8
   01/15/2019 12:20      55.8      55.3       67     44.9      0.00      8.14      52.7     0.50      1016.8     3.2     ESE   105   7.9     ESE   111   9.88    296      104.2
   01/15/2019 12:10      56.3      55.5       69     45.7      0.00      8.14      52.7     0.50      1016.8     3.0     ESE   102   8.4      SE   136   9.88    270      107.0
   01/15/2019 12:00      56.2      55.5       69     45.8      0.00      8.14      52.7     0.50      1016.9     2.6       E    95   7.1     ESE   112   9.88    270      158.0
   01/15/2019 11:50      55.9      55.5       70     46.0      0.00      8.14      52.7     0.50      1016.9     3.3       E    98   7.0       E    94   9.88    270      170.4
   01/15/2019 11:40      55.8      55.4       71     46.2      0.00      8.14      52.6     0.50      1017.0     3.3       E    94   7.4     ENE    62   9.88    270      193.4
   01/15/2019 11:30      55.9      55.3       70     45.9      0.00      8.14      52.7     0.50      1017.3     3.8       E    93   8.8     ENE    78   9.88    270      199.8
   01/15/2019 11:20      55.7      55.2       71     46.0      0.00      8.14      52.6     0.50      1017.4     3.9     ESE   115   8.5      NE    52   9.88    271      273.9
   01/15/2019 11:10      55.4      54.6       74     46.9      0.00      8.14      52.6     0.50      1017.5     3.3       E   101   8.2      NE    54   9.88    273      268.4
   01/15/2019 11:00      54.9      54.2       76     47.3      0.00      8.14      52.6     0.50      1017.7     2.7     ESE   109   5.1       E   100   9.88    281      208.9
   01/15/2019 10:50      54.4      54.0       77     47.3      0.00      8.14      52.6     0.50      1017.8     3.5       E    84   6.6      SE   142   9.88    287      239.0
   01/15/2019 10:40      55.0      54.1       80     48.4      0.00      8.14      52.6     0.50      1017.8     3.4     ENE    66   6.5     ENE    72   9.88    293      209.1
   01/15/2019 10:30      54.9      53.2       83     48.8      0.00      8.14      52.6     0.50      1018.0     2.6       E    83   6.5     ESE   110   9.88    296      295.1
   01/15/2019 10:20      53.3      52.3       86     48.6      0.00      8.14      52.6     0.50      1018.1     3.0       E    82   6.6       E    80   9.88    301      241.2
   01/15/2019 10:10      53.1      52.4       87     48.8      0.00      8.14      52.6     0.50      1018.1     3.6       E    94   9.3     ENE    72   9.88    343       70.8
   01/15/2019 10:00      53.2      52.8       90     50.1      0.00      8.14      52.6     0.50      1018.1     2.4     ENE    72   6.5       E    99   9.88    284      106.0
   01/15/2019 09:50      53.2      52.2       92     50.5      0.00      8.14      52.6     0.50      1018.0     2.2       E    87   7.0       E    83   9.88    288      160.1
   01/15/2019 09:40      52.4      51.9       94     50.4      0.00      8.14      52.6     0.50      1017.7     1.7     ESE   117   4.6      SE   128   9.88    291      139.1
   01/15/2019 09:30      52.2      51.8       95     50.4      0.00      8.14      52.6     0.50      1017.5     1.3       E    89   4.0      NE    53   9.88    295       68.6
   01/15/2019 09:20      52.0      51.5       95     50.3      0.00      8.14      52.6     0.50      1017.5     0.8     ENE    77   2.2      SE   126   9.88    297       71.3
   01/15/2019 09:10      52.0      51.6       95     50.4      0.00      8.14      52.7     0.50      1017.4     1.1       E    91   2.8     ESE   117   9.88    300       62.7
   01/15/2019 09:00      51.8      51.1       96     50.3      0.00      8.14      52.6     0.50      1017.3     0.5       E    96   1.6       E    93   9.88    297       92.3
   01/15/2019 08:50      51.4      50.8       96     49.8      0.00      8.14      52.6     0.50      1017.2     0.8       E    85   3.3     ESE   114   9.88    298       91.4
   01/15/2019 08:40      51.0      50.3       96     49.5      0.00      8.14      52.6     0.50      1017.1     1.1       E    97   2.3     ESE   123   9.88    299       82.8
   01/15/2019 08:30      50.6      49.9       96     49.0      0.00      8.14      52.6     0.50      1017.1     0.7       E    92   2.2     ENE    73   9.88    303       58.5
   01/15/2019 08:20      50.0      49.2       96     48.6      0.00      8.14      52.6     0.50      1017.0     0.6     ESE   101   2.4     ESE   106   9.88    308       46.4
   01/15/2019 08:10      49.5      48.3       96     47.6      0.00      8.14      52.6     0.50      1016.9     0.4     ESE   102   2.0     ENE    65   9.89    314       42.8
   01/15/2019 08:00      48.6      47.7       96     47.0      0.00      8.14      52.6     0.50      1017.0     0.1     SSE   149   0.9     SSE   161   9.89    319       19.8
   01/15/2019 07:50      47.8      47.2       96     46.3      0.00      8.14      52.6     0.50      1017.0     0.0     SSE   149   0.0     SSE   149   9.89    321       16.1
   01/15/2019 07:40      47.5      47.1       96     46.0      0.00      8.14      52.6     0.50      1017.0     0.0       N     0   0.0       S   172   9.89    322       18.4
   01/15/2019 07:30      47.3      46.8       96     45.9      0.00      8.14      52.6     0.50      1017.0     0.0       N     0   0.0       S   188   9.89    322       11.5
   01/15/2019 07:20      47.2      46.8       96     45.9      0.00      8.14      52.7     0.50      1017.0     0.0       N     0   0.0       S   188   9.89    347        2.9
   01/15/2019 07:10      47.2      46.8       96     45.8      0.00      8.14      52.7     0.50      1017.0     0.0     SSW   196   0.5       S   189   9.89    349        0.5
   01/15/2019 07:00      47.1      46.8       96     45.8      0.00      8.14      52.7     0.50      1016.9     0.0       S   188   0.6       S   188   9.89    348       -0.3
   01/15/2019 06:50      47.2      46.7       96     45.7      0.00      8.14      52.7     0.50      1016.8     0.0       S   186   0.9       S   186   9.89    348       -0.8
   01/15/2019 06:40      47.1      46.8       96     45.8      0.00      8.14      52.7     0.50      1016.9     0.0       N     0   0.0       E   101   9.89    349       -0.8
   01/15/2019 06:30      47.2      46.8       96     45.8      0.00      8.14      52.7     0.50      1016.8     0.4      SE   137   1.1      SE   138   9.89    350       -1.1
   01/15/2019 06:20      47.2      46.8       96     45.9      0.00      8.14      52.7     0.50      1016.9     0.2       E    89   0.7     NNW   343   9.89    349       -0.8
   01/15/2019 06:10      47.1      46.8       96     45.9      0.00      8.14      52.7     0.50      1016.8     0.4     NNW   331   1.7     NNW   345   9.90    350       -0.8
   01/15/2019 06:00      47.1      46.8       96     45.8      0.00      8.14      52.7     0.50      1016.8     0.0      NW   318   0.5      NW   318   9.90    350       -1.0
   01/15/2019 05:50      46.8      46.4       96     45.4      0.00      8.14      52.6     0.50      1016.6     0.0       N     0   0.0      NE    52   9.90    350       -1.0
   01/15/2019 05:40      46.6      46.3       96     45.3      0.00      8.14      52.7     0.50      1016.5     0.1     ENE    59   1.1      NE    55   9.90    350       -1.3
   01/15/2019 05:30      46.7      46.3       96     45.3      0.00      8.14      52.7     0.50      1016.5     0.4     ENE    63   1.6     ENE    61   9.90    351       -1.1
   01/15/2019 05:20      46.6      46.2       96     45.3      0.00      8.14      52.7     0.50      1016.5     0.0       N     0   0.0     WSW   246   9.90    350       -0.8
   01/15/2019 05:10      46.5      46.0       96     45.0      0.00      8.14      52.7     0.50      1016.3     0.0       N     0   0.0      NE    55   9.90    351       -1.8
   01/15/2019 05:00      46.6      46.0       96     45.2      0.00      8.14      52.7     0.50      1016.2     0.0       N     0   0.0       S   187   9.90    351       -1.6
   01/15/2019 04:50      46.5      45.9       96     45.0      0.00      8.14      52.7     0.50      1016.2     0.0       N     0   0.0     SSW   214   9.90    350       -1.6
   01/15/2019 04:40      46.3      45.9       96     44.9      0.00      8.14      52.7     0.50      1016.2     0.0       N     0   0.0      SE   137   9.91    349       -1.7
   01/15/2019 04:30      46.3      45.9       96     44.9      0.00      8.14      52.7     0.50      1016.2     0.0       N     0   0.0      SE   143   9.91    350       -1.9
   01/15/2019 04:20      46.4      45.9       96     45.0      0.00      8.14      52.7     0.51      1016.2     0.0       N     0   0.0     SSE   149   9.91    348       -1.6
   01/15/2019 04:10      46.4      46.0       96     45.0      0.00      8.14      52.7     0.50      1016.3     0.0       N     0   0.0       S   175   9.91    345       -1.7
   01/15/2019 04:00      46.4      46.0       96     45.0      0.00      8.14      52.7     0.51      1016.3     0.0       N     0   0.0       S   176   9.91    345       -1.8
   01/15/2019 03:50      46.4      45.9       96     45.0      0.00      8.14      52.7     0.51      1016.3     0.0       N     0   0.0     SSE   166   9.91    344       -1.8
   01/15/2019 03:40      46.2      45.9       96     44.9      0.00      8.14      52.8     0.51      1016.4     0.0       N     0   0.0     SSE   165   9.91    344       -1.8
   01/15/2019 03:30      46.5      45.9       96     44.9      0.00      8.14      52.7     0.51      1016.4     0.2       S   180   1.1       S   175   9.91    343       -1.8
   01/15/2019 03:20      46.4      46.0       96     45.1      0.00      8.14      52.7     0.51      1016.6     0.7      SE   137   1.4      SE   141   9.91    344       -2.3
   01/15/2019 03:10      46.3      45.9       96     44.9      0.00      8.14      52.7     0.51      1016.7     0.0      SE   142   1.0      SE   143   9.92    340       -1.8
   01/15/2019 03:00      46.7      45.9       96     45.0      0.00      8.14      52.8     0.51      1016.8     0.6     SSE   162   1.6       S   187   9.92    339       -2.0
   01/15/2019 02:50      46.7      46.4       96     45.3      0.00      8.14      52.7     0.51      1016.9     0.2       S   187   1.2       S   189   9.92    337       -1.9
   01/15/2019 02:40      46.8      46.5       96     45.4      0.00      8.14      52.8     0.51      1016.9     0.7     SSW   195   1.3       S   191   9.92    335       -1.7
   01/15/2019 02:30      47.1      46.5       96     45.6      0.00      8.14      52.8     0.51      1017.0     0.9     SSW   202   1.3      SW   215   9.92    334       -1.2
   01/15/2019 02:20      47.2      46.7       95     45.6      0.00      8.14      52.8     0.51      1017.0     0.0       S   184   0.7       S   183   9.92    333       -1.3
   01/15/2019 02:10      47.6      47.0       96     46.0      0.00      8.14      52.8     0.51      1017.0     0.1     NNE    26   0.9     NNE    21   9.92    360       -2.5
   01/15/2019 02:00      47.7      47.3       96     46.3      0.00      8.14      52.8     0.51      1017.0     0.3     NNW   344   1.3     NNW   328   9.92    359       -2.1
   01/15/2019 01:50      48.1      47.5       96     46.4      0.00      8.14      52.8     0.51      1017.1     0.0       N     0   0.0       W   271   9.93    352       -1.3
   01/15/2019 01:40      48.1      47.8       96     46.7      0.00      8.14      52.8     0.51      1017.0     0.0       N     0   0.0     WSW   248   9.93    350       -0.7
   01/15/2019 01:30      48.1      47.7       96     46.7      0.00      8.14      52.8     0.51      1016.9     0.0       N     0   0.0     NNE    27   9.93    350       -1.2
   01/15/2019 01:20      48.1      47.8       96     46.7      0.00      8.14      52.8     0.51      1016.8     0.0       N     0   0.0      NE    42   9.93    350       -0.7
   01/15/2019 01:10      48.2      47.8       96     46.7      0.00      8.14      52.8     0.51      1016.6     0.2       E    94   1.4     ENE    73   9.93    350       -0.9
   01/15/2019 01:00      48.1      47.3       96     46.5      0.00      8.14      52.8     0.51      1016.5     0.4     ESE   113   1.6       E    92   9.93    352       -1.0
   01/15/2019 00:50      47.5      46.9       96     46.0      0.00      8.14      52.8     0.51      1016.6     0.6      SE   133   1.3      SE   134   9.93    350       -0.9
   01/15/2019 00:40      47.4      46.8       96     45.8      0.00      8.14      52.8     0.52      1016.7     0.8      SE   135   1.4      SE   142   9.93    351       -1.2
   01/15/2019 00:30      47.2      46.8       96     45.8      0.00      8.14      52.8     0.52      1016.7     1.0      SE   142   1.8      SE   140   9.94    351       -2.1
   01/15/2019 00:20      47.1      46.8       96     45.7      0.00      8.14      52.7     0.52      1016.6     0.6     SSE   163   1.7      SE   138   9.94    349       -2.3
   01/15/2019 00:10      47.1      46.5       95     45.5      0.00      8.14      52.8     0.52      1016.7     0.9      SE   136   1.9      SE   140   9.94    345       -1.6
   01/15/2019 00:00      47.2      46.5       95     45.5      0.00      8.14      52.8     0.52      1016.9     0.9     SSE   162   1.5      SE   138   9.94    343       -2.1
   01/14/2019 23:50      47.1      46.5       95     45.5      0.00      8.14      52.8     0.52      1017.0     0.5     WSW   256   1.8     WSW   255   9.94    339       -2.7
   01/14/2019 23:40      47.1      46.8       95     45.6      0.00      8.14      52.7     0.52      1017.0     0.0       N     0   0.0       E    84   9.94    334       -1.9
   01/14/2019 23:30      47.2      46.8       95     45.8      0.00      8.14      52.7     0.52      1017.0     0.0       N     0   0.0     SSE   153   9.94    364       -2.3
   01/14/2019 23:20      47.2      46.8       95     45.8      0.00      8.14      52.7     0.52      1017.0     0.2     SSW   201   0.9     WSW   244   9.94    361       -1.8
   01/14/2019 23:10      47.2      46.4       95     45.5      0.00      8.14      52.7     0.52      1017.0     0.8     WSW   253   1.6     WSW   249   9.95    360       -1.7
   01/14/2019 23:00      47.1      46.3       95     45.2      0.00      8.14      52.7     0.52      1017.0     0.1     SSE   152   1.1     SSE   150   9.95    360       -2.1
   01/14/2019 22:50      47.7      46.8       95     45.8      0.00      8.14      52.7     0.52      1017.0     0.2       S   185   1.5     SSW   195   9.95    360       -2.1
   01/14/2019 22:40      47.9      47.3       95     46.2      0.00      8.14      52.7     0.52      1017.0     0.7     SSW   204   1.5     SSW   192   9.95    359       -2.6
   01/14/2019 22:30      48.5      47.7       95     46.6      0.00      8.14      52.7     0.52      1016.9     0.0       N     0   0.0      SE   132   9.95    355       -3.4
   01/14/2019 22:20      48.7      48.2       95     47.0      0.00      8.14      52.7     0.52      1016.8     0.0       N     0   0.0      SE   129   9.95    350       -2.9
   01/14/2019 22:10      48.6      48.3       95     47.0      0.00      8.14      52.7     0.53      1016.8     0.1      SE   145   1.4      SE   145   9.96    345       -2.0
   01/14/2019 22:00      48.6      48.3       95     47.1      0.00      8.14      52.7     0.53      1016.8     0.0       N     0   0.0      SE   130   9.96    340       -1.2
   01/14/2019 21:50      48.6      48.1       95     46.9      0.00      8.14      52.7     0.53      1016.7     0.0     SSE   166   1.0       S   173   9.96    340       -1.1
   01/14/2019 21:40      48.7      48.3       95     47.0      0.00      8.14      52.7     0.53      1016.7     0.4       S   189   1.3     SSW   199   9.96    341       -1.6
   01/14/2019 21:30      48.8      48.4       95     47.1      0.00      8.14      52.7     0.53      1016.6     0.0      SE   138   1.0      SE   138   9.96    339       -1.2
   01/14/2019 21:20      48.7      48.3       95     47.0      0.00      8.14      52.7     0.53      1016.4     0.0       N     0   0.0     ESE   124   9.97    339       -1.2
   01/14/2019 21:10      48.6      48.1       95     46.9      0.00      8.14      52.7     0.53      1016.2     0.0     SSE   167   0.7     SSE   158   9.97    339       -1.4
   01/14/2019 21:00      48.3      47.9       95     46.7      0.00      8.14      52.7     0.53      1016.2     0.2      SW   214   1.1      SW   235   9.97    339       -0.9
   01/14/2019 20:50      48.4      47.9       95     46.7      0.00      8.14      52.7     0.53      1016.3     0.0      NE    38   0.6      NE    47   9.97    340       -1.7
   01/14/2019 20:40      48.3      47.9       95     46.6      0.00      8.14      52.6     0.54      1016.4     1.0       S   182   2.2     SSW   201   9.98    337       -1.8
   01/14/2019 20:30      48.6      47.9       95     46.6      0.00      8.14      52.6     0.54      1016.4     0.6     SSE   165   2.0     SSW   196   9.98    332       -2.8
   01/14/2019 20:20      48.5      48.1       95     46.8      0.00      8.14      52.7     0.54      1016.4     0.0       N     0   0.0       S   184   9.98    327       -1.9
   01/14/2019 20:10      48.4      48.0       95     46.7      0.00      8.14      52.6     0.54      1016.4     0.5     SSW   193   1.7       S   178   9.98    326       -1.7
   01/14/2019 20:00      48.3      47.9       95     46.5      0.00      8.14      52.6     0.54      1016.3     0.6     SSW   200   1.2     SSW   200   9.99    325       -1.4
   01/14/2019 19:50      48.6      48.0       94     46.8      0.00      8.14      52.6     0.54      1016.2     0.0       N     0   0.0       E    79   9.99    326       -2.7
   01/14/2019 19:40      48.7      48.1       95     46.8      0.00      8.14      52.6     0.54      1016.1     0.3      NW   320   1.7      NW   310  10.00    322       -2.1
   01/14/2019 19:30      48.6      48.1       95     46.8      0.01      8.14      52.6     0.54      1016.2     0.3     NNE    22   1.4      NE    34  10.00    322       -2.4
   01/14/2019 19:20      48.4      48.1       95     46.7      0.00      8.13      52.6     0.54      1016.1     0.1       W   279   0.9     WSW   245  10.00    357       -2.3
   01/14/2019 19:10      48.4      47.9       95     46.6      0.00      8.13      52.5     0.54      1016.1     0.3      SW   219   1.2     WSW   237  10.01    360       -2.2
   01/14/2019 19:00      48.4      47.8       95     46.5      0.00      8.13      52.6     0.55      1015.9     0.6      SW   217   2.3      SW   225  10.01    362       -2.1
   01/14/2019 18:50      48.1      47.8       95     46.4      0.00      8.13      52.6     0.55      1015.9     0.9      SW   217   2.3     WSW   245  10.02    365       -2.1
   01/14/2019 18:40      48.1      47.8       95     46.4      0.00      8.13      52.6     0.55      1015.9     0.9     SSE   164   1.8      SE   143  10.02    378       -2.0
   01/14/2019 18:30      48.1      47.8       95     46.4      0.00      8.13      52.5     0.55      1015.8     0.7     ESE   108   2.1     SSE   148  10.03    360       -1.9
   01/14/2019 18:20      48.1      47.7       95     46.4      0.00      8.13      52.6     0.55      1015.7     0.3     ESE   117   1.3     ESE   117  10.03    429       -2.2
   01/14/2019 18:10      47.9      47.5       95     46.1      0.01      8.13      52.5     0.55      1015.6     0.3       S   184   1.3       S   181  10.04    421       -2.5
   01/14/2019 18:00      47.9      47.4       94     46.0      0.00      8.12      52.5     0.55      1015.5     1.1     SSW   201   1.9     SSW   199  10.04    387       -2.6
   01/14/2019 17:50      47.8      47.5       95     46.1      0.01      8.12      52.5     0.55      1015.5     0.6       S   190   1.8     SSW   200  10.04    435       -2.6
   01/14/2019 17:40      48.1      47.5       94     46.2      0.01      8.11      52.5     0.55      1015.4     0.9      SE   125   1.9      SE   134  10.04    444       -2.5
   01/14/2019 17:30      48.1      47.6       95     46.3      0.00      8.10      52.5     0.55      1015.3     0.0     ENE    78   1.3     ENE    75  10.05    411       -2.6
   01/14/2019 17:20      48.1      47.7       95     46.3      0.01      8.10      52.5     0.55      1015.2     0.6       E    96   1.9     ENE    68  10.05    440       -2.1
   01/14/2019 17:10      48.1      47.8       94     46.4      0.00      8.09      52.5     0.55      1015.1     1.1      NE    55   2.4      NE    37  10.06    410        0.8
   01/14/2019 17:00      48.3      47.8       94     46.5      0.01      8.09      52.5     0.56      1015.1     1.5     ENE    57   2.6      NE    46  10.06    459        7.4
   01/14/2019 16:50      48.6      48.1       94     46.8      0.01      8.08      52.5     0.56      1015.2     1.3     ENE    65   2.4     ENE    63  10.06    450       13.1
   01/14/2019 16:40      48.6      48.1       95     46.8      0.01      8.07      52.5     0.56      1015.1     1.1      NE    55   2.4      NE    47  10.07    433       19.3
   01/14/2019 16:30      48.6      47.9       94     46.7      0.01      8.06      52.5     0.56      1015.0     1.4     NNE    25   4.3       N     9  10.08    446       19.0
   01/14/2019 16:20      48.9      48.4       95     47.1      0.01      8.05      52.5     0.56      1015.0     1.0      NE    39   2.8     NNE    20  10.08    482       23.5
   01/14/2019 16:10      48.7      48.3       95     47.0      0.01      8.04      52.4     0.57      1015.0     0.4      NE    49   1.7      NE    51  10.09    464       26.3
   01/14/2019 16:00      48.7      48.3       94     46.9      0.01      8.03      52.4     0.57      1015.0     1.7     NNE    27   3.3      NE    47  10.11    425       23.1
   01/14/2019 15:50      48.7      48.3       94     47.0      0.00      8.02      52.4     0.57      1014.9     1.1     NNE    26   2.7       N   355  10.12    446       37.6
   01/14/2019 15:40      48.7      48.2       95     47.0      0.01      8.02      52.4     0.57      1015.0     0.6     NNE    21   1.8     NNE    25  10.15    404       52.4
   01/14/2019 15:30      48.6      48.0       95     46.8      0.03      8.01      52.5     0.57      1015.0     1.1     NNE    17   2.3     NNE    27  10.17    449       44.6
   01/14/2019 15:20      48.6      48.2       95     46.8      0.08      7.98      52.5     0.57      1015.1     1.1     NNW   336   3.2     NNW   328  10.17    476       25.3
   01/14/2019 15:10      48.6      48.2       95     46.8      0.03      7.90      52.5     0.57      1015.1     1.5      NW   309   3.7     WNW   295  10.13    482        4.2
   01/14/2019 15:00      48.8      48.3       95     46.9      0.02      7.87      52.5     0.57      1015.0     1.3      NW   326   2.9       N   354  10.13    453        5.3
   01/14/2019 14:50      48.8      48.4       95     47.0      0.02      7.85      52.5     0.57      1015.0     1.2       N     6   2.7     NNE    15  10.14    448       20.1
   01/14/2019 14:40      48.6      48.1       95     46.9      0.02      7.83      52.5     0.57      1015.0     0.2     NNE    34   1.5     ENE    76  10.15    440       36.9
   01/14/2019 14:30      48.5      48.2       95     46.9      0.01      7.81      52.5     0.57      1014.9     1.6     NNE    26   3.6     NNE    30  10.16    460       35.1
   01/14/2019 14:20      48.7      48.1       94     46.8      0.01      7.80      52.5     0.57      1014.9     2.1     NNE    21   4.9     NNE    23  10.19    443       38.9
   01/14/2019 14:10      49.1      48.4       94     47.3      0.04      7.79      52.5     0.58      1015.2     2.3     NNE    18   4.5     NNE    31  10.21    452       34.0
   01/14/2019 14:00      49.1      48.7       95     47.4      0.09      7.75      52.6     0.58      1015.4     1.0     NNE    23   2.3       N     0  10.20    517       37.5
   01/14/2019 13:50      49.0      48.6       95     47.3      0.08      7.66      52.7     0.58      1015.2     0.3     NNE    33   1.7     NNE    18  10.18    524       18.3
   01/14/2019 13:40      49.0      48.6       95     47.3      0.03      7.58      52.6     0.57      1014.8     1.7     NNE    31   3.9     ENE    60  10.17    465       18.6
   01/14/2019 13:30      48.8      48.4       94     47.0      0.02      7.55      52.7     0.57      1014.8     1.0     NNE    29   2.1     NNE    15  10.18    471       16.5
   01/14/2019 13:20      48.6      48.2       94     46.8      0.04      7.53      52.7     0.58      1014.9     2.2      NE    38   5.5      NE    56  10.20    446       30.4
   01/14/2019 13:10      48.6      48.3       94     46.8      0.05      7.49      52.7     0.58      1015.2     1.6      NE    48   4.3      NE    48  10.21    506       29.9
   01/14/2019 13:00      48.6      48.1       94     46.7      0.07      7.44      52.8     0.58      1015.2     1.8      NE    40   4.0      NE    43  10.22    479       32.1
   01/14/2019 12:50      48.4      48.1       94     46.6      0.08      7.37      52.9     0.58      1015.3     1.7     NNE    30   4.1       N     2  10.22    485       14.4
   01/14/2019 12:40      48.4      47.9       94     46.4      0.05      7.29      53.0     0.58      1015.1     2.2     NNE    12   5.3     NNE    33  10.21    466       13.6
   01/14/2019 12:30      48.4      47.8       94     46.3      0.07      7.24      53.1     0.58      1015.6     2.7     NNE    21   5.5     NNE    26  10.21    497        7.7
   01/14/2019 12:20      48.6      48.1       94     46.5      0.06      7.17      53.2     0.58      1015.9     2.1      NE    38   4.7       N   355  10.20    458        9.6
   01/14/2019 12:10      48.6      48.2       94     46.6      0.08      7.11      53.3     0.58      1016.1     1.8      NW   306   4.1       S   176  10.20    481       10.5
   01/14/2019 12:00      48.6      48.3       93     46.5      0.07      7.03      53.3     0.57      1016.3     1.6     NNW   329   3.3     WNW   300  10.17    483       14.2
   01/14/2019 11:50      48.9      48.3       93     46.6      0.04      6.96      53.4     0.57      1016.4     2.5     NNE    12   5.6       N    10  10.16    493       32.3
   01/14/2019 11:40      48.7      48.3       93     46.6      0.05      6.92      53.5     0.57      1016.8     1.4       N     3   3.9       N    10  10.15    507       35.6
   01/14/2019 11:30      48.6      48.3       93     46.5      0.04      6.87      53.5     0.57      1017.2     0.5      NW   320   2.1     NNW   334  10.14    483       16.0
   01/14/2019 11:20      48.7      48.3       93     46.6      0.04      6.83      53.5     0.57      1017.3     0.7     NNW   338   2.8     WNW   300  10.14    462       14.4
   01/14/2019 11:10      48.8      48.4       93     46.7      0.03      6.79      53.6     0.57      1017.4     1.3     NNW   345   3.0     NNW   338  10.13    473       11.0
   01/14/2019 11:00      49.1      48.5       93     46.9      0.03      6.76      53.6     0.57      1017.5     0.9     NNW   340   2.3       N     0  10.13    451       15.3
   01/14/2019 10:50      49.0      48.7       93     46.9      0.02      6.73      53.6     0.56      1017.3     0.7       N     2   2.3     NNW   340  10.13    446       31.7
   01/14/2019 10:40      49.0      48.7       93     46.9      0.04      6.71      53.6     0.56      1017.5     0.0       N     0   0.0       S   189  10.13    463       23.2
   01/14/2019 10:30      49.0      48.7       93     46.9      0.03      6.67      53.6     0.56      1017.6     0.0       N     0   0.0      NW   316  10.12    455       18.9
   01/14/2019 10:20      49.0      48.6       93     46.9      0.02      6.64      53.7     0.55      1017.4     1.0     WSW   240   2.7      SW   227  10.11    425        8.7
   01/14/2019 10:10      49.1      48.6       93     46.9      0.02      6.62      53.7     0.55      1017.2     0.3      SE   128   1.2      NE    42  10.11    453        6.1
   01/14/2019 10:00      49.0      48.6       93     46.9      0.01      6.60      53.7     0.56      1017.1     0.6     NNE    32   2.4     NNE    18  10.11    459       11.6
   01/14/2019 09:50      49.0      48.7       93     46.9      0.02      6.59      53.7     0.56      1016.8     1.4      NE    50   3.7      NE    53  10.11    448       22.2
   01/14/2019 09:40      49.0      48.7       93     46.9      0.00      6.57      53.8     0.56      1016.8     1.5      NE    53   3.0     ENE    63  10.11    374       41.9
   01/14/2019 09:30      48.9      48.3       93     46.6      0.01      6.57      53.8     0.56      1016.9     1.9      NE    47   4.0     ENE    68  10.11    426       67.9
   01/14/2019 09:20      48.7      48.3       93     46.4      0.02      6.56      53.8     0.56      1017.0     0.7     ENE    64   2.4     ENE    68  10.12    454       36.5
   01/14/2019 09:10      48.6      48.2       93     46.3      0.00      6.54      53.8     0.56      1016.9     2.1     ENE    67   4.3     NNE    33  10.12    456       29.0
   01/14/2019 09:00      48.6      48.1       93     46.3      0.02      6.54      53.9     0.56      1016.8     2.8      NE    50   5.2      NE    45  10.12    437       36.1
   01/14/2019 08:50      48.4      48.0       93     46.1      0.01      6.52      53.9     0.56      1017.0     3.1      NE    44   6.6      NE    39  10.12    482       28.3
   01/14/2019 08:40      48.3      47.9       92     45.9      0.03      6.51      54.0     0.56      1017.0     2.5      NE    45   4.2     NNE    24  10.13    468       15.5
   01/14/2019 08:30      48.3      47.9       92     45.8      0.04      6.48      54.1     0.51      1017.1     2.1      NE    51   4.1      NE    50  10.12    475        5.4
   01/14/2019 08:20      48.5      48.1       91     45.8      0.06      6.44      54.1     0.50      1017.3     1.9      NE    49   3.7      NE    52  10.10    503        2.3
   01/14/2019 08:10      48.6      48.1       91     45.8      0.04      6.38      54.2     0.50      1017.2     1.7       E    85   3.8     ENE    77  10.06    482        0.9
   01/14/2019 08:00      48.6      48.1       91     45.8      0.03      6.34      54.2     0.49      1016.9     1.6       E    89   3.7     ENE    66  10.02    449        1.6
   01/14/2019 07:50      48.6      48.2       91     45.7      0.01      6.31      54.2     0.49      1016.6     1.5     ENE    59   2.8     NNE    33  10.00    423        2.1
   01/14/2019 07:40      48.7      48.3       90     45.6      0.01      6.30      54.2     0.49      1016.8     0.9     ENE    58   2.4     ENE    78   9.99    448        2.1
   01/14/2019 07:30      48.7      48.3       89     45.4      0.02      6.29      54.2     0.49      1016.8     1.1     ENE    61   2.8      NE    52   9.98    446        1.3
   01/14/2019 07:20      48.9      48.4       88     45.3      0.02      6.27      54.1     0.49      1016.8     0.9     ENE    72   2.2     NNE    18   9.96    467       -1.0
   01/14/2019 07:10      49.2      48.7       87     45.1      0.02      6.25      54.2     0.49      1016.9     1.3     ENE    73   2.9       E    96   9.94    444       -2.5
   01/14/2019 07:00      49.6      48.7       86     45.1      0.05      6.23      54.2     0.49      1016.9     0.9     ENE    72   2.4     ENE    67   9.92    471       -2.1
   01/14/2019 06:50      49.6      49.0       85     45.0      0.03      6.18      54.3     0.48      1017.1     1.2      SE   128   3.5     SSW   200   9.88    444       -3.7
   01/14/2019 06:40      49.2      48.7       88     45.4      0.03      6.15      54.3     0.48      1016.9     2.3     SSW   196   4.1       S   176   9.84    419       -3.0
   01/14/2019 06:30      49.7      48.8       85     44.9      0.01      6.12      54.3     0.48      1016.5     1.3     SSE   165   3.4       S   178   9.82    436       -1.9
   01/14/2019 06:20      50.5      49.4       80     44.0      0.01      6.11      54.3     0.48      1016.1     1.0     SSW   202   2.8       S   182   9.81    461       -3.0
   01/14/2019 06:10      50.8      50.2       76     43.3      0.00      6.10      54.2     0.48      1015.9     0.3     NNW   345   1.6     NNW   343   9.80    408       -4.0
   01/14/2019 06:00      50.6      49.4       79     43.5      0.01      6.10      54.3     0.48      1016.0     2.2     SSE   150   5.3     ENE    61   9.80    448       -4.5
   01/14/2019 05:50      52.0      50.0       75     43.3      0.01      6.09      54.3     0.48      1015.8     0.9       E    88   2.1      SE   140   9.79    463       -2.5
   01/14/2019 05:40      52.5      51.8       67     41.4      0.00      6.08      54.3     0.48      1015.6     0.9     ESE   124   3.2     ENE    64   9.78    376       -3.9
   01/14/2019 05:30      52.9      52.2       64     40.7      0.01      6.08      54.3     0.48      1015.6     1.0       E    96   2.6       E    93   9.78    372       -6.7
   01/14/2019 05:20      52.9      51.6       62     39.7      0.00      6.07      54.3     0.48      1015.6     1.5     ESE   123   2.8     ESE   121   9.78    349       -8.7
   01/14/2019 05:10      51.9      49.7       68     40.6      0.00      6.07      54.3     0.48      1015.6     1.1      SE   132   3.5      NE    54   9.78    276      -10.1
   01/14/2019 05:00      50.0      47.8       78     42.1      0.00      6.07      54.4     0.48      1015.7     0.8      SE   137   1.7      SE   129   9.78    271      -12.0
   01/14/2019 04:50      48.2      47.6       81     42.4      0.00      6.07      54.4     0.48      1015.8     0.2     SSE   149   1.4      SE   133   9.78    273      -14.3
   01/14/2019 04:40      47.9      47.3       83     42.6      0.00      6.07      54.4     0.48      1015.8     0.1     SSW   211   1.5     SSW   214   9.78    271      -14.1
   01/14/2019 04:30      47.7      47.3       83     42.6      0.00      6.07      54.4     0.48      1015.9     0.2     SSW   205   1.7     SSW   214   9.78    271      -12.8
   01/14/2019 04:20      47.6      46.9       84     42.5      0.00      6.07      54.4     0.48      1016.0     0.8       S   181   1.8     SSE   147   9.78    271      -11.7
   01/14/2019 04:10      47.3      46.9       84     42.4      0.00      6.07      54.4     0.48      1015.9     0.3     SSE   159   1.4      SE   140   9.78    271      -12.9
   01/14/2019 04:00      47.2      46.7       84     42.3      0.00      6.07      54.4     0.48      1016.0     0.3       S   177   1.2       S   186   9.78    273      -10.1
   01/14/2019 03:50      47.0      46.5       84     42.2      0.00      6.07      54.5     0.48      1015.9     0.3     SSE   152   1.3      SE   145   9.78    275       -7.6
   01/14/2019 03:40      47.4      46.6       83     42.1      0.00      6.07      54.5     0.48      1015.9     0.6     SSE   163   1.5       S   179   9.78    277      -14.3
   01/14/2019 03:30      47.2      46.4       84     42.3      0.00      6.07      54.5     0.48      1015.9     1.5       S   180   2.3      SW   218   9.78    281      -21.6
   01/14/2019 03:20      46.6      45.9       88     42.6      0.00      6.07      54.5     0.48      1015.9     1.1     SSW   207   2.9      SW   226   9.78    286      -12.5
   01/14/2019 03:10      46.3      45.9       88     42.7      0.00      6.07      54.5     0.48      1016.0     0.5       S   170   1.2     SSE   151   9.78    290      -11.5
   01/14/2019 03:00      46.4      45.9       89     42.9      0.00      6.07      54.5     0.48      1016.3     0.6     WSW   240   1.5     WSW   251   9.78    291      -12.0
   01/14/2019 02:50      46.3      45.9       89     43.0      0.00      6.07      54.5     0.48      1016.4     0.7     ENE    70   2.1      SE   142   9.78    292      -12.0
   01/14/2019 02:40      46.2      45.9       89     43.0      0.00      6.07      54.6     0.48      1016.6     0.6     SSE   158   1.9      SE   142   9.78    294      -11.2
   01/14/2019 02:30      46.1      45.8       89     43.0      0.00      6.07      54.5     0.48      1016.7     0.0     SSE   153   0.7     SSE   162   9.79    295      -11.7
   01/14/2019 02:20      46.1      45.7       90     43.0      0.00      6.07      54.6     0.48      1016.8     0.3      SE   133   1.1      SE   133   9.79    295       -9.0
   01/14/2019 02:10      45.9      45.5       90     42.9      0.00      6.07      54.6     0.48      1017.0     0.1     SSE   161   0.8     SSE   166   9.79    296       -8.6
   01/14/2019 02:00      45.9      45.2       91     42.9      0.00      6.07      54.6     0.48      1017.0     0.1     SSE   156   0.6     SSE   155   9.79    297      -10.1
   01/14/2019 01:50      45.4      44.9       91     42.6      0.00      6.07      54.6     0.48      1017.0     0.4     SSE   157   1.2      SE   144   9.79    297      -13.3
   01/14/2019 01:40      45.3      44.9       91     42.5      0.00      6.07      54.6     0.49      1016.9     0.4     SSE   154   1.4      SE   142   9.79    297      -14.0
   01/14/2019 01:30      45.3      44.6       91     42.4      0.00      6.07      54.6     0.49      1017.0     0.4     SSE   153   1.1      SE   139   9.79    297      -13.5
   01/14/2019 01:20      44.9      44.3       91     42.1      0.00      6.07      54.7     0.49      1016.9     1.3     SSE   161   2.3       S   180   9.79    297      -12.7
   01/14/2019 01:10      44.6      44.1       91     41.8      0.00      6.07      54.7     0.49      1016.9     0.9     SSE   151   2.1       S   180   9.79    297      -14.9
   01/14/2019 01:00      44.5      44.0       90     41.6      0.00      6.07      54.7     0.49      1016.9     0.5       S   178   1.5       S   180   9.79    296      -18.1
   01/14/2019 00:50      44.7      44.2       90     41.7      0.00      6.07      54.7     0.49      1017.0     0.0       N     0   0.0     SSE   153   9.79    295      -19.4
   01/14/2019 00:40      44.7      44.1       90     41.8      0.00      6.07      54.7     0.49      1017.1     0.2     SSE   153   0.7     SSE   154   9.79    294      -20.1
   01/14/2019 00:30      44.4      44.0       90     41.4      0.00      6.07      54.7     0.49      1017.1     0.2     SSE   167   0.9     SSE   161   9.79    292      -21.3
   01/14/2019 00:20      44.4      44.0       90     41.4      0.00      6.07      54.7     0.49      1017.2     0.5     SSE   149   1.8       S   179   9.79    292      -23.0
   01/14/2019 00:10      44.5      43.9       90     41.3      0.00      6.07      54.7     0.49      1017.3     0.8     SSE   168   2.5       E    98   9.79    291      -24.8
   01/14/2019 00:00      44.3      44.0       89     41.2      0.00      6.07      54.7     0.49      1017.4     0.2       S   178   0.9       S   173   9.79    290      -25.3
   01/13/2019 23:50      44.3      44.0       89     41.1      0.00      6.07      54.8     0.49      1017.5     0.0       N     4   0.4       N     4   9.79    288      -26.7
   01/13/2019 23:40      44.6      44.0       89     41.1      0.00      6.07      54.8     0.49      1017.6     0.8      SE   134   1.8       S   170   9.79    288      -30.0
   01/13/2019 23:30      44.9      44.4       88     41.2      0.00      6.07      54.8     0.49      1017.6     0.5     SSE   156   1.1     SSE   153   9.79    286      -35.8
   01/13/2019 23:20      45.2      44.6       88     41.5      0.00      6.07      54.7     0.49      1017.6     0.0       S   177   0.4       S   177   9.79    284      -43.0
   01/13/2019 23:10      45.7      44.9       88     41.8      0.00      6.07      54.8     0.49      1017.6     0.4     SSE   161   1.1      SE   141   9.80    282      -47.8
   01/13/2019 23:00      45.9      45.2       87     41.9      0.00      6.07      54.8     0.49      1017.7     0.9      SE   143   1.7      SE   132   9.80    280      -51.7
   01/13/2019 22:50      46.1      45.4       87     42.0      0.00      6.07      54.8     0.49      1017.6     0.8     SSE   160   2.2      SE   144   9.80    278      -51.5
   01/13/2019 22:40      46.4      45.8       86     42.1      0.00      6.07      54.8     0.49      1017.6     0.7     SSE   151   1.3     SSE   148   9.80    276      -50.4
   01/13/2019 22:30      46.6      45.9       86     42.1      0.00      6.07      54.8     0.49      1017.7     1.0     SSE   152   1.7      SE   143   9.80    274      -52.4
   01/13/2019 22:20      47.0      46.2       85     42.2      0.00      6.07      54.8     0.49      1017.7     0.5     SSE   148   1.4      SE   141   9.80    273      -53.6
   01/13/2019 22:10      47.0      46.6       84     42.3      0.00      6.07      54.8     0.49      1017.7     0.5      SE   146   1.5     SSE   147   9.80    271      -48.2
   01/13/2019 22:00      47.2      46.8       84     42.3      0.00      6.07      54.8     0.49      1017.7     0.5     SSE   155   2.1      SE   140   9.80    271      -48.3
   01/13/2019 21:50      47.1      46.5       84     42.4      0.00      6.07      54.8     0.49      1017.6     0.9      SE   144   2.0      SE   139   9.80    271      -36.2
   01/13/2019 21:40      47.0      46.5       84     42.1      0.00      6.07      54.8     0.49      1017.5     0.2     SSE   159   1.0     SSE   157   9.80    271      -31.7
   01/13/2019 21:30      47.1      46.6       83     42.0      0.00      6.07      54.8     0.49      1017.4     0.7     SSE   155   1.3      SE   143   9.80    271      -36.0
   01/13/2019 21:20      47.6      46.8       82     41.7      0.00      6.07      54.8     0.49      1017.3     0.5      SE   144   1.4      SE   140   9.81    271      -46.8
   01/13/2019 21:10      47.8      47.3       80     41.6      0.00      6.07      54.8     0.49      1017.2     0.7     SSE   153   1.4     SSE   149   9.81    270      -50.3
   01/13/2019 21:00      48.3      47.6       80     41.9      0.00      6.07      54.8     0.49      1017.1     0.2     SSE   149   0.9      SE   143   9.81    270      -48.9
   01/13/2019 20:50      48.2      47.8       80     42.1      0.00      6.07      54.8     0.49      1017.0     0.0     NNE    24   0.6     NNE    12   9.81    270      -54.5
   01/13/2019 20:40      48.9      47.8       79     42.1      0.00      6.07      54.8     0.49      1016.9     0.5     SSE   169   1.3     SSE   148   9.81    270      -60.0
   01/13/2019 20:30      49.2      48.7       78     42.5      0.00      6.07      54.8     0.49      1016.8     1.3     SSE   149   2.3     SSE   155   9.81    270      -59.4
   01/13/2019 20:20      49.4      48.7       79     42.6      0.00      6.07      54.8     0.49      1016.8     1.0     SSE   147   1.9      SE   137   9.81    270      -50.9
   01/13/2019 20:10      49.7      49.0       78     43.0      0.00      6.07      54.7     0.49      1016.7     0.6     SSE   160   1.6      SE   143   9.81    270      -53.1
   01/13/2019 20:00      49.7      49.2       79     43.3      0.00      6.07      54.7     0.49      1016.8     1.7      SE   142   2.4      SE   138   9.81    270      -48.9
   01/13/2019 19:50      50.1      49.3       80     43.5      0.00      6.07      54.7     0.49      1017.0     1.6     SSE   161   3.0       S   185   9.81    270      -43.2
   01/13/2019 19:40      50.1      49.7       79     43.7      0.00      6.07      54.7     0.49      1016.9     1.3     SSE   158   2.1     SSE   157   9.82    270      -52.8
   01/13/2019 19:30      51.0      49.9       78     43.9      0.00      6.07      54.7     0.49      1016.9     1.2     SSE   152   2.0     SSE   148   9.82    270      -59.7
   01/13/2019 19:20      51.2      50.6       77     44.0      0.00      6.07      54.7     0.49      1016.8     1.0     SSE   154   2.2      SE   138   9.82    270      -60.1
   01/13/2019 19:10      52.4      51.1       75     43.9      0.00      6.07      54.6     0.49      1016.7     0.6     SSE   158   1.4       S   173   9.82    270      -58.2
   01/13/2019 19:00      53.2      52.1       71     43.7      0.00      6.07      54.6     0.49      1016.8     0.6     SSE   165   0.9     SSE   167   9.82    270      -52.9
   01/13/2019 18:50      54.0      53.0       70     43.9      0.00      6.07      54.6     0.49      1016.8     0.0     SSE   152   0.5     SSE   161   9.82    269      -49.8
   01/13/2019 18:40      54.1      53.5       68     43.7      0.00      6.07      54.6     0.49      1016.8     0.7     ESE   119   1.4     ENE    72   9.82    269      -36.4
   01/13/2019 18:30      54.0      53.5       69     43.9      0.00      6.07      54.6     0.49      1016.9     1.4      SE   135   2.3      SE   140   9.82    269      -28.5
   01/13/2019 18:20      53.9      53.1       71     44.2      0.00      6.07      54.6     0.49      1016.9     1.5      SE   145   2.5      SE   136   9.82    269      -26.3
   01/13/2019 18:10      53.8      53.1       71     44.3      0.00      6.07      54.5     0.49      1016.9     1.1      SE   144   2.2      SE   137   9.82    269      -25.0
   01/13/2019 18:00      54.2      53.6       69     44.0      0.00      6.07      54.5     0.49      1016.8     0.0      SE   132   0.2      SE   132   9.82    269      -24.1
   01/13/2019 17:50      54.2      53.8       68     43.7      0.00      6.07      54.5     0.49      1016.9     0.0       N     0   0.0      SE   136   9.82    269      -26.1
   01/13/2019 17:40      54.5      53.6       70     44.1      0.00      6.07      54.5     0.49      1017.0     0.4      SE   137   1.1     ESE   122   9.82    269      -25.5
   01/13/2019 17:30      54.9      54.1       67     43.7      0.00      6.07      54.5     0.49      1017.1     0.0     ESE   110   0.7     ESE   112   9.82    269      -25.8
   01/13/2019 17:20      55.3      54.6       65     43.2      0.00      6.07      54.5     0.49      1017.1     0.6      SE   136   1.4     SSE   158   9.82    269      -27.5
   01/13/2019 17:10      55.8      55.0       64     43.3      0.00      6.07      54.4     0.49      1017.1     0.4      SE   140   1.3     ESE   124   9.82    268      -28.8
   01/13/2019 17:00      56.1      55.5       63     43.2      0.00      6.07      54.4     0.49      1017.1     0.2     ENE    75   1.2      NE    53   9.82    268      -28.2
   01/13/2019 16:50      56.4      55.8       61     42.7      0.00      6.07      54.4     0.49      1017.1     1.3      NE    43   2.7      NE    40   9.82    268      -26.8
   01/13/2019 16:40      56.9      56.1       60     42.6      0.00      6.07      54.3     0.49      1017.3     1.3      NE    55   2.7      NE    48   9.82    268      -24.8
   01/13/2019 16:30      57.0      56.4       58     42.1      0.00      6.07      54.3     0.49      1017.6     1.4     ESE   102   3.5      SE   134   9.82    268      -17.6
   01/13/2019 16:20      57.3      56.8       59     42.7      0.00      6.07      54.3     0.49      1017.5     1.1      SE   125   2.9      SE   125   9.82    268       -5.5
   01/13/2019 16:10      57.4      56.9       58     42.6      0.00      6.07      54.3     0.49      1017.5     0.9     ESE   105   2.8     ENE    57   9.82    268        8.3
   01/13/2019 16:00      57.3      56.9       57     42.2      0.00      6.07      54.2     0.49      1017.6     1.0     ESE   117   2.7      SE   126   9.82    268       10.9
   01/13/2019 15:50      57.7      57.0       56     41.9      0.00      6.07      54.2     0.49      1017.5     1.6      SE   137   3.6      SE   135   9.82    268        5.4
   01/13/2019 15:40      57.9      57.4       56     42.0      0.00      6.07      54.2     0.49      1017.4     1.0     ESE   118   2.1      SE   128   9.82    268       20.9
   01/13/2019 15:30      58.1      57.5       56     42.3      0.00      6.07      54.1     0.49      1017.4     0.5       E    92   2.4       E    89   9.83    268       23.0
   01/13/2019 15:20      58.1      57.7       55     41.6      0.00      6.07      54.1     0.49      1017.3     0.5       E    91   1.8      SE   128   9.83    268       16.5
   01/13/2019 15:10      58.2      57.7       54     41.3      0.00      6.07      54.1     0.49      1017.2     0.6       E    91   3.0       E    87   9.83    268       20.4
   01/13/2019 15:00      58.2      57.7       54     41.1      0.00      6.07      54.0     0.49      1017.2     0.7     ENE    75   2.1     ENE    59   9.83    268       21.5
   01/13/2019 14:50      58.4      57.9       52     40.5      0.00      6.07      54.0     0.49      1017.1     1.6       E    87   4.1     ENE    74   9.83    268       20.2
   01/13/2019 14:40      58.8      58.0       52     40.8      0.00      6.07      54.0     0.49      1017.1     1.4       E   101   4.0     ESE   106   9.83    267       35.4
   01/13/2019 14:30      58.7      58.3       51     40.5      0.00      6.07      54.0     0.49      1017.1     1.3     ENE    78   4.2     ESE   116   9.83    267       66.5
   01/13/2019 14:20      59.0      58.5       50     39.9      0.00      6.07      53.9     0.49      1017.0     2.2     ENE    65   4.2     ENE    77   9.83    267       85.2
   01/13/2019 14:10      59.1      58.5       50     40.2      0.00      6.07      53.9     0.49      1016.9     2.0     ENE    71   3.6      NE    54   9.83    267       99.8
   01/13/2019 14:00      59.1      58.6       49     39.8      0.00      6.07      53.9     0.49      1016.9     2.1       E    89   5.1       E    81   9.83    267      101.7
   01/13/2019 13:50      59.0      58.3       51     40.5      0.00      6.07      53.9     0.49      1016.9     1.6     ENE    72   3.2     ENE    59   9.83    267      112.0
   01/13/2019 13:40      58.5      58.0       52     40.8      0.00      6.07      53.9     0.49      1017.0     1.6      SE   134   3.7      SE   129   9.83    267      108.9
   01/13/2019 13:30      59.0      57.9       54     41.8      0.00      6.07      53.8     0.49      1016.9     2.0     SSE   161   3.7      SE   146   9.83    268      108.5
   01/13/2019 13:20      58.7      58.2       54     41.9      0.00      6.07      53.8     0.49      1017.0     2.3      SE   138   5.6      SE   128   9.83    268      134.3
   01/13/2019 13:10      59.3      58.3       53     41.7      0.00      6.07      53.8     0.49      1017.2     4.3      SE   140   6.8      SE   137   9.83    267      218.3
   01/13/2019 13:00      59.3      58.8       51     40.9      0.00      6.07      53.8     0.49      1017.2     2.1     ESE   105   4.8       E    80   9.83    267      202.9
   01/13/2019 12:50      59.1      58.5       48     39.1      0.00      6.07      53.8     0.49      1017.2     2.2       E    83   5.6      SE   139   9.83    267      162.3
   01/13/2019 12:40      58.7      57.8       48     38.8      0.00      6.07      53.8     0.49      1017.3     2.5       E    97   6.3     ENE    70   9.83    267      148.4
   01/13/2019 12:30      58.7      57.8       51     40.5      0.00      6.07      53.8     0.49      1017.4     3.4      SE   142   6.1      SE   142   9.83    268      144.4
   01/13/2019 12:20      59.0      58.3       50     40.3      0.00      6.07      53.8     0.49      1017.5     1.8     ESE   123   3.7      SE   128   9.83    268      155.6
   01/13/2019 12:10      58.8      58.0       51     40.3      0.00      6.07      53.8     0.49      1017.7     1.5     ENE    74   4.0       E    81   9.83    268      160.7
   01/13/2019 12:00      58.6      58.0       51     40.3      0.00      6.07      53.8     0.49      1017.8     1.7      NE    51   3.7      NE    48   9.83    268      154.4
   01/13/2019 11:50      58.7      58.3       51     40.3      0.00      6.07      53.8     0.49      1018.1     1.6     ENE    76   4.1      SE   127   9.83    268      164.0
   01/13/2019 11:40      58.7      58.3       52     40.9      0.00      6.07      53.8     0.49      1018.4     1.5       E    84   3.3     ENE    69   9.83    268      173.8
   01/13/2019 11:30      58.6      58.0       52     40.9      0.00      6.07      53.8     0.49      1018.6     1.3      NE    54   3.4     ENE    59   9.84    268      206.8
   01/13/2019 11:20      58.3      57.7       53     41.1      0.00      6.07      53.8     0.49      1018.8     1.7       E    80   4.8      NE    50   9.84    271      237.7
   01/13/2019 11:10      58.3      57.7       54     41.4      0.00      6.07      53.8     0.49      1019.1     1.2     ENE    63   3.3      SE   145   9.84    278      278.2
   01/13/2019 11:00      57.9      56.3       57     41.7      0.00      6.07      53.8     0.49      1019.2     0.9       E    79   2.7      NE    56   9.83    283      319.5
   01/13/2019 10:50      56.4      55.5       58     41.1      0.00      6.07      53.9     0.49      1019.3     1.0      NE    43   2.4      NE    41   9.84    288      183.6
   01/13/2019 10:40      56.6      56.1       58     41.8      0.00      6.07      53.9     0.49      1019.4     0.7       E    88   2.3      SE   143   9.84    291      167.4
   01/13/2019 10:30      56.3      55.7       62     43.0      0.00      6.07      53.9     0.49      1019.5     0.4     NNE    26   2.1       N     7   9.84    293      271.9
   01/13/2019 10:20      55.9      54.6       63     43.0      0.00      6.07      53.9     0.49      1019.6     0.6      SW   230   1.9      SW   224   9.84    296      291.5
   01/13/2019 10:10      54.7      52.7       67     42.6      0.00      6.07      53.9     0.49      1019.6     0.0       N   349   1.1       N   355   9.84    297      225.7
   01/13/2019 10:00      53.3      52.2       68     42.5      0.00      6.07      54.0     0.49      1019.6     0.6     WNW   289   1.6     NNE    14   9.84    299      157.1
   01/13/2019 09:50      52.4      51.0       70     42.1      0.00      6.07      54.0     0.49      1019.6     0.6       W   272   1.7     WSW   259   9.84    301      207.3
   01/13/2019 09:40      51.3      49.9       75     42.8      0.00      6.07      54.0     0.49      1019.6     0.6     WNW   292   1.6     NNE    14   9.84    316      190.6
   01/13/2019 09:30      50.0      48.7       83     44.4      0.00      6.07      54.1     0.49      1019.5     0.3       N     8   1.1       N     1   9.84    344      178.3
   01/13/2019 09:20      48.8      47.8       88     44.9      0.00      6.07      54.1     0.49      1019.4     0.1     WNW   298   0.9      NW   308   9.84    383      154.8
   01/13/2019 09:10      48.2      47.2       91     45.1      0.00      6.07      54.1     0.49      1019.3     0.2      NW   309   1.1      NW   306   9.84    414      176.8
   01/13/2019 09:00      47.5      46.9       92     44.9      0.00      6.07      54.1     0.49      1019.1     0.0      NW   306   0.4      NW   306   9.84    439      209.5
   01/13/2019 08:50      47.5      45.3       94     45.1      0.00      6.07      54.2     0.49      1019.0     0.0       N     0   0.0     ESE   104   9.84    461      178.6
   01/13/2019 08:40      45.3      43.4       94     42.6      0.00      6.07      54.2     0.49      1018.8     0.0       N     0   0.0     ESE   104   9.84    477      115.0
   01/13/2019 08:30      43.7      42.8       94     41.6      0.00      6.07      54.3     0.49      1018.8     0.2      NE    44   1.0     NNE    26   9.84    483       82.2
   01/13/2019 08:20      43.2      40.3       96     40.5      0.00      6.07      54.3     0.49      1018.8     0.2     ESE   109   0.7       E    92   9.84    488       94.4
   01/13/2019 08:10      40.5      39.6       95     38.7      0.00      6.07      54.3     0.49      1018.8     1.3      SE   142   1.8      SE   142   9.84    502       50.2
   01/13/2019 08:00      39.9      38.7       95     37.8      0.00      6.07      54.3     0.49      1018.7     0.3      SE   145   1.2      SE   142   9.84    502       31.9
   01/13/2019 07:50      38.8      38.4       95     37.2      0.00      6.07      54.4     0.49      1018.6     0.3     SSE   149   1.6     SSE   147   9.84    500       24.1
   01/13/2019 07:40      38.7      37.7       95     36.7      0.00      6.07      54.4     0.49      1018.7     0.2     SSE   149   0.7     SSE   153   9.85    498       13.1
   01/13/2019 07:30      38.0      37.6       95     36.4      0.00      6.07      54.4     0.49      1018.6     0.0     SSE   154   1.1     SSE   153   9.85    495        4.7
   01/13/2019 07:20      37.7      37.2       95     36.1      0.00      6.07      54.5     0.49      1018.5     0.0       N     0   0.0      SE   143   9.85    492       -2.9
   01/13/2019 07:10      37.7      37.1       95     36.0      0.00      6.07      54.5     0.49      1018.5     0.0      SE   143   0.9      SE   143   9.85    488      -10.2
   01/13/2019 07:00      37.6      37.0       95     36.0      0.00      6.07      54.5     0.49      1018.5     0.5     SSE   155   1.9      SE   144   9.85    484      -14.8
   01/13/2019 06:50      37.8      36.9       94     35.7      0.00      6.07      54.5     0.49      1018.5     0.6     SSE   149   1.6      SE   137   9.85    479      -17.3
   01/13/2019 06:40      37.8      37.4       95     36.1      0.00      6.07      54.6     0.49      1018.4     0.3     SSE   169   1.1     SSE   162   9.85    475      -17.8
   01/13/2019 06:30      37.8      37.3       95     36.1      0.00      6.07      54.6     0.49      1018.4     0.0     SSE   155   0.9     SSE   156   9.85    470      -17.6
   01/13/2019 06:20      38.2      37.3       94     36.1      0.00      6.07      54.6     0.49      1018.3     0.0       E    81   0.4       E    81   9.85    467      -17.8
   01/13/2019 06:10      38.0      37.6       95     36.3      0.00      6.07      54.6     0.49      1018.3     0.1     SSW   207   0.9     SSW   209   9.85    462      -17.7
   01/13/2019 06:00      38.1      37.5       94     36.1      0.00      6.07      54.7     0.49      1018.3     0.4     SSE   168   1.1       S   180   9.85    458      -17.7
   01/13/2019 05:50      38.8      37.9       94     36.6      0.00      6.07      54.7     0.49      1018.3     0.6     ESE   103   1.7      SE   136   9.86    453      -17.6
   01/13/2019 05:40      38.6      38.2       95     37.0      0.00      6.07      54.7     0.49      1018.3     2.1     SSW   199   3.6     SSW   194   9.86    447      -17.1
   01/13/2019 05:30      38.4      37.9       94     36.5      0.00      6.07      54.7     0.49      1018.3     0.5       N     6   1.2     NNE    24   9.86    442      -18.5
   01/13/2019 05:20      38.6      37.9       94     36.8      0.00      6.07      54.8     0.49      1018.2     0.8     ESE   106   1.5      SE   141   9.86    437      -18.1
   01/13/2019 05:10      38.5      37.7       94     36.4      0.00      6.07      54.8     0.49      1018.0     0.3     SSE   154   1.0     SSE   161   9.86    431      -18.3
   01/13/2019 05:00      38.5      38.0       94     36.6      0.00      6.07      54.8     0.49      1018.0     0.4     SSE   168   1.1       S   169   9.86    427      -18.5
   01/13/2019 04:50      38.9      38.2       94     36.9      0.00      6.07      54.8     0.49      1018.1     0.0      SE   146   0.7      SE   146   9.86    423      -19.1
   01/13/2019 04:40      38.8      38.4       94     36.9      0.00      6.07      54.9     0.49      1018.0     0.0       S   174   0.4       S   181   9.86    418      -18.8
   01/13/2019 04:30      38.6      38.2       94     36.7      0.00      6.07      54.9     0.49      1018.1     0.0       N     0   0.0       S   169   9.86    413      -19.2
   01/13/2019 04:20      38.8      38.3       93     36.8      0.00      6.07      54.9     0.49      1018.1     0.1     SSE   160   1.1      SE   142   9.86    408      -20.0
   01/13/2019 04:10      39.2      38.4       93     37.0      0.00      6.07      55.0     0.49      1018.2     0.2     SSE   153   1.3      SE   142   9.86    404      -20.3
   01/13/2019 04:00      39.2      38.8       93     37.3      0.00      6.07      55.0     0.49      1018.3     0.0     SSW   196   0.5     SSW   196   9.86    397      -20.4
   01/13/2019 03:50      39.4      38.8       93     37.2      0.00      6.07      55.0     0.50      1018.3     0.0       N     0   0.0     SSW   206   9.87    391      -20.9
   01/13/2019 03:40      39.3      38.8       93     37.2      0.00      6.07      55.0     0.50      1018.4     0.0     SSW   200   0.9     SSW   204   9.87    384      -21.2
   01/13/2019 03:30      39.3      38.7       93     37.0      0.00      6.07      55.0     0.50      1018.5     0.0       N     0   0.0     SSE   156   9.87    377      -22.0
   01/13/2019 03:20      39.8      39.0       93     37.3      0.00      6.07      55.0     0.50      1018.5     0.2     SSE   158   0.9     SSE   160   9.87    368      -22.4
   01/13/2019 03:10      40.4      39.4       93     38.0      0.00      6.07      55.1     0.50      1018.5     0.2     ESE   109   1.2       N     9   9.87    359      -23.6
   01/13/2019 03:00      40.3      39.8       93     38.1      0.00      6.07      55.1     0.50      1018.5     0.9     NNE    14   2.0      NW   317   9.87    349      -23.2
   01/13/2019 02:50      40.3      39.5       93     37.8      0.00      6.07      55.1     0.50      1018.6     1.6      SE   144   3.1      SE   139   9.87    340      -24.2
   01/13/2019 02:40      40.0      39.3       92     37.3      0.00      6.07      55.1     0.50      1018.7     0.6     SSE   156   1.7     SSE   146   9.87    333      -24.8
   01/13/2019 02:30      40.5      39.6       92     37.8      0.00      6.07      55.2     0.50      1018.8     0.3      SE   146   1.0      SE   142   9.87    327      -25.0
   01/13/2019 02:20      40.6      40.2       92     38.1      0.00      6.07      55.2     0.50      1018.8     0.0       N     0   0.0      SE   146   9.87    321      -25.4
   01/13/2019 02:10      40.7      40.2       91     38.0      0.00      6.07      55.2     0.50      1018.9     0.2       S   185   0.8       S   178   9.87    317      -26.1
   01/13/2019 02:00      40.9      40.4       91     38.2      0.00      6.07      55.2     0.50      1018.9     0.1     SSE   149   0.9      SE   139   9.87    314      -27.4
   01/13/2019 01:50      41.2      40.5       91     38.4      0.00      6.07      55.3     0.50      1018.8     0.4     SSE   155   1.1       S   171   9.87    311      -28.4
   01/13/2019 01:40      41.4      40.7       91     38.6      0.00      6.07      55.3     0.50      1018.8     0.0      SW   229   0.7     WSW   254   9.88    307      -29.1
   01/13/2019 01:30      41.4      40.7       90     38.4      0.00      6.07      55.3     0.50      1018.8     0.5       S   187   1.9     SSW   195   9.88    304      -30.3
   01/13/2019 01:20      41.4      40.7       90     38.2      0.00      6.07      55.3     0.50      1018.8     0.6      SW   225   2.0      SW   218   9.88    302      -32.7
   01/13/2019 01:10      42.0      41.0       89     38.5      0.00      6.07      55.3     0.50      1018.8     0.2      SE   139   1.2      SE   146   9.88    299      -34.0
   01/13/2019 01:00      42.3      41.6       89     38.8      0.00      6.07      55.3     0.50      1018.8     0.5     SSE   167   1.3       S   173   9.88    295      -35.9
   01/13/2019 00:50      42.4      41.9       88     38.9      0.00      6.07      55.4     0.50      1018.7     0.2     SSE   155   1.0     SSE   165   9.88    292      -38.9
   01/13/2019 00:40      42.8      42.1       88     39.0      0.00      6.07      55.4     0.50      1018.6     0.1     SSW   198   1.2       S   170   9.88    290      -41.8
   01/13/2019 00:30      42.8      42.4       88     39.2      0.00      6.07      55.4     0.50      1018.5     0.1     ESE   124   1.4     SSE   164   9.88    287      -44.9
   01/13/2019 00:20      43.3      42.5       87     39.1      0.00      6.07      55.4     0.50      1018.4     0.9     SSE   158   2.3      SE   143   9.88    284      -47.0
   01/13/2019 00:10      43.6      43.1       86     39.3      0.00      6.07      55.5     0.50      1018.4     0.6      SE   138   1.9      SE   135   9.88    282      -49.5
   01/13/2019 00:00      43.7      43.1       86     39.5      0.00      6.07      55.5     0.50      1018.4     0.5     SSE   160   1.5     SSE   148   9.88    280      -51.2
   01/12/2019 23:50      43.6      43.2       87     39.6      0.00      6.07      55.5     0.50      1018.5     1.2      SE   145   2.1      SE   142   9.88    279      -54.3
   01/12/2019 23:40      43.9      43.2       86     39.4      0.00      6.07      55.5     0.50      1018.5     1.1     SSE   159   2.7      SE   142   9.88    277      -57.4
   01/12/2019 23:30      44.4      43.5       85     39.4      0.00      6.07      55.5     0.50      1018.5     1.1     SSE   154   2.7      SE   138   9.89    276      -60.5
   01/12/2019 23:20      44.4      43.9       84     39.6      0.00      6.07      55.5     0.50      1018.5     0.9     SSE   155   2.3      SE   141   9.89    274      -62.6
   01/12/2019 23:10      45.1      44.0       82     39.3      0.00      6.07      55.5     0.50      1018.6     1.0     SSE   159   2.2      SE   145   9.89    273      -63.6
   01/12/2019 23:00      45.0      44.5       82     39.5      0.00      6.07      55.6     0.50      1018.6     0.9     SSE   163   1.8      SE   145   9.89    271      -63.5
   01/12/2019 22:50      45.5      44.6       81     39.6      0.00      6.07      55.6     0.50      1018.5     0.7     SSE   149   1.9     SSE   152   9.89    272      -64.2
   01/12/2019 22:40      45.6      45.0       81     39.6      0.00      6.07      55.6     0.50      1018.6     1.2     SSE   149   2.8      SE   143   9.89    271      -64.2
   01/12/2019 22:30      46.5      45.2       78     39.4      0.00      6.07      55.6     0.50      1018.5     1.8     SSE   169   2.8       S   183   9.89    271      -64.8
   01/12/2019 22:20      46.0      45.4       80     39.8      0.00      6.07      55.6     0.50      1018.5     1.2     SSE   161   2.9     SSE   147   9.89    271      -65.2
   01/12/2019 22:10      46.2      45.2       80     39.6      0.00      6.07      55.6     0.50      1018.5     1.3     SSE   159   3.5     SSE   149   9.89    271      -64.7
   01/12/2019 22:00      46.1      45.4       80     39.9      0.00      6.07      55.6     0.50      1018.6     0.8     SSE   158   1.7     SSE   148   9.89    272      -64.2
   01/12/2019 21:50      46.1      45.4       80     39.9      0.00      6.07      55.7     0.50      1018.7     1.0     SSE   160   2.8     SSE   147   9.90    272      -64.4
   01/12/2019 21:40      46.1      45.1       81     40.3      0.00      6.07      55.6     0.50      1018.7     0.9     SSE   151   3.2      NE    46   9.90    271      -65.3
   01/12/2019 21:30      46.0      45.4       82     40.4      0.00      6.07      55.7     0.50      1018.7     1.4     SSE   159   3.1     SSE   157   9.90    273      -65.3
   01/12/2019 21:20      45.9      45.3       83     40.6      0.00      6.07      55.6     0.50      1018.6     1.2     SSE   162   2.2     SSW   193   9.90    275      -64.5
   01/12/2019 21:10      45.8      45.4       83     40.6      0.00      6.07      55.7     0.50      1018.6     1.2     SSE   149   1.9      SE   143   9.90    275      -64.5
   01/12/2019 21:00      45.7      45.1       84     40.7      0.00      6.07      55.6     0.50      1018.5     0.7       S   181   1.7       S   171   9.90    274      -64.7
   01/12/2019 20:50      46.0      45.4       83     40.8      0.00      6.07      55.7     0.50      1018.4     1.0     SSE   156   1.9      SE   142   9.90    274      -65.1
   01/12/2019 20:40      47.0      45.7       80     40.4      0.00      6.07      55.7     0.50      1018.3     0.9     SSE   153   1.5      SE   139   9.90    273      -65.5
   01/12/2019 20:30      47.7      46.7       77     40.4      0.00      6.07      55.7     0.50      1018.3     0.9     SSE   160   2.2      SE   142   9.91    271      -65.4
   01/12/2019 20:20      49.4      47.6       72     40.0      0.00      6.07      55.7     0.50      1018.2     0.8     SSE   150   2.1       S   178   9.91    270      -66.1
   01/12/2019 20:10      49.3      48.3       73     40.4      0.00      6.07      55.7     0.50      1018.2     0.7     NNE    30   2.3     NNW   344   9.91    270      -66.4
   01/12/2019 20:00      49.7      48.7       71     40.2      0.00      6.07      55.7     0.50      1018.2     0.1     SSE   155   0.8     SSE   160   9.91    270      -63.4
   01/12/2019 19:50      50.7      49.5       68     40.0      0.00      6.07      55.7     0.50      1018.1     0.3     ESE   122   1.5     NNE    33   9.91    270      -64.5
   01/12/2019 19:40      51.0      50.5       67     40.0      0.00      6.07      55.7     0.50      1018.1     0.4     NNE    14   1.9     NNE    14   9.91    270      -68.0
   01/12/2019 19:30      51.6      50.7       65     39.9      0.00      6.07      55.7     0.50      1018.1     0.4       N   358   3.2       N   351   9.91    270      -68.6
   01/12/2019 19:20      51.9      51.3       65     40.0      0.00      6.07      55.7     0.50      1018.0     1.0       N     5   3.5      NW   323   9.91    269      -69.5
   01/12/2019 19:10      52.1      51.6       64     39.9      0.00      6.07      55.7     0.50      1018.1     2.3     NNE    12   5.8     NNW   339   9.92    269      -66.2
   01/12/2019 19:00      52.5      51.8       63     39.8      0.00      6.07      55.7     0.50      1018.1     2.4     NNE    14   5.1     NNE    17   9.92    269      -60.6
   01/12/2019 18:50      52.4      52.0       62     39.5      0.00      6.07      55.7     0.50      1018.0     3.6       N    10   8.8       N   355   9.92    269      -29.5
   01/12/2019 18:40      52.4      52.0       61     39.3      0.00      6.07      55.7     0.50      1018.0     4.7     NNE    12   7.8     NNE    14   9.92    269      -47.0
   01/12/2019 18:30      52.5      52.0       61     39.2      0.00      6.07      55.7     0.50      1017.9     3.7     NNE    12   7.4       N     7   9.92    269      -67.9
   01/12/2019 18:20      52.5      52.1       61     39.1      0.00      6.07      55.7     0.50      1017.8     3.7     NNE    17  10.2      NE    37   9.93    269      -60.3
   01/12/2019 18:10      52.5      52.0       61     39.3      0.00      6.07      55.7     0.50      1017.7     2.7       N    10   8.6      NE    34   9.93    269      -36.5
   01/12/2019 18:00      52.7      52.1       62     39.5      0.00      6.07      55.7     0.51      1017.6     2.1       N     9   6.4     NNE    20   9.93    269      -19.8
   01/12/2019 17:50      52.6      52.3       62     39.8      0.00      6.07      55.6     0.51      1017.6     2.9     NNE    12   8.3     NNW   329   9.93    269      -11.8
   01/12/2019 17:40      53.0      52.3       63     40.3      0.00      6.07      55.6     0.51      1017.5     2.6       N     6   5.4     NNE    13   9.93    269       -7.3
   01/12/2019 17:30      53.2      52.6       62     40.3      0.00      6.07      55.6     0.51      1017.5     3.2       N    11   6.1     NNE    14   9.93    269       -6.6
   01/12/2019 17:20      53.4      52.9       62     40.6      0.00      6.07      55.6     0.51      1017.5     3.0     NNE    12   7.3       N     9   9.93    269       -5.7
   01/12/2019 17:10      53.5      53.0       63     41.0      0.00      6.07      55.6     0.51      1017.5     3.1       N   359   5.9     NNE    21   9.93    269       -2.7
   01/12/2019 17:00      53.8      53.2       63     41.1      0.00      6.07      55.6     0.51      1017.3     2.1       N   355   5.2     NNW   333   9.93    269        1.9
   01/12/2019 16:50      54.0      53.5       63     41.3      0.00      6.07      55.6     0.51      1017.3     2.2       N   352   6.9       N     0   9.94    269        5.2
   01/12/2019 16:40      54.0      53.6       63     41.4      0.00      6.07      55.6     0.51      1017.2     1.5     NNW   336   5.1       N     6   9.94    269        7.0
   01/12/2019 16:30      54.0      53.6       65     42.2      0.00      6.07      55.5     0.51      1017.2     1.7       W   268   3.6       W   270   9.94    269        6.3
   01/12/2019 16:20      54.1      53.6       65     42.2      0.00      6.07      55.5     0.51      1017.2     2.4     WSW   253   3.7     WSW   257   9.94    270        5.6
   01/12/2019 16:10      54.3      53.7       64     42.2      0.00      6.07      55.6     0.51      1017.0     2.2     WNW   292   4.0     WNW   284   9.94    271        6.5
   01/12/2019 16:00      54.5      53.9       64     42.0      0.00      6.07      55.5     0.51      1017.0     2.8     NNW   330   5.8     WNW   301   9.94    278        6.9
   01/12/2019 15:50      55.2      54.1       73     46.0      0.00      6.07      55.5     0.51      1016.9     3.2     NNW   348   6.7      NW   310   9.94    279        8.3
   01/12/2019 15:40      55.0      54.7       77     47.9      0.00      6.07      55.5     0.51      1016.8     1.6     WSW   242   2.3      SW   229   9.94    286       37.1
   01/12/2019 15:30      55.3      54.7       77     47.6      0.00      6.07      55.5     0.51      1016.6     1.4      SW   230   2.0      SW   222   9.94    294       53.2
   01/12/2019 15:20      55.3      54.7       78     48.1      0.00      6.07      55.4     0.51      1016.5     0.6     WNW   301   1.4      NW   306   9.94    305       42.2
   01/12/2019 15:10      55.3      54.8       77     47.9      0.00      6.07      55.4     0.51      1016.5     0.0      NW   306   0.0      NW   306   9.94    313       36.3
   01/12/2019 15:00      55.3      54.8       74     47.1      0.00      6.07      55.4     0.51      1016.5     0.0       S   182   0.9     SSW   192   9.94    311       31.9
   01/12/2019 14:50      55.3      54.9       73     46.7      0.00      6.07      55.4     0.51      1016.4     0.0       N     0   0.0      SE   130   9.94    291       29.9
   01/12/2019 14:40      55.3      54.9       74     47.0      0.00      6.07      55.3     0.51      1016.4     0.0       E    96   0.7       E    98   9.95    270       30.9
   01/12/2019 14:30      55.3      54.9       74     46.9      0.00      6.07      55.3     0.51      1016.3     0.1       E    91   1.2      SE   127   9.95    272       38.3
   01/12/2019 14:20      55.1      54.8       74     47.0      0.00      6.07      55.3     0.51      1016.3     0.5       E    82   2.0      NE    48   9.95    271       41.0
   01/12/2019 14:10      55.3      54.8       74     46.8      0.00      6.07      55.3     0.51      1016.2     1.1     ENE    71   3.5     ENE    61   9.95    270       40.2
   01/12/2019 14:00      55.3      54.9       73     46.7      0.00      6.07      55.2     0.51      1016.2     2.1      NE    56   4.6      NE    42   9.95    269       50.0
   01/12/2019 13:50      55.6      55.0       72     46.4      0.00      6.07      55.3     0.51      1016.1     2.1     ENE    59   4.4     NNE    22   9.95    269       59.9
   01/12/2019 13:40      56.1      55.1       71     46.2      0.00      6.07      55.2     0.51      1016.1     2.7     ENE    75   6.9     ESE   117   9.96    269       62.8
   01/12/2019 13:30      57.9      55.7       69     46.6      0.00      6.07      55.2     0.51      1016.0     2.9     ENE    75   7.1       E    93   9.96    269       88.2
   01/12/2019 13:20      57.7      56.6       71     47.7      0.00      6.07      55.2     0.51      1016.0     2.5     ENE    71   5.6     ESE   122   9.96    268      412.7
   01/12/2019 13:10      57.2      56.1       72     47.4      0.00      6.07      55.2     0.51      1016.0     3.2     ENE    69   6.8     ENE    73   9.96    274      471.0
   01/12/2019 13:00      56.7      55.1       75     48.3      0.00      6.07      55.2     0.51      1016.0     3.1      NE    42   5.5      NE    43   9.96    285      493.5
   01/12/2019 12:50      55.3      54.2       77     47.5      0.00      6.07      55.1     0.51      1016.1     2.8      NE    53   4.6      NE    38   9.96    294      267.6
   01/12/2019 12:40      54.8      54.1       79     48.1      0.00      6.07      55.2     0.51      1016.2     3.1      NE    50   4.9      NE    34   9.96    300      290.1
   01/12/2019 12:30      54.6      54.0       80     48.4      0.00      6.07      55.2     0.51      1016.3     2.7      NE    51   4.8      NE    49   9.96    306      252.6
   01/12/2019 12:20      54.7      53.9       81     48.4      0.00      6.07      55.2     0.51      1016.4     2.6     ENE    63   4.5      NE    53   9.97    311      247.4
   01/12/2019 12:10      54.9      54.3       81     48.9      0.00      6.07      55.2     0.51      1016.6     2.8      NE    40   5.1     ENE    71   9.97    315      312.9
   01/12/2019 12:00      54.4      53.6       84     49.2      0.00      6.07      55.1     0.51      1016.7     2.1      NE    55   4.1     ENE    70   9.97    320      357.6
   01/12/2019 11:50      53.7      52.9       87     49.4      0.00      6.07      55.1     0.51      1017.0     1.3      NE    42   2.7      NE    53   9.97    324      266.4
   01/12/2019 11:40      53.2      52.2       89     49.4      0.00      6.07      55.1     0.51      1017.1     1.2     ENE    57   2.7     ENE    73   9.97    330      190.2
   01/12/2019 11:30      52.7      51.6       90     49.4      0.00      6.07      55.2     0.51      1017.4     1.4      NE    48   3.7      NE    50   9.98    335      241.7
   01/12/2019 11:20      52.0      51.4       90     48.7      0.01      6.07      55.1     0.51      1017.5     2.1     ENE    67   3.5     ENE    57   9.98    382      158.7
   01/12/2019 11:10      52.1      51.7       90     49.0      0.00      6.06      55.1     0.51      1017.8     2.1     ENE    78   4.7      SE   136   9.98    423      155.5
   01/12/2019 11:00      52.1      51.6       91     49.3      0.00      6.06      55.1     0.51      1018.0     2.0      NE    48   6.0       N    11   9.98    467      217.9
   01/12/2019 10:50      51.9      51.1       91     48.8      0.00      6.06      55.2     0.51      1018.2     1.6     NNE    29   3.9     NNW   349   9.98    427      181.8
   01/12/2019 10:40      51.6      51.0       91     48.8      0.00      6.06      55.1     0.51      1018.2     1.7     ENE    64   4.0     ESE   120   9.98    318       96.8
   01/12/2019 10:30      51.5      51.0       91     48.7      0.00      6.06      55.1     0.51      1018.3     1.7     ENE    78   3.2     ESE   122   9.98    315      103.8
   01/12/2019 10:20      51.5      51.1       92     48.9      0.00      6.06      55.1     0.51      1018.3     1.3     NNE    23   2.3       N     7   9.98    305      121.0
   01/12/2019 10:10      51.4      50.5       92     48.9      0.00      6.06      55.1     0.52      1018.3     1.1     NNE    24   2.3       N    10   9.98    301      194.8
   01/12/2019 10:00      50.8      50.1       93     48.5      0.00      6.06      55.2     0.52      1018.4     1.1     ENE    57   3.0     NNE    16   9.98    304      123.6
   01/12/2019 09:50      50.6      50.1       93     48.4      0.00      6.06      55.2     0.52      1018.3     1.5     ENE    62   3.9      NE    39   9.98    309      107.7
   01/12/2019 09:40      50.7      50.0       93     48.5      0.00      6.06      55.1     0.52      1018.3     1.0      NE    40   2.9     NNE    18   9.98    340      198.0
   01/12/2019 09:30      50.1      49.4       94     47.9      0.02      6.06      55.2     0.52      1018.3     1.4      NE    35   2.9      NE    39   9.98    453      183.2
   01/12/2019 09:20      49.7      49.3       93     47.7      0.00      6.04      55.2     0.52      1018.2     1.8     ENE    58   4.1      NE    51   9.98    365       95.8
   01/12/2019 09:10      49.5      49.1       93     47.5      0.00      6.04      55.2     0.52      1018.1     1.8      NE    52   4.1     ENE    74   9.98    401       89.9
   01/12/2019 09:00      49.5      49.0       93     47.4      0.00      6.04      55.2     0.52      1018.0     1.7      NE    47   3.4     NNE    33   9.98    424       88.8
   01/12/2019 08:50      49.6      49.1       93     47.3      0.00      6.04      55.2     0.52      1017.8     2.1      NE    43   3.1     NNE    31   9.98    428       61.5
   01/12/2019 08:40      49.4      48.9       93     47.3      0.00      6.04      55.2     0.52      1017.7     1.7      NE    49   2.7     NNE    28   9.98    474       52.2
   01/12/2019 08:30      49.5      48.9       93     47.3      0.00      6.04      55.2     0.52      1017.5     1.1      NE    52   2.8      NE    42   9.98    397       49.4
   01/12/2019 08:20      49.5      48.6       94     47.3      0.01      6.04      55.3     0.52      1017.4     0.3      NE    52   1.5      NE    53   9.99    348       74.8
   01/12/2019 08:10      49.0      48.4       93     46.9      0.00      6.03      55.2     0.52      1017.3     0.2       E    79   0.8     ENE    75   9.99    335       30.5
   01/12/2019 08:00      49.0      48.6       94     47.0      0.00      6.03      55.3     0.52      1017.2     0.2      NW   319   1.3      NW   317   9.99    334       27.5
   01/12/2019 07:50      48.7      48.3       94     46.7      0.00      6.03      55.3     0.52      1017.0     0.6      NW   319   2.1     WNW   290   9.99    346       27.4
   01/12/2019 07:40      48.6      48.3       94     46.7      0.00      6.03      55.3     0.53      1016.9     0.2     NNW   337   2.0     NNW   339  10.00    350       17.0
   01/12/2019 07:30      48.7      48.1       94     46.6      0.00      6.03      55.3     0.53      1016.8     0.0       N     0   0.0       E    90  10.00    347        7.4
   01/12/2019 07:20      48.4      48.1       94     46.5      0.00      6.03      55.3     0.53      1016.7     0.0       N     0   0.0     ESE   116  10.00    331        2.2
   01/12/2019 07:10      48.4      47.9       94     46.4      0.00      6.03      55.3     0.53      1016.6     0.2      SW   215   1.4      SW   220  10.01    333       -0.4
   01/12/2019 07:00      48.4      48.0       94     46.5      0.00      6.03      55.3     0.53      1016.6     0.7       W   273   2.2     WSW   250  10.01    337       -1.8
   01/12/2019 06:50      48.3      47.9       94     46.5      0.00      6.03      55.3     0.53      1016.5     0.6     NNW   330   2.2      NW   313  10.01    339       -2.4
   01/12/2019 06:40      48.3      47.9       94     46.4      0.00      6.03      55.4     0.53      1016.5     0.5       N     3   1.4      NW   324  10.02    364       -2.7
   01/12/2019 06:30      48.1      47.8       94     46.4      0.00      6.03      55.4     0.53      1016.4     0.3       N   355   1.6      NW   321  10.02    388       -2.9
   01/12/2019 06:20      48.1      47.8       94     46.2      0.00      6.03      55.4     0.53      1016.3     1.4       W   278   3.4       W   262  10.02    358       -3.2
   01/12/2019 06:10      48.1      47.8       94     46.2      0.00      6.03      55.4     0.53      1016.2     1.7      SW   231   2.4      SW   226  10.03    367       -2.9
   01/12/2019 06:00      48.1      47.8       94     46.2      0.00      6.03      55.4     0.54      1016.2     1.5     SSW   200   2.2      SW   228  10.03    363       -2.9
   01/12/2019 05:50      48.2      47.8       94     46.2      0.01      6.03      55.4     0.54      1016.1     0.0       S   177   1.0       S   179  10.03    427       -2.9
   01/12/2019 05:40      48.2      47.8       94     46.3      0.01      6.02      55.4     0.54      1016.0     0.0       N     0   0.0     NNE    13  10.03    448       -2.9
   01/12/2019 05:30      48.1      47.8       94     46.2      0.00      6.01      55.4     0.54      1015.9     0.0       N     7   0.8       N    10  10.03    419       -3.0
   01/12/2019 05:20      48.1      47.6       94     46.1      0.00      6.01      55.4     0.54      1015.9     0.0       N     0   0.0     ENE    74  10.03    380       -3.0
   01/12/2019 05:10      48.1      47.7       94     46.1      0.00      6.01      55.4     0.55      1015.9     0.0      NE    55   0.6      NE    55  10.04    384       -2.9
   01/12/2019 05:00      48.1      47.6       94     46.1      0.00      6.01      55.4     0.55      1015.9     0.8     ESE   105   2.8     ESE   118  10.04    435       -3.0
   01/12/2019 04:50      48.1      47.6       94     46.2      0.02      6.01      55.5     0.55      1015.9     1.0     ESE   115   2.8       E    88  10.04    460       -2.8
   01/12/2019 04:40      48.1      47.8       94     46.2      0.01      5.99      55.5     0.56      1015.9     0.9     ENE    70   2.1     ENE    60  10.03    476       -2.7
   01/12/2019 04:30      48.1      47.7       94     46.2      0.00      5.98      55.5     0.56      1015.9     1.5     ESE   106   3.8       E    86  10.03    370       -2.7
   01/12/2019 04:20      48.0      47.6       94     46.2      0.00      5.98      55.5     0.56      1016.0     1.1     ESE   106   2.8      SE   133  10.04    356       -2.6
   01/12/2019 04:10      47.9      47.6       94     46.1      0.00      5.98      55.6     0.56      1016.0     1.9     ESE   108   6.0     ESE   120  10.04    341       -2.5
   01/12/2019 04:00      47.9      47.5       94     46.1      0.00      5.98      55.6     0.57      1015.9     1.8     ESE   120   4.5     ENE    72  10.06    365       -2.5
   01/12/2019 03:50      48.1      47.6       94     46.1      0.01      5.98      55.7     0.57      1015.9     2.4     ENE    66   5.1     NNE    30  10.08    383       -2.6
   01/12/2019 03:40      48.1      47.7       94     46.1      0.06      5.97      55.7     0.56      1016.2     4.1      NE    46   7.1     ENE    58  10.10    453       -2.1
   01/12/2019 03:30      48.1      47.7       93     46.0      0.06      5.91      55.9     0.50      1016.9     2.2       E    98   4.9      SE   127  10.06    499       -2.5
   01/12/2019 03:20      48.2      47.8       93     45.9      0.06      5.85      56.0     0.50      1017.0     1.7     ESE   114   3.1      SE   136  10.03    466       -2.6
   01/12/2019 03:10      48.2      47.8       92     45.8      0.05      5.79      56.0     0.49      1017.0     1.2       E    82   2.0      NE    54   9.98    478       -2.9
   01/12/2019 03:00      48.3      47.9       91     45.6      0.04      5.74      55.9     0.49      1017.1     0.7      SE   135   2.2      SE   136   9.94    427       -3.1
   01/12/2019 02:50      48.6      48.0       91     45.6      0.04      5.70      56.0     0.49      1017.0     0.2      SE   126   1.2      SE   128   9.90    461       -3.4
   01/12/2019 02:40      48.6      48.2       90     45.6      0.02      5.66      56.0     0.49      1017.1     0.3       N   354   1.3     NNW   347   9.88    471       -3.8
   01/12/2019 02:30      48.6      48.3       90     45.4      0.03      5.64      56.0     0.49      1017.3     0.7     NNW   334   1.8     NNW   340   9.85    416       -3.6
   01/12/2019 02:20      48.8      48.3       88     45.0      0.04      5.61      56.0     0.48      1017.5     0.3     SSE   160   1.8      SE   146   9.82    470       -4.2
   01/12/2019 02:10      49.2      48.4       87     44.9      0.04      5.57      56.0     0.48      1017.4     1.5     SSW   195   4.1     SSW   193   9.78    456       -5.3
   01/12/2019 02:00      49.9      48.9       89     46.0      0.03      5.53      56.0     0.48      1016.8     4.4     WSW   249  10.0       W   260   9.74    420       -6.5
   01/12/2019 01:50      51.0      49.9       92     48.3      0.03      5.50      56.1     0.48      1016.7     4.5       W   275   9.6     WSW   250   9.72    369       -2.7
   01/12/2019 01:40      51.0      50.6       92     48.5      0.01      5.47      56.0     0.47      1016.7     2.0       W   263   3.5       W   260   9.69    358       -2.2
   01/12/2019 01:30      50.9      50.5       92     48.3      0.01      5.46      56.1     0.47      1016.5     1.7     WNW   285   3.6       W   260   9.68    435       -2.0
   01/12/2019 01:20      50.8      50.5       91     48.0      0.05      5.45      56.1     0.47      1016.4     1.8      SW   236   5.0      SE   141   9.67    430       -1.9
   01/12/2019 01:10      51.1      50.5       90     47.8      0.03      5.40      56.1     0.47      1016.1     0.4       E    81   1.6     ENE    62   9.62    473       -2.2
   01/12/2019 01:00      51.0      50.5       89     47.6      0.01      5.37      56.1     0.47      1015.9     1.0      SW   232   1.9     WSW   239   9.60    400       -2.7
   01/12/2019 00:50      51.0      50.6       88     47.5      0.00      5.36      56.1     0.47      1015.8     0.2       E    79   1.2     ENE    63   9.59    352       -3.5
   01/12/2019 00:40      51.0      50.6       88     47.3      0.00      5.36      56.1     0.47      1015.6     0.9       S   190   2.7       S   177   9.59    297       -7.1
   01/12/2019 00:30      51.3      50.7       87     47.2      0.00      5.36      56.1     0.47      1015.4     0.6     ESE   122   2.6       S   184   9.59    277       -9.4
   01/12/2019 00:20      51.1      50.7       88     47.5      0.00      5.36      56.1     0.47      1015.3     0.2     WNW   291   1.0     NNW   327   9.59    273      -11.0
   01/12/2019 00:10      51.0      49.9       89     47.3      0.00      5.36      56.1     0.47      1015.3     1.9      SW   227   3.4     SSW   192   9.59    272      -11.1
   01/12/2019 00:00      50.0      49.5       89     46.7      0.00      5.36      56.2     0.47      1015.3     0.9       S   180   2.7     SSW   198   9.59    272      -11.0
   01/11/2019 23:50      50.0      49.6       89     46.7      0.00      5.36      56.1     0.47      1015.3     0.6     SSW   209   2.4       W   269   9.59    270      -11.2
   01/11/2019 23:40      49.9      49.5       89     46.7      0.00      5.36      56.2     0.47      1015.4     0.4     SSE   158   1.1     ESE   109   9.59    270       -9.8
   01/11/2019 23:30      49.9      49.6       89     46.7      0.00      5.36      56.2     0.47      1015.3     0.0       S   191   1.0      NW   305   9.59    269      -11.9
   01/11/2019 23:20      49.8      49.2       89     46.4      0.00      5.36      56.2     0.47      1015.5     0.2     WNW   303   1.1     WNW   299   9.59    270      -11.8
   01/11/2019 23:10      49.7      49.2       89     46.4      0.00      5.36      56.2     0.47      1015.7     0.1     SSE   168   0.8     SSE   168   9.59    271       -9.0
   01/11/2019 23:00      49.5      49.0       89     46.2      0.00      5.36      56.2     0.47      1015.7     0.0       S   185   0.5       S   185   9.59    271       -8.5
   01/11/2019 22:50      49.2      48.8       89     45.9      0.00      5.36      56.2     0.47      1015.7     0.1     SSE   168   0.9       S   178   9.59    273      -11.6
   01/11/2019 22:40      49.4      48.7       89     45.8      0.00      5.36      56.2     0.47      1015.8     0.5     SSE   148   1.5      SE   140   9.59    273      -11.1
   01/11/2019 22:30      49.2      48.8       88     45.7      0.00      5.36      56.3     0.47      1015.9     0.0       N     3   0.4       N     3   9.59    274      -10.3
   01/11/2019 22:20      49.4      48.8       88     45.6      0.00      5.36      56.2     0.47      1015.9     0.0       N     3   0.4       N     3   9.59    276      -15.4
   01/11/2019 22:10      49.4      49.0       88     45.7      0.00      5.36      56.3     0.47      1015.9     0.3       N     1   1.2       N     3   9.60    276      -19.1
   01/11/2019 22:00      49.4      49.0       88     45.7      0.00      5.36      56.3     0.47      1015.8     0.0       N     0   0.0       S   171   9.60    273      -18.2
   01/11/2019 21:50      49.4      48.8       88     45.5      0.00      5.36      56.3     0.47      1015.8     0.0     SSE   167   0.9     SSE   166   9.60    273      -18.4
   01/11/2019 21:40      49.5      48.8       88     45.7      0.00      5.36      56.3     0.47      1015.8     0.0       N     0   0.0      SE   125   9.60    273      -19.1
   01/11/2019 21:30      49.0      48.4       88     45.2      0.00      5.36      56.3     0.47      1015.8     0.4      SE   134   1.5      SE   135   9.60    273      -21.1
   01/11/2019 21:20      48.7      48.1       86     44.5      0.00      5.36      56.3     0.47      1015.7     0.5     SSE   155   1.4     SSE   147   9.60    274      -28.4
   01/11/2019 21:10      49.2      48.4       86     44.9      0.00      5.36      56.3     0.47      1015.7     1.2      SE   140   2.0     ESE   110   9.60    274      -32.1
   01/11/2019 21:00      48.8      48.3       86     44.5      0.00      5.36      56.3     0.47      1015.7     1.1     SSE   148   2.5     SSE   157   9.60    278      -30.7
   01/11/2019 20:50      48.6      48.2       86     44.5      0.00      5.36      56.3     0.47      1015.6     1.2     SSE   160   2.1     SSE   168   9.60    279      -30.5
   01/11/2019 20:40      48.4      47.6       88     44.5      0.00      5.36      56.3     0.47      1015.6     1.0     SSE   152   2.0      SE   144   9.60    282      -27.2
   01/11/2019 20:30      48.0      47.5       87     44.1      0.00      5.36      56.3     0.47      1015.7     0.6     SSE   159   1.2       S   173   9.60    283      -26.3
   01/11/2019 20:20      48.0      47.3       88     44.2      0.00      5.36      56.3     0.47      1015.9     1.2      SE   134   2.1      SE   136   9.60    284      -28.4
   01/11/2019 20:10      47.5      46.8       88     43.7      0.00      5.36      56.3     0.47      1016.0     1.2     SSE   161   2.1      SE   144   9.60    286      -33.6
   01/11/2019 20:00      47.9      47.0       87     43.7      0.00      5.36      56.3     0.47      1016.0     1.0     SSE   159   2.2      SE   141   9.60    285      -42.9
   01/11/2019 19:50      48.4      47.7       86     44.0      0.00      5.36      56.3     0.47      1016.3     1.1     SSE   160   2.3       S   191   9.60    283      -49.0
   01/11/2019 19:40      48.7      48.1       86     44.2      0.00      5.36      56.3     0.47      1016.4     1.8     SSW   205   3.3     SSW   210   9.60    280      -51.3
   01/11/2019 19:30      48.9      48.2       85     44.3      0.00      5.36      56.3     0.47      1016.4     0.0       N     0   0.0       S   178   9.60    279      -57.2
   01/11/2019 19:20      49.3      48.6       85     44.4      0.00      5.36      56.3     0.47      1016.4     0.4     SSE   149   1.8      SE   139   9.60    274      -63.5
   01/11/2019 19:10      50.3      48.9       82     44.3      0.00      5.36      56.3     0.47      1016.4     1.1       S   175   2.1     SSW   195   9.60    269      -65.4
   01/11/2019 19:00      50.5      50.0       81     44.7      0.00      5.36      56.2     0.47      1016.5     0.2       S   187   0.9       S   172   9.60    268      -63.1
   01/11/2019 18:50      50.5      50.1       80     44.4      0.00      5.36      56.2     0.47      1016.5     0.3       S   174   1.9       S   172   9.60    268      -62.4
   01/11/2019 18:40      51.0      50.0       79     44.0      0.00      5.36      56.2     0.47      1016.4     1.1     SSE   165   2.2       S   182   9.60    269      -60.7
   01/11/2019 18:30      51.9      50.8       76     44.0      0.00      5.36      56.2     0.47      1016.4     0.2       S   172   1.1       S   170   9.61    268      -67.0
   01/11/2019 18:20      52.0      51.0       77     44.6      0.00      5.36      56.2     0.47      1016.4     0.8      SE   133   2.7       S   187   9.61    269      -68.0
   01/11/2019 18:10      51.3      50.3       77     43.8      0.00      5.36      56.2     0.47      1016.4     1.2       S   173   3.1     SSE   169   9.61    269      -63.0
   01/11/2019 18:00      52.5      50.9       75     43.8      0.00      5.36      56.1     0.47      1016.4     0.6      SE   144   1.8      SE   136   9.61    268      -66.0
   01/11/2019 17:50      53.1      52.1       73     44.1      0.00      5.36      56.1     0.47      1016.4     1.8       S   172   3.5      SE   139   9.61    268      -70.9
   01/11/2019 17:40      54.9      52.8       68     43.4      0.00      5.36      56.1     0.47      1016.4     1.4       S   176   2.3       S   178   9.61    268      -72.3
   01/11/2019 17:30      56.9      54.7       62     43.1      0.00      5.36      56.1     0.47      1016.3     1.2     SSE   164   3.1       S   183   9.61    268      -76.0
   01/11/2019 17:20      57.0      56.5       61     43.3      0.00      5.36      56.1     0.47      1016.4     1.6       E    93   3.9      SE   134   9.61    268      -76.8
   01/11/2019 17:10      57.5      56.8       59     43.0      0.00      5.36      56.0     0.47      1016.4     1.0      SE   136   3.0       E    98   9.61    268      -73.5
   01/11/2019 17:00      58.1      57.2       59     43.1      0.00      5.36      56.0     0.47      1016.3     1.5     ENE    65   3.6     ENE    78   9.61    267      -69.6
   01/11/2019 16:50      59.0      57.9       57     43.2      0.00      5.36      56.0     0.47      1016.3     1.6     ENE    66   4.5       E    94   9.61    267      -69.3
   01/11/2019 16:40      59.7      58.6       56     43.4      0.00      5.36      56.0     0.47      1016.3     1.0     ENE    61   3.1      NE    51   9.62    267      -58.6
   01/11/2019 16:30      59.8      59.3       55     43.0      0.00      5.36      56.0     0.47      1016.3     1.2     ENE    75   3.1       E    81   9.62    266      -29.3
   01/11/2019 16:20      59.8      59.4       55     43.2      0.00      5.36      56.0     0.47      1016.2     2.0       E    81   4.8     ESE   106   9.62    267      -26.7
   01/11/2019 16:10      60.5      59.6       54     43.5      0.00      5.36      55.9     0.47      1016.2     2.4     SSE   154   6.0      SE   127   9.62    267       -1.5
   01/11/2019 16:00      60.8      60.1       51     42.1      0.00      5.36      55.9     0.47      1016.2     1.6      SE   127   3.2      SE   131   9.62    267      -10.8
   01/11/2019 15:50      61.1      60.5       49     41.4      0.00      5.36      55.8     0.47      1016.2     1.5     ESE   115   3.8       E    91   9.62    266      -32.1
   01/11/2019 15:40      61.7      60.8       48     41.4      0.00      5.36      55.8     0.47      1016.1     2.8     SSE   147   5.4      SE   143   9.62    266      -24.0
   01/11/2019 15:30      62.4      61.7       45     40.5      0.00      5.36      55.8     0.47      1016.1     2.4      SE   143   5.0      SE   133   9.62    266       42.9
   01/11/2019 15:20      62.5      62.0       42     39.1      0.00      5.36      55.8     0.47      1016.2     2.2     ESE   104   5.7     SSW   194   9.62    266       57.2
   01/11/2019 15:10      62.7      62.2       42     39.1      0.00      5.36      55.7     0.47      1016.3     1.9     ESE   106   4.8     ENE    72   9.62    266       36.8
   01/11/2019 15:00      62.6      62.1       42     39.0      0.00      5.36      55.7     0.47      1016.4     2.0     ESE   110   4.6     ENE    68   9.62    266       65.5
   01/11/2019 14:50      62.6      62.1       43     39.6      0.00      5.36      55.6     0.47      1016.5     2.9     ESE   101   5.8       E    90   9.62    266       98.9
   01/11/2019 14:40      62.7      62.2       45     40.6      0.00      5.36      55.6     0.47      1016.5     4.0     ESE   105   7.4     ENE    74   9.63    266      156.6
   01/11/2019 14:30      62.6      61.9       47     41.6      0.00      5.36      55.6     0.47      1016.6     3.5     ESE   120   7.1       E    84   9.63    266      192.4
   01/11/2019 14:20      62.8      61.7       48     42.3      0.00      5.36      55.5     0.47      1016.6     3.8      SE   138   7.8      SE   127   9.63    266      106.3
   01/11/2019 14:10      63.6      62.4       47     42.4      0.00      5.36      55.6     0.47      1016.7     4.4      SE   139  11.4      SE   131   9.63    266      155.5
   01/11/2019 14:00      65.0      63.5       46     42.8      0.00      5.36      55.5     0.47      1016.7     3.7     SSE   147   9.6       E    89   9.63    266      223.1
   01/11/2019 13:50      64.8      63.8       46     43.1      0.00      5.36      55.5     0.47      1016.6     2.6       E    81   6.3      NE    55   9.63    266      296.1
   01/11/2019 13:40      64.0      62.9       49     44.0      0.00      5.36      55.5     0.47      1016.7     2.3       E    87   5.9       E    98   9.63    266      261.4
   01/11/2019 13:30      63.5      62.7       52     45.1      0.00      5.36      55.5     0.47      1016.7     3.1     SSE   150   7.2     SSW   192   9.63    267      275.0
   01/11/2019 13:20      63.6      63.0       53     45.8      0.00      5.36      55.5     0.47      1016.7     2.0     ESE   115   4.6      SE   134   9.63    266      205.9
   01/11/2019 13:10      63.1      62.5       53     45.1      0.00      5.36      55.5     0.47      1016.8     2.7     ENE    69   7.0     ENE    70   9.63    266      227.3
   01/11/2019 13:00      63.1      62.4       54     45.7      0.00      5.36      55.4     0.47      1016.9     3.5     ENE    66   6.2     ESE   121   9.63    266      312.8
   01/11/2019 12:50      63.0      61.6       57     47.3      0.00      5.36      55.4     0.47      1017.0     1.4       E    79   5.7     ESE   111   9.63    266      327.0
   01/11/2019 12:40      61.7      60.3       60     46.9      0.00      5.36      55.4     0.47      1017.2     1.8     ENE    74   4.8       S   178   9.63    267      343.9
   01/11/2019 12:30      60.4      58.9       62     46.9      0.00      5.36      55.4     0.47      1017.3     2.3     ENE    64   4.8     ENE    73   9.63    268      330.1
   01/11/2019 12:20      59.4      58.7       64     46.8      0.00      5.36      55.4     0.47      1017.3     2.8      NE    42   4.8     NNE    26   9.63    268      261.6
   01/11/2019 12:10      59.4      58.8       64     46.8      0.00      5.36      55.4     0.47      1017.6     2.8      NE    41   5.4     NNE    31   9.63    268      320.8
   01/11/2019 12:00      59.3      58.7       63     46.6      0.00      5.36      55.4     0.47      1017.8     2.3      NE    43   4.1       N   351   9.63    267      336.1
   01/11/2019 11:50      59.2      58.1       64     46.5      0.00      5.36      55.4     0.47      1018.1     1.9     ENE    69   5.8      NE    55   9.63    271      349.5
   01/11/2019 11:40      58.3      56.7       66     46.1      0.00      5.36      55.4     0.47      1018.4     2.1     ENE    61   4.4      NE    49   9.63    281      332.7
   01/11/2019 11:30      56.8      55.8       68     45.8      0.00      5.36      55.4     0.47      1018.9     1.9     NNE    32   4.8       N     0   9.63    287      261.2
   01/11/2019 11:20      56.1      55.6       69     46.0      0.00      5.36      55.4     0.47      1019.2     1.6     NNE    27   4.0      NE    45   9.63    293      149.0
   01/11/2019 11:10      56.6      55.6       72     47.1      0.00      5.36      55.4     0.47      1019.5     1.4       N     2   3.0      NE    36   9.63    296      130.7
   01/11/2019 11:00      56.3      54.7       78     48.6      0.00      5.36      55.4     0.47      1019.7     0.9       N    11   3.4     NNE    15   9.63    299      295.3
   01/11/2019 10:50      55.2      54.5       80     48.7      0.00      5.36      55.4     0.47      1019.9     1.3     NNE    12   3.9       N     3   9.63    302      209.0
   01/11/2019 10:40      54.9      53.4       85     49.8      0.00      5.36      55.4     0.47      1020.2     0.9      NE    42   3.5     NNE    31   9.63    304      315.1
   01/11/2019 10:30      53.5      51.6       90     49.4      0.00      5.36      55.4     0.47      1020.4     0.9     NNE    26   2.5     NNE    16   9.63    307      328.0
   01/11/2019 10:20      51.9      50.5       93     49.0      0.00      5.36      55.4     0.47      1020.5     0.6      NE    54   2.1      NE    40   9.63    309      247.2
   01/11/2019 10:10      50.9      50.4       94     48.9      0.00      5.36      55.4     0.47      1020.5     0.6      NE    35   1.9       N     6   9.63    311      146.8
   01/11/2019 10:00      50.9      50.3       95     49.3      0.00      5.36      55.4     0.47      1020.7     0.6      NE    37   2.7     NNE    27   9.63    313      187.2
   01/11/2019 09:50      50.5      50.1       95     48.9      0.00      5.36      55.4     0.47      1020.6     0.6     ESE   105   1.7     ENE    74   9.63    318      201.4
   01/11/2019 09:40      50.9      50.3       96     49.4      0.00      5.36      55.4     0.47      1020.4     0.3     ENE    60   1.5      NE    44   9.63    327      158.2
   01/11/2019 09:30      50.3      48.8       96     48.4      0.00      5.36      55.4     0.47      1020.4     1.1     NNW   341   2.1     NNE    24   9.63    337      339.8
   01/11/2019 09:20      49.2      48.6       97     48.0      0.00      5.36      55.4     0.47      1020.3     1.0       N     9   2.3       N   355   9.63    360      182.0
   01/11/2019 09:10      48.8      47.5       97     47.1      0.00      5.36      55.4     0.47      1020.2     1.7      SW   230   3.2     SSW   200   9.63    373      166.0
   01/11/2019 09:00      47.6      47.2       97     46.5      0.00      5.36      55.4     0.47      1020.1     2.4      SW   225   4.1     SSW   208   9.63    384       99.5
   01/11/2019 08:50      47.6      47.1       97     46.4      0.00      5.36      55.4     0.47      1020.0     2.2     WSW   239   4.0      SW   234   9.63    392       77.3
   01/11/2019 08:40      47.6      47.1       96     46.4      0.00      5.36      55.4     0.47      1019.8     0.7     SSW   192   2.3     SSW   207   9.63    397       45.6
   01/11/2019 08:30      48.0      47.3       97     46.7      0.00      5.36      55.4     0.47      1019.5     1.0     SSE   165   2.6     SSW   192   9.63    401       37.7
   01/11/2019 08:20      47.9      47.3       97     46.7      0.00      5.36      55.4     0.47      1019.3     0.6     ESE   113   2.2      SE   136   9.63    404       36.3
   01/11/2019 08:10      47.6      47.2       97     46.5      0.00      5.36      55.5     0.47      1019.3     0.8      SE   142   2.2      SE   142   9.63    408       29.4
   01/11/2019 08:00      47.6      47.0       97     46.4      0.00      5.36      55.4     0.47      1019.2     0.3     SSE   151   1.1      SE   138   9.63    412       21.5
   01/11/2019 07:50      47.3      46.9       96     46.1      0.00      5.36      55.4     0.47      1019.2     0.9      SE   140   1.9     SSE   160   9.63    416       16.1
   01/11/2019 07:40      47.3      47.0       96     46.1      0.00      5.36      55.4     0.47      1019.1     0.3     ESE   113   1.8      SE   136   9.63    421        9.6
   01/11/2019 07:30      47.5      47.0       96     46.1      0.00      5.36      55.4     0.47      1019.0     0.2     NNE    28   1.9      NE    42   9.63    424        6.2
   01/11/2019 07:20      47.2      46.9       96     46.0      0.00      5.36      55.4     0.47      1019.0     0.2       N   355   1.4     NNE    19   9.63    428        4.6
   01/11/2019 07:10      47.3      46.8       96     46.0      0.00      5.36      55.4     0.47      1018.9     0.0     SSW   203   0.6     SSW   196   9.63    429        3.3
   01/11/2019 07:00      47.3      46.8       96     46.0      0.00      5.36      55.4     0.47      1018.8     0.0       N     0   0.0     SSE   154   9.63    431        3.6
   01/11/2019 06:50      47.2      46.8       96     45.9      0.00      5.36      55.4     0.47      1018.8     1.3       S   189   2.6     SSW   195   9.63    431       -0.8
   01/11/2019 06:40      47.5      47.0       96     46.0      0.00      5.36      55.5     0.47      1018.8     1.1      SW   222   2.8      SW   230   9.63    431       -2.0
   01/11/2019 06:30      47.3      46.8       96     45.9      0.00      5.36      55.5     0.47      1018.8     1.6     WSW   239   3.5      SW   223   9.63    429       -1.9
   01/11/2019 06:20      47.5      46.8       96     45.9      0.00      5.36      55.5     0.47      1018.8     2.2     SSW   205   3.4     SSW   198   9.63    431       -1.5
   01/11/2019 06:10      47.8      47.1       96     46.3      0.00      5.36      55.5     0.47      1018.7     2.5     SSW   203   3.8     SSW   197   9.63    433       -1.2
   01/11/2019 06:00      48.1      47.6       96     46.7      0.00      5.36      55.5     0.47      1018.7     2.0     SSW   211   3.9       S   190   9.63    433       -1.3
   01/11/2019 05:50      47.9      47.6       96     46.7      0.00      5.36      55.5     0.47      1018.6     1.6     SSW   194   2.5     SSW   198   9.63    461       -1.0
   01/11/2019 05:40      48.0      47.7       96     46.8      0.00      5.36      55.4     0.47      1018.4     1.3     SSE   168   3.1       S   177   9.63    464       -1.1
   01/11/2019 05:30      48.3      47.8       96     46.8      0.00      5.36      55.5     0.47      1018.4     2.1      SE   145   3.4      SE   134   9.63    467       -0.9
   01/11/2019 05:20      48.1      47.8       96     46.7      0.00      5.36      55.5     0.47      1018.4     1.5       S   181   2.0     SSE   156   9.63    460       -1.2
   01/11/2019 05:10      48.6      47.8       95     46.9      0.00      5.36      55.5     0.47      1018.3     0.9      SE   141   2.1      SE   137   9.63    461       -1.2
   01/11/2019 05:00      48.7      48.3       95     47.2      0.00      5.36      55.5     0.47      1018.3     0.7       E    89   2.3     ENE    71   9.63    453       -1.1
   01/11/2019 04:50      49.0      48.3       95     47.3      0.00      5.36      55.5     0.47      1018.4     0.6       E    82   2.0      NE    43   9.63    448       -1.2
   01/11/2019 04:40      49.0      48.5       95     47.5      0.00      5.36      55.5     0.47      1018.4     0.2      NW   321   1.1      NW   311   9.63    440       -1.1
   01/11/2019 04:30      49.0      48.6       95     47.4      0.00      5.36      55.5     0.47      1018.5     0.6      NW   326   1.7      NW   312   9.63    433       -1.1
   01/11/2019 04:20      49.0      48.6       95     47.5      0.00      5.36      55.5     0.47      1018.6     0.5      SW   220   2.1      SW   228   9.63    431       -0.9
   01/11/2019 04:10      49.0      48.6       95     47.4      0.00      5.36      55.5     0.47      1018.6     0.8     SSW   206   1.7     SSW   204   9.63    426       -0.9
   01/11/2019 04:00      48.9      48.5       95     47.3      0.00      5.36      55.5     0.47      1018.6     1.1       S   189   1.9     SSW   206   9.63    423       -0.9
   01/11/2019 03:50      49.0      48.6       95     47.4      0.00      5.36      55.5     0.47      1018.6     1.1     SSE   168   2.1     SSE   164   9.63    421       -1.2
   01/11/2019 03:40      49.3      48.8       95     47.6      0.00      5.36      55.5     0.47      1018.7     0.8     SSW   192   2.7       S   176   9.63    421       -1.1
   01/11/2019 03:30      49.2      48.8       95     47.6      0.00      5.36      55.5     0.47      1018.9     1.0      SW   225   2.6     SSW   211   9.63    420       -1.0
   01/11/2019 03:20      49.0      48.7       95     47.4      0.00      5.36      55.6     0.47      1019.1     1.0       S   179   3.0      SW   229   9.63    419       -0.9
   01/11/2019 03:10      49.5      48.7       95     47.5      0.00      5.36      55.6     0.47      1019.2     0.4      SE   135   1.9     ESE   106   9.63    420       -1.2
   01/11/2019 03:00      49.4      48.8       95     47.6      0.00      5.36      55.6     0.47      1019.2     0.6     WSW   247   1.6     SSW   209   9.63    421       -1.0
   01/11/2019 02:50      49.5      48.9       95     47.6      0.00      5.36      55.6     0.47      1019.3     1.2       S   188   1.9       S   183   9.63    421       -1.2
   01/11/2019 02:40      49.5      49.2       95     47.8      0.00      5.36      55.6     0.47      1019.5     0.2       S   175   1.2       S   190   9.63    423       -1.1
   01/11/2019 02:30      49.4      49.0       95     47.7      0.00      5.36      55.6     0.47      1019.7     0.0       N     0   0.0       E    88   9.63    421       -1.0
   01/11/2019 02:20      49.5      49.0       95     47.8      0.00      5.36      55.6     0.47      1019.7     0.9       S   173   2.2     SSE   168   9.63    421       -1.2
   01/11/2019 02:10      49.5      49.2       95     47.8      0.00      5.36      55.7     0.47      1019.8     0.0       N     0   0.0     NNW   340   9.63    422       -0.9
   01/11/2019 02:00      49.5      49.2       95     47.9      0.00      5.36      55.7     0.47      1019.7     0.0     WNW   289   0.6       W   280   9.63    420       -1.0
   01/11/2019 01:50      49.7      49.2       95     47.9      0.00      5.36      55.7     0.47      1019.8     0.0      NW   325   0.8      NW   325   9.63    420       -1.1
   01/11/2019 01:40      49.6      49.2       95     47.9      0.00      5.36      55.7     0.47      1019.9     0.1     WNW   297   1.2       W   275   9.63    417       -1.1
   01/11/2019 01:30      49.5      49.2       95     47.9      0.00      5.36      55.7     0.47      1020.0     0.2     WSW   256   1.5     WSW   256   9.63    417       -1.3
   01/11/2019 01:20      49.5      49.1       94     47.8      0.00      5.36      55.7     0.47      1019.9     0.2       W   267   1.4     WSW   247   9.63    416       -1.9
   01/11/2019 01:10      49.5      49.2       94     47.8      0.00      5.36      55.8     0.47      1020.0     1.5      SW   224   2.8     SSW   198   9.63    417       -1.3
   01/11/2019 01:00      49.5      48.4       95     47.3      0.00      5.36      55.8     0.47      1020.0     0.8     SSW   192   1.6     SSW   207   9.63    417       -1.1
   01/11/2019 00:50      48.6      48.2       94     46.8      0.00      5.36      55.8     0.47      1020.0     0.0       N     0   0.0     ENE    66   9.63    420       -0.5
   01/11/2019 00:40      48.5      48.1       94     46.7      0.00      5.36      55.8     0.47      1020.0     0.2     ENE    68   1.1     ENE    66   9.63    424       -0.6
   01/11/2019 00:30      48.5      47.7       95     46.5      0.00      5.36      55.8     0.47      1019.9     0.4       S   182   1.9       S   184   9.63    427       -0.3
   01/11/2019 00:20      48.0      47.4       95     46.1      0.00      5.36      55.9     0.47      1019.9     0.4     SSE   161   1.8       S   185   9.63    431       -0.5
   01/11/2019 00:10      47.5      46.9       95     45.8      0.00      5.36      55.9     0.47      1019.9     0.5     SSE   161   1.1       S   191   9.63    433       -0.9
   01/11/2019 00:00      47.1      46.0       95     44.9      0.00      5.36      55.9     0.47      1019.9     0.7       S   179   1.5       S   182   9.63    435       -0.7
   01/10/2019 23:50      46.2      45.6       94     44.3      0.00      5.36      55.9     0.47      1019.9     0.0       N     0   0.0     SSE   166   9.63    436       -1.1
   01/10/2019 23:40      45.9      45.5       94     44.0      0.00      5.36      55.9     0.48      1019.9     0.0       N     0   0.0     SSE   167   9.63    436       -4.8
   01/10/2019 23:30      45.8      45.2       94     43.9      0.00      5.36      55.9     0.48      1020.1     0.0     SSE   168   0.6     SSE   166   9.63    436       -8.8
   01/10/2019 23:20      45.8      45.4       94     43.9      0.00      5.36      55.9     0.48      1020.1     0.0       N     0   0.0      SE   143   9.63    434      -16.5
   01/10/2019 23:10      46.1      45.4       94     44.0      0.00      5.36      55.9     0.48      1020.2     0.2      SE   143   0.9      SE   143   9.63    430      -18.2
   01/10/2019 23:00      46.7      45.9       94     44.4      0.00      5.36      55.9     0.48      1020.3     0.3     SSE   164   0.9       S   171   9.64    423      -18.1
   01/10/2019 22:50      46.6      45.9       94     44.6      0.00      5.36      55.9     0.48      1020.4     0.0     SSE   154   0.7       S   171   9.64    412      -18.6
   01/10/2019 22:40      46.3      45.4       93     43.9      0.00      5.36      55.9     0.48      1020.4     0.1     SSE   159   0.8     SSE   151   9.64    399      -19.3
   01/10/2019 22:30      46.7      46.1       93     44.4      0.00      5.36      56.0     0.48      1020.4     0.7       S   171   1.4     SSE   154   9.64    389      -18.9
   01/10/2019 22:20      46.7      46.2       93     44.7      0.00      5.36      55.9     0.48      1020.4     0.5       S   176   1.1       S   178   9.64    382      -19.2
   01/10/2019 22:10      46.7      46.3       93     44.6      0.00      5.36      55.9     0.48      1020.5     0.2     SSE   154   0.9     SSE   164   9.64    376      -20.0
   01/10/2019 22:00      47.6      46.5       93     45.0      0.00      5.36      56.0     0.48      1020.5     0.7     SSE   151   1.2      SE   145   9.64    370      -20.5
   01/10/2019 21:50      47.4      47.0       93     45.3      0.00      5.36      56.0     0.48      1020.3     0.6     SSW   197   1.7      SW   221   9.64    363      -20.4
   01/10/2019 21:40      47.7      47.1       93     45.4      0.00      5.36      56.0     0.48      1020.3     0.3       S   172   1.1       S   175   9.64    357      -21.3
   01/10/2019 21:30      48.1      47.3       92     45.5      0.00      5.36      56.0     0.48      1020.3     0.0     SSE   146   0.8      SE   145   9.64    352      -21.9
   01/10/2019 21:20      48.3      47.8       93     46.1      0.00      5.36      56.0     0.48      1020.3     0.5     SSE   164   1.1       S   172   9.64    346      -22.1
   01/10/2019 21:10      48.2      47.8       92     45.7      0.00      5.36      56.0     0.48      1020.3     0.2       S   180   1.2       S   180   9.64    341      -23.1
   01/10/2019 21:00      48.6      47.9       92     46.1      0.00      5.36      56.0     0.48      1020.3     0.2     SSE   150   1.2     SSE   149   9.64    336      -23.7
   01/10/2019 20:50      48.9      48.3       92     46.5      0.00      5.36      55.9     0.48      1020.2     1.0       S   175   1.6      SE   144   9.64    332      -23.7
   01/10/2019 20:40      48.7      48.2       92     46.1      0.00      5.36      55.9     0.48      1020.1     0.3     SSE   159   1.1     SSW   192   9.64    328      -25.6
   01/10/2019 20:30      48.9      48.3       92     46.3      0.00      5.36      55.9     0.48      1020.0     0.9     SSE   162   1.7      SE   140   9.64    323      -27.0
   01/10/2019 20:20      49.4      48.0       91     46.0      0.00      5.36      55.9     0.48      1020.0     0.4       S   178   1.6      SW   219   9.64    318      -28.5
   01/10/2019 20:10      49.7      48.8       91     46.5      0.00      5.36      55.9     0.48      1020.0     0.9     SSE   155   1.6      SE   139   9.64    313      -29.4
   01/10/2019 20:00      49.9      49.2       91     46.8      0.00      5.36      55.9     0.48      1019.9     0.7     SSE   160   1.4       S   175   9.64    308      -30.2
   01/10/2019 19:50      50.5      49.8       90     47.3      0.00      5.36      55.8     0.48      1019.8     0.7     SSE   166   1.4       S   179   9.64    305      -31.9
   01/10/2019 19:40      50.6      50.0       90     47.3      0.00      5.36      55.9     0.48      1019.9     0.4     SSE   148   1.4     SSE   147   9.64    301      -34.6
   01/10/2019 19:30      51.1      50.3       89     47.7      0.00      5.36      55.9     0.48      1019.9     0.6     SSE   159   1.5       S   175   9.65    297      -37.1
   01/10/2019 19:20      51.5      51.0       89     48.2      0.00      5.36      55.8     0.48      1019.9     0.6       S   170   1.4     SSW   195   9.65    294      -40.6
   01/10/2019 19:10      51.6      51.1       89     48.1      0.00      5.36      55.8     0.48      1020.0     0.4     SSE   166   1.1       S   179   9.65    290      -45.7
   01/10/2019 19:00      52.0      51.4       88     48.1      0.00      5.36      55.8     0.48      1019.9     0.2       S   182   1.0     SSW   198   9.65    286      -50.6
   01/10/2019 18:50      53.0      51.6       86     48.0      0.00      5.36      55.8     0.48      1019.9     1.0     SSE   167   1.8     SSW   193   9.65    283      -54.5
   01/10/2019 18:40      53.6      52.7       85     48.7      0.00      5.36      55.8     0.48      1019.8     1.2       S   187   1.6     SSW   195   9.65    278      -58.3
   01/10/2019 18:30      54.2      53.3       83     48.8      0.00      5.36      55.7     0.48      1019.7     0.6       S   184   1.4     SSW   212   9.65    275      -64.6
   01/10/2019 18:20      54.5      53.8       82     48.6      0.00      5.36      55.7     0.48      1019.6     0.0      SW   216   0.6      SW   221   9.65    271      -67.6
   01/10/2019 18:10      55.5      54.3       80     48.6      0.00      5.36      55.7     0.48      1019.6     0.6     WSW   254   1.7     WSW   237   9.65    269      -67.6
   01/10/2019 18:00      56.2      55.2       78     48.9      0.00      5.36      55.7     0.48      1019.5     0.7     WSW   249   1.7      SW   231   9.65    268      -68.6
   01/10/2019 17:50      56.8      55.9       77     49.2      0.00      5.36      55.6     0.48      1019.4     0.0       N     0   0.0     SSW   197   9.65    268      -71.3
   01/10/2019 17:40      57.0      56.4       76     49.4      0.00      5.36      55.6     0.48      1019.3     1.1     SSW   209   3.0     SSW   213   9.65    268      -73.5
   01/10/2019 17:30      57.4      56.7       76     49.5      0.00      5.36      55.5     0.48      1019.2     2.6     SSW   201   3.7     SSW   191   9.66    268      -74.8
   01/10/2019 17:20      58.0      57.0       75     49.5      0.00      5.36      55.5     0.48      1019.1     2.8     SSW   201   4.6     SSW   193   9.66    268      -75.5
   01/10/2019 17:10      58.7      57.8       73     49.7      0.00      5.36      55.5     0.48      1018.9     3.1       S   188   4.8       S   186   9.66    268      -75.2
   01/10/2019 17:00      59.7      58.5       72     49.7      0.00      5.36      55.5     0.48      1018.9     3.3     SSW   193   4.4     SSW   207   9.66    268      -71.8
   01/10/2019 16:50      60.4      59.4       70     49.8      0.00      5.36      55.4     0.48      1018.8     3.4     SSW   192   4.9     SSW   193   9.66    268      -68.1
   01/10/2019 16:40      61.4      60.1       68     50.0      0.00      5.36      55.4     0.48      1018.8     3.1     SSW   202   4.3     SSW   204   9.66    267      -63.2
   01/10/2019 16:30      62.0      61.1       67     50.4      0.00      5.36      55.3     0.47      1018.6     2.8       S   184   5.3       S   191   9.66    266      -44.6
   01/10/2019 16:20      63.9      61.7       65     50.4      0.00      5.36      55.3     0.48      1018.6     4.1       S   183   8.4     SSW   210   9.66    266      -26.6
   01/10/2019 16:10      66.4      63.8       58     50.4      0.00      5.36      55.3     0.47      1018.4     3.1     WSW   253   7.6     SSW   196   9.66    266       -8.0
   01/10/2019 16:00      66.5      65.9       53     48.7      0.00      5.36      55.2     0.47      1018.5     2.5     WNW   298   5.2       W   263   9.67    266       11.8
   01/10/2019 15:50      66.6      66.0       52     48.2      0.00      5.36      55.2     0.47      1018.4     3.2       W   270   6.7      NW   312   9.67    266       34.3
   01/10/2019 15:40      67.4      66.1       50     47.4      0.00      5.36      55.1     0.47      1018.4     4.2     WSW   242   7.1     WNW   291   9.67    266       56.3
   01/10/2019 15:30      67.6      67.1       47     46.5      0.00      5.36      55.1     0.47      1018.3     3.7     WSW   249   5.3     WSW   255   9.67    265       78.9
   01/10/2019 15:20      68.0      67.2       45     45.5      0.00      5.36      55.1     0.47      1018.3     3.3     WSW   236   5.9     WSW   243   9.67    265      101.0
   01/10/2019 15:10      69.0      67.8       45     46.4      0.00      5.36      55.0     0.47      1018.3     3.1     WSW   253   5.1     WSW   242   9.67    264      121.6
   01/10/2019 15:00      68.9      67.5       45     45.8      0.00      5.36      55.0     0.47      1018.3     1.9     WSW   242   4.6      NW   313   9.67    265      142.3
   01/10/2019 14:50      68.3      66.9       50     47.9      0.00      5.36      55.0     0.47      1018.3     3.2      SW   231   5.4     SSW   199   9.67    265      163.7
   01/10/2019 14:40      69.5      68.1       46     47.1      0.00      5.36      54.9     0.47      1018.3     2.4      SW   232   6.6     WSW   241   9.67    264      178.7
   01/10/2019 14:30      70.0      68.2       44     46.0      0.00      5.36      54.9     0.47      1018.2     2.2     WSW   247   5.0      SW   235   9.67    264      197.1
   01/10/2019 14:20      69.1      68.2       41     43.9      0.00      5.36      54.8     0.47      1018.2     1.4       N     3   4.6     WNW   293   9.67    264      212.6
   01/10/2019 14:10      69.4      68.4       40     43.6      0.00      5.36      54.8     0.47      1018.3     1.8     WNW   293   4.3      NW   313   9.67    264      227.8
   01/10/2019 14:00      68.8      67.7       39     42.5      0.00      5.36      54.8     0.47      1018.3     2.1       W   273   5.0     WSW   254   9.67    264      244.2
   01/10/2019 13:50      69.0      68.1       39     42.9      0.00      5.36      54.7     0.47      1018.3     2.2       W   260   6.4     WSW   254   9.67    264      258.4
   01/10/2019 13:40      68.7      68.1       39     42.7      0.00      5.36      54.7     0.47      1018.3     1.5     NNE    31   3.5     NNW   339   9.67    264      270.5
   01/10/2019 13:30      68.7      68.0       40     42.9      0.00      5.36      54.7     0.47      1018.2     1.5       W   265   4.3      NW   313   9.67    264      282.2
   01/10/2019 13:20      67.8      67.3       40     42.4      0.00      5.36      54.6     0.47      1018.3     1.6      SW   224   4.6     WSW   239   9.67    264      294.9
   01/10/2019 13:10      67.6      66.8       41     42.9      0.00      5.36      54.6     0.47      1018.3     1.8     NNW   327   4.3       N   349   9.67    264      303.5
   01/10/2019 13:00      67.5      66.7       41     42.6      0.00      5.36      54.6     0.47      1018.4     1.6      NW   308   4.3       W   275   9.67    265      312.1
   01/10/2019 12:50      67.2      66.4       42     43.1      0.00      5.36      54.6     0.47      1018.5     1.3     SSE   164   3.4       S   175   9.67    266      321.7
   01/10/2019 12:40      66.8      65.7       43     43.0      0.00      5.36      54.5     0.47      1018.6     1.4      SW   220   3.1      SW   219   9.67    266      329.2
   01/10/2019 12:30      67.2      65.8       44     43.8      0.00      5.36      54.5     0.47      1018.8     2.2     WSW   243   4.4     WNW   282   9.67    266      334.4
   01/10/2019 12:20      67.1      65.7       44     43.9      0.00      5.36      54.5     0.47      1019.0     1.2     WSW   254   3.7       W   271   9.67    266      336.7
   01/10/2019 12:10      65.9      65.3       46     44.2      0.00      5.36      54.5     0.47      1019.3     1.1     NNE    20   2.8     NNW   349   9.67    266      338.2
   01/10/2019 12:00      65.8      64.9       47     44.3      0.00      5.36      54.5     0.47      1019.5     1.9     WSW   249   4.4     WSW   256   9.67    266      341.2
   01/10/2019 11:50      65.9      64.7       47     44.9      0.00      5.36      54.5     0.47      1019.8     1.4     WNW   290   3.9     WSW   243   9.67    266      338.0
   01/10/2019 11:40      65.0      63.8       50     45.6      0.00      5.36      54.5     0.47      1020.0     1.3      NE    55   3.4     NNW   330   9.67    266      332.3
   01/10/2019 11:30      64.9      63.6       51     45.5      0.00      5.36      54.5     0.47      1020.1     1.7      NE    36   4.0     NNW   339   9.67    267      326.3
   01/10/2019 11:20      64.8      63.6       51     45.6      0.00      5.36      54.5     0.47      1020.4     1.2       N     5   3.3       N     8   9.67    267      324.9
   01/10/2019 11:10      64.1      62.4       52     45.4      0.00      5.36      54.5     0.47      1020.5     0.8     NNE    14   2.4      NE    48   9.67    267      322.3
   01/10/2019 11:00      62.7      62.0       53     45.2      0.00      5.36      54.5     0.47      1020.8     1.6       N     6   3.6       N     0   9.67    267      314.8
   01/10/2019 10:50      62.7      62.2       54     45.4      0.00      5.36      54.6     0.47      1021.1     0.9       N   355   2.6       N     3   9.67    267      308.1
   01/10/2019 10:40      62.5      61.3       57     46.3      0.00      5.36      54.6     0.47      1021.2     0.8     NNE    18   2.4       N   355   9.67    267      298.9
   01/10/2019 10:30      61.6      60.2       58     46.3      0.00      5.36      54.6     0.47      1021.4     0.8     NNW   338   2.9      NW   321   9.67    268      289.3
   01/10/2019 10:20      60.3      59.1       60     45.9      0.00      5.36      54.6     0.47      1021.5     1.2      NE    46   2.7     NNE    33   9.68    274      280.4
   01/10/2019 10:10      59.5      58.8       61     45.6      0.00      5.36      54.7     0.47      1021.5     1.6       E    92   3.4       E    87   9.67    279      267.6
   01/10/2019 10:00      59.0      57.0       64     45.8      0.00      5.36      54.7     0.47      1021.6     1.3     ESE   104   3.9       E    84   9.67    283      255.1
   01/10/2019 09:50      57.3      56.0       67     46.0      0.00      5.36      54.7     0.47      1021.7     1.6     ENE    57   3.5       E    88   9.68    287      240.7
   01/10/2019 09:40      56.2      55.3       69     45.8      0.00      5.36      54.8     0.47      1021.6     1.8      NE    49   3.8     ENE    61   9.68    291      227.4
   01/10/2019 09:30      55.7      54.9       70     45.5      0.00      5.36      54.8     0.47      1021.6     1.6     ENE    68   3.2      SE   130   9.67    294      210.7
   01/10/2019 09:20      55.1      53.6       71     45.2      0.00      5.36      54.8     0.47      1021.6     1.4     ENE    75   3.3     ENE    79   9.67    296      195.5
   01/10/2019 09:10      53.9      52.8       73     45.0      0.00      5.36      54.8     0.48      1021.5     0.9      NE    55   2.2      NE    49   9.68    299      203.3
   01/10/2019 09:00      53.5      52.6       77     46.1      0.00      5.36      54.8     0.47      1021.4     1.1     ENE    66   2.8     ENE    65   9.67    314      196.3
   01/10/2019 08:50      52.8      51.3       85     47.6      0.00      5.36      54.9     0.47      1021.4     0.4       E    80   2.0     ESE   109   9.68    348      175.0
   01/10/2019 08:40      51.5      50.7       90     48.0      0.00      5.36      54.9     0.47      1021.4     0.4     ENE    59   1.7     ENE    68   9.67    381      147.2
   01/10/2019 08:30      51.3      49.5       93     48.2      0.00      5.36      54.9     0.47      1021.3     0.0       N     0   0.0     ENE    77   9.67    430      122.7
   01/10/2019 08:20      49.6      46.3       95     46.4      0.00      5.36      54.9     0.48      1021.1     0.0       N     0   0.0     ENE    77   9.67    449       94.0
   01/10/2019 08:10      46.3      44.5       95     43.6      0.00      5.36      55.0     0.48      1021.0     0.0       N     0   0.0       S   182   9.68    466       64.6
   01/10/2019 08:00      44.7      44.0       94     42.7      0.00      5.36      55.0     0.48      1020.9     0.0       N     0   0.0     SSE   156   9.68    468       10.1
   01/10/2019 07:50      44.2      42.9       95     42.1      0.00      5.36      55.0     0.48      1020.9     0.0       N     0   0.0     SSE   156   9.68    465        5.6
   01/10/2019 07:40      43.2      42.1       95     41.2      0.00      5.36      55.0     0.48      1020.8     0.0       N     0   0.0     SSE   155   9.68    462        1.8
   01/10/2019 07:30      42.4      41.8       94     40.6      0.00      5.36      55.0     0.48      1020.8     0.4     SSE   153   1.6      SE   144   9.68    459       -2.5
   01/10/2019 07:20      42.3      41.9       94     40.5      0.00      5.36      55.0     0.48      1020.7     0.5     SSE   159   1.1       S   172   9.68    455       -7.4
   01/10/2019 07:10      42.2      41.5       94     40.2      0.00      5.36      55.0     0.48      1020.7     0.5     SSW   197   1.5       S   175   9.68    451      -11.8
   01/10/2019 07:00      41.8      41.4       94     40.0      0.00      5.36      55.1     0.48      1020.5     0.0     SSE   151   0.8     SSE   161   9.68    447      -15.9
   01/10/2019 06:50      42.0      41.3       94     39.9      0.00      5.36      55.1     0.48      1020.5     0.6     SSE   163   1.9       S   185   9.68    440      -17.6
   01/10/2019 06:40      42.3      41.6       94     40.2      0.00      5.36      55.1     0.48      1020.6     0.0       N     1   1.1     NNE    18   9.68    436      -18.1
   01/10/2019 06:30      42.3      41.5       94     40.2      0.00      5.36      55.1     0.48      1020.6     0.0     NNE    14   0.8     NNE    14   9.68    430      -18.2
   01/10/2019 06:20      42.2      41.6       94     40.1      0.00      5.36      55.2     0.48      1020.6     0.6      SE   135   1.8       E    88   9.68    423      -18.4
   01/10/2019 06:10      42.5      41.6       94     40.3      0.00      5.36      55.2     0.48      1020.6     0.0       N     0   0.0       S   186   9.68    415      -19.0
   01/10/2019 06:00      42.7      42.1       94     40.7      0.00      5.36      55.2     0.48      1020.5     0.0     SSE   165   0.6     SSE   165   9.68    402      -18.6
   01/10/2019 05:50      42.7      41.9       94     40.5      0.00      5.36      55.2     0.48      1020.4     0.3       S   172   0.9       S   177   9.68    393      -19.0
   01/10/2019 05:40      42.4      41.9       93     40.3      0.00      5.36      55.2     0.48      1020.3     0.4      SE   130   1.3      SE   134   9.68    384      -19.8
   01/10/2019 05:30      42.4      41.8       93     40.2      0.00      5.36      55.3     0.48      1020.3     0.2       S   176   1.1       S   181   9.68    377      -19.8
   01/10/2019 05:20      43.1      42.0       93     40.6      0.00      5.36      55.3     0.48      1020.2     0.3      SE   136   0.9      SE   136   9.68    371      -19.9
   01/10/2019 05:10      43.2      42.8       93     41.1      0.00      5.36      55.3     0.48      1020.1     0.0     SSW   198   0.7     WSW   248   9.68    364      -19.9
   01/10/2019 05:00      43.4      43.0       93     41.2      0.00      5.36      55.3     0.48      1020.0     0.0       S   172   0.7       S   172   9.68    357      -20.7
   01/10/2019 04:50      43.5      43.0       93     41.4      0.00      5.36      55.4     0.48      1019.8     0.1     SSE   158   0.7     SSE   158   9.68    352      -20.8
   01/10/2019 04:40      43.6      43.1       93     41.5      0.00      5.36      55.3     0.48      1019.8     0.2     SSE   167   1.0       S   186   9.68    348      -21.5
   01/10/2019 04:30      43.5      42.9       92     41.1      0.00      5.36      55.4     0.48      1019.8     0.0      NE    35   0.4      NE    35   9.68    343      -22.7
   01/10/2019 04:20      43.8      43.0       93     41.3      0.00      5.36      55.4     0.48      1019.8     0.2       S   189   1.2     SSW   197   9.68    339      -23.1
   01/10/2019 04:10      43.6      43.0       92     41.2      0.00      5.36      55.4     0.48      1019.9     0.3      SE   135   1.2      SE   142   9.68    334      -24.1
   01/10/2019 04:00      44.4      43.3       92     41.5      0.00      5.36      55.4     0.48      1020.0     0.6      SE   145   1.3      SE   141   9.68    330      -23.8
   01/10/2019 03:50      44.2      43.5       92     41.6      0.00      5.36      55.4     0.48      1020.0     0.4     SSW   210   1.7     SSW   212   9.68    325      -24.9
   01/10/2019 03:40      44.5      43.7       92     41.7      0.00      5.36      55.5     0.48      1019.9     0.3      SE   140   1.0      SE   135   9.68    322      -26.1
   01/10/2019 03:30      44.6      44.1       92     42.0      0.00      5.36      55.5     0.48      1020.0     0.1      SE   136   0.7      SE   135   9.68    317      -26.9
   01/10/2019 03:20      44.5      44.0       91     41.9      0.00      5.36      55.5     0.48      1020.0     0.2     SSE   147   1.2      SE   145   9.68    312      -28.3
   01/10/2019 03:10      44.7      44.2       91     41.9      0.00      5.36      55.5     0.48      1019.9     1.0     SSE   157   1.7       S   174   9.68    308      -29.5
   01/10/2019 03:00      45.3      44.4       90     42.1      0.00      5.36      55.5     0.48      1020.2     0.5     SSE   160   1.2       S   185   9.68    305      -30.8
   01/10/2019 02:50      45.6      44.8       90     42.4      0.00      5.36      55.5     0.48      1020.3     0.0     NNE    25   0.9     NNE    25   9.68    301      -32.8
   01/10/2019 02:40      45.6      45.1       90     42.6      0.00      5.36      55.5     0.48      1020.3     0.5     SSE   152   1.2      SE   138   9.68    297      -34.3
   01/10/2019 02:30      46.1      45.1       89     42.5      0.00      5.36      55.5     0.48      1020.3     0.7     SSE   162   1.6     SSE   152   9.68    294      -36.1
   01/10/2019 02:20      46.2      45.5       89     42.9      0.00      5.36      55.5     0.48      1020.5     1.5     SSE   168   2.6     SSW   197   9.68    290      -37.9
   01/10/2019 02:10      46.6      45.6       88     42.7      0.00      5.36      55.5     0.48      1020.7     0.8     SSE   157   1.5      SE   140   9.68    288      -43.8
   01/10/2019 02:00      47.1      46.4       87     43.0      0.00      5.36      55.5     0.48      1020.8     0.5     SSW   200   1.3     SSW   194   9.68    285      -47.2
   01/10/2019 01:50      47.6      46.7       86     43.0      0.00      5.36      55.5     0.48      1020.7     0.2       S   177   1.2       S   181   9.68    282      -51.7
   01/10/2019 01:40      48.2      47.3       85     43.4      0.00      5.36      55.5     0.48      1020.6     0.0       N     0   0.0      NW   326   9.68    280      -56.4
   01/10/2019 01:30      48.6      47.8       84     43.4      0.00      5.36      55.5     0.48      1020.6     0.3     SSW   193   0.9     SSE   162   9.68    277      -57.0
   01/10/2019 01:20      49.2      48.3       82     43.5      0.00      5.36      55.5     0.48      1020.5     0.2      SE   137   0.8       E    98   9.68    274      -58.6
   01/10/2019 01:10      50.5      48.9       79     43.7      0.00      5.36      55.5     0.48      1020.4     0.0      SE   143   0.6     SSE   150   9.69    271      -60.0
   01/10/2019 01:00      52.0      50.2       76     43.9      0.00      5.36      55.6     0.48      1020.3     0.2      SE   133   0.9     ENE    72   9.69    270      -62.6
   01/10/2019 00:50      52.1      51.6       75     44.3      0.00      5.36      55.5     0.48      1020.3     2.0     SSW   195   4.0       S   188   9.69    270      -63.5
   01/10/2019 00:40      52.3      51.8       75     44.1      0.00      5.36      55.6     0.48      1020.3     1.8      SW   215   5.2     SSW   212   9.69    270      -63.7
   01/10/2019 00:30      52.1      50.7       78     44.5      0.00      5.36      55.6     0.48      1020.2     1.9      SW   231   6.4      SW   233   9.69    270      -61.6
   01/10/2019 00:20      51.2      50.8       79     44.6      0.00      5.36      55.6     0.48      1020.3     0.4     WSW   240   3.2       W   259   9.69    270      -60.1
   01/10/2019 00:10      51.1      50.8       79     44.6      0.00      5.36      55.6     0.48      1020.2     0.7      SW   232   3.0     WSW   257   9.69    270      -59.9
   01/10/2019 00:00      51.0      50.2       80     44.7      0.00      5.36      55.6     0.48      1020.1     1.7      SW   218   3.2      SW   215   9.69    270      -59.8
   01/09/2019 23:50      50.5      48.7       83     44.6      0.00      5.36      55.6     0.48      1020.1     2.5      SW   225   3.2      SW   222   9.69    270      -58.2
   01/09/2019 23:40      50.1      48.8       83     44.2      0.00      5.36      55.6     0.48      1020.2     1.5     SSW   198   2.9     SSW   202   9.69    269      -57.0
   01/09/2019 23:30      50.1      49.4       83     44.7      0.00      5.36      55.6     0.48      1020.0     1.4     SSW   212   2.8      SW   229   9.69    270      -55.7
   01/09/2019 23:20      50.7      49.8       81     44.6      0.00      5.36      55.6     0.48      1019.9     0.2     ESE   101   1.3      SE   138   9.69    269      -54.8
   01/09/2019 23:10      50.8      50.3       81     44.8      0.00      5.36      55.6     0.48      1019.8     0.0       S   186   0.7       S   180   9.69    269      -54.0
   01/09/2019 23:00      51.5      50.6       79     44.6      0.00      5.36      55.5     0.48      1019.9     0.2     SSE   167   1.2     SSE   159   9.69    270      -56.2
   01/09/2019 22:50      52.4      51.3       77     45.0      0.00      5.36      55.5     0.48      1019.9     0.7      NE    41   1.6     NNE    29   9.69    269      -56.3
   01/09/2019 22:40      53.5      52.2       75     44.9      0.00      5.36      55.6     0.48      1020.0     0.3     ESE   110   1.4      SE   138   9.69    269      -56.8
   01/09/2019 22:30      54.1      53.3       72     44.8      0.00      5.36      55.5     0.48      1020.1     0.7       S   184   2.7       S   174   9.69    269      -59.1
   01/09/2019 22:20      54.0      53.6       72     45.1      0.00      5.36      55.5     0.48      1020.3     1.6       S   188   3.2       S   172   9.69    269      -60.8
   01/09/2019 22:10      54.7      53.6       73     45.6      0.00      5.36      55.5     0.48      1020.3     1.4     SSW   199   2.7     SSW   203   9.70    269      -60.6
   01/09/2019 22:00      55.5      54.5       71     45.8      0.00      5.36      55.5     0.48      1020.3     0.1       E    85   1.1     SSW   204   9.70    269      -61.0
   01/09/2019 21:50      56.0      55.2       71     46.1      0.00      5.36      55.5     0.48      1020.3     1.4      SW   217   3.5     SSW   212   9.70    268      -59.6
   01/09/2019 21:40      55.9      55.5       71     46.3      0.00      5.36      55.5     0.48      1020.2     1.9     SSW   197   3.5     SSW   194   9.70    268      -57.0
   01/09/2019 21:30      55.9      55.5       71     46.5      0.00      5.36      55.5     0.48      1020.1     3.0     SSW   196   6.1     SSW   212   9.70    268      -43.0
   01/09/2019 21:20      55.9      55.4       71     46.3      0.00      5.36      55.5     0.48      1020.0     3.0     SSW   211   5.3     SSW   214   9.70    268      -39.1
   01/09/2019 21:10      55.6      55.0       71     46.2      0.00      5.36      55.5     0.48      1020.0     1.6      SW   230   4.0      SW   231   9.70    268      -37.7
   01/09/2019 21:00      56.3      55.3       69     46.0      0.00      5.36      55.5     0.48      1020.1     0.2     ENE    60   1.4     ENE    57   9.70    268      -37.0
   01/09/2019 20:50      56.6      56.1       68     46.0      0.00      5.36      55.5     0.48      1020.0     0.5       S   178   2.6     SSW   204   9.70    268      -35.5
   01/09/2019 20:40      56.9      56.4       67     45.9      0.00      5.36      55.5     0.48      1020.0     1.6     SSW   204   3.5     SSW   197   9.70    268      -46.9
   01/09/2019 20:30      57.2      56.5       66     45.5      0.00      5.36      55.5     0.48      1020.1     3.3     SSW   212   6.6      SW   220   9.70    268      -46.7
   01/09/2019 20:20      57.4      56.9       65     45.5      0.00      5.36      55.5     0.48      1019.6     1.3     SSW   213   3.3     WSW   236   9.70    268      -25.7
   01/09/2019 20:10      57.8      57.1       63     44.9      0.00      5.36      55.4     0.48      1019.9     3.3     WSW   241   6.7     SSW   211   9.70    268      -25.4
   01/09/2019 20:00      57.6      56.4       61     43.9      0.00      5.36      55.4     0.48      1020.1     5.1     WSW   244   9.4       W   259   9.70    268      -25.6
   01/09/2019 19:50      56.5      55.8       64     44.1      0.00      5.36      55.4     0.48      1019.8     2.9       W   268   5.5     WSW   250   9.70    268      -30.7
   01/09/2019 19:40      56.4      55.9       64     44.3      0.00      5.36      55.4     0.48      1019.7     0.3     SSW   207   1.4     WSW   247   9.70    268      -24.8
   01/09/2019 19:30      56.9      56.1       65     44.8      0.00      5.36      55.3     0.48      1019.9     0.0       N     0   0.0       E    97   9.70    268      -23.1
   01/09/2019 19:20      56.9      56.5       64     44.4      0.00      5.36      55.4     0.48      1019.9     0.8      SE   144   2.5     SSW   211   9.70    268      -14.5
   01/09/2019 19:10      56.8      56.3       64     44.4      0.00      5.36      55.3     0.48      1020.0     1.7     SSW   197   2.6      SW   221   9.70    268      -12.8
   01/09/2019 19:00      57.6      56.4       64     44.8      0.00      5.36      55.3     0.48      1020.0     1.2     ENE    73   2.5     ENE    60   9.71    268      -12.3
   01/09/2019 18:50      57.8      57.3       60     43.9      0.00      5.36      55.3     0.48      1020.2     1.3       S   186   2.2     SSE   164   9.71    268      -13.2
   01/09/2019 18:40      57.5      56.7       62     44.1      0.00      5.36      55.3     0.48      1020.4     1.2       S   180   3.4     SSW   212   9.71    268      -14.0
   01/09/2019 18:30      56.8      54.9       66     44.7      0.00      5.36      55.3     0.48      1020.3     1.8     WSW   257   3.8       W   259   9.71    268      -12.9
   01/09/2019 18:20      55.2      54.0       71     45.3      0.00      5.36      55.2     0.48      1019.9     2.7      SW   226   6.5      SW   231   9.71    268      -25.2
   01/09/2019 18:10      54.9      54.1       71     45.2      0.00      5.36      55.2     0.48      1019.8     0.8      NE    50   2.3      NE    54   9.71    268      -45.9
   01/09/2019 18:00      54.9      54.5       70     45.1      0.00      5.36      55.1     0.48      1019.9     1.1      SE   139   2.6       S   179   9.71    268      -49.5
   01/09/2019 17:50      54.9      54.4       70     45.1      0.00      5.36      55.1     0.48      1019.9     1.9     SSE   164   3.8       S   171   9.71    268      -47.8
   01/09/2019 17:40      55.0      54.4       70     45.2      0.00      5.36      55.1     0.48      1019.8     1.7     SSE   160   3.8       S   170   9.71    268      -55.2
   01/09/2019 17:30      55.8      54.8       68     44.6      0.00      5.36      55.1     0.48      1019.9     2.0     SSW   196   3.0      SW   227   9.71    268      -56.9
   01/09/2019 17:20      57.4      55.5       64     44.4      0.00      5.36      55.0     0.48      1019.8     0.6     SSE   160   1.7     SSE   149   9.71    268      -65.8
   01/09/2019 17:10      58.1      57.1       62     44.4      0.00      5.36      55.0     0.48      1019.8     0.0       N     0   0.0       W   269   9.71    267      -68.2
   01/09/2019 17:00      58.3      57.7       61     44.5      0.00      5.36      54.9     0.48      1019.9     1.2      SW   228   3.7     SSW   211   9.71    267      -63.2
   01/09/2019 16:50      58.3      57.9       61     44.7      0.00      5.36      54.9     0.48      1020.0     2.9      SW   235   6.0     WSW   242   9.72    267      -45.3
   01/09/2019 16:40      58.6      57.9       63     45.5      0.00      5.36      54.9     0.48      1020.0     3.3      SW   222   6.5       W   259   9.71    267      -25.0
   01/09/2019 16:30      59.8      58.3       62     46.0      0.00      5.36      54.8     0.48      1020.0     4.6      SW   226  10.1      SW   221   9.72    267      -21.5
   01/09/2019 16:20      60.6      59.4       61     46.5      0.00      5.36      54.8     0.48      1019.9     3.7     WSW   255   6.5      SW   232   9.72    267      -40.5
   01/09/2019 16:10      61.9      60.3       59     46.3      0.00      5.36      54.7     0.48      1019.7     4.1     WSW   257   7.6       W   264   9.72    266      -48.2
   01/09/2019 16:00      63.0      61.6       54     45.3      0.00      5.36      54.7     0.48      1019.4     2.7       W   281   6.3      NW   311   9.72    266      -35.2
   01/09/2019 15:50      64.1      62.7       49     43.7      0.00      5.36      54.7     0.48      1019.3     3.8     WNW   287   8.9      NW   310   9.72    266       21.5
   01/09/2019 15:40      64.7      63.8       46     42.8      0.00      5.36      54.6     0.48      1019.3     4.7     WNW   287  10.1     WNW   292   9.73    265       60.1
   01/09/2019 15:30      65.5      64.6       46     43.5      0.00      5.36      54.6     0.48      1019.1     4.7     WNW   296   9.2      NW   306   9.73    265       80.8
   01/09/2019 15:20      67.2      65.2       50     46.9      0.00      5.36      54.5     0.48      1018.8     5.1     WNW   294   9.6      NW   305   9.73    265      102.2
   01/09/2019 15:10      67.9      66.8       45     45.0      0.00      5.36      54.5     0.48      1018.5     3.2       W   267   6.5     WSW   251   9.73    265      124.8
   01/09/2019 15:00      67.5      66.3       41     42.2      0.00      5.36      54.5     0.48      1018.4     3.4     WSW   241   6.5     SSW   209   9.73    264      149.5
   01/09/2019 14:50      66.6      66.2       43     43.0      0.00      5.36      54.5     0.48      1018.3     4.4     SSW   200   6.8      SW   215   9.73    265      172.6
   01/09/2019 14:40      68.2      66.4       42     43.7      0.00      5.36      54.4     0.48      1018.2     4.0      SW   220   7.5     SSW   201   9.73    264      204.1
   01/09/2019 14:30      68.0      67.4       40     42.8      0.00      5.36      54.4     0.48      1018.3     2.7     WNW   296   5.5       N   355   9.73    264      201.8
   01/09/2019 14:20      68.5      67.1       42     43.2      0.00      5.36      54.3     0.48      1018.5     4.1       W   261   9.1     WSW   247   9.73    265      195.7
   01/09/2019 14:10      68.3      67.2       41     43.1      0.00      5.36      54.3     0.48      1018.7     3.0       W   265   6.9     WNW   299   9.73    264      211.2
   01/09/2019 14:00      68.0      66.3       42     43.2      0.00      5.36      54.2     0.48      1018.8     2.3     WSW   245   5.5     WNW   284   9.73    264      257.1
   01/09/2019 13:50      67.5      66.6       43     43.6      0.00      5.36      54.2     0.48      1018.8     4.5      SW   230   8.7     WSW   237   9.74    265      271.0
   01/09/2019 13:40      68.1      67.1       42     43.9      0.00      5.36      54.2     0.48      1018.8     3.5     WSW   240   6.6      SW   228   9.74    265      282.4
   01/09/2019 13:30      68.2      66.3       44     44.3      0.00      5.36      54.1     0.48      1018.8     2.3      SW   231   5.4      SW   217   9.74    265      294.9
   01/09/2019 13:20      68.3      66.4       43     44.0      0.00      5.36      54.1     0.48      1018.6     3.2      SW   215   5.8     SSW   202   9.74    266      296.9
   01/09/2019 13:10      68.0      67.1       42     43.9      0.00      5.36      54.1     0.48      1018.7     2.1     WSW   248   5.7     WSW   251   9.74    265      314.3
   01/09/2019 13:00      67.6      66.3       43     44.2      0.00      5.36      54.1     0.48      1018.8     1.7     WSW   245   5.0     WSW   247   9.74    266      312.4
   01/09/2019 12:50      66.5      65.8       45     44.5      0.00      5.36      54.0     0.48      1018.9     2.7     WSW   237   5.5     WSW   247   9.74    266      307.8
   01/09/2019 12:40      66.4      65.5       44     43.2      0.00      5.36      54.0     0.48      1019.1     2.1      NW   314   3.8     SSW   197   9.74    266      301.8
   01/09/2019 12:30      65.8      65.0       44     43.3      0.00      5.36      54.0     0.48      1019.1     1.9       W   274   4.2      SW   215   9.74    266      309.8
   01/09/2019 12:20      65.5      64.8       44     43.0      0.00      5.36      54.0     0.48      1019.1     2.5     WSW   246   5.5       W   261   9.74    266      316.3
   01/09/2019 12:10      65.8      64.8       45     43.6      0.00      5.36      54.0     0.48      1019.3     3.1     WSW   243   5.5       W   278   9.74    266      323.2
   01/09/2019 12:00      65.8      64.8       45     43.1      0.00      5.36      54.0     0.48      1019.5     1.9     WSW   237   5.3     WSW   247   9.74    266      341.7
   01/09/2019 11:50      65.2      64.3       45     43.1      0.00      5.36      54.0     0.48      1019.7     1.7      SW   220   3.7     SSW   195   9.74    266      342.4
   01/09/2019 11:40      65.6      64.4       46     43.5      0.00      5.36      53.9     0.48      1020.0     2.2      SW   224   4.5     SSW   209   9.74    266      334.0
   01/09/2019 11:30      65.4      64.3       46     43.3      0.00      5.36      54.0     0.48      1020.3     1.2     SSW   200   2.8      SW   217   9.74    267      333.2
   01/09/2019 11:20      64.7      64.2       45     42.6      0.00      5.36      54.0     0.48      1020.5     0.8      NW   326   3.1       S   190   9.74    266      329.0
   01/09/2019 11:10      64.6      63.6       46     42.7      0.00      5.36      54.0     0.48      1020.7     1.0     NNE    26   2.6      NE    50   9.74    266      324.8
   01/09/2019 11:00      63.6      62.4       47     42.6      0.00      5.36      54.0     0.48      1020.9     0.7     NNE    26   2.2       N     4   9.74    266      320.3
   01/09/2019 10:50      62.7      61.2       49     42.6      0.00      5.36      54.0     0.48      1021.1     1.1       N     0   3.6      NE    37   9.74    266      312.4
   01/09/2019 10:40      61.5      60.5       51     42.6      0.00      5.36      54.1     0.48      1021.4     1.5      NW   311   3.9     NNW   337   9.74    272      301.8
   01/09/2019 10:30      60.6      59.5       53     43.0      0.00      5.36      54.1     0.48      1021.5     1.6      NW   319   3.6     WNW   281   9.74    278      281.3
   01/09/2019 10:20      60.0      59.3       54     43.0      0.00      5.36      54.1     0.48      1021.7     1.7       N     5   3.8     NNE    23   9.74    283      282.0
   01/09/2019 10:10      59.6      58.3       57     43.5      0.00      5.36      54.1     0.48      1021.8     1.2      NE    40   2.9       N     9   9.74    288      273.0
   01/09/2019 10:00      58.7      58.0       57     43.2      0.00      5.36      54.2     0.48      1021.9     1.1     NNE    24   2.3     NNE    31   9.74    292      261.5
   01/09/2019 09:50      58.2      57.5       59     43.7      0.00      5.36      54.2     0.48      1022.1     1.0      NW   315   2.5       N   352   9.74    295      247.9
   01/09/2019 09:40      58.3      57.4       61     44.2      0.00      5.36      54.2     0.48      1022.2     0.7     NNW   345   1.7       N   353   9.75    297      232.4
   01/09/2019 09:30      58.5      56.5       63     45.3      0.00      5.36      54.2     0.48      1022.2     0.2     NNW   331   1.7     NNW   340   9.75    300      252.1
   01/09/2019 09:20      56.7      54.0       69     45.3      0.00      5.36      54.3     0.48      1022.1     0.0     WNW   289   0.6     WNW   289   9.75    303      239.2
   01/09/2019 09:10      53.9      51.6       78     46.0      0.00      5.36      54.3     0.48      1022.2     0.1     NNE    24   0.8     NNE    31   9.75    313      218.0
   01/09/2019 09:00      51.8      50.7       83     46.2      0.00      5.36      54.3     0.48      1022.1     0.8       N    11   1.5       N     0   9.75    338      191.3
   01/09/2019 08:50      51.0      50.3       88     47.2      0.00      5.36      54.3     0.48      1022.0     0.4      NE    42   1.4     NNE    18   9.75    390      159.4
   01/09/2019 08:40      51.0      48.6       93     47.8      0.00      5.36      54.4     0.48      1022.0     0.0      NE    45   0.5      NE    45   9.75    439      131.9
   01/09/2019 08:30      48.7      46.3       95     45.8      0.00      5.36      54.4     0.48      1021.9     0.0     WSW   254   0.5     WSW   254   9.75    465      102.5
   01/09/2019 08:20      46.3      43.9       95     43.4      0.00      5.36      54.4     0.48      1021.9     0.3      SE   140   1.0      SE   140   9.75    477       74.4
   01/09/2019 08:10      43.9      42.5       95     41.7      0.00      5.36      54.5     0.48      1021.9     0.0       N     0   0.0       S   189   9.75    492       55.9
   01/09/2019 08:00      42.6      41.9       95     40.8      0.00      5.36      54.5     0.48      1021.8     0.0       N     0   0.0     WSW   250   9.75    494       10.7
   01/09/2019 07:50      42.3      41.0       95     40.3      0.00      5.36      54.5     0.48      1021.8     0.6     WSW   252   1.6     WSW   250   9.75    492        5.9
   01/09/2019 07:40      41.1      40.1       95     39.0      0.00      5.36      54.5     0.48      1021.6     0.2       S   190   1.1       W   261   9.75    488        2.1
   01/09/2019 07:30      40.4      40.0       95     38.7      0.00      5.36      54.5     0.48      1021.6     0.0       N     0   0.0      SE   143   9.75    485       -2.2
   01/09/2019 07:20      40.5      40.1       95     38.8      0.00      5.36      54.6     0.48      1021.5     0.1     SSE   152   1.0      SE   145   9.75    482       -6.5
   01/09/2019 07:10      40.8      40.1       94     38.9      0.00      5.36      54.6     0.48      1021.4     0.0       S   173   0.8     SSE   151   9.75    478      -10.7
   01/09/2019 07:00      40.9      40.4       95     39.1      0.00      5.36      54.6     0.48      1021.4     0.0      SE   146   0.4      SE   145   9.75    474      -14.0
   01/09/2019 06:50      40.8      40.2       95     39.0      0.00      5.36      54.7     0.48      1021.3     0.6     SSE   148   1.1     SSE   147   9.75    467      -15.5
   01/09/2019 06:40      40.6      39.7       94     38.4      0.00      5.36      54.7     0.48      1021.2     0.5       S   170   1.4       S   186   9.75    463      -16.0
   01/09/2019 06:30      40.9      40.0       94     38.7      0.00      5.36      54.7     0.48      1021.3     0.3     SSE   151   0.9     SSE   148   9.75    459      -16.1
   01/09/2019 06:20      40.9      40.4       94     39.2      0.00      5.36      54.7     0.48      1021.3     0.2      SW   225   1.0      SW   222   9.75    455      -16.0
   01/09/2019 06:10      41.0      40.5       94     39.2      0.00      5.36      54.8     0.48      1021.2     0.1     SSE   157   0.8     SSE   159   9.75    450      -15.9
   01/09/2019 06:00      41.0      40.4       94     39.1      0.00      5.36      54.8     0.48      1021.2     0.2     SSE   147   0.8     SSE   159   9.75    446      -15.9
   01/09/2019 05:50      40.8      40.3       94     39.0      0.00      5.36      54.8     0.48      1021.1     0.5       S   185   1.3       S   176   9.75    441      -15.8
   01/09/2019 05:40      40.8      40.2       94     38.8      0.00      5.36      54.8     0.48      1021.0     0.3       S   176   0.9     SSE   164   9.75    437      -16.3
   01/09/2019 05:30      40.9      40.3       94     38.9      0.00      5.36      54.8     0.48      1020.9     0.0      SE   137   0.6      SE   137   9.75    433      -16.4
   01/09/2019 05:20      41.0      40.5       94     39.0      0.00      5.36      54.8     0.48      1020.9     0.0       N     0   0.0       S   170   9.75    429      -16.9
   01/09/2019 05:10      41.4      40.7       94     39.3      0.00      5.36      54.8     0.48      1020.9     0.0       N     0   0.0       S   170   9.75    423      -16.9
   01/09/2019 05:00      41.4      41.0       94     39.5      0.00      5.36      54.9     0.48      1020.9     0.0       N     0   0.0      SE   134   9.75    419      -16.9
   01/09/2019 04:50      41.5      40.9       93     39.4      0.00      5.36      54.9     0.48      1020.9     0.0       N     0   0.0     SSE   150   9.75    414      -17.1
   01/09/2019 04:40      41.5      40.7       94     39.5      0.00      5.36      54.9     0.48      1020.9     0.0     SSE   150   0.6     SSE   150   9.75    409      -17.6
   01/09/2019 04:30      41.8      40.7       93     39.2      0.00      5.36      55.0     0.48      1020.9     0.2     SSE   150   0.8     SSE   150   9.75    404      -17.7
   01/09/2019 04:20      41.7      41.1       93     39.6      0.00      5.36      55.0     0.48      1021.0     0.2       S   175   0.8       S   189   9.76    398      -17.5
   01/09/2019 04:10      41.8      41.2       93     39.4      0.00      5.36      55.0     0.48      1021.0     0.3     SSE   157   0.9      SE   136   9.76    391      -18.4
   01/09/2019 04:00      42.0      41.4       93     39.7      0.00      5.36      55.0     0.48      1021.0     0.1     ESE   116   1.1      SE   136   9.76    382      -18.7
   01/09/2019 03:50      42.2      41.6       93     39.9      0.00      5.36      55.0     0.48      1020.9     0.2     NNE    22   0.7     NNE    19   9.76    373      -19.0
   01/09/2019 03:40      42.2      41.7       93     40.0      0.00      5.36      55.0     0.48      1020.9     0.4     SSE   163   1.1      SE   146   9.76    361      -19.0
   01/09/2019 03:30      42.7      41.8       92     40.1      0.00      5.36      55.0     0.48      1021.0     0.3     SSE   149   1.2      SE   142   9.76    353      -19.6
   01/09/2019 03:20      42.9      42.5       93     40.6      0.00      5.36      55.0     0.48      1021.1     0.1     SSE   163   0.6     SSE   163   9.76    348      -19.6
   01/09/2019 03:10      42.8      42.3       92     40.5      0.00      5.36      55.1     0.48      1021.2     0.1     SSE   166   0.6     SSE   166   9.76    342      -20.0
   01/09/2019 03:00      42.8      42.5       92     40.6      0.00      5.36      55.1     0.48      1021.2     0.0       N     0   0.0       S   171   9.76    338      -20.6
   01/09/2019 02:50      42.8      42.2       92     40.4      0.00      5.36      55.2     0.48      1021.1     0.3     SSE   167   1.0     SSE   164   9.76    334      -20.8
   01/09/2019 02:40      43.3      42.2       92     40.4      0.00      5.36      55.2     0.48      1021.1     0.5      SE   143   1.4      SE   141   9.76    330      -22.0
   01/09/2019 02:30      43.3      42.9       92     40.8      0.00      5.36      55.2     0.48      1021.1     0.0       N     0   0.0     SSE   157   9.76    324      -22.4
   01/09/2019 02:20      43.4      42.9       91     40.7      0.00      5.36      55.2     0.48      1021.0     0.5     SSE   152   1.2      SE   143   9.76    320      -22.8
   01/09/2019 02:10      44.0      42.9       91     40.7      0.00      5.36      55.2     0.48      1021.0     0.5     SSE   149   1.4      SE   143   9.76    316      -23.4
   01/09/2019 02:00      43.9      43.4       91     41.1      0.00      5.36      55.2     0.48      1020.9     0.0      SW   215   0.5      SW   227   9.76    312      -23.0
   01/09/2019 01:50      43.9      43.5       91     41.2      0.00      5.36      55.2     0.48      1020.8     0.1       S   180   0.7     SSW   192   9.76    309      -24.3
   01/09/2019 01:40      43.9      43.5       91     41.1      0.00      5.36      55.3     0.49      1020.6     0.3     SSE   153   1.1     SSE   154   9.76    306      -25.7
   01/09/2019 01:30      44.3      43.5       90     41.3      0.00      5.36      55.2     0.49      1020.6     0.4     SSE   161   1.0     SSE   164   9.76    303      -26.4
   01/09/2019 01:20      44.4      43.9       90     41.4      0.00      5.36      55.3     0.49      1020.6     0.2     SSE   157   0.7     SSE   155   9.76    301      -27.8
   01/09/2019 01:10      44.6      44.1       90     41.5      0.00      5.36      55.3     0.49      1020.6     0.1     SSE   152   0.8     SSE   149   9.76    298      -29.1
   01/09/2019 01:00      44.9      44.4       90     41.7      0.00      5.36      55.3     0.49      1020.6     0.0      SE   146   0.4     SSE   158   9.76    296      -30.6
   01/09/2019 00:50      44.8      44.4       89     41.7      0.00      5.36      55.3     0.49      1020.5     0.3     SSE   158   0.9     SSE   158   9.76    293      -32.5
   01/09/2019 00:40      44.8      44.3       89     41.5      0.00      5.36      55.3     0.49      1020.5     0.5     SSE   163   1.1     SSE   156   9.76    291      -34.5
   01/09/2019 00:30      45.0      44.5       89     41.5      0.00      5.36      55.4     0.49      1020.5     0.3     SSE   164   1.0     SSE   152   9.76    289      -36.5
   01/09/2019 00:20      45.2      44.6       88     41.6      0.00      5.36      55.4     0.49      1020.4     0.4       S   182   1.0     SSW   210   9.77    286      -38.6
   01/09/2019 00:10      45.5      44.9       88     41.7      0.00      5.36      55.4     0.49      1020.5     0.4      SE   144   1.2      SE   128   9.77    285      -41.3
   01/09/2019 00:00      45.9      45.1       87     41.6      0.00      5.36      55.4     0.49      1020.6     0.5     SSE   153   1.5      SE   144   9.77    283      -44.5
   01/08/2019 23:50      46.0      45.4       86     41.8      0.00      5.36      55.4     0.49      1020.7     0.7     SSE   167   1.4     SSW   204   9.77    281      -45.4
   01/08/2019 23:40      46.1      45.5       86     41.8      0.00      5.36      55.4     0.49      1020.7     0.4     SSW   207   0.8     SSW   208   9.77    279      -47.1
   01/08/2019 23:30      46.6      45.8       85     41.8      0.00      5.36      55.4     0.49      1020.8     0.0       E    83   0.6     ENE    78   9.77    278      -48.4
   01/08/2019 23:20      46.6      46.3       85     42.1      0.00      5.36      55.4     0.49      1020.9     0.0      SE   143   0.8     SSE   150   9.77    277      -50.1
   01/08/2019 23:10      47.0      46.2       84     42.0      0.00      5.36      55.4     0.49      1020.9     0.3       S   190   1.1     SSW   206   9.77    275      -53.7
   01/08/2019 23:00      47.0      46.4       85     42.3      0.00      5.36      55.4     0.49      1020.8     1.0      SE   144   2.3      SE   140   9.77    275      -56.6
   01/08/2019 22:50      47.9      46.8       83     42.2      0.00      5.36      55.4     0.49      1020.8     0.5     SSE   157   1.2      SE   146   9.77    275      -56.2
   01/08/2019 22:40      47.7      46.7       85     42.8      0.00      5.36      55.4     0.49      1020.8     2.2     SSW   209   3.1      SW   215   9.77    273      -53.6
   01/08/2019 22:30      47.4      46.6       84     42.4      0.00      5.36      55.4     0.49      1020.7     0.4     SSW   204   1.4      SW   220   9.77    275      -55.1
   01/08/2019 22:20      47.9      47.1       83     42.6      0.00      5.36      55.4     0.49      1020.6     0.0     SSE   164   0.6     SSE   164   9.77    273      -55.5
   01/08/2019 22:10      48.1      47.4       83     42.7      0.00      5.36      55.4     0.49      1020.6     0.3      SW   216   0.8     SSW   198   9.77    271      -55.8
   01/08/2019 22:00      48.4      47.8       82     42.9      0.00      5.36      55.4     0.49      1020.6     0.2     ESE   108   1.0     ENE    60   9.77    270      -56.8
   01/08/2019 21:50      48.7      48.0       82     43.0      0.00      5.36      55.4     0.49      1020.6     0.3     SSE   152   1.1     SSE   147   9.77    270      -55.5
   01/08/2019 21:40      48.7      48.3       81     43.0      0.00      5.36      55.5     0.49      1020.5     0.4     SSE   165   1.6      SE   138   9.77    270      -55.8
   01/08/2019 21:30      48.8      48.3       81     43.0      0.00      5.36      55.5     0.49      1020.4     0.3     SSE   168   1.0       S   186   9.77    270      -57.0
   01/08/2019 21:20      49.0      48.4       81     43.0      0.00      5.36      55.4     0.49      1020.3     0.7     SSE   156   1.2      SE   145   9.77    270      -57.7
   01/08/2019 21:10      49.4      48.7       79     42.8      0.00      5.36      55.4     0.49      1020.2     0.4     SSE   160   1.1     SSE   147   9.78    270      -58.1
   01/08/2019 21:00      49.7      49.2       78     42.7      0.00      5.36      55.4     0.49      1020.2     0.8     SSE   154   1.5     SSE   150   9.78    270      -57.6
   01/08/2019 20:50      50.0      49.4       77     42.6      0.00      5.36      55.4     0.49      1020.1     1.0     SSE   154   1.6     SSE   157   9.78    269      -57.8
   01/08/2019 20:40      50.5      49.7       75     42.3      0.00      5.36      55.4     0.49      1020.1     1.0     SSE   153   1.5     SSE   163   9.78    269      -56.8
   01/08/2019 20:30      50.4      49.9       74     42.1      0.00      5.36      55.4     0.49      1019.9     1.6     SSW   203   3.9     SSW   211   9.78    269      -55.1
   01/08/2019 20:20      50.4      49.9       76     42.7      0.00      5.36      55.4     0.49      1019.7     1.1       S   186   2.1       S   184   9.78    269      -55.9
   01/08/2019 20:10      50.5      50.1       75     42.5      0.00      5.36      55.4     0.49      1019.6     0.8      SE   135   2.1     NNE    15   9.78    269      -56.2
   01/08/2019 20:00      51.3      50.3       74     42.7      0.00      5.36      55.4     0.49      1019.5     0.5     SSE   167   1.1       S   181   9.78    269      -57.4
   01/08/2019 19:50      51.9      51.0       72     42.6      0.00      5.36      55.4     0.49      1019.4     0.4     SSE   160   1.0     SSE   167   9.78    269      -57.6
   01/08/2019 19:40      52.1      51.6       71     42.6      0.00      5.36      55.4     0.49      1019.4     0.4     SSE   154   0.9     SSE   165   9.78    269      -56.7
   01/08/2019 19:30      52.0      51.8       69     42.1      0.00      5.36      55.3     0.49      1019.4     0.4     SSE   162   1.0       S   175   9.78    268      -54.3
   01/08/2019 19:20      52.7      51.8       71     43.0      0.00      5.36      55.3     0.49      1019.3     0.6     SSE   168   1.7     SSE   148   9.78    269      -56.5
   01/08/2019 19:10      53.3      52.5       68     42.7      0.00      5.36      55.3     0.49      1019.2     0.6     SSE   160   1.4     SSE   152   9.78    268      -58.5
   01/08/2019 19:00      53.8      52.7       69     43.2      0.00      5.36      55.3     0.49      1019.2     0.8     SSW   191   1.6     SSW   206   9.79    268      -58.1
   01/08/2019 18:50      54.3      53.4       69     43.7      0.00      5.36      55.3     0.49      1019.1     0.7      SE   136   1.4      SE   130   9.79    268      -57.6
   01/08/2019 18:40      54.1      53.4       70     44.1      0.00      5.36      55.2     0.49      1019.1     0.4       E    86   1.5     NNE    22   9.79    268      -55.7
   01/08/2019 18:30      55.0      53.5       69     44.2      0.00      5.36      55.2     0.49      1019.1     0.5     SSE   167   1.9     SSE   154   9.78    268      -54.2
   01/08/2019 18:20      56.0      54.9       66     44.3      0.00      5.36      55.2     0.49      1019.0     0.9       S   172   1.9       S   179   9.79    268      -54.1
   01/08/2019 18:10      56.5      55.6       64     44.2      0.00      5.36      55.2     0.49      1019.0     1.1       S   185   2.5     SSW   205   9.79    268      -52.7
   01/08/2019 18:00      57.2      55.9       65     44.8      0.00      5.36      55.1     0.49      1018.7     1.6       S   175   3.7       S   182   9.79    268      -52.7
   01/08/2019 17:50      57.5      56.9       63     44.4      0.00      5.36      55.1     0.49      1018.5     0.9     SSW   204   3.1     SSE   163   9.79    268      -53.0
   01/08/2019 17:40      58.0      57.0       61     44.3      0.00      5.36      55.1     0.49      1018.5     1.1      SW   224   3.3       S   172   9.79    268      -52.9
   01/08/2019 17:30      58.5      57.5       61     44.4      0.00      5.36      55.0     0.49      1018.4     1.0     SSW   198   2.3      SW   232   9.79    268      -52.7
   01/08/2019 17:20      59.8      58.3       59     44.6      0.00      5.36      55.0     0.49      1018.3     0.3     SSW   204   1.5       S   183   9.79    268      -55.6
   01/08/2019 17:10      61.4      59.4       55     44.1      0.00      5.36      55.0     0.49      1018.1     1.2     WSW   252   2.5      SW   226   9.79    267      -56.9
   01/08/2019 17:00      62.4      61.1       50     43.0      0.00      5.36      55.0     0.49      1017.9     0.7     SSW   194   1.8      SW   227   9.79    267      -55.5
   01/08/2019 16:50      63.2      62.1       48     42.4      0.00      5.36      54.9     0.49      1017.8     0.9       S   173   2.1     SSE   148   9.79    267      -49.2
   01/08/2019 16:40      63.5      62.8       47     42.4      0.00      5.36      54.9     0.49      1017.8     0.7     ESE   119   2.9      SE   143   9.80    266      -43.6
   01/08/2019 16:30      64.0      63.2       47     42.7      0.00      5.36      54.8     0.49      1017.8     1.1     ESE   103   2.3     ESE   102   9.80    266      -32.8
   01/08/2019 16:20      64.4      63.6       45     42.5      0.00      5.36      54.8     0.49      1018.0     1.4     SSE   151   3.2     SSE   155   9.80    266      -21.7
   01/08/2019 16:10      64.8      64.1       44     42.3      0.00      5.36      54.8     0.49      1018.1     2.3     SSE   152   3.6      SE   141   9.80    266      -13.9
   01/08/2019 16:00      65.7      64.6       44     42.5      0.00      5.36      54.7     0.49      1018.1     2.5     SSE   166   5.2     SSE   153   9.80    266       -5.2
   01/08/2019 15:50      66.5      65.4       43     42.6      0.00      5.36      54.7     0.49      1018.2     1.9       S   169   4.3     SSE   165   9.80    266        7.7
   01/08/2019 15:40      66.6      66.1       41     41.9      0.00      5.36      54.7     0.49      1018.3     2.0       S   175   3.5     SSE   163   9.80    266       21.6
   01/08/2019 15:30      67.1      66.3       40     41.5      0.00      5.36      54.6     0.49      1018.2     2.9       S   180   4.9       S   182   9.80    266       37.8
   01/08/2019 15:20      68.1      67.0       39     41.3      0.00      5.36      54.6     0.49      1018.0     3.0     SSE   156   5.4      SE   139   9.81    266       54.9
   01/08/2019 15:10      69.0      67.9       36     40.9      0.00      5.36      54.6     0.49      1017.9     2.0     ESE   111   4.4      SE   143   9.81    265       60.3
   01/08/2019 15:00      68.8      67.6       35     39.8      0.00      5.36      54.5     0.49      1017.9     1.8       E    91   4.1     ENE    58   9.81    265      144.3
   01/08/2019 14:50      68.0      67.2       37     40.0      0.00      5.36      54.5     0.49      1017.9     2.5       E    89   5.1      SE   135   9.81    266       85.0
   01/08/2019 14:40      68.8      67.8       37     41.2      0.00      5.36      54.4     0.49      1017.8     2.6      SE   144   5.5       S   185   9.81    265       78.2
   01/08/2019 14:30      69.5      68.6       37     41.6      0.00      5.36      54.4     0.49      1017.9     2.1     SSE   158   4.9       S   184   9.81    264      202.1
   01/08/2019 14:20      69.4      68.3       39     42.7      0.00      5.36      54.4     0.49      1018.1     1.6      SE   130   3.9       S   187   9.81    264      216.8
   01/08/2019 14:10      69.0      68.1       40     43.1      0.00      5.36      54.3     0.49      1018.2     1.8      NE    42   3.5     ESE   113   9.81    265      183.9
   01/08/2019 14:00      69.2      68.3       39     42.8      0.00      5.36      54.3     0.49      1018.3     1.6     NNW   338   3.9       N     0   9.81    265      174.3
   01/08/2019 13:50      69.3      67.8       40     43.3      0.00      5.36      54.3     0.49      1018.4     1.0      NE    40   2.9     NNE    30   9.81    265      222.1
   01/08/2019 13:40      68.0      67.4       40     42.4      0.00      5.36      54.2     0.49      1018.3     2.2       E    85   4.6     ENE    62   9.81    266      226.4
   01/08/2019 13:30      68.1      67.3       40     42.4      0.00      5.36      54.3     0.49      1018.4     2.4     ESE   115   5.2       E    95   9.81    265      247.6
   01/08/2019 13:20      68.0      66.6       41     43.2      0.00      5.36      54.2     0.49      1018.4     1.3       E    86   3.2      SE   137   9.81    266      234.8
   01/08/2019 13:10      67.1      66.4       41     42.3      0.00      5.36      54.2     0.49      1018.6     2.2      SE   137   4.7     SSE   161   9.81    266      193.9
   01/08/2019 13:00      67.7      66.6       42     42.9      0.00      5.36      54.1     0.49      1018.6     2.0      SE   126   4.0      SE   136   9.81    266      200.9
   01/08/2019 12:50      68.5      67.5       40     43.1      0.00      5.36      54.1     0.49      1018.7     1.3     ESE   121   4.0     SSE   159   9.81    266      225.4
   01/08/2019 12:40      68.5      67.8       40     43.1      0.00      5.36      54.1     0.49      1018.8     0.7       E   100   2.2       E   100   9.81    266      211.7
   01/08/2019 12:30      68.2      67.2       41     43.1      0.00      5.36      54.1     0.49      1018.9     1.1       E    89   3.3     ENE    61   9.81    266      273.1
   01/08/2019 12:20      68.0      66.2       43     43.6      0.00      5.36      54.0     0.49      1018.9     0.4     ENE    74   2.4       E    99   9.81    266      267.9
   01/08/2019 12:10      66.5      65.8       43     43.2      0.00      5.36      54.1     0.49      1019.1     1.2     SSE   151   2.8       E   100   9.81    266      287.8
   01/08/2019 12:00      67.1      65.7       45     44.2      0.00      5.36      54.0     0.49      1019.2     0.7      NE    45   1.4      NE    53   9.81    266      231.0
   01/08/2019 11:50      66.9      65.3       46     44.8      0.00      5.36      54.0     0.49      1019.4     0.2     ENE    75   1.5     ENE    63   9.82    266      210.8
   01/08/2019 11:40      65.7      65.2       45     43.5      0.00      5.36      54.0     0.49      1019.5     0.8     ESE   120   2.1      SE   126   9.82    266      275.6
   01/08/2019 11:30      65.5      64.2       46     43.6      0.00      5.36      54.0     0.49      1019.8     0.7     ENE    64   1.8     NNW   348   9.82    267      337.5
   01/08/2019 11:20      64.6      64.1       49     44.7      0.00      5.36      54.1     0.49      1020.0     1.2     ESE   111   3.1      NE    56   9.82    267      321.5
   01/08/2019 11:10      64.6      63.7       48     44.0      0.00      5.36      54.0     0.49      1020.3     0.6     SSE   147   2.1      SW   222   9.82    267      307.3
   01/08/2019 11:00      64.3      63.2       47     43.2      0.00      5.36      54.0     0.49      1020.5     0.7     SSW   196   2.0       S   178   9.82    268      311.5
   01/08/2019 10:50      63.5      62.4       48     43.0      0.00      5.36      54.1     0.49      1020.7     1.0      SW   235   2.7     WSW   237   9.82    268      315.1
   01/08/2019 10:40      62.5      61.7       51     43.5      0.00      5.36      54.1     0.49      1020.9     1.3      SW   232   2.2     WSW   251   9.82    274      314.3
   01/08/2019 10:30      62.4      61.7       50     43.3      0.00      5.36      54.1     0.49      1020.9     1.1     SSW   211   2.7      SW   229   9.82    282      285.2
   01/08/2019 10:20      62.3      60.9       55     45.2      0.00      5.36      54.1     0.49      1021.1     0.5       S   181   1.6       S   173   9.82    311      299.1
   01/08/2019 10:10      61.1      59.4       56     44.7      0.00      5.36      54.1     0.49      1021.3     0.6      SE   135   2.0       S   189   9.82    375      284.1
   01/08/2019 10:00      59.5      57.4       72     49.1      0.00      5.36      54.1     0.49      1021.3     0.6       S   182   1.5     SSW   206   9.82    441      328.4
   01/08/2019 09:50      57.5      55.7       88     53.1      0.00      5.36      54.2     0.49      1021.3     0.0       N     0   0.0       N   353   9.82    489      357.8
   01/08/2019 09:40      55.8      54.2       90     52.2      0.00      5.36      54.2     0.49      1021.4     0.0       N     2   0.6       N     0   9.82    533      286.4
   01/08/2019 09:30      54.6      54.0       92     51.9      0.00      5.36      54.2     0.49      1021.6     0.3       N     2   1.6     NNE    17   9.82    561      242.4
   01/08/2019 09:20      54.5      52.1       94     51.4      0.00      5.36      54.2     0.49      1021.6     0.0       N     0   0.0     ENE    71   9.82    586      214.0
   01/08/2019 09:10      52.2      51.0       94     49.7      0.00      5.36      54.2     0.49      1021.5     0.1     ENE    57   1.0      NE    53   9.82    606      183.9
   01/08/2019 09:00      51.2      49.8       95     48.7      0.00      5.36      54.3     0.49      1021.4     0.2      SE   131   0.7      SE   126   9.83    624      177.1
   01/08/2019 08:50      50.2      48.9       95     48.2      0.00      5.36      54.3     0.49      1021.4     0.0       N     0   0.0       E    91   9.83    639      121.9
   01/08/2019 08:40      49.1      47.6       95     47.0      0.00      5.36      54.3     0.49      1021.3     0.0       N     0   0.0       E    94   9.83    646      110.4
   01/08/2019 08:30      47.8      46.8       95     45.9      0.00      5.36      54.3     0.49      1021.3     0.2      SE   136   1.1      SE   137   9.83    652       85.8
   01/08/2019 08:20      47.2      46.2       96     45.4      0.00      5.36      54.3     0.49      1021.2     0.3     SSE   149   1.6     SSE   150   9.83    655       61.1
   01/08/2019 08:10      46.5      45.8       96     45.0      0.00      5.36      54.3     0.49      1021.1     0.0       W   277   0.6      NW   306   9.83    656       53.9
   01/08/2019 08:00      45.9      45.3       96     44.3      0.00      5.36      54.4     0.49      1021.1     0.0     WSW   246   0.8     WSW   246   9.83    657       43.3
   01/08/2019 07:50      45.5      44.8       96     44.0      0.00      5.36      54.3     0.49      1021.2     0.5       N     9   1.7     ESE   108   9.83    658       40.8
   01/08/2019 07:40      45.1      43.9       96     43.3      0.00      5.36      54.4     0.49      1021.1     1.6       S   190   3.8       W   266   9.83    658       31.1
   01/08/2019 07:30      44.2      43.3       96     42.7      0.00      5.36      54.4     0.49      1021.1     0.8      SW   214   2.0      SE   133   9.83    659       20.4
   01/08/2019 07:20      43.9      43.2       96     42.2      0.00      5.36      54.4     0.49      1021.0     0.5     ESE   106   1.5      SW   231   9.83    658       11.1
   01/08/2019 07:10      43.9      43.4       96     42.5      0.00      5.36      54.4     0.49      1020.9     0.7       E    84   1.9       E    99   9.83    656        3.5
   01/08/2019 07:00      43.8      43.0       96     42.3      0.00      5.36      54.5     0.49      1020.8     1.3     SSW   203   3.0       S   183   9.84    663        0.6
   01/08/2019 06:50      43.8      43.0       96     42.1      0.00      5.36      54.5     0.49      1020.9     1.3       E    99   3.2      SW   228   9.84    661       -2.5
   01/08/2019 06:40      43.9      43.1       96     42.3      0.00      5.36      54.5     0.49      1020.9     1.1     SSW   196   2.7     WSW   241   9.84    659       -3.8
   01/08/2019 06:30      43.9      43.0       95     42.1      0.00      5.36      54.5     0.49      1020.9     0.4     SSW   198   1.4     NNE    30   9.84    657       -3.9
   01/08/2019 06:20      43.8      43.3       96     42.4      0.00      5.36      54.5     0.49      1020.9     0.7     SSE   159   1.8      SE   141   9.84    657       -4.1
   01/08/2019 06:10      43.9      43.2       96     42.3      0.00      5.36      54.5     0.49      1020.8     0.3     NNW   329   1.3      SW   232   9.84    654       -4.0
   01/08/2019 06:00      44.2      43.4       96     42.5      0.00      5.36      54.6     0.49      1020.8     0.6      SE   146   2.0      SE   139   9.84    650       -4.2
   01/08/2019 05:50      44.3      43.7       96     42.7      0.00      5.36      54.6     0.49      1020.7     0.0      SE   140   1.6      SE   138   9.84    651       -3.9
   01/08/2019 05:40      44.2      43.7       96     42.7      0.00      5.36      54.6     0.49      1020.7     0.3       W   270   1.5     WSW   248   9.84    649       -3.7
   01/08/2019 05:30      44.2      43.7       96     42.8      0.00      5.36      54.6     0.49      1020.8     0.6     SSE   164   1.2      SW   225   9.84    646       -3.7
   01/08/2019 05:20      44.9      43.9       95     43.0      0.00      5.36      54.6     0.49      1020.6     0.2     ESE   122   1.1      NW   318   9.85    644       -4.0
   01/08/2019 05:10      45.0      44.0       96     43.5      0.00      5.36      54.6     0.49      1021.0     1.3     ESE   106   3.2      SW   220   9.85    640       -3.5
   01/08/2019 05:00      44.3      43.5       96     42.7      0.00      5.36      54.7     0.49      1020.8     1.1      SW   216   2.6       W   265   9.85    638       -3.4
   01/08/2019 04:50      44.0      43.6       96     42.7      0.00      5.36      54.6     0.49      1020.7     0.6       S   171   2.8     SSE   146   9.85    636       -3.6
   01/08/2019 04:40      44.5      43.7       96     42.9      0.00      5.36      54.7     0.49      1020.8     0.2      SE   135   1.0      SE   138   9.85    639       -3.6
   01/08/2019 04:30      44.4      44.0       96     43.0      0.00      5.36      54.7     0.49      1020.9     0.0      NW   320   0.9       N   353   9.85    635       -3.5
   01/08/2019 04:20      44.5      44.1       96     43.2      0.00      5.36      54.7     0.49      1020.8     0.0      NW   321   1.1     NNW   349   9.85    632       -4.0
   01/08/2019 04:10      44.3      43.9       96     42.9      0.00      5.36      54.8     0.49      1020.6     0.6     SSW   207   1.8     SSW   214   9.85    628       -3.8
   01/08/2019 04:00      44.4      44.0       96     42.9      0.00      5.36      54.8     0.49      1020.6     0.1     ENE    68   1.0       S   174   9.85    625       -3.3
   01/08/2019 03:50      44.9      44.1       96     43.3      0.00      5.36      54.8     0.49      1020.6     0.4      SW   230   1.5      NE    35   9.86    622       -2.9
   01/08/2019 03:40      45.0      44.4       96     43.6      0.00      5.36      54.8     0.49      1020.7     1.6      SE   134   3.7     WSW   253   9.86    618       -2.9
   01/08/2019 03:30      44.6      44.1       96     43.1      0.00      5.36      54.8     0.49      1020.8     1.6     SSW   193   3.2      SE   130   9.86    614       -3.1
   01/08/2019 03:20      45.1      44.3       95     43.4      0.00      5.36      54.8     0.49      1020.9     0.1      SE   132   1.6      SE   133   9.86    609       -3.4
   01/08/2019 03:10      45.1      44.5       96     43.7      0.00      5.36      54.9     0.49      1021.0     0.2       S   181   1.2       S   180   9.86    615       -3.7
   01/08/2019 03:00      44.7      44.0       96     43.2      0.00      5.36      54.9     0.50      1021.0     0.3       S   182   1.2     SSW   205   9.86    611       -3.7
   01/08/2019 02:50      44.6      44.2       96     43.3      0.00      5.36      54.9     0.50      1021.1     0.7      SE   144   2.1      SE   146   9.86    607       -3.8
   01/08/2019 02:40      44.6      44.0       96     43.1      0.00      5.36      54.9     0.50      1021.3     1.0     SSE   147   2.1      SE   139   9.86    603       -4.0
   01/08/2019 02:30      44.2      43.3       96     42.4      0.00      5.36      54.9     0.50      1021.5     0.7     SSE   158   1.7       S   174   9.86    599       -4.4
   01/08/2019 02:20      44.0      43.7       95     42.6      0.00      5.36      54.9     0.50      1021.6     0.4      SE   143   2.1      SE   143   9.86    596       -4.4
   01/08/2019 02:10      44.3      43.7       95     42.7      0.00      5.36      55.0     0.50      1021.7     0.1      SE   140   1.0      SE   140   9.87    592       -4.5
   01/08/2019 02:00      44.4      43.9       96     42.9      0.00      5.36      55.0     0.50      1021.8     0.3      SE   140   1.6      SE   141   9.87    589       -4.5
   01/08/2019 01:50      44.6      44.0       95     42.9      0.00      5.36      55.0     0.50      1021.8     0.2     SSE   149   1.5      SE   142   9.87    585       -4.3
   01/08/2019 01:40      44.8      44.1       95     43.1      0.00      5.36      55.0     0.50      1021.8     0.0       N     0   0.0      SW   233   9.87    579       -4.5
   01/08/2019 01:30      44.9      44.4       95     43.4      0.00      5.36      55.0     0.50      1021.9     0.0      NW   304   0.7      NW   304   9.87    575       -4.5
   01/08/2019 01:20      45.3      44.5       95     43.5      0.00      5.36      55.0     0.50      1021.8     0.0      SE   133   0.0      SE   133   9.87    570       -4.6
   01/08/2019 01:10      45.6      45.0       95     43.9      0.00      5.36      55.0     0.50      1021.6     0.0       N     0   0.0     SSE   155   9.87    566       -4.8
   01/08/2019 01:00      45.9      45.2       95     44.1      0.00      5.36      55.0     0.50      1021.6     0.1     SSE   157   0.8     SSE   155   9.87    560       -4.8
   01/08/2019 00:50      46.4      45.9       95     44.9      0.00      5.36      55.0     0.50      1021.4     0.1       S   172   1.0      SE   142   9.87    555       -4.8
   01/08/2019 00:40      46.4      45.9       95     44.8      0.00      5.36      55.0     0.50      1021.4     0.3      NW   311   1.5     WNW   295   9.87    546       -4.7
   01/08/2019 00:30      46.7      46.0       95     45.0      0.00      5.36      55.1     0.50      1021.4     0.5     SSE   154   1.3       S   187   9.87    540       -4.7
   01/08/2019 00:20      47.0      46.5       95     45.3      0.00      5.36      55.1     0.50      1021.3     0.4       N   354   1.5      SE   145   9.87    532       -4.2
   01/08/2019 00:10      47.5      46.5       95     45.7      0.00      5.36      55.1     0.50      1021.4     0.2     SSE   159   0.9       S   185   9.88    524       -4.1
   01/08/2019 00:00      47.5      47.1       95     46.0      0.00      5.36      55.1     0.50      1021.5     0.6      SE   133   1.4       S   171   9.88    516       -3.6
   01/07/2019 23:50      47.5      47.0       95     45.9      0.00      5.36      55.1     0.50      1021.7     0.6      SE   134   1.8     NNE    32   9.88    508       -3.2
   01/07/2019 23:40      47.5      46.1       95     45.3      0.00      5.36      55.1     0.50      1021.9     1.5     SSE   164   2.9       S   189   9.88    504       -2.9
   01/07/2019 23:30      46.7      46.1       95     45.0      0.00      5.36      55.2     0.50      1022.0     1.0      SE   146   3.2      SE   139   9.88    501       -2.6
   01/07/2019 23:20      46.4      45.9       95     44.6      0.00      5.36      55.2     0.50      1022.1     0.2      SW   216   1.5     SSW   206   9.88    497       -3.1
   01/07/2019 23:10      46.2      45.8       95     44.6      0.00      5.36      55.2     0.50      1022.2     0.7       S   190   2.2     SSW   202   9.88    492       -3.6
   01/07/2019 23:00      46.2      45.6       95     44.4      0.00      5.36      55.2     0.50      1022.5     0.0      SW   231   0.5      SW   221   9.88    486       -4.1
   01/07/2019 22:50      46.9      45.9       95     44.9      0.00      5.36      55.1     0.50      1022.5     0.2     ENE    75   1.2       E    81   9.88    482       -4.1
   01/07/2019 22:40      46.9      45.9       95     45.0      0.00      5.36      55.2     0.50      1022.5     1.0       S   177   2.2     SSW   202   9.88    475       -4.3
   01/07/2019 22:30      47.2      46.4       95     45.4      0.00      5.36      55.2     0.50      1022.4     0.7     ENE    65   1.4       N     3   9.88    470       -4.1
   01/07/2019 22:20      47.1      46.3       95     45.3      0.00      5.36      55.2     0.50      1022.5     0.6     WSW   236   1.9     WSW   244   9.89    461       -4.6
   01/07/2019 22:10      47.3      46.3       94     45.3      0.00      5.36      55.2     0.50      1022.5     0.4     ESE   120   1.4       S   181   9.89    455       -4.3
   01/07/2019 22:00      47.8      47.0       94     45.8      0.00      5.36      55.3     0.50      1022.5     0.8      SE   134   1.6      SE   138   9.89    449       -4.4
   01/07/2019 21:50      48.1      47.3       95     46.2      0.00      5.36      55.2     0.50      1022.5     1.8     SSW   195   2.9     SSW   207   9.89    442       -3.9
   01/07/2019 21:40      47.7      47.0       94     45.7      0.00      5.36      55.2     0.50      1022.3     0.4      SW   218   1.7      SW   228   9.89    437       -4.6
   01/07/2019 21:30      48.7      47.5       94     46.3      0.00      5.36      55.2     0.50      1022.3     0.0      SE   143   0.7       S   190   9.89    431       -4.5
   01/07/2019 21:20      48.6      48.1       94     46.8      0.00      5.36      55.2     0.50      1022.4     0.4     SSW   194   1.3     SSW   193   9.89    424       -4.3
   01/07/2019 21:10      48.6      48.1       94     46.7      0.00      5.36      55.2     0.50      1022.4     0.0       N     0   0.0      SE   141   9.89    419       -4.6
   01/07/2019 21:00      48.6      48.1       94     46.7      0.00      5.36      55.2     0.50      1022.4     0.3       S   175   0.9      SE   141   9.90    410       -4.6
   01/07/2019 20:50      48.8      48.3       94     47.0      0.00      5.36      55.2     0.50      1022.4     0.8      SE   146   1.7      SE   145   9.90    402       -4.4
   01/07/2019 20:40      48.6      48.3       94     46.8      0.00      5.36      55.2     0.50      1022.4     0.9      SE   145   1.9      SE   133   9.90    394       -4.7
   01/07/2019 20:30      48.6      48.1       94     46.7      0.00      5.36      55.2     0.50      1022.4     1.4     SSE   156   2.7       S   184   9.90    383       -4.4
   01/07/2019 20:20      49.0      48.4       94     46.9      0.00      5.36      55.2     0.50      1022.5     0.4     SSE   154   1.8       S   179   9.90    367       -4.6
   01/07/2019 20:10      49.0      48.7       94     47.1      0.00      5.36      55.2     0.50      1022.5     0.5     SSW   206   1.4       S   177   9.90    354       -4.9
   01/07/2019 20:00      49.4      48.8       94     47.2      0.00      5.36      55.2     0.50      1022.5     0.1       S   174   0.7       S   188   9.90    346       -4.9
   01/07/2019 19:50      49.1      48.7       93     47.0      0.00      5.36      55.2     0.50      1022.5     0.1     SSE   151   0.9     SSE   158   9.91    338       -5.1
   01/07/2019 19:40      49.5      48.7       93     47.2      0.00      5.36      55.2     0.50      1022.6     0.4      SE   144   1.2      SE   143   9.91    331       -5.3
   01/07/2019 19:30      49.7      48.9       93     47.3      0.00      5.36      55.2     0.50      1022.6     0.2     SSE   151   0.8     SSE   148   9.91    326       -5.4
   01/07/2019 19:20      50.4      49.4       93     47.7      0.00      5.36      55.2     0.50      1022.7     0.5     SSE   148   1.3      SE   144   9.91    320       -5.1
   01/07/2019 19:10      50.8      50.1       93     48.5      0.00      5.36      55.2     0.50      1022.7     0.9       S   187   1.7     SSW   192   9.91    313       -4.6
   01/07/2019 19:00      50.8      50.2       93     48.3      0.00      5.36      55.2     0.50      1022.7     0.8       S   171   1.4      SW   234   9.91    308       -5.1
   01/07/2019 18:50      51.5      50.5       92     48.7      0.00      5.36      55.1     0.50      1022.8     0.3     SSE   158   1.3      SE   138   9.91    303       -4.8
   01/07/2019 18:40      51.5      51.1       92     49.1      0.00      5.36      55.1     0.50      1023.0     0.3     SSE   166   1.2     SSE   147   9.91    299       -3.9
   01/07/2019 18:30      51.4      50.9       92     48.8      0.00      5.36      55.1     0.50      1023.0     0.2      SW   225   1.0     WSW   238   9.91    296       -3.4
   01/07/2019 18:20      51.6      50.8       92     48.8      0.00      5.36      55.1     0.50      1023.0     0.1      SE   138   0.9      SE   136   9.92    294       -3.6
   01/07/2019 18:10      52.2      51.3       91     49.3      0.00      5.36      55.1     0.50      1023.1     0.9     SSE   152   1.7      SE   144   9.92    293       -3.8
   01/07/2019 18:00      52.2      51.6       91     49.3      0.00      5.36      55.1     0.50      1023.1     1.4       S   186   2.1     SSW   198   9.92    290       -4.4
   01/07/2019 17:50      52.5      51.7       90     49.3      0.00      5.36      55.1     0.50      1023.0     0.8       S   183   1.5     SSW   209   9.92    286       -4.3
   01/07/2019 17:40      52.5      51.9       89     49.2      0.00      5.36      55.0     0.50      1023.0     1.2     SSW   205   1.9      SW   229   9.92    282       -4.3
   01/07/2019 17:30      53.5      52.4       88     49.4      0.00      5.36      55.0     0.50      1022.9     0.9       S   184   1.9     SSW   212   9.92    280       -4.1
   01/07/2019 17:20      54.2      53.3       87     49.9      0.00      5.36      55.0     0.50      1022.9     1.1      SW   215   1.5      SW   221   9.92    277       -2.9
   01/07/2019 17:10      54.9      53.9       86     50.0      0.00      5.36      55.0     0.50      1022.9     1.6      SW   215   2.3     SSW   213   9.92    273       -1.7
   01/07/2019 17:00      55.4      54.5       84     49.9      0.00      5.36      55.0     0.51      1022.8     1.1     WSW   239   1.7     WSW   239   9.93    272        0.9
   01/07/2019 16:50      55.8      55.1       83     50.3      0.00      5.36      54.9     0.50      1022.9     0.4     SSW   196   1.1     SSW   207   9.93    271        5.1
   01/07/2019 16:40      56.1      55.5       83     50.5      0.00      5.36      54.9     0.51      1023.0     1.0       S   171   2.0     SSE   153   9.93    270       14.9
   01/07/2019 16:30      55.9      55.5       83     50.5      0.00      5.36      54.9     0.51      1023.1     0.9      SE   131   2.7     SSE   154   9.93    270       24.4
   01/07/2019 16:20      55.9      55.5       83     50.6      0.00      5.36      54.9     0.51      1023.2     0.9      SE   141   2.8     SSW   202   9.93    270       30.0
   01/07/2019 16:10      55.9      55.5       83     50.6      0.00      5.36      54.9     0.51      1023.1     1.2     ESE   112   2.5      SE   140   9.93    270       26.2
   01/07/2019 16:00      56.0      55.4       83     50.5      0.00      5.36      54.8     0.51      1023.1     1.5      SE   144   4.3     SSE   164   9.93    270       27.9
   01/07/2019 15:50      56.3      55.5       82     50.5      0.00      5.36      54.8     0.51      1023.0     2.3     ESE   108   4.9      SE   140   9.93    270       24.0
   01/07/2019 15:40      56.4      56.0       81     50.3      0.00      5.36      54.8     0.51      1023.0     1.6     ESE   104   2.9     ENE    71   9.93    270       33.5
   01/07/2019 15:30      56.4      56.0       80     50.2      0.00      5.36      54.8     0.51      1023.0     1.1       E   101   2.8       S   172   9.93    270       33.6
   01/07/2019 15:20      56.4      56.0       80     50.1      0.00      5.36      54.8     0.51      1023.0     1.6     ESE   102   3.5       E    90   9.93    270       29.9
   01/07/2019 15:10      56.6      56.0       80     50.0      0.00      5.36      54.7     0.51      1022.8     1.9     ESE   122   3.3     SSE   151   9.94    270       40.9
   01/07/2019 15:00      56.6      56.1       79     49.9      0.00      5.36      54.7     0.51      1022.8     1.5      SE   125   2.8     SSW   201   9.94    270       57.1
   01/07/2019 14:50      56.6      56.2       79     50.1      0.00      5.36      54.7     0.51      1022.8     1.6      SE   142   3.8     ESE   114   9.94    269       94.9
   01/07/2019 14:40      56.6      56.1       79     49.9      0.00      5.36      54.7     0.51      1022.6     2.3       S   181   4.4     SSW   200   9.94    269      180.3
   01/07/2019 14:30      56.9      56.0       79     49.9      0.00      5.36      54.6     0.51      1022.6     2.0      SE   143   4.6      SE   146   9.94    269      185.0
   01/07/2019 14:20      57.2      56.6       79     50.5      0.00      5.36      54.7     0.51      1022.6     1.0       E    81   2.2     ENE    77   9.94    269      181.8
   01/07/2019 14:10      56.8      55.9       81     50.6      0.00      5.36      54.6     0.51      1022.6     0.8     SSE   151   2.0       E    81   9.94    269      271.1
   01/07/2019 14:00      56.2      55.4       84     50.9      0.00      5.36      54.6     0.51      1022.6     0.6       S   170   2.0       E    80   9.94    271      192.9
   01/07/2019 13:50      55.6      54.9       85     50.6      0.00      5.36      54.6     0.51      1022.7     1.3     NNE    17   2.5      NE    52   9.94    276      192.1
   01/07/2019 13:40      55.4      54.4       86     50.8      0.00      5.36      54.6     0.51      1022.8     0.7       E    80   2.1     ENE    61   9.94    280      209.9
   01/07/2019 13:30      54.7      54.1       86     50.3      0.00      5.36      54.6     0.51      1022.9     1.1     ESE   112   2.6      SE   125   9.94    284      168.3
   01/07/2019 13:20      54.5      53.9       87     50.5      0.00      5.36      54.6     0.51      1022.9     1.2      NE    47   4.0      NE    38   9.95    287      203.2
   01/07/2019 13:10      54.2      53.5       89     50.5      0.00      5.36      54.5     0.51      1022.9     1.1      NE    49   2.8     NNW   346   9.95    291      201.2
   01/07/2019 13:00      53.7      52.8       89     50.1      0.00      5.36      54.5     0.51      1023.1     1.2      NE    55   2.8       E    80   9.95    294      115.9
   01/07/2019 12:50      53.5      53.0       89     50.0      0.00      5.36      54.5     0.51      1023.2     2.0      NE    34   3.7      NE    53   9.95    296      109.9
   01/07/2019 12:40      53.5      52.5       90     49.9      0.00      5.36      54.5     0.51      1023.3     2.0      NE    37   4.3      NE    50   9.95    298       91.8
   01/07/2019 12:30      53.0      52.5       91     50.1      0.00      5.36      54.5     0.51      1023.4     2.3      NE    45   4.3     ENE    58   9.96    301      100.9
   01/07/2019 12:20      53.0      52.5       92     50.4      0.00      5.36      54.5     0.51      1023.4     2.3      NE    49   4.5      NE    49   9.96    303      113.3
   01/07/2019 12:10      52.9      52.2       93     50.5      0.00      5.36      54.5     0.51      1023.6     2.2     ENE    63   3.9     ENE    58   9.96    305      134.5
   01/07/2019 12:00      52.8      52.1       93     50.4      0.00      5.36      54.5     0.51      1023.7     2.1      NE    56   4.0     NNE    30   9.97    307      150.2
   01/07/2019 11:50      52.6      52.1       93     50.5      0.00      5.36      54.5     0.51      1023.9     2.8     ENE    57   5.7     ENE    58   9.97    309      171.2
   01/07/2019 11:40      52.5      52.1       94     50.6      0.00      5.36      54.5     0.51      1024.2     2.3      NE    52   4.2     ENE    59   9.97    315      223.6
   01/07/2019 11:30      52.5      51.8       94     50.6      0.00      5.36      54.5     0.51      1024.5     1.5      NE    43   3.8     ENE    64   9.97    358      170.7
   01/07/2019 11:20      52.0      51.6       94     50.2      0.01      5.36      54.5     0.51      1024.6     2.0      NE    53   4.4      NE    39   9.98    413      149.3
   01/07/2019 11:10      51.9      51.2       94     49.9      0.00      5.35      54.5     0.51      1024.8     0.8     ENE    69   2.3      NE    56   9.98    395      113.7
   01/07/2019 11:00      51.6      51.0       94     49.6      0.00      5.35      54.5     0.51      1025.0     0.9     ENE    68   2.9       E    89   9.98    420       87.5
   01/07/2019 10:50      51.4      50.9       95     49.6      0.00      5.35      54.5     0.51      1025.2     0.7     NNE    33   2.4     ENE    63   9.97    442       59.5
   01/07/2019 10:40      51.3      50.6       95     49.4      0.00      5.35      54.5     0.51      1025.2     1.4      NE    38   3.0     ENE    74   9.98    382       77.4
   01/07/2019 10:30      51.1      50.7       95     49.4      0.00      5.35      54.5     0.51      1025.2     1.8      NE    40   3.2     ENE    63   9.98    397      109.1
   01/07/2019 10:20      51.0      50.7       95     49.4      0.01      5.35      54.5     0.51      1025.3     1.5      NE    34   2.4      NE    36   9.98    436      140.6
   01/07/2019 10:10      50.9      50.0       95     48.9      0.00      5.34      54.5     0.51      1025.4     2.0      NE    45   3.8     NNE    33   9.98    414      158.0
   01/07/2019 10:00      50.3      49.8       95     48.7      0.00      5.34      54.5     0.51      1025.4     2.0      NE    52   3.7     ENE    63   9.98    449      117.2
   01/07/2019 09:50      50.0      49.7       95     48.4      0.00      5.34      54.5     0.51      1025.5     2.8      NE    50   5.0      NE    47   9.98    444       94.7
   01/07/2019 09:40      50.0      49.7       95     48.5      0.01      5.34      54.5     0.51      1025.5     3.0      NE    48   5.5      NE    46   9.98    389       61.7
   01/07/2019 09:30      50.1      49.7       95     48.4      0.00      5.33      54.5     0.51      1025.4     3.1      NE    48   5.5     ENE    62   9.98    425       67.9
   01/07/2019 09:20      50.3      49.8       95     48.6      0.00      5.33      54.5     0.51      1025.3     2.0      NE    52   4.5      NE    54   9.98    428       45.2
   01/07/2019 09:10      50.3      49.9       95     48.6      0.00      5.33      54.5     0.51      1025.2     2.2      NE    49   4.0      NE    47   9.98    461       35.6
   01/07/2019 09:00      50.3      49.9       95     48.6      0.01      5.33      54.5     0.51      1025.2     1.8      NE    51   3.2     ENE    58   9.98    452       38.6
   01/07/2019 08:50      50.3      49.8       95     48.6      0.00      5.32      54.5     0.51      1025.1     1.1      NE    54   2.5      NE    55   9.98    482       33.3
   01/07/2019 08:40      50.1      49.7       95     48.4      0.01      5.32      54.5     0.51      1024.8     1.5      NE    51   3.2     ENE    69   9.98    419       28.4
   01/07/2019 08:30      50.0      49.7       95     48.4      0.00      5.31      54.5     0.51      1024.6     1.5      NE    49   2.9      NE    45   9.98    429       31.0
   01/07/2019 08:20      50.0      49.6       95     48.3      0.00      5.31      54.5     0.51      1024.4     1.0      NE    43   2.4      NE    36   9.98    453       28.9
   01/07/2019 08:10      50.0      49.6       95     48.3      0.01      5.31      54.5     0.51      1024.2     1.2      NE    45   3.1      NE    46   9.98    469       19.0
   01/07/2019 08:00      49.9      49.5       95     48.2      0.00      5.30      54.5     0.51      1024.1     0.8      NE    51   2.3     ENE    60   9.98    440       13.1
   01/07/2019 07:50      49.8      49.4       95     48.1      0.01      5.30      54.5     0.51      1023.9     0.6      NE    50   1.9     ENE    58   9.98    379        9.2
   01/07/2019 07:40      49.7      49.4       95     48.0      0.00      5.29      54.5     0.51      1023.8     1.0      NE    46   2.8     ENE    77   9.98    406        6.7
   01/07/2019 07:30      49.8      49.4       95     48.0      0.00      5.29      54.5     0.51      1023.6     0.9     ENE    66   2.8      NE    52   9.98    393        3.6
   01/07/2019 07:20      49.7      49.3       95     48.0      0.00      5.29      54.5     0.51      1023.6     0.5      NE    52   2.7      NE    42   9.98    399        1.2
   01/07/2019 07:10      49.5      49.2       95     47.9      0.00      5.29      54.5     0.51      1023.5     1.0     ENE    67   4.2      NE    55   9.98    394       -0.1
   01/07/2019 07:00      49.6      49.2       95     47.9      0.00      5.29      54.5     0.50      1023.4     0.8     ENE    77   2.5       E    86   9.98    427       -0.8
   01/07/2019 06:50      49.7      49.3       95     48.0      0.01      5.29      54.5     0.50      1023.4     0.3     ENE    57   1.7     ENE    64   9.98    416       -1.2
   01/07/2019 06:40      49.7      49.3       95     48.0      0.00      5.28      54.5     0.50      1023.4     0.4     ENE    62   2.4     ENE    64   9.98    404       -1.2
   01/07/2019 06:30      49.6      49.2       95     47.9      0.00      5.28      54.5     0.50      1023.3     0.3     ENE    64   2.0     ENE    58   9.98    394       -1.1
   01/07/2019 06:20      49.6      49.2       95     47.9      0.00      5.28      54.5     0.50      1023.1     0.6     ENE    70   1.8     NNE    25   9.98    427       -1.1
   01/07/2019 06:10      49.6      49.2       95     48.0      0.01      5.28      54.5     0.50      1023.1     0.0       E    87   1.1       E    82   9.98    438       -1.1
   01/07/2019 06:00      49.6      49.2       95     47.9      0.00      5.27      54.5     0.50      1023.1     0.0     NNE    18   0.8     NNE    28   9.98    417       -1.0
   01/07/2019 05:50      49.6      49.2       95     47.9      0.01      5.27      54.5     0.50      1023.0     0.0      NE    45   0.8     NNE    32   9.98    443       -1.0
   01/07/2019 05:40      49.6      49.2       95     47.9      0.00      5.26      54.5     0.50      1023.0     0.7      NE    35   2.2      NE    56   9.98    452       -1.1
   01/07/2019 05:30      49.5      49.0       95     47.8      0.01      5.26      54.5     0.50      1023.0     0.3     NNE    16   1.7     NNE    14   9.97    466       -1.4
   01/07/2019 05:20      49.4      49.0       95     47.7      0.00      5.25      54.5     0.50      1022.8     0.3      NE    50   1.2     ENE    60   9.97    444       -1.3
   01/07/2019 05:10      49.2      48.8       95     47.5      0.01      5.25      54.5     0.50      1022.7     0.2      NE    42   1.2      NE    40   9.97    429       -1.2
   01/07/2019 05:00      49.2      48.7       95     47.4      0.00      5.24      54.5     0.50      1022.6     0.9      NE    52   2.4     ENE    64   9.97    461       -1.1
   01/07/2019 04:50      49.1      48.7       95     47.4      0.01      5.24      54.5     0.50      1022.6     1.4      NE    54   2.8     ENE    66   9.97    448       -1.1
   01/07/2019 04:40      49.0      48.8       95     47.4      0.01      5.23      54.5     0.50      1022.7     1.1      NE    53   2.3      NE    54   9.97    467       -1.0
   01/07/2019 04:30      49.2      48.8       95     47.4      0.01      5.22      54.5     0.50      1022.6     1.6      NE    53   2.9     ENE    64   9.96    482       -1.4
   01/07/2019 04:20      49.1      48.7       95     47.4      0.01      5.21      54.5     0.50      1022.6     1.2     ENE    58   2.7       N    10   9.95    485       -1.4
   01/07/2019 04:10      49.0      48.7       95     47.4      0.01      5.20      54.5     0.50      1022.6     1.4     ENE    61   3.5     ENE    61   9.94    475       -1.6
   01/07/2019 04:00      49.0      48.7       95     47.4      0.00      5.19      54.5     0.50      1022.7     1.6     ENE    70   3.5     ENE    59   9.94    478       -1.5
   01/07/2019 03:50      49.0      48.7       95     47.3      0.02      5.19      54.5     0.49      1022.7     1.7     ENE    71   3.5     ESE   114   9.93    468       -1.5
   01/07/2019 03:40      49.0      48.7       94     47.3      0.01      5.17      54.5     0.49      1022.7     2.3     ENE    75   5.0     ENE    77   9.92    499       -1.8
   01/07/2019 03:30      49.0      48.7       94     47.3      0.00      5.16      54.5     0.49      1022.7     1.7     ENE    76   4.5     ESE   106   9.91    449       -1.9
   01/07/2019 03:20      49.1      48.7       95     47.3      0.01      5.16      54.5     0.49      1022.6     1.9     ENE    72   4.8     ENE    70   9.91    461       -1.9
   01/07/2019 03:10      49.2      48.7       95     47.3      0.00      5.15      54.5     0.49      1022.4     1.6     ENE    74   3.4     ESE   114   9.91    431       -1.7
   01/07/2019 03:00      49.3      48.8       95     47.4      0.00      5.15      54.5     0.49      1022.4     1.1     ENE    69   3.5     ENE    73   9.91    388       -1.4
   01/07/2019 02:50      49.5      48.9       95     47.6      0.00      5.15      54.5     0.49      1022.6     1.2     ENE    72   3.6      NE    52   9.91    419       -1.2
   01/07/2019 02:40      49.5      49.0       95     47.7      0.01      5.15      54.5     0.49      1022.8     0.9     ENE    57   2.2     ENE    74   9.90    481       -1.2
   01/07/2019 02:30      49.5      49.1       94     47.7      0.00      5.14      54.5     0.49      1022.9     0.9      NE    54   2.1      NE    54   9.90    444       -1.3
   01/07/2019 02:20      49.4      49.1       94     47.7      0.00      5.14      54.5     0.49      1023.1     1.0      NE    44   2.2      NE    54   9.90    412       -1.6
   01/07/2019 02:10      49.5      49.1       94     47.7      0.01      5.14      54.5     0.49      1023.4     0.6      NE    55   2.0      NE    53   9.90    452       -1.9
   01/07/2019 02:00      49.4      49.1       94     47.6      0.00      5.13      54.5     0.49      1023.6     0.7     ENE    73   1.9       E    85   9.89    452       -1.8
   01/07/2019 01:50      49.4      49.0       94     47.6      0.01      5.13      54.5     0.49      1023.7     0.7     ENE    76   2.2      NE    39   9.89    434       -1.5
   01/07/2019 01:40      49.6      49.0       94     47.6      0.00      5.12      54.5     0.49      1023.8     1.4     ENE    68   3.5       E    91   9.89    448       -1.4
   01/07/2019 01:30      49.7      49.2       94     47.7      0.02      5.12      54.5     0.49      1023.8     1.6      NE    54   3.7      NE    54   9.88    478       -1.2
   01/07/2019 01:20      49.7      49.3       94     47.7      0.02      5.10      54.5     0.49      1023.8     0.9      NE    51   2.4     ENE    64   9.87    475       -1.4
   01/07/2019 01:10      49.6      49.2       94     47.6      0.01      5.08      54.6     0.49      1023.6     1.0      NE    53   2.4     ENE    58   9.85    483       -1.6
   01/07/2019 01:00      49.7      49.2       93     47.6      0.03      5.07      54.5     0.49      1023.5     1.7      NE    56   5.5      NE    56   9.83    484       -1.7
   01/07/2019 00:50      49.7      49.3       93     47.6      0.01      5.04      54.5     0.49      1023.3     1.5     ENE    63   3.7     ENE    57   9.81    452       -1.8
   01/07/2019 00:40      49.7      49.4       93     47.6      0.01      5.03      54.5     0.49      1023.0     1.1     ENE    68   3.0     ENE    67   9.80    463       -1.7
   01/07/2019 00:30      49.8      49.4       93     47.6      0.01      5.02      54.5     0.48      1023.0     1.2     ENE    75   4.0       E    86   9.79    476       -1.8
   01/07/2019 00:20      50.0      49.5       93     47.6      0.01      5.01      54.5     0.48      1022.9     1.3       E    90   4.1     ESE   103   9.78    491       -1.7
   01/07/2019 00:10      50.1      49.7       92     47.7      0.02      5.00      54.5     0.48      1022.9     1.3     ENE    67   3.5       E    84   9.77    469       -1.8
   01/07/2019 00:00      50.1      49.8       92     47.7      0.01      4.98      54.5     0.48      1022.9     1.2     ENE    57   3.2     ENE    69   9.76    435       -1.9
   01/06/2019 23:50      50.3      49.9       92     47.7      0.00      4.97      54.5     0.48      1022.8     1.8      NE    49   4.3      NE    43   9.75    470       -2.0
   01/06/2019 23:40      50.7      50.0       91     47.7      0.01      4.97      54.5     0.48      1022.8     1.8      NE    51   3.9     ENE    62   9.75    397       -2.1
   01/06/2019 23:30      50.9      50.4       90     47.7      0.00      4.96      54.5     0.48      1022.9     1.0     ENE    64   2.3     ENE    67   9.74    435       -2.1
   01/06/2019 23:20      51.0      50.5       89     47.6      0.01      4.96      54.5     0.48      1023.0     1.0      NE    56   2.0     ENE    69   9.74    391       -2.5
   01/06/2019 23:10      51.3      50.6       88     47.4      0.00      4.95      54.5     0.48      1023.1     1.1      NE    50   2.2     ENE    67   9.74    386       -2.8
   01/06/2019 23:00      51.5      51.0       87     47.3      0.00      4.95      54.5     0.49      1023.2     0.5      NE    40   1.5      NE    34   9.74    393       -3.1
   01/06/2019 22:50      51.7      51.1       85     47.1      0.00      4.95      54.5     0.48      1023.2     1.0      NE    50   2.8      NE    44   9.74    429       -4.5
   01/06/2019 22:40      51.8      51.3       85     47.1      0.00      4.95      54.5     0.48      1023.1     0.6      NE    48   2.4      NE    49   9.74    339       -6.4
   01/06/2019 22:30      51.9      51.3       85     47.2      0.00      4.95      54.5     0.48      1023.0     1.0      NE    49   2.4     NNE    25   9.74    315       -8.2
   01/06/2019 22:20      52.0      51.5       85     47.2      0.00      4.95      54.5     0.48      1023.1     0.0      NE    48   1.6      NE    45   9.74    311       -8.9
   01/06/2019 22:10      52.1      51.6       84     47.2      0.00      4.95      54.5     0.48      1023.3     0.0      NE    37   0.9      NE    37   9.74    315       -8.9
   01/06/2019 22:00      52.2      51.7       83     47.0      0.00      4.95      54.5     0.48      1023.2     0.5     ENE    57   1.7      NE    42   9.74    315       -8.6
   01/06/2019 21:50      52.5      51.9       82     46.7      0.00      4.95      54.5     0.48      1023.1     0.3      NE    38   1.4       N     8   9.74    319       -8.9
   01/06/2019 21:40      52.5      52.1       80     46.2      0.00      4.95      54.5     0.48      1023.1     0.8      SE   130   2.0     SSE   163   9.74    310       -8.0
   01/06/2019 21:30      52.4      52.0       80     46.1      0.00      4.95      54.5     0.48      1023.0     0.7      SE   137   2.2      SE   136   9.74    268      -10.3
   01/06/2019 21:20      52.4      51.9       80     46.0      0.00      4.95      54.5     0.48      1022.9     0.5       E    96   1.8     ENE    60   9.74    269       -9.7
   01/06/2019 21:10      52.5      52.0       79     45.9      0.00      4.95      54.5     0.48      1022.7     1.1       E    87   2.8      SE   136   9.74    268      -10.1
   01/06/2019 21:00      52.4      52.0       79     45.8      0.00      4.95      54.5     0.48      1022.7     1.5       E    88   3.0     ESE   112   9.74    268      -11.1
   01/06/2019 20:50      52.4      51.9       79     45.8      0.00      4.95      54.5     0.48      1022.6     1.3      SE   124   3.9     ESE   120   9.74    268      -12.0
   01/06/2019 20:40      52.1      51.8       79     45.6      0.00      4.95      54.5     0.48      1022.5     1.0     ESE   120   2.7     ENE    77   9.74    268      -12.9
   01/06/2019 20:30      52.2      51.8       79     45.5      0.00      4.95      54.5     0.48      1022.4     2.2      SE   130   4.5       S   173   9.74    268      -14.8
   01/06/2019 20:20      52.4      51.9       78     45.5      0.00      4.95      54.5     0.48      1022.4     2.1      SE   134   5.7     SSE   147   9.74    268      -18.1
   01/06/2019 20:10      52.4      51.9       77     45.3      0.00      4.95      54.5     0.48      1022.4     3.0     SSE   156   5.0      SE   128   9.74    268      -16.3
   01/06/2019 20:00      52.2      51.8       78     45.2      0.00      4.95      54.5     0.48      1022.1     2.7     SSE   164   4.9       S   182   9.74    268      -21.8
   01/06/2019 19:50      52.1      51.8       77     45.0      0.00      4.95      54.4     0.48      1021.9     3.2     SSE   168   6.2       S   189   9.75    268      -26.9
   01/06/2019 19:40      52.1      51.7       77     44.7      0.00      4.95      54.5     0.48      1021.8     3.7       S   172   6.7     SSE   150   9.75    268      -20.3
   01/06/2019 19:30      51.9      51.0       76     44.1      0.00      4.95      54.5     0.48      1021.8     3.1       S   184   7.4       S   185   9.75    268      -15.8
   01/06/2019 19:20      51.2      50.7       76     43.7      0.00      4.95      54.5     0.48      1021.8     1.6     SSW   208   2.9      SE   143   9.75    268      -24.4
   01/06/2019 19:10      51.3      50.9       76     43.7      0.00      4.95      54.5     0.49      1021.6     0.5     SSW   194   1.3       S   180   9.75    268      -26.5
   01/06/2019 19:00      51.3      50.9       76     43.8      0.00      4.95      54.5     0.49      1021.6     0.9     SSW   197   2.0       S   172   9.75    268      -30.4
   01/06/2019 18:50      51.2      50.8       77     44.0      0.00      4.95      54.5     0.48      1021.4     1.9      SE   142   3.4       E    97   9.75    268      -33.0
   01/06/2019 18:40      51.4      50.9       77     44.1      0.00      4.95      54.4     0.49      1021.3     1.7       S   177   3.7     SSW   205   9.75    268      -35.2
   01/06/2019 18:30      51.4      51.0       77     44.1      0.00      4.95      54.4     0.49      1020.9     1.8       S   173   2.9       S   181   9.75    268      -35.9
   01/06/2019 18:20      51.6      51.0       76     44.0      0.00      4.95      54.4     0.49      1020.7     1.7     SSE   159   3.3     SSW   203   9.75    268      -43.8
   01/06/2019 18:10      52.0      51.3       75     43.7      0.00      4.95      54.4     0.49      1020.5     1.9       S   171   4.4       S   174   9.76    268      -40.3
   01/06/2019 18:00      52.2      51.6       73     43.5      0.00      4.95      54.4     0.49      1020.5     2.1       S   176   3.2     SSE   166   9.76    268      -33.8
   01/06/2019 17:50      52.5      51.9       71     43.1      0.00      4.95      54.4     0.49      1020.3     1.8       S   172   3.4       S   188   9.76    268      -34.0
   01/06/2019 17:40      52.9      52.3       70     42.9      0.00      4.95      54.3     0.49      1020.3     2.2       S   186   3.4     SSW   205   9.76    267      -34.8
   01/06/2019 17:30      53.0      52.5       69     42.7      0.00      4.95      54.3     0.49      1020.1     2.9       S   191   4.9     SSW   205   9.76    267      -37.1
   01/06/2019 17:20      53.1      52.7       65     41.4      0.00      4.95      54.3     0.49      1020.0     3.5     SSW   194   5.9       S   189   9.76    267      -56.8
   01/06/2019 17:10      53.4      52.8       59     39.2      0.00      4.95      54.3     0.49      1019.9     2.4     SSW   205   3.6     SSW   203   9.76    267      -68.8
   01/06/2019 17:00      54.3      53.2       56     38.3      0.00      4.95      54.3     0.49      1019.8     1.8     SSW   202   2.7     SSW   199   9.76    266      -68.7
   01/06/2019 16:50      54.9      54.0       54     38.0      0.00      4.95      54.2     0.49      1020.0     2.4      SW   221   4.3      SW   225   9.77    266      -66.8
   01/06/2019 16:40      55.5      54.6       52     37.7      0.00      4.95      54.2     0.49      1020.0     4.1      SW   233   7.5      SW   223   9.77    266      -61.3
   01/06/2019 16:30      56.3      55.3       51     37.6      0.00      4.95      54.2     0.49      1019.9     3.9     WSW   238   6.2     WSW   243   9.77    266      -48.1
   01/06/2019 16:20      56.9      55.9       49     37.6      0.00      4.95      54.2     0.49      1019.9     4.7     WSW   242   8.3      SW   233   9.77    266      -32.0
   01/06/2019 16:10      57.2      56.6       48     37.5      0.00      4.95      54.1     0.49      1019.8     4.4     WSW   249   8.1       W   281   9.78    266      -13.5
   01/06/2019 16:00      57.2      56.7       48     37.5      0.00      4.95      54.1     0.49      1019.7     4.2      SW   236   8.0     WSW   245   9.78    266       -4.3
   01/06/2019 15:50      57.5      56.7       47     37.3      0.00      4.95      54.1     0.49      1019.5     4.7      SW   216   8.5     SSW   200   9.78    266       28.8
   01/06/2019 15:40      57.9      57.0       46     37.0      0.00      4.95      54.1     0.49      1019.3     5.6      SW   215   8.5     SSW   203   9.78    265       51.8
   01/06/2019 15:30      58.7      57.6       44     36.4      0.00      4.95      54.1     0.49      1019.3     4.3     SSW   207   7.3     SSW   200   9.78    265       74.8
   01/06/2019 15:20      58.7      58.4       43     35.9      0.00      4.95      54.1     0.49      1019.2     3.7     WSW   244   6.7     WSW   252   9.79    265       96.8
   01/06/2019 15:10      58.6      57.8       44     36.4      0.00      4.95      54.0     0.49      1019.1     3.7      SW   229   7.7      SW   227   9.79    266      121.6
   01/06/2019 15:00      58.9      58.1       46     37.7      0.00      4.95      54.0     0.49      1019.1     4.5     WSW   237   7.0      SW   216   9.79    265      144.8
   01/06/2019 14:50      58.9      58.1       48     38.6      0.00      4.95      54.0     0.49      1019.1     4.4       W   272   9.2     WSW   247   9.79    264      168.5
   01/06/2019 14:40      59.3      58.4       48     39.0      0.00      4.95      53.9     0.49      1019.2     4.8       W   270   9.2     WSW   252   9.79    265      208.5
   01/06/2019 14:30      59.1      58.1       46     38.1      0.00      4.95      53.9     0.49      1019.2     3.8       W   265   6.9      NW   307   9.79    265      239.2
   01/06/2019 14:20      58.3      57.6       47     37.6      0.00      4.95      53.9     0.49      1019.0     4.8       W   263   8.7      SW   220   9.80    266      237.1
   01/06/2019 14:10      58.4      57.5       47     37.8      0.00      4.95      53.9     0.49      1019.0     4.3     WSW   244   8.2     WSW   249   9.80    266      152.0
   01/06/2019 14:00      58.6      57.4       46     37.6      0.00      4.95      53.9     0.49      1018.9     3.9      SW   233   7.5       S   187   9.80    266      249.2
   01/06/2019 13:50      58.0      57.5       45     36.7      0.00      4.95      53.8     0.49      1019.0     5.3      SW   221   8.6     SSW   204   9.80    266      286.9
   01/06/2019 13:40      58.1      57.4       48     38.2      0.00      4.95      53.8     0.49      1019.0     5.6     WSW   236   8.7     WNW   286   9.80    266      294.6
   01/06/2019 13:30      58.3      57.4       48     38.4      0.00      4.95      53.8     0.49      1018.9     4.3       W   262   7.5     WNW   294   9.80    266      218.1
   01/06/2019 13:20      58.1      57.0       49     38.7      0.00      4.95      53.8     0.49      1018.9     4.6     WSW   240   7.7      SW   220   9.80    266      330.0
   01/06/2019 13:10      58.4      57.0       50     39.1      0.00      4.95      53.8     0.49      1018.8     5.3     SSW   209   9.5     SSE   162   9.81    266      353.4
   01/06/2019 13:00      58.5      57.5       50     39.3      0.00      4.95      53.8     0.49      1018.8     3.4      SW   220   6.6     SSW   193   9.81    266      335.6
   01/06/2019 12:50      57.7      56.7       52     39.6      0.00      4.95      53.8     0.49      1018.9     4.1      SW   228   6.4     SSE   167   9.81    266      344.8
   01/06/2019 12:40      57.4      56.9       51     39.2      0.00      4.95      53.7     0.49      1019.1     4.3     WSW   239   8.0     WSW   251   9.81    266      362.3
   01/06/2019 12:30      57.2      56.8       53     39.9      0.00      4.95      53.7     0.49      1019.2     4.2      SW   227   6.8      SW   227   9.82    266      374.2
   01/06/2019 12:20      57.2      56.0       53     39.6      0.00      4.95      53.7     0.49      1019.3     2.6     WSW   241   5.0     SSW   195   9.82    266      392.9
   01/06/2019 12:10      56.0      55.3       55     39.5      0.00      4.95      53.7     0.49      1019.5     2.6     WSW   247   5.6     WSW   239   9.82    267      259.6
   01/06/2019 12:00      55.8      54.0       56     39.4      0.00      4.95      53.7     0.49      1019.6     4.2     WSW   250   8.1     WSW   240   9.82    267      401.2
   01/06/2019 11:50      54.9      54.4       60     41.1      0.00      4.95      53.7     0.49      1019.8     4.0     WSW   252   6.5       W   275   9.83    268      184.7
   01/06/2019 11:40      54.8      53.8       63     41.8      0.00      4.95      53.7     0.49      1019.9     3.5     WSW   256   6.7       W   268   9.83    268      299.6
   01/06/2019 11:30      54.5      53.6       66     43.0      0.00      4.95      53.7     0.49      1020.1     1.8      SW   221   4.3     SSW   204   9.83    268      173.1
   01/06/2019 11:20      55.9      54.2       65     43.6      0.00      4.95      53.7     0.49      1020.1     2.1     NNW   329   4.0     NNW   332   9.83    268      205.9
   01/06/2019 11:10      55.8      54.3       66     43.9      0.00      4.95      53.7     0.49      1020.1     0.8     ESE   110   2.5       S   178   9.83    268      388.4
   01/06/2019 11:00      54.8      53.4       68     43.9      0.00      4.95      53.7     0.49      1020.3     1.1     NNE    34   2.3      NE    38   9.84    268      365.5
   01/06/2019 10:50      53.9      53.4       68     43.3      0.00      4.95      53.7     0.49      1020.4     1.1       N     9   2.8     NNE    19   9.84    268      295.7
   01/06/2019 10:40      54.0      53.6       68     43.4      0.00      4.95      53.8     0.49      1020.5     0.6     SSE   157   2.6      SE   127   9.84    269      193.1
   01/06/2019 10:30      53.9      53.0       73     45.1      0.00      4.95      53.8     0.49      1020.6     1.2      NE    47   2.8     ENE    69   9.84    268      414.8
   01/06/2019 10:20      53.0      51.6       79     45.6      0.00      4.95      53.8     0.49      1020.6     0.9     ESE   112   2.1       E    96   9.85    270      303.0
   01/06/2019 10:10      52.1      51.7       82     46.6      0.00      4.95      53.8     0.49      1020.7     0.4     ESE   106   1.1     ESE   114   9.85    275      157.3
   01/06/2019 10:00      52.1      51.1       86     47.6      0.00      4.95      53.8     0.49      1020.8     0.2      NE    38   1.2      SE   138   9.85    277      227.6
   01/06/2019 09:50      51.4      50.8       89     47.9      0.00      4.95      53.8     0.49      1020.7     0.9     NNE    32   2.3      NE    42   9.85    280      346.8
   01/06/2019 09:40      51.4      50.9       92     48.8      0.00      4.95      53.8     0.49      1020.5     0.1       N   359   0.9       N     2   9.85    285      328.5
   01/06/2019 09:30      51.1      48.6       94     47.9      0.00      4.95      53.8     0.49      1020.2     0.0     ESE   113   0.4     ESE   113   9.85    288      280.4
   01/06/2019 09:20      48.8      47.3       94     46.5      0.00      4.95      53.8     0.49      1020.2     0.3     ENE    76   1.4     NNE    21   9.86    290      211.4
   01/06/2019 09:10      47.5      46.4       95     45.4      0.00      4.95      53.9     0.49      1020.1     0.0       N     0   0.0     ENE    71   9.86    291      188.5
   01/06/2019 09:00      46.5      45.9       95     44.7      0.00      4.95      53.9     0.49      1019.8     0.2       E    93   1.4      NE    54   9.86    293       94.0
   01/06/2019 08:50      46.3      45.7       95     44.5      0.00      4.95      53.9     0.49      1019.6     0.6      NE    49   1.7      NE    43   9.86    294       90.4
   01/06/2019 08:40      46.1      45.4       95     44.3      0.00      4.95      53.9     0.49      1019.4     0.2     ENE    62   1.2     NNE    20   9.86    295       63.4
   01/06/2019 08:30      45.8      44.9       95     44.0      0.00      4.95      53.9     0.49      1019.3     0.1     ENE    62   1.3     NNE    20   9.86    295       96.6
   01/06/2019 08:20      45.0      43.9       95     43.1      0.00      4.95      53.9     0.49      1019.2     0.3     ENE    60   0.9      NE    49   9.86    296       92.7
   01/06/2019 08:10      44.0      43.2       95     42.3      0.00      4.95      54.0     0.49      1019.0     0.0       N     0   0.0     ENE    60   9.87    300       55.1
   01/06/2019 08:00      43.4      42.6       95     41.6      0.00      4.95      54.0     0.49      1018.8     0.0      NE    39   0.9     ENE    74   9.87    305       39.8
   01/06/2019 07:50      42.8      42.1       95     41.1      0.00      4.95      54.0     0.49      1018.7     0.0       N     0   0.0     ESE   102   9.87    309       28.5
   01/06/2019 07:40      42.2      41.5       95     40.6      0.00      4.95      54.0     0.49      1018.5     0.1     ESE   114   1.1      SE   126   9.87    316       20.5
   01/06/2019 07:30      41.6      40.5       95     39.7      0.00      4.95      54.0     0.49      1018.3     0.0       N     0   0.0      SE   126   9.87    321       14.4
   01/06/2019 07:20      40.7      40.4       95     39.2      0.00      4.95      54.0     0.49      1018.1     0.0       N     0   0.0      SE   126   9.87    327        7.6
   01/06/2019 07:10      40.9      40.4       95     39.3      0.00      4.95      54.0     0.50      1017.9     0.1      SE   138   1.0      SE   142   9.88    333        2.0
   01/06/2019 07:00      40.7      39.8       95     38.9      0.00      4.95      54.0     0.50      1017.8     0.0     NNW   344   0.9     NNW   344   9.88    348       -2.6
   01/06/2019 06:50      40.5      39.8       95     38.8      0.00      4.95      54.0     0.50      1017.6     0.1     SSE   166   0.9       S   169   9.88    345       -5.2
   01/06/2019 06:40      41.1      40.2       95     39.0      0.00      4.95      54.0     0.50      1017.4     0.5      SE   132   1.4      SE   137   9.88    345       -5.8
   01/06/2019 06:30      41.3      40.7       95     39.5      0.00      4.95      54.1     0.50      1017.2     0.8     SSE   164   2.3       S   175   9.88    342       -5.8
   01/06/2019 06:20      42.0      41.1       95     40.2      0.00      4.95      54.1     0.50      1017.1     1.5       S   191   2.8       S   187   9.88    340       -5.3
   01/06/2019 06:10      41.7      40.9       94     39.6      0.00      4.95      54.1     0.50      1016.8     0.0      SE   135   0.8      SE   126   9.89    337       -5.9
   01/06/2019 06:00      42.0      41.5       94     40.2      0.00      4.95      54.1     0.50      1016.5     0.0       N     0   0.0     SSW   193   9.89    335       -6.0
   01/06/2019 05:50      42.2      41.6       94     40.5      0.00      4.95      54.1     0.50      1016.3     0.6      SW   229   1.5     WSW   238   9.89    349       -5.7
   01/06/2019 05:40      42.6      41.9       94     40.7      0.00      4.95      54.1     0.50      1016.1     0.5       S   182   1.4     WSW   240   9.89    352       -5.6
   01/06/2019 05:30      43.0      42.1       94     40.8      0.00      4.95      54.1     0.50      1016.0     0.9       S   171   1.8     SSE   146   9.89    351       -5.8
   01/06/2019 05:20      43.3      42.6       94     41.4      0.00      4.95      54.1     0.50      1016.0     1.3     SSE   162   2.0     SSW   192   9.90    350       -5.5
   01/06/2019 05:10      43.4      42.7       94     41.4      0.00      4.95      54.1     0.50      1016.0     0.6      SW   215   1.7      SW   216   9.90    347       -6.1
   01/06/2019 05:00      44.3      42.6       93     41.4      0.00      4.95      54.1     0.50      1016.0     1.4     SSE   147   2.8      SE   135   9.90    347       -5.4
   01/06/2019 04:50      44.2      43.9       94     42.4      0.00      4.95      54.1     0.50      1016.0     1.2     WSW   242   2.3     SSW   196   9.90    342       -5.3
   01/06/2019 04:40      45.0      44.0       93     42.5      0.00      4.95      54.1     0.50      1016.0     0.4      SE   137   1.1     SSW   213   9.91    339       -5.6
   01/06/2019 04:30      45.7      44.8       93     43.4      0.00      4.95      54.1     0.50      1016.0     0.4      SW   217   1.2     SSW   195   9.91    335       -6.0
   01/06/2019 04:20      45.6      45.3       93     43.7      0.00      4.95      54.1     0.50      1016.1     1.0     WNW   290   2.8      NW   313   9.91    335       -5.5
   01/06/2019 04:10      46.1      45.4       93     43.8      0.00      4.95      54.1     0.50      1016.0     0.7     SSW   199   2.5     WNW   300   9.91    348       -5.8
   01/06/2019 04:00      46.5      45.9       93     44.2      0.00      4.95      54.1     0.50      1015.9     1.6       S   182   2.9     SSW   193   9.91    345       -5.3
   01/06/2019 03:50      47.0      46.2       93     44.7      0.00      4.95      54.1     0.50      1015.9     1.8     SSW   197   2.9       S   190   9.92    344       -4.8
   01/06/2019 03:40      47.0      46.7       93     44.9      0.00      4.95      54.1     0.50      1015.9     1.3      SE   131   2.7     ENE    72   9.92    352       -3.4
   01/06/2019 03:30      47.1      46.7       93     45.0      0.00      4.95      54.1     0.50      1016.1     1.3     SSE   165   2.7      SE   142   9.92    355       -3.2
   01/06/2019 03:20      47.2      46.8       93     45.0      0.01      4.95      54.1     0.50      1016.3     1.1      SE   143   2.2      SE   143   9.93    380       -2.5
   01/06/2019 03:10      47.2      46.8       93     45.1      0.00      4.94      54.2     0.50      1016.3     0.5      SW   235   1.5       S   187   9.93    346       -2.5
   01/06/2019 03:00      47.2      46.8       94     45.2      0.03      4.94      54.1     0.50      1016.4     3.0     SSW   203   4.5     WSW   246   9.93    384       -1.7
   01/06/2019 02:50      47.8      47.0       94     45.7      0.05      4.91      54.2     0.50      1016.4     2.8      NW   304   6.1     WSW   258   9.90    377       -1.2
   01/06/2019 02:40      47.8      47.4       94     45.9      0.01      4.86      54.1     0.50      1016.2     2.0      NW   308   4.5       W   279   9.86    434       -1.5
   01/06/2019 02:30      47.8      47.3       94     45.8      0.00      4.85      54.1     0.50      1015.9     0.0       N     0   0.0      NE    48   9.86    379       -1.5
   01/06/2019 02:20      47.8      47.5       94     45.8      0.00      4.85      54.1     0.50      1015.9     0.0       N     0   0.0      NE    48   9.86    367       -1.5
   01/06/2019 02:10      47.8      47.3       94     45.8      0.01      4.85      54.1     0.50      1015.9     0.2     ESE   103   1.1     ESE   110   9.86    438       -1.4
   01/06/2019 02:00      47.8      47.4       94     45.9      0.00      4.84      54.2     0.50      1015.9     0.7     SSW   206   2.0     SSW   196   9.86    429       -1.4
   01/06/2019 01:50      47.8      47.5       94     45.9      0.00      4.84      54.1     0.50      1015.9     1.6      SW   228   3.1      SW   230   9.86    350       -1.4
   01/06/2019 01:40      47.8      47.3       94     45.9      0.00      4.84      54.2     0.50      1015.6     1.1     WSW   240   2.5     WSW   249   9.86    358       -1.6
   01/06/2019 01:30      47.6      47.3       94     45.6      0.00      4.84      54.2     0.50      1015.4     0.0       N     0   0.0      SE   130   9.86    337       -1.9
   01/06/2019 01:20      47.6      47.1       94     45.5      0.01      4.84      54.2     0.50      1015.4     0.0       N     0   0.0      SE   130   9.86    369       -1.9
   01/06/2019 01:10      47.6      47.3       94     45.6      0.00      4.83      54.2     0.50      1015.1     0.0       N     0   0.0      SE   130   9.86    354       -2.0
   01/06/2019 01:00      47.8      47.2       93     45.6      0.00      4.83      54.1     0.50      1015.1     0.0       N     0   0.0      SE   130   9.86    359       -2.2
   01/06/2019 00:50      47.8      47.3       93     45.6      0.00      4.83      54.2     0.50      1015.1     0.0       N     0   0.0      SE   130   9.86    313       -2.0
   01/06/2019 00:40      47.8      47.3       93     45.7      0.00      4.83      54.2     0.50      1015.1     0.0       N     0   0.0      SE   130   9.87    312       -1.9
   01/06/2019 00:30      47.8      47.3       93     45.7      0.00      4.83      54.2     0.50      1015.1     0.0       N     0   0.0      SE   130   9.87    312       -2.0
   01/06/2019 00:20      47.9      47.4       93     45.8      0.00      4.83      54.1     0.50      1015.1     0.0       N     0   0.0      SE   130   9.87    311       -2.0
   01/06/2019 00:10      47.9      47.5       93     45.8      0.00      4.83      54.2     0.51      1015.1     0.0       N     0   0.0      SE   130   9.87    311       -2.0
   01/06/2019 00:00      47.8      47.5       93     45.8      0.00      4.83      54.2     0.51      1015.2     0.3      SE   138   1.5      SE   138   9.88    309       -2.0
   01/05/2019 23:50      48.1      47.6       93     45.9      0.00      4.83      54.2     0.51      1015.1     0.2       S   181   0.9       S   181   9.88    308       -1.8
   01/05/2019 23:40      48.1      47.6       93     45.9      0.00      4.83      54.2     0.51      1015.2     0.1       W   264   0.9      SW   218   9.88    308       -1.7
   01/05/2019 23:30      48.0      47.6       93     45.9      0.00      4.83      54.2     0.51      1015.2     0.6     WSW   259   1.8     WSW   245   9.88    309       -1.9
   01/05/2019 23:20      47.9      47.5       93     45.7      0.00      4.83      54.2     0.51      1015.1     0.3       W   281   1.2     WNW   292   9.89    340       -2.1
   01/05/2019 23:10      48.1      47.5       93     45.7      0.00      4.83      54.2     0.51      1015.1     0.1     WSW   252   1.0     WSW   252   9.89    340       -2.1
   01/05/2019 23:00      48.0      47.6       93     45.8      0.00      4.83      54.2     0.52      1015.2     0.2     WSW   252   1.0     WSW   252   9.89    341       -2.3
   01/05/2019 22:50      48.0      47.6       93     45.8      0.00      4.83      54.1     0.52      1015.3     0.4     WSW   240   1.1     WSW   252   9.90    341       -2.1
   01/05/2019 22:40      48.0      47.5       93     45.8      0.00      4.83      54.2     0.52      1015.2     0.2       E    83   1.6       E    94   9.90    343       -2.3
   01/05/2019 22:30      48.0      47.5       93     45.9      0.00      4.83      54.1     0.52      1015.3     0.4      SE   135   1.8     ENE    70   9.90    346       -2.3
   01/05/2019 22:20      47.9      47.6       93     45.8      0.00      4.83      54.1     0.52      1015.2     0.8     ESE   106   2.3      SE   134   9.91    353       -2.3
   01/05/2019 22:10      48.1      47.6       93     45.9      0.00      4.83      54.1     0.52      1015.3     1.2       E    87   2.5     ENE    77   9.91    364       -2.0
   01/05/2019 22:00      48.1      47.7       93     46.0      0.00      4.83      54.1     0.52      1015.3     1.2       E    88   2.8      NE    54   9.91    348       -2.0
   01/05/2019 21:50      48.1      47.8       93     45.9      0.00      4.83      54.1     0.53      1015.4     1.1       E    91   2.8       E   100   9.92    352       -2.0
   01/05/2019 21:40      48.2      47.8       93     46.0      0.00      4.83      54.1     0.53      1015.2     1.5      NE    56   3.9      NE    48   9.92    367       -2.0
   01/05/2019 21:30      48.2      47.8       93     45.9      0.00      4.83      54.1     0.53      1015.3     2.0       E    82   4.6       E   100   9.94    395       -2.0
   01/05/2019 21:20      48.1      47.8       93     45.9      0.01      4.83      54.1     0.53      1015.3     1.5     ESE   112   3.9      SE   140   9.95    365       -2.0
   01/05/2019 21:10      48.1      47.8       92     45.8      0.00      4.82      54.1     0.53      1015.2     2.1     ENE    74   4.3     ESE   103   9.96    445       -2.0
   01/05/2019 21:00      48.2      47.8       92     45.7      0.01      4.82      54.2     0.53      1015.6     1.3     ENE    78   3.0     ESE   106   9.97    446       -2.0
   01/05/2019 20:50      48.4      47.9       91     45.6      0.03      4.81      54.2     0.52      1015.8     1.3     ESE   102   2.9     ENE    75   9.98    435       -2.0
   01/05/2019 20:40      48.6      48.2       90     45.6      0.03      4.78      54.3     0.49      1015.8     0.8       E    84   2.3      NE    45   9.98    502       -2.2
   01/05/2019 20:30      48.7      48.2       90     45.5      0.05      4.75      54.5     0.43      1015.9     1.5       W   263   4.8     WNW   291   9.99    477       -2.7
   01/05/2019 20:20      49.0      48.3       90     45.7      0.05      4.70      54.5     0.42      1015.7     2.2       W   270   5.2     WSW   255   9.99    395       -2.1
   01/05/2019 20:10      49.0      48.7       89     45.6      0.21      4.65      54.5     0.42      1015.5     4.2     WSW   255   8.1      SW   226   9.98    359       -2.3
   01/05/2019 20:00      49.2      48.8       87     45.2      0.06      4.44      54.5     0.41      1015.2     4.4     WSW   245   6.0     WSW   245   9.85    340       -3.4
   01/05/2019 19:50      49.2      48.9       85     44.8      0.03      4.38      54.5     0.41      1014.7     3.5     WSW   253   5.2       W   270   9.80    356       -4.4
   01/05/2019 19:40      49.2      48.7       84     44.4      0.01      4.35      54.5     0.41      1014.3     1.9     ESE   123   3.7      SE   140   9.78    432       -4.7
   01/05/2019 19:30      49.3      48.8       84     44.4      0.00      4.34      54.5     0.41      1014.0     2.3       E    98   5.2     ENE    69   9.78    363       -4.9
   01/05/2019 19:20      49.7      49.0       86     45.1      0.00      4.34      54.4     0.41      1014.0     3.5       E    89   8.2     ENE    63   9.78    321       -4.1
   01/05/2019 19:10      50.1      49.3       88     46.3      0.00      4.34      54.5     0.41      1014.0     2.7     ENE    73   8.0     ENE    76   9.78    332       -3.5
   01/05/2019 19:00      50.3      49.7       89     46.9      0.00      4.34      54.5     0.41      1014.1     1.9     ENE    70   4.8      NE    56   9.78    347       -3.1
   01/05/2019 18:50      50.5      50.0       90     47.3      0.01      4.34      54.4     0.41      1014.1     2.5       E    83   5.0      SE   141   9.78    375       -2.7
   01/05/2019 18:40      50.5      50.1       90     47.5      0.00      4.33      54.4     0.41      1014.2     1.7     ENE    70   6.1       E    96   9.78    393       -2.6
   01/05/2019 18:30      50.6      50.1       90     47.4      0.00      4.33      54.4     0.41      1014.2     1.3       E    82   2.7      SE   140   9.78    368       -3.0
   01/05/2019 18:20      50.8      50.3       89     47.5      0.00      4.33      54.4     0.41      1014.3     2.2     ENE    58   4.4     ENE    56   9.78    374       -3.3
   01/05/2019 18:10      51.1      50.5       89     47.7      0.00      4.33      54.4     0.41      1014.6     2.2     ENE    78   5.8      NE    42   9.78    406       -3.3
   01/05/2019 18:00      51.1      50.7       90     48.0      0.00      4.33      54.4     0.41      1014.8     1.9     ENE    69   6.2     ENE    75   9.78    322       -2.8
   01/05/2019 17:50      51.3      50.9       91     48.4      0.00      4.33      54.4     0.41      1014.8     2.2     ENE    68   5.1     ENE    68   9.78    321       -2.1
   01/05/2019 17:40      51.5      51.0       91     48.7      0.00      4.33      54.4     0.41      1014.8     1.8     ENE    76   4.6     ENE    61   9.78    329       -1.2
   01/05/2019 17:30      51.6      51.1       91     48.7      0.01      4.33      54.3     0.41      1014.8     0.7     ENE    60   2.3     ENE    65   9.78    318       -1.3
   01/05/2019 17:20      51.6      51.2       91     48.6      0.00      4.32      54.3     0.41      1014.8     0.0       E    91   0.8       E    85   9.78    318       -1.1
   01/05/2019 17:10      51.6      51.2       91     48.7      0.00      4.32      54.3     0.41      1014.7     0.3     ENE    58   1.9      NE    48   9.79    320       -1.6
   01/05/2019 17:00      51.6      51.2       90     48.7      0.00      4.32      54.3     0.41      1014.7     1.0      NE    54   2.3      NE    47   9.79    320       -1.5
   01/05/2019 16:50      51.6      51.2       90     48.6      0.00      4.32      54.3     0.41      1014.8     0.4       E    91   2.5      SE   131   9.79    321       -0.8
   01/05/2019 16:40      51.6      51.2       90     48.6      0.00      4.32      54.3     0.41      1014.7     1.2     ENE    63   3.4      NE    50   9.79    322        0.4
   01/05/2019 16:30      51.6      51.3       90     48.6      0.00      4.32      54.3     0.41      1014.7     1.1     ENE    64   3.1     ENE    75   9.79    322        3.0
   01/05/2019 16:20      51.8      51.3       90     48.6      0.00      4.32      54.2     0.41      1014.5     1.7     ENE    72   4.1     ENE    56   9.79    328        3.6
   01/05/2019 16:10      51.9      51.4       90     48.6      0.00      4.32      54.2     0.41      1014.7     1.7     ENE    63   3.8     ENE    60   9.80    338        7.9
   01/05/2019 16:00      52.0      51.6       89     48.5      0.00      4.32      54.2     0.41      1014.8     0.4       E    97   1.5       E    88   9.80    347       11.0
   01/05/2019 15:50      52.2      51.6       87     48.2      0.04      4.32      54.2     0.41      1014.8     0.8     ENE    78   2.4      NE    49   9.80    364       11.0
   01/05/2019 15:40      53.4      51.9       84     47.8      0.07      4.28      54.2     0.41      1014.8     1.7       E    81   2.8     SSE   154   9.75    516        2.4
   01/05/2019 15:30      54.1      53.1       78     46.8      0.06      4.21      54.2     0.41      1014.9     0.8       S   179   1.8     SSE   158   9.68    467        2.7
   01/05/2019 15:20      54.3      53.7       76     46.4      0.00      4.15      54.1     0.41      1014.8     0.9     ENE    75   2.2     ENE    69   9.64    343       -3.5
   01/05/2019 15:10      54.5      54.0       75     46.3      0.00      4.15      54.1     0.41      1014.7     1.0     ESE   107   2.2     ESE   116   9.64    271        9.1
   01/05/2019 15:00      54.4      54.0       74     46.0      0.00      4.15      54.1     0.41      1014.7     1.3      SE   132   4.4      SE   137   9.64    273       25.5
   01/05/2019 14:50      54.4      54.0       74     45.9      0.00      4.15      54.1     0.41      1014.6     2.1     ESE   108   4.9       E   101   9.64    270       28.2
   01/05/2019 14:40      54.4      54.0       73     45.8      0.00      4.15      54.0     0.41      1014.7     1.7     ESE   114   3.5       E   101   9.64    272       32.0
   01/05/2019 14:30      54.4      54.0       74     45.9      0.00      4.15      54.1     0.41      1014.7     2.3      SE   142   6.6      SE   133   9.64    273       38.2
   01/05/2019 14:20      54.4      54.0       76     46.6      0.00      4.15      54.1     0.41      1014.7     1.4     ESE   112   4.0     ESE   121   9.64    279       39.9
   01/05/2019 14:10      54.4      53.9       76     46.7      0.00      4.15      54.0     0.41      1014.7     1.5     ESE   105   3.5     ENE    71   9.64    287       27.8
   01/05/2019 14:00      54.9      54.1       74     46.3      0.00      4.15      54.0     0.41      1014.6     2.1       E    84   4.8     ESE   110   9.64    301       39.8
   01/05/2019 13:50      54.9      54.4       73     46.1      0.00      4.15      54.0     0.41      1014.6     1.8     ESE   115   4.4       E    86   9.64    290       28.0
   01/05/2019 13:40      55.0      54.4       71     45.5      0.00      4.15      54.0     0.41      1014.7     2.9     ESE   119   8.2       S   185   9.64    269       20.3
   01/05/2019 13:30      55.3      54.7       69     44.9      0.00      4.15      54.0     0.41      1014.5     3.8       E   101   7.4       E    91   9.65    267       30.0
   01/05/2019 13:20      55.4      55.0       68     44.7      0.00      4.15      54.0     0.41      1014.5     2.7       E    93   8.2      SE   140   9.65    267       36.8
   01/05/2019 13:10      55.3      54.9       68     44.8      0.00      4.15      54.0     0.41      1014.8     2.1       E    94   4.6      SE   130   9.65    267       50.2
   01/05/2019 13:00      55.2      54.9       68     44.7      0.00      4.15      54.0     0.41      1015.1     3.1      SE   124   6.8      SE   137   9.65    267       56.5
   01/05/2019 12:50      55.3      54.9       68     44.7      0.00      4.15      54.0     0.41      1015.3     3.7      SE   136   7.0      SE   144   9.66    267       69.7
   01/05/2019 12:40      55.5      54.9       68     44.8      0.00      4.15      54.0     0.41      1015.3     3.7      SE   132   7.9      SE   136   9.66    267       72.1
   01/05/2019 12:30      55.3      54.8       69     45.0      0.00      4.15      54.0     0.41      1015.2     3.0      SE   138   6.6      SE   130   9.66    267       67.9
   01/05/2019 12:20      55.0      54.6       68     44.6      0.00      4.15      53.9     0.41      1015.3     3.0     SSE   152   6.9     SSW   202   9.66    267       66.8
   01/05/2019 12:10      54.9      54.6       67     43.9      0.00      4.15      54.0     0.41      1015.3     1.8     SSE   164   4.7      SE   133   9.66    266       70.1
   01/05/2019 12:00      54.7      54.2       67     43.5      0.00      4.15      54.0     0.41      1015.4     1.0       S   176   2.0      SE   128   9.66    266       67.1
   01/05/2019 11:50      54.4      54.0       66     43.1      0.00      4.15      54.0     0.41      1015.4     1.7      SE   144   3.4      SE   134   9.66    266       65.2
   01/05/2019 11:40      54.4      53.8       64     42.2      0.00      4.15      54.0     0.41      1015.4     1.1       E    84   3.0     ENE    63   9.66    266       67.3
   01/05/2019 11:30      54.1      53.5       63     41.3      0.00      4.15      54.0     0.41      1015.3     1.7     ENE    67   4.1     ENE    58   9.66    266       68.0
   01/05/2019 11:20      53.7      53.2       60     40.2      0.00      4.15      54.0     0.41      1015.5     1.9     ENE    70   4.3       E    87   9.24    266       82.9
   01/05/2019 11:10      53.5      52.9       60     39.5      0.00      4.15      54.0     0.41      1015.9     1.8     ENE    71   3.7       E   101   9.24    266       83.0
   01/05/2019 11:00      53.0      52.3       58     38.3      0.00      4.15      54.0     0.41      1015.8     2.2     ENE    69   4.8      NE    48   9.25    266      130.1
   01/05/2019 10:50      52.5      51.9       56     37.0      0.00      4.15      54.0     0.41      1016.0     2.2     ENE    72   5.3     ENE    68   9.25    266       98.5
   01/05/2019 10:40      52.3      51.7       54     35.7      0.00      4.15      54.0     0.41      1016.3     2.1       E    82   4.1       E    83   9.25    266      112.8
   01/05/2019 10:30      51.9      51.0       53     34.8      0.00      4.15      54.0     0.41      1016.5     1.8       E    82   2.9       E    79   9.25    266      127.8
   01/05/2019 10:20      51.3      50.5       53     34.3      0.00      4.15      54.0     0.41      1016.7     1.1       E    84   3.1      SE   135   9.25    266      102.3
   01/05/2019 10:10      50.6      49.8       53     33.9      0.00      4.15      54.0     0.41      1016.9     1.1       E    90   2.5      SE   133   9.25    266       81.2
   01/05/2019 10:00      50.1      49.4       55     34.3      0.00      4.15      54.0     0.41      1017.0     1.1     NNE    22   3.4      NE    40   9.25    266       80.6
   01/05/2019 09:50      49.6      48.9       56     34.1      0.00      4.15      54.0     0.41      1017.2     1.6     NNW   333   2.5      NW   313   9.25    266       71.1
   01/05/2019 09:40      49.0      48.3       58     34.4      0.00      4.15      54.0     0.41      1017.3     2.2       W   261   4.3     WNW   286   9.25    266       45.5
   01/05/2019 09:30      48.6      47.9       61     35.4      0.00      4.15      54.0     0.41      1017.1     1.6       W   271   3.9     WSW   254   9.25    266       44.7
   01/05/2019 09:20      48.1      47.3       61     35.0      0.00      4.15      54.0     0.41      1016.8     1.1     WNW   286   3.0     WSW   242   9.25    267       55.3
   01/05/2019 09:10      47.6      46.9       62     34.8      0.00      4.15      54.0     0.41      1016.5     0.8     NNE    16   2.2     NNE    25   9.25    267       52.4
   01/05/2019 09:00      47.1      46.4       63     34.9      0.00      4.15      54.1     0.41      1016.5     0.7     NNW   330   2.8       W   272   9.25    267       35.3
   01/05/2019 08:50      46.7      46.0       65     35.3      0.00      4.15      54.1     0.41      1016.2     1.2     NNW   344   3.4     WSW   259   9.26    267       28.6
   01/05/2019 08:40      46.3      45.3       66     35.1      0.00      4.15      54.1     0.41      1016.3     0.8     ENE    70   2.3      NE    34   9.26    267       24.1
   01/05/2019 08:30      45.5      44.6       68     35.2      0.00      4.15      54.1     0.41      1016.0     0.6     SSW   191   2.8       S   189   9.26    267       14.2
   01/05/2019 08:20      44.9      44.1       69     34.9      0.00      4.15      54.1     0.41      1015.9     1.3      SE   125   2.2      SE   137   9.26    267        8.1
   01/05/2019 08:10      44.2      43.4       70     34.7      0.00      4.15      54.1     0.41      1015.7     0.8       S   175   1.9       S   175   9.26    267        3.0
   01/05/2019 08:00      43.6      42.9       72     34.6      0.00      4.15      54.1     0.41      1015.3     1.6     SSW   208   3.1      SW   217   9.26    268       -1.6
   01/05/2019 07:50      43.2      42.5       72     34.4      0.00      4.15      54.1     0.41      1015.1     0.2      SE   140   0.9     SSE   149   9.26    268       -6.5
   01/05/2019 07:40      42.9      42.3       72     34.0      0.00      4.15      54.1     0.41      1014.7     0.3     SSE   154   1.0      SE   145   9.26    267       -9.5
   01/05/2019 07:30      43.1      42.4       70     33.6      0.00      4.15      54.2     0.41      1014.6     0.3      SE   137   1.1     ESE   119   9.26    268      -14.0
   01/05/2019 07:20      43.0      42.3       70     33.5      0.00      4.15      54.2     0.41      1014.6     0.7      SW   217   1.3     SSW   198   9.26    268      -16.9
   01/05/2019 07:10      42.8      42.1       71     33.5      0.00      4.15      54.2     0.41      1014.6     0.5     SSW   210   1.2     SSW   211   9.26    268      -19.6
   01/05/2019 07:00      42.9      42.3       69     33.3      0.00      4.15      54.2     0.41      1014.5     0.4     ENE    71   1.4     ENE    76   9.26    267      -19.7
   01/05/2019 06:50      42.9      42.6       70     33.5      0.00      4.15      54.2     0.41      1014.7     0.3     ENE    63   1.1      NE    45   9.26    268      -20.4
   01/05/2019 06:40      42.8      42.4       70     33.7      0.00      4.15      54.2     0.41      1014.4     0.1     WSW   247   1.3     WSW   244   9.26    268      -19.7
   01/05/2019 06:30      42.8      42.1       70     33.5      0.00      4.15      54.2     0.41      1014.4     0.0      SE   145   0.7      SE   145   9.26    268      -19.4
   01/05/2019 06:20      42.4      42.1       71     33.4      0.00      4.15      54.3     0.41      1014.1     0.4     SSE   168   1.2      SE   145   9.26    268      -23.7
   01/05/2019 06:10      42.3      41.6       71     33.3      0.00      4.15      54.2     0.41      1014.0     0.5      SE   141   1.8      SE   138   9.26    267      -21.3
   01/05/2019 06:00      41.8      41.2       71     32.8      0.00      4.15      54.3     0.41      1013.9     0.7     SSE   155   2.1      SE   141   9.26    268      -19.9
   01/05/2019 05:50      41.8      41.2       71     32.6      0.00      4.15      54.3     0.41      1013.8     0.0      SE   125   0.5     SSE   167   9.26    268      -23.4
   01/05/2019 05:40      41.8      41.3       70     32.6      0.00      4.15      54.3     0.41      1014.1     0.0     ESE   110   0.6      SE   137   9.26    268      -23.0
   01/05/2019 05:30      41.8      41.2       70     32.5      0.00      4.15      54.3     0.41      1014.1     0.3     SSE   157   1.6     SSE   147   9.26    267      -23.3
   01/05/2019 05:20      41.8      41.2       70     32.3      0.00      4.15      54.3     0.41      1014.0     0.1     SSW   208   1.1     SSW   208   9.26    267      -19.9
   01/05/2019 05:10      41.5      41.0       70     32.2      0.00      4.15      54.3     0.41      1014.1     0.2     SSE   169   1.1     SSE   150   9.26    268      -19.5
   01/05/2019 05:00      41.8      41.3       67     31.6      0.00      4.15      54.4     0.41      1014.1     0.3     ESE   103   1.2       E    96   9.26    267      -20.0
   01/05/2019 04:50      41.8      40.9       69     31.9      0.00      4.15      54.4     0.41      1014.0     0.8      SW   216   2.2     SSW   206   9.26    267      -23.2
   01/05/2019 04:40      41.5      41.0       70     32.0      0.00      4.15      54.4     0.41      1013.6     0.0       N     0   0.0     SSE   162   9.26    268      -28.2
   01/05/2019 04:30      41.5      41.0       70     32.3      0.00      4.15      54.4     0.41      1013.6     0.0     SSE   155   0.4     SSE   157   9.26    268      -32.1
   01/05/2019 04:20      41.5      41.0       70     32.3      0.00      4.15      54.4     0.41      1013.8     0.0      SE   146   0.5     SSE   146   9.26    268      -33.6
   01/05/2019 04:10      41.3      40.7       71     32.4      0.00      4.15      54.5     0.41      1013.8     0.5     SSE   151   1.2      SE   144   9.26    268      -33.2
   01/05/2019 04:00      41.4      41.0       71     32.6      0.00      4.15      54.4     0.41      1013.7     0.5     SSE   150   1.3     SSE   147   9.26    268      -33.9
   01/05/2019 03:50      41.4      40.7       71     32.2      0.00      4.15      54.5     0.41      1013.8     0.2       S   175   0.9      SE   146   9.26    268      -30.2
   01/05/2019 03:40      41.7      40.7       70     32.1      0.00      4.15      54.5     0.41      1013.6     0.8     SSE   168   1.3     SSE   157   9.26    267      -38.6
   01/05/2019 03:30      41.9      41.4       70     32.5      0.00      4.15      54.5     0.41      1013.6     0.1       N   351   0.8     NNW   347   9.26    267      -45.5
   01/05/2019 03:20      41.9      41.5       69     32.3      0.00      4.15      54.5     0.41      1013.7     0.7      SW   217   1.2     SSW   204   9.26    268      -43.4
   01/05/2019 03:10      41.8      41.4       71     32.7      0.00      4.15      54.5     0.41      1013.9     0.0     SSW   203   0.9     SSW   203   9.26    267      -35.4
   01/05/2019 03:00      42.1      41.5       70     32.7      0.00      4.15      54.5     0.41      1014.1     0.2      NE    45   0.8     NNE    24   9.26    267      -31.4
   01/05/2019 02:50      42.3      41.8       70     32.8      0.00      4.15      54.5     0.41      1014.4     0.2     SSE   148   0.9      SE   144   9.26    267      -32.9
   01/05/2019 02:40      42.5      42.1       68     32.5      0.00      4.15      54.5     0.41      1014.6     0.6       S   170   1.3      SE   137   9.26    267      -30.1
   01/05/2019 02:30      42.5      42.1       68     32.3      0.00      4.15      54.5     0.41      1014.7     0.0     ESE   113   0.7      SW   235   9.26    267      -24.2
   01/05/2019 02:20      42.5      41.7       68     32.3      0.00      4.15      54.6     0.41      1015.0     0.0      SW   221   0.6      SW   221   9.26    267      -23.7
   01/05/2019 02:10      42.1      41.6       70     32.7      0.00      4.15      54.6     0.41      1015.0     0.2     SSE   161   0.8     SSE   150   9.26    267      -28.1
   01/05/2019 02:00      42.5      41.7       69     32.6      0.00      4.15      54.6     0.41      1015.0     0.4     SSE   158   1.3      SE   145   9.26    267      -32.5
   01/05/2019 01:50      42.7      42.2       67     32.3      0.00      4.15      54.6     0.41      1015.0     0.7       S   174   1.5     SSW   212   9.27    267      -35.2
   01/05/2019 01:40      42.6      41.6       69     32.4      0.00      4.15      54.6     0.41      1015.0     1.4     SSW   203   2.2      SW   231   9.27    267      -36.4
   01/05/2019 01:30      41.9      41.2       69     32.1      0.00      4.15      54.6     0.41      1014.9     1.1     SSW   195   2.1      SW   230   9.27    267      -34.2
   01/05/2019 01:20      42.0      41.2       69     32.1      0.00      4.15      54.6     0.41      1014.9     0.3     SSE   168   1.0      SW   222   9.27    267      -35.0
   01/05/2019 01:10      42.0      41.6       68     32.2      0.00      4.15      54.7     0.41      1015.1     0.1       S   173   0.8     SSE   156   9.27    267      -41.7
   01/05/2019 01:00      42.4      41.8       69     32.6      0.00      4.15      54.7     0.41      1015.1     0.3     SSE   162   0.9       S   170   9.27    267      -42.0
   01/05/2019 00:50      42.3      41.8       69     32.5      0.00      4.15      54.7     0.41      1015.1     0.0     SSE   166   0.7     SSE   154   9.27    267      -44.2
   01/05/2019 00:40      42.3      42.0       68     32.3      0.00      4.15      54.7     0.41      1015.2     0.6     SSE   154   1.1     SSE   148   9.27    267      -34.9
   01/05/2019 00:30      42.7      42.0       67     32.1      0.00      4.15      54.7     0.41      1015.2     0.0     SSE   161   0.3     SSE   161   9.27    267      -37.2
   01/05/2019 00:20      42.8      42.3       66     32.1      0.00      4.15      54.7     0.41      1015.3     0.0     SSE   161   0.9     SSE   161   9.27    267      -39.6
   01/05/2019 00:10      42.8      42.3       66     32.0      0.00      4.15      54.7     0.41      1015.3     0.2     SSE   160   0.9     SSE   160   9.27    267      -32.6
   01/05/2019 00:00      42.9      42.6       65     31.6      0.00      4.15      54.7     0.41      1015.3     0.1     SSE   151   1.0     SSE   148   9.27    266      -40.9
   01/04/2019 23:50      43.2      42.6       65     31.9      0.00      4.15      54.7     0.41      1015.4     0.5     SSE   157   1.3      SE   146   9.27    266      -48.8
   01/04/2019 23:40      43.2      42.7       65     31.8      0.00      4.15      54.7     0.41      1015.3     0.9     SSE   156   2.5       S   177   9.27    266      -52.1
   01/04/2019 23:30      43.3      42.6       63     31.3      0.00      4.15      54.7     0.41      1015.1     1.8       S   185   3.1     SSW   200   9.27    266      -40.4
   01/04/2019 23:20      42.9      42.4       64     31.4      0.00      4.15      54.7     0.41      1014.9     0.7     SSW   210   2.3      SW   224   9.27    266      -39.1
   01/04/2019 23:10      43.2      42.7       64     31.6      0.00      4.15      54.8     0.41      1015.0     0.0     ENE    65   0.7     ENE    65   9.27    266      -48.6
   01/04/2019 23:00      43.5      42.8       64     31.7      0.00      4.15      54.8     0.41      1015.2     0.9     SSE   148   1.9      SE   141   9.27    266      -47.1
   01/04/2019 22:50      44.1      43.1       63     31.7      0.00      4.15      54.8     0.41      1015.3     0.8       S   169   1.6       S   187   9.27    266      -52.3
   01/04/2019 22:40      44.3      43.9       61     31.3      0.00      4.15      54.8     0.41      1015.4     0.7     SSE   154   1.1     SSE   148   9.27    266      -55.3
   01/04/2019 22:30      44.6      43.8       60     31.2      0.00      4.15      54.8     0.41      1015.4     0.6     SSE   149   1.2       S   179   9.27    266      -50.0
   01/04/2019 22:20      44.8      44.2       60     31.3      0.00      4.15      54.8     0.41      1015.6     0.0     NNE    24   0.3     NNE    24   9.27    266      -37.2
   01/04/2019 22:10      44.8      44.4       59     31.1      0.00      4.15      54.8     0.41      1015.6     0.3       S   175   1.0      SW   228   9.27    266      -37.9
   01/04/2019 22:00      44.5      44.0       59     30.8      0.00      4.15      54.8     0.41      1015.4     0.2     WSW   240   1.5     WSW   243   9.27    266      -36.2
   01/04/2019 21:50      45.0      44.2       58     30.5      0.00      4.15      54.8     0.41      1015.6     0.8     SSE   149   1.8      SE   142   9.27    266      -33.3
   01/04/2019 21:40      45.0      44.3       56     30.0      0.00      4.15      54.8     0.41      1015.5     0.0       S   173   1.1       S   180   9.27    266      -40.3
   01/04/2019 21:30      44.8      44.0       58     30.3      0.00      4.15      54.8     0.41      1015.5     1.3       S   186   2.7      SE   138   9.27    266      -48.1
   01/04/2019 21:20      45.3      44.5       55     29.8      0.00      4.15      54.8     0.41      1015.6     1.7       S   171   2.6     SSW   193   9.27    266      -58.7
   01/04/2019 21:10      45.8      44.8       57     30.7      0.00      4.15      54.8     0.41      1015.6     0.3     SSW   200   1.5     SSW   208   9.27    266      -61.0
   01/04/2019 21:00      45.9      45.4       57     31.3      0.00      4.15      54.8     0.41      1015.8     0.5     ESE   116   2.5      SE   137   9.27    266      -57.9
   01/04/2019 20:50      46.0      45.5       56     30.8      0.00      4.15      54.8     0.41      1015.9     1.0     SSE   166   2.3     SSW   201   9.27    266      -47.2
   01/04/2019 20:40      45.8      45.1       58     31.5      0.00      4.15      54.8     0.41      1015.5     1.1     SSW   205   2.1      SW   223   9.27    266      -36.2
   01/04/2019 20:30      46.3      45.5       58     32.0      0.00      4.15      54.8     0.41      1015.5     1.0     SSE   155   1.6      SE   138   9.27    266      -42.5
   01/04/2019 20:20      47.0      46.1       57     31.9      0.00      4.15      54.8     0.41      1015.7     0.0      SE   126   0.6      SE   129   9.28    266      -55.0
   01/04/2019 20:10      46.9      46.5       55     31.4      0.00      4.15      54.8     0.41      1015.8     0.3      SW   217   1.0     SSW   200   9.28    266      -49.4
   01/04/2019 20:00      46.7      46.1       56     31.4      0.00      4.15      54.8     0.41      1015.7     0.8       S   190   1.4      SW   217   9.28    266      -43.5
   01/04/2019 19:50      46.2      45.8       57     31.7      0.00      4.15      54.7     0.41      1015.7     0.5     SSE   168   1.0       S   181   9.28    266      -36.1
   01/04/2019 19:40      47.2      46.0       54     30.9      0.00      4.15      54.7     0.41      1015.7     0.8     SSE   167   1.9       S   171   9.28    266      -50.6
   01/04/2019 19:30      47.0      46.2       54     30.8      0.00      4.15      54.7     0.41      1015.6     0.7     SSW   202   2.2      SW   228   9.28    266      -60.9
   01/04/2019 19:20      46.8      46.4       53     30.3      0.00      4.15      54.7     0.41      1015.6     0.2     SSE   154   1.1     SSE   157   9.28    266      -59.3
   01/04/2019 19:10      47.6      46.6       51     30.1      0.00      4.15      54.7     0.41      1015.6     0.7     SSE   156   1.5      SE   142   9.28    265      -60.1
   01/04/2019 19:00      48.1      47.3       50     29.8      0.00      4.15      54.6     0.41      1015.5     0.2     SSE   152   1.1       S   181   9.28    265      -63.9
   01/04/2019 18:50      49.5      47.8       48     29.9      0.00      4.15      54.6     0.41      1015.5     1.0     SSE   151   1.8      SE   141   9.28    265      -65.7
   01/04/2019 18:40      49.5      49.0       46     29.6      0.00      4.15      54.6     0.41      1015.4     0.8     SSE   163   1.8      SE   146   9.28    265      -65.4
   01/04/2019 18:30      50.3      48.9       48     30.4      0.00      4.15      54.6     0.41      1015.4     0.7       S   180   1.6       S   188   9.28    265      -66.0
   01/04/2019 18:20      51.8      50.1       46     30.8      0.00      4.15      54.6     0.41      1015.3     1.5       S   189   3.1     SSW   211   9.28    265      -65.8
   01/04/2019 18:10      51.6      50.4       45     30.1      0.00      4.15      54.5     0.41      1015.2     1.2       S   181   2.1     SSW   195   9.28    264      -66.8
   01/04/2019 18:00      51.3      50.6       43     29.1      0.00      4.15      54.5     0.41      1015.1     0.7       S   169   1.2      SW   216   9.29    264      -68.8
   01/04/2019 17:50      51.4      50.6       42     28.8      0.00      4.15      54.5     0.41      1015.2     0.5       S   177   1.8      SE   135   9.29    264      -72.8
   01/04/2019 17:40      51.8      51.0       42     29.0      0.00      4.15      54.5     0.41      1015.1     1.1     SSE   151   2.2       S   188   9.29    264      -73.0
   01/04/2019 17:30      53.1      50.9       42     29.4      0.00      4.15      54.4     0.41      1015.0     1.3       S   173   2.5       S   185   9.29    264      -75.1
   01/04/2019 17:20      54.1      52.6       38     28.4      0.00      4.15      54.4     0.41      1015.0     1.4       S   189   2.6     SSW   202   9.29    264      -75.4
   01/04/2019 17:10      55.8      53.7       39     29.9      0.00      4.15      54.4     0.41      1014.9     0.7     SSE   167   1.7      SE   138   9.29    264      -77.4
   01/04/2019 17:00      57.1      55.6       35     29.0      0.00      4.15      54.3     0.41      1014.9     1.0     SSE   165   1.4     SSE   163   9.29    264      -76.0
   01/04/2019 16:50      59.6      56.8       31     27.7      0.00      4.15      54.3     0.41      1015.0     1.1       S   180   1.8       S   178   9.29    263      -74.5
   01/04/2019 16:40      61.5      59.4       28     27.4      0.00      4.15      54.3     0.41      1015.1     0.2       S   187   1.1       S   186   9.29    263      -74.4
   01/04/2019 16:30      63.6      61.4       26     27.0      0.00      4.15      54.2     0.41      1015.2     1.5       S   172   2.9      SE   142   9.29    262      -62.3
   01/04/2019 16:20      63.6      63.1       25     26.9      0.00      4.15      54.2     0.41      1015.2     1.1     SSE   169   3.5       S   184   9.30    261      -48.6
   01/04/2019 16:10      64.4      63.1       25     26.9      0.00      4.15      54.1     0.41      1015.4     2.5       S   179   4.4       S   185   9.30    261      -30.1
   01/04/2019 16:00      64.9      64.1       24     27.1      0.00      4.15      54.1     0.41      1015.4     2.6       S   172   4.5     SSE   163   9.30    261      -10.8
   01/04/2019 15:50      66.2      64.8       23     26.3      0.00      4.15      54.1     0.41      1015.3     3.2     SSE   168   6.2     SSE   168   9.30    261        8.8
   01/04/2019 15:40      67.5      65.7       18     21.1      0.00      4.15      54.0     0.41      1015.4     3.1     SSE   150   5.5      SE   139   9.31    261       30.0
   01/04/2019 15:30      67.6      66.8       17     21.1      0.00      4.15      54.0     0.41      1015.4     1.1     ENE    76   3.0      NE    47   9.31    261       50.2
   01/04/2019 15:20      67.5      66.6       16     19.6      0.00      4.15      54.0     0.41      1015.4     1.9      NE    54   3.9       E    82   9.31    261       71.8
   01/04/2019 15:10      67.4      66.8       15     17.5      0.00      4.15      53.9     0.41      1015.3     1.5     ENE    67   3.1      NE    41   9.31    261       95.0
   01/04/2019 15:00      67.4      66.6       15     18.1      0.00      4.15      53.9     0.41      1015.3     2.1     ENE    58   4.1     ENE    57   9.31    260      115.4
   01/04/2019 14:50      67.6      66.9       15     18.2      0.00      4.15      53.9     0.41      1015.3     1.9      NE    40   3.0     ENE    74   9.31    260      135.4
   01/04/2019 14:40      67.8      67.2       14     17.1      0.00      4.15      53.8     0.41      1015.4     2.1      NE    51   3.8     ENE    60   9.31    260      156.7
   01/04/2019 14:30      68.6      67.6       15     18.1      0.00      4.15      53.8     0.41      1015.4     1.6       E    79   6.1     ESE   103   9.32    260      174.7
   01/04/2019 14:20      67.8      66.9       14     17.4      0.00      4.15      53.7     0.41      1015.4     1.5     ENE    68   4.8       E    80   9.32    260      193.0
   01/04/2019 14:10      68.0      67.0       14     16.5      0.00      4.15      53.7     0.41      1015.3     2.3     ENE    72   5.4       E    92   9.32    261      209.9
   01/04/2019 14:00      68.3      66.2       16     19.1      0.00      4.15      53.7     0.41      1015.5     1.4      SE   137   5.7      NE    46   9.32    260      227.3
   01/04/2019 13:50      68.7      66.4       16     19.5      0.00      4.15      53.6     0.41      1015.6     3.0      SE   124   7.1     ESE   111   9.32    261      241.3
   01/04/2019 13:40      68.7      67.7       16     20.2      0.00      4.15      53.6     0.41      1015.8     1.1     ENE    76   2.4       E    84   9.33    260      252.8
   01/04/2019 13:30      67.8      66.4       17     20.3      0.00      4.15      53.6     0.41      1015.7     1.9     ENE    59   4.3      NE    52   9.33    261      265.7
   01/04/2019 13:20      67.4      66.9       17     20.9      0.00      4.15      53.6     0.41      1015.8     2.2      NE    39   4.8     ENE    75   9.33    261      273.8
   01/04/2019 13:10      67.4      66.5       17     20.7      0.00      4.15      53.5     0.41      1016.0     1.7     NNE    17   3.2       N    10   9.33    261      283.1
   01/04/2019 13:00      67.4      66.6       17     20.1      0.00      4.15      53.5     0.41      1016.1     2.4      NE    42   4.9       E    85   9.33    261      293.0
   01/04/2019 12:50      67.3      65.8       17     20.1      0.00      4.15      53.5     0.41      1016.1     1.7     ENE    63   5.8      NE    43   9.33    261      300.6
   01/04/2019 12:40      66.0      65.2       17     19.8      0.00      4.15      53.5     0.41      1016.3     2.3     NNE    31   4.5      NE    51   9.33    261      305.1
   01/04/2019 12:30      66.1      65.3       17     19.9      0.00      4.15      53.5     0.41      1016.5     2.6     NNE    29   4.4       N   350   9.33    261      310.4
   01/04/2019 12:20      66.1      65.3       17     20.3      0.00      4.15      53.5     0.41      1016.7     2.2      NE    49   4.3     ENE    62   9.33    261      315.9
   01/04/2019 12:10      65.7      65.0       18     20.5      0.00      4.15      53.5     0.41      1016.8     2.4     NNE    30   5.1     ENE    68   9.33    261      318.6
   01/04/2019 12:00      66.0      63.8       18     20.7      0.00      4.15      53.5     0.41      1017.0     1.4     NNE    29   4.6       N   355   9.33    261      319.8
   01/04/2019 11:50      64.6      63.7       19     21.2      0.00      4.15      53.5     0.41      1017.3     2.6      NE    38   5.0     NNE    30   9.33    261      318.2
   01/04/2019 11:40      64.6      63.5       21     23.6      0.00      4.15      53.5     0.41      1017.5     1.5     NNW   342   3.9      NW   321   9.33    262      317.4
   01/04/2019 11:30      63.6      62.1       22     23.2      0.00      4.15      53.5     0.41      1017.5     1.2       N   352   3.2       N     0   9.33    262      315.6
   01/04/2019 11:20      62.2      61.1       23     23.1      0.00      4.15      53.5     0.41      1017.6     2.3       N   355   4.3     NNW   334   9.33    263      311.5
   01/04/2019 11:10      61.5      60.9       24     23.7      0.00      4.15      53.5     0.41      1017.8     2.7       N     7   5.0       N     7   9.33    262      307.0
   01/04/2019 11:00      61.7      60.9       24     24.3      0.00      4.15      53.5     0.41      1018.0     2.3     NNE    20   6.0     NNW   338   9.34    262      303.1
   01/04/2019 10:50      61.9      61.1       24     24.0      0.00      4.15      53.5     0.41      1018.2     1.8      NE    51   3.0       E    80   9.34    263      296.6
   01/04/2019 10:40      61.8      60.9       24     24.3      0.00      4.15      53.6     0.41      1018.4     1.3     ENE    70   3.9     ENE    67   9.34    263      288.7
   01/04/2019 10:30      61.1      59.5       26     24.9      0.00      4.15      53.6     0.41      1018.4     1.2     ENE    65   3.4     ENE    71   9.34    263      279.1
   01/04/2019 10:20      59.8      58.3       29     26.8      0.00      4.15      53.6     0.41      1018.5     1.2      NE    47   3.0     NNE    24   9.34    263      269.5
   01/04/2019 10:10      58.3      57.8       31     27.6      0.00      4.15      53.6     0.41      1018.5     1.2     NNE    20   2.2      NE    55   9.34    263      257.5
   01/04/2019 10:00      58.0      57.0       32     27.5      0.00      4.15      53.7     0.41      1018.6     1.1       N     7   2.6     NNE    14   9.34    263      246.9
   01/04/2019 09:50      57.3      54.5       35     28.3      0.00      4.15      53.7     0.41      1018.6     0.3      NW   322   1.2      NW   318   9.34    263      234.2
   01/04/2019 09:40      54.5      53.4       37     28.4      0.00      4.15      53.7     0.41      1018.5     1.1     NNW   347   2.6     NNE    18   9.34    264      220.4
   01/04/2019 09:30      54.0      53.5       37     28.1      0.00      4.15      53.8     0.41      1018.5     1.2     NNE    21   2.6     ENE    59   9.34    264      204.8
   01/04/2019 09:20      53.9      52.1       38     28.4      0.00      4.15      53.8     0.41      1018.6     0.2       N   350   1.3       N   353   9.35    264      188.4
   01/04/2019 09:10      52.3      50.7       43     29.6      0.00      4.15      53.9     0.41      1018.5     0.2       N     1   1.0     NNW   337   9.35    264      171.1
   01/04/2019 09:00      50.9      48.8       46     30.1      0.00      4.15      53.9     0.41      1018.6     0.1     NNE    15   1.1     NNE    18   9.35    265      152.5
   01/04/2019 08:50      48.6      47.1       49     29.0      0.00      4.15      53.9     0.41      1018.6     0.6     NNE    15   1.5     NNE    20   9.35    265      132.8
   01/04/2019 08:40      47.8      45.9       49     29.3      0.00      4.15      53.9     0.41      1018.6     0.3       N   351   1.2     NNE    24   9.36    265      114.2
   01/04/2019 08:30      45.8      41.9       58     29.5      0.00      4.15      54.0     0.41      1018.5     0.0     WSW   250   0.2     WSW   250   9.36    266       96.8
   01/04/2019 08:20      42.1      39.0       63     28.9      0.00      4.15      54.0     0.41      1018.4     0.4     ENE    59   1.0      NE    45   9.36    266       78.8
   01/04/2019 08:10      38.9      35.8       71     28.4      0.00      4.15      54.0     0.41      1018.4     0.0     SSE   151   0.6     SSE   151   9.36    267       48.8
   01/04/2019 08:00      35.9      34.9       73     27.4      0.00      4.15      54.0     0.41      1018.4     0.4     SSE   153   2.1      SE   142   9.35    268      -29.2
   01/04/2019 07:50      35.1      34.0       74     27.0      0.00      4.15      54.0     0.41      1018.4     1.2      SE   146   2.3      SE   138   9.35    268      -35.9
   01/04/2019 07:40      34.0      33.5       75     26.8      0.00      4.15      54.1     0.41      1018.3     0.1      NE    54   0.6     NNE    24   9.35    269      -39.0
   01/04/2019 07:30      33.8      32.8       76     26.4      0.00      4.15      54.1     0.41      1018.1     0.2       S   171   1.0       S   177   9.35    269      -41.7
   01/04/2019 07:20      33.3      32.9       75     26.1      0.00      4.15      54.1     0.41      1017.9     0.4     SSE   152   1.5      SE   140   9.35    269      -45.9
   01/04/2019 07:10      33.4      32.9       74     25.9      0.00      4.15      54.2     0.41      1017.9     0.5     SSE   150   1.6      SE   142   9.35    268      -49.3
   01/04/2019 07:00      33.3      32.9       75     25.9      0.00      4.15      54.2     0.41      1017.8     0.0     SSE   151   0.1     SSE   150   9.35    268      -52.3
   01/04/2019 06:50      33.5      33.2       75     26.2      0.00      4.15      54.2     0.41      1017.6     0.3       S   169   1.1     SSE   163   9.35    269      -54.0
   01/04/2019 06:40      33.6      33.1       76     26.4      0.00      4.15      54.2     0.41      1017.5     0.2     SSE   165   0.9      SE   143   9.35    269      -54.9
   01/04/2019 06:30      33.7      33.4       77     27.0      0.00      4.15      54.3     0.41      1017.3     0.1     SSW   197   0.7      NW   315   9.35    268      -54.1
   01/04/2019 06:20      33.6      33.2       76     26.7      0.00      4.15      54.3     0.41      1017.3     0.6      SE   146   2.1      SE   134   9.35    268      -54.3
   01/04/2019 06:10      33.5      33.0       76     26.6      0.00      4.15      54.3     0.41      1017.3     0.9       S   175   1.6     SSE   154   9.35    269      -54.1
   01/04/2019 06:00      33.4      32.9       77     26.7      0.00      4.15      54.3     0.41      1017.3     0.0       S   188   0.3       S   188   9.35    269      -55.1
   01/04/2019 05:50      33.4      33.1       77     26.9      0.00      4.15      54.4     0.41      1017.2     0.4     SSE   165   1.1     SSE   166   9.35    268      -55.1
   01/04/2019 05:40      33.6      33.0       77     27.0      0.00      4.15      54.4     0.41      1017.2     0.5     WSW   238   1.4     WSW   253   9.35    268      -55.7
   01/04/2019 05:30      33.8      33.2       77     26.9      0.00      4.15      54.4     0.41      1017.1     0.4      SE   124   1.2     SSE   161   9.35    268      -55.0
   01/04/2019 05:20      34.1      33.5       76     26.9      0.00      4.15      54.4     0.41      1017.3     0.3     SSE   162   1.1      SE   146   9.35    267      -54.9
   01/04/2019 05:10      34.6      33.7       75     26.9      0.00      4.15      54.4     0.41      1017.4     0.0       S   187   0.0       S   187   9.35    268      -55.1
   01/04/2019 05:00      34.6      34.2       73     26.7      0.00      4.15      54.5     0.41      1017.4     0.0       N     0   0.0     WSW   242   9.35    268      -55.4
   01/04/2019 04:50      34.5      33.8       75     27.0      0.00      4.15      54.5     0.41      1017.3     1.0      SW   236   2.3     WSW   245   9.35    268      -54.8
   01/04/2019 04:40      34.9      34.0       75     27.2      0.00      4.15      54.5     0.41      1017.3     0.3     SSE   163   1.1     SSW   200   9.35    268      -55.5
   01/04/2019 04:30      34.9      34.6       74     27.4      0.00      4.15      54.5     0.41      1017.4     0.0       S   178   0.5       S   186   9.35    268      -55.8
   01/04/2019 04:20      34.8      33.8       75     27.2      0.00      4.15      54.6     0.41      1017.6     0.8       S   174   1.8     SSW   199   9.35    268      -55.7
   01/04/2019 04:10      34.9      34.1       74     27.1      0.00      4.15      54.6     0.41      1017.8     0.0     SSE   152   0.4     SSE   152   9.35    268      -56.1
   01/04/2019 04:00      35.0      34.6       74     27.4      0.00      4.15      54.6     0.41      1018.0     0.0       N     0   0.0     SSE   164   9.35    268      -55.9
   01/04/2019 03:50      35.7      34.9       73     27.5      0.00      4.15      54.6     0.41      1018.1     0.2     SSE   165   0.9     SSE   164   9.35    268      -56.0
   01/04/2019 03:40      35.5      35.1       72     27.3      0.00      4.15      54.6     0.41      1018.3     0.2       S   184   1.2       S   184   9.35    268      -55.9
   01/04/2019 03:30      35.9      35.2       73     27.6      0.00      4.15      54.6     0.41      1018.4     0.1     SSE   164   0.7     SSE   157   9.35    268      -56.3
   01/04/2019 03:20      36.3      35.5       72     27.5      0.00      4.15      54.7     0.41      1018.5     0.4     SSE   156   1.0     SSE   166   9.35    268      -56.7
   01/04/2019 03:10      36.2      35.7       71     27.5      0.00      4.15      54.7     0.41      1018.4     0.1       S   191   0.9     SSE   164   9.35    268      -56.2
   01/04/2019 03:00      36.2      35.8       73     28.3      0.00      4.15      54.7     0.41      1018.5     0.0       S   185   0.4       S   185   9.35    268      -56.4
   01/04/2019 02:50      36.5      36.0       73     28.3      0.00      4.15      54.7     0.41      1018.6     0.3       S   174   1.2     SSE   164   9.35    268      -56.3
   01/04/2019 02:40      36.6      36.2       72     28.2      0.00      4.15      54.7     0.41      1018.7     0.1       S   184   0.9       S   186   9.35    268      -56.5
   01/04/2019 02:30      36.5      36.0       73     28.4      0.00      4.15      54.8     0.41      1018.6     0.0     SSE   167   0.6     SSE   167   9.35    268      -56.6
   01/04/2019 02:20      36.7      35.7       73     28.3      0.00      4.15      54.8     0.41      1018.7     0.2     SSE   156   1.0     SSE   157   9.35    268      -57.0
   01/04/2019 02:10      37.2      36.4       71     28.2      0.00      4.15      54.8     0.41      1018.8     0.5     SSE   158   1.1     SSE   160   9.35    268      -56.8
   01/04/2019 02:00      37.2      36.8       69     27.9      0.00      4.15      54.8     0.41      1018.9     0.0     WSW   236   0.5     WSW   245   9.35    268      -56.7
   01/04/2019 01:50      37.2      36.8       70     28.0      0.00      4.15      54.9     0.41      1018.9     0.0       N     0   0.0     SSE   167   9.35    267      -56.8
   01/04/2019 01:40      37.3      36.9       71     28.6      0.00      4.15      54.9     0.41      1019.0     0.0     SSE   162   0.5     SSE   162   9.35    267      -57.1
   01/04/2019 01:30      37.6      37.0       71     28.5      0.00      4.15      54.9     0.41      1019.0     0.3     SSE   154   0.8     SSE   154   9.35    268      -57.2
   01/04/2019 01:20      38.3      37.4       68     28.1      0.00      4.15      54.9     0.41      1019.1     0.0     SSE   154   0.7     SSE   154   9.35    267      -57.6
   01/04/2019 01:10      38.2      37.8       70     29.1      0.00      4.15      54.9     0.41      1019.2     0.4     SSE   154   0.9     SSE   155   9.35    267      -57.0
   01/04/2019 01:00      38.8      37.9       68     28.8      0.00      4.15      54.9     0.41      1019.3     0.7     SSE   154   1.2      SE   146   9.35    267      -57.6
   01/04/2019 00:50      38.7      38.0       68     28.9      0.00      4.15      54.9     0.41      1019.4     0.3       S   188   0.9      SW   227   9.36    267      -57.3
   01/04/2019 00:40      38.1      37.7       70     29.0      0.00      4.15      54.9     0.41      1019.4     0.3      SW   221   1.2     SSW   213   9.36    267      -57.7
   01/04/2019 00:30      38.3      37.8       71     29.3      0.00      4.15      55.0     0.41      1019.4     0.0       S   173   0.5     SSW   193   9.36    267      -57.9
   01/04/2019 00:20      38.8      38.1       70     29.4      0.00      4.15      54.9     0.41      1019.6     0.1     SSE   164   0.8     SSE   163   9.36    267      -58.3
   01/04/2019 00:10      39.8      38.5       68     29.3      0.00      4.15      55.0     0.41      1019.7     0.2     SSE   159   0.8     SSE   164   9.36    267      -58.7
   01/04/2019 00:00      39.6      39.4       66     29.0      0.00      4.15      55.0     0.41      1019.9     0.0      SW   225   0.5      SW   225   9.36    267      -57.9
   01/03/2019 23:50      40.1      39.4       67     29.5      0.00      4.15      55.0     0.41      1019.9     0.0     SSE   166   0.7     SSE   166   9.36    267      -58.4
   01/03/2019 23:40      40.0      39.6       68     30.0      0.00      4.15      55.0     0.41      1019.9     0.6     SSE   160   1.0      SW   214   9.36    267      -58.6
   01/03/2019 23:30      40.3      39.5       68     30.1      0.00      4.15      55.0     0.41      1019.9     0.7       S   177   1.4      SE   141   9.36    267      -59.3
   01/03/2019 23:20      40.8      40.0       68     30.4      0.00      4.15      55.0     0.41      1020.0     0.4     SSE   158   1.0     SSE   157   9.36    267      -59.1
   01/03/2019 23:10      40.9      40.4       67     30.5      0.00      4.15      55.1     0.41      1020.1     0.5       S   184   1.4       S   176   9.36    267      -59.2
   01/03/2019 23:00      41.0      40.4       67     30.7      0.00      4.15      55.0     0.41      1020.1     0.5     SSE   164   1.3       S   176   9.36    267      -59.8
   01/03/2019 22:50      41.4      40.7       67     30.6      0.00      4.15      55.0     0.41      1020.2     0.6     SSE   161   1.3     SSE   156   9.36    267      -60.2
   01/03/2019 22:40      41.4      41.1       65     30.5      0.00      4.15      55.0     0.41      1020.3     0.7     SSE   161   1.5       S   183   9.36    267      -60.1
   01/03/2019 22:30      41.5      41.0       66     30.6      0.00      4.15      55.1     0.41      1020.3     0.3       S   181   1.4     SSW   202   9.36    267      -60.6
   01/03/2019 22:20      42.3      41.1       66     30.9      0.00      4.15      55.1     0.41      1020.3     0.6     SSE   166   1.7       S   182   9.36    266      -60.9
   01/03/2019 22:10      42.3      41.8       65     31.3      0.00      4.15      55.0     0.41      1020.4     0.8     SSE   158   1.5       S   186   9.36    266      -61.1
   01/03/2019 22:00      42.7      42.0       65     31.4      0.00      4.15      55.1     0.41      1020.5     0.8     SSE   157   1.4     SSE   148   9.36    266      -61.4
   01/03/2019 21:50      43.2      42.5       64     31.3      0.00      4.15      55.1     0.41      1020.5     0.4     SSE   168   1.1     SSE   158   9.36    266      -61.0
   01/03/2019 21:40      43.3      42.7       65     32.0      0.00      4.15      55.0     0.41      1020.6     0.2     SSE   165   0.9       S   179   9.36    266      -61.8
   01/03/2019 21:30      43.8      43.0       64     32.1      0.00      4.15      55.1     0.41      1020.6     0.8     SSE   163   1.4     SSE   152   9.36    266      -62.4
   01/03/2019 21:20      44.5      43.5       63     32.3      0.00      4.15      55.1     0.41      1020.6     0.6     SSE   160   1.4      SE   144   9.36    266      -62.6
   01/03/2019 21:10      45.3      44.2       61     32.1      0.00      4.15      55.0     0.41      1020.6     0.9     SSE   153   2.1      SE   142   9.36    266      -64.1
   01/03/2019 21:00      45.8      44.9       59     31.7      0.00      4.15      55.0     0.41      1020.6     1.2       S   190   2.4     SSW   207   9.36    266      -63.3
   01/03/2019 20:50      45.8      45.3       59     32.1      0.00      4.15      55.0     0.41      1020.6     0.4       S   188   1.6     SSW   203   9.36    266      -63.8
   01/03/2019 20:40      46.4      45.5       58     32.0      0.00      4.15      55.0     0.41      1020.6     0.2     SSE   150   0.8      SE   138   9.36    266      -64.6
   01/03/2019 20:30      47.2      45.9       57     31.8      0.00      4.15      55.0     0.41      1020.7     0.0      SE   145   0.7      SE   130   9.36    265      -65.9
   01/03/2019 20:20      48.7      46.9       54     31.9      0.00      4.15      55.0     0.41      1020.7     0.4      SE   126   1.4      SE   137   9.36    265      -67.3
   01/03/2019 20:10      48.9      48.3       53     32.1      0.00      4.15      55.0     0.41      1020.6     0.9     SSE   155   1.8       S   177   9.36    265      -67.5
   01/03/2019 20:00      48.7      47.8       53     32.0      0.00      4.15      55.0     0.41      1020.6     0.5     SSE   147   1.7     SSE   155   9.36    265      -67.9
   01/03/2019 19:50      51.0      48.6       51     31.9      0.00      4.15      55.0     0.41      1020.5     0.5      SE   134   1.5      SE   139   9.37    265      -69.0
   01/03/2019 19:40      52.0      50.8       48     32.4      0.00      4.15      55.0     0.41      1020.4     0.5     SSW   206   2.5      SW   226   9.37    264      -70.7
   01/03/2019 19:30      52.2      51.6       48     32.6      0.00      4.15      54.9     0.41      1020.3     1.9     SSW   204   3.3      SW   221   9.37    264      -71.0
   01/03/2019 19:20      52.4      51.9       48     32.8      0.00      4.15      54.9     0.41      1020.3     2.0     SSW   200   3.3      SW   226   9.37    264      -71.3
   01/03/2019 19:10      52.1      51.7       48     32.6      0.00      4.15      54.9     0.41      1020.1     1.1     SSW   212   3.2     SSW   208   9.37    264      -70.8
   01/03/2019 19:00      51.8      50.1       48     31.6      0.00      4.15      54.9     0.41      1020.1     1.3     SSW   202   3.2     SSW   210   9.37    264      -68.5
   01/03/2019 18:50      51.8      50.2       43     29.1      0.00      4.15      54.9     0.41      1020.1     0.5      SE   146   1.7      SE   144   9.37    264      -68.5
   01/03/2019 18:40      51.9      51.2       42     29.3      0.00      4.15      54.9     0.41      1019.9     1.0     SSE   163   2.3     SSE   164   9.37    264      -68.9
   01/03/2019 18:30      52.3      51.4       39     27.4      0.00      4.15      54.8     0.41      1019.8     1.0     SSE   161   2.0       S   187   9.37    264      -69.2
   01/03/2019 18:20      52.5      51.9       37     26.6      0.00      4.15      54.8     0.41      1019.7     0.9     SSE   169   2.4       S   188   9.37    264      -69.0
   01/03/2019 18:10      52.6      51.8       34     24.8      0.00      4.15      54.8     0.41      1019.7     1.2     SSE   154   2.1     SSE   148   9.37    264      -69.6
   01/03/2019 18:00      54.1      52.2       33     24.4      0.00      4.15      54.8     0.41      1019.6     0.6     SSE   149   1.4      SE   137   9.37    264      -71.0
   01/03/2019 17:50      54.0      53.3       31     23.5      0.00      4.15      54.7     0.41      1019.5     1.2       S   173   2.1       S   169   9.38    263      -71.3
   01/03/2019 17:40      54.8      53.3       30     23.6      0.00      4.15      54.7     0.41      1019.4     0.6     SSE   163   1.6      SE   141   9.38    263      -73.3
   01/03/2019 17:30      55.8      54.5       30     23.8      0.00      4.15      54.7     0.41      1019.3     1.1       S   169   3.7      SW   214   9.38    263      -74.6
   01/03/2019 17:20      57.2      55.2       29     23.9      0.00      4.15      54.6     0.41      1019.1     0.6     ESE   112   3.0       S   174   9.38    263      -78.6
   01/03/2019 17:10      58.2      56.9       26     23.1      0.00      4.15      54.6     0.41      1019.0     2.9     SSW   196   5.2      SW   222   9.38    263      -77.3
   01/03/2019 17:00      59.4      57.7       26     23.6      0.00      4.15      54.5     0.41      1018.8     1.8     SSE   159   3.7     SSW   198   9.38    262      -77.7
   01/03/2019 16:50      60.6      58.9       24     22.8      0.00      4.15      54.5     0.41      1018.8     2.4       S   180   4.2     SSW   191   9.38    262      -76.7
   01/03/2019 16:40      61.7      60.4       22     22.3      0.00      4.15      54.5     0.41      1018.7     1.4     SSE   157   3.1      SE   125   9.38    262      -78.4
   01/03/2019 16:30      63.7      61.6       21     22.2      0.00      4.15      54.5     0.41      1018.7     2.4     SSE   163   4.7       S   179   9.39    261      -66.7
   01/03/2019 16:20      66.5      63.5       18     20.9      0.00      4.15      54.4     0.41      1018.7     2.1     SSE   158   3.7      SE   146   9.39    261      -51.2
   01/03/2019 16:10      67.9      66.2       16     19.2      0.00      4.15      54.4     0.41      1018.8     1.2     ESE   105   2.2     ESE   104   9.39    260      -34.8
   01/03/2019 16:00      68.4      67.6       15     19.1      0.00      4.15      54.4     0.41      1018.8     0.6       E    85   1.9       N     8   9.39    260      -15.3
   01/03/2019 15:50      68.5      67.9       15     19.1      0.00      4.15      54.3     0.41      1018.9     0.7       E    90   2.1      SE   126   9.39    260        5.4
   01/03/2019 15:40      68.5      67.4       15     18.4      0.00      4.15      54.3     0.41      1018.9     0.7       S   180   2.6     SSE   161   9.39    261       27.6
   01/03/2019 15:30      68.6      67.3       15     17.9      0.00      4.15      54.2     0.41      1018.9     1.9       E    95   4.4     ESE   107   9.39    260       50.8
   01/03/2019 15:20      68.4      67.5       14     17.5      0.00      4.15      54.2     0.41      1019.0     1.1     ENE    75   3.3      NE    35   9.40    260       73.2
   01/03/2019 15:10      68.2      67.4       15     18.4      0.00      4.15      54.2     0.41      1019.0     1.7     ESE   118   4.0     ESE   117   9.40    261       96.7
   01/03/2019 15:00      68.2      67.4       15     17.6      0.00      4.15      54.1     0.41      1019.1     1.4     ENE    74   4.4     ESE   109   9.40    260      118.2
   01/03/2019 14:50      68.0      67.2       15     17.6      0.00      4.15      54.1     0.41      1019.1     1.7     ENE    72   4.6     ENE    74   9.40    260      139.5
   01/03/2019 14:40      67.7      67.1       15     17.5      0.00      4.15      54.1     0.41      1019.2     2.0       E    94   3.9     ESE   107   9.40    260      158.7
   01/03/2019 14:30      68.0      67.2       15     17.7      0.00      4.15      54.0     0.41      1019.2     1.9     NNE    30   5.7      NE    45   9.40    260      174.9
   01/03/2019 14:20      68.7      67.5       14     17.6      0.00      4.15      54.0     0.41      1019.2     1.7     NNE    17   4.0     NNE    29   9.41    260      192.2
   01/03/2019 14:10      68.7      67.7       15     18.2      0.00      4.15      53.9     0.41      1019.4     1.3     NNW   339   3.4       N    11   9.41    260      209.3
   01/03/2019 14:00      67.8      66.8       15     17.4      0.00      4.15      53.9     0.41      1019.4     1.4       N   354   4.5       N     6   9.41    260      223.7
   01/03/2019 13:50      68.5      67.0       14     17.7      0.00      4.15      53.9     0.41      1019.5     1.8     NNE    25   5.7     NNE    34   9.41    260      238.5
   01/03/2019 13:40      67.8      66.5       14     16.9      0.00      4.15      53.9     0.41      1019.6     1.0       N   350   2.5     ENE    68   9.41    260      252.9
   01/03/2019 13:30      68.0      66.8       15     17.8      0.00      4.15      53.8     0.41      1019.7     1.9     ESE   104   3.8       E    89   9.41    260      264.9
   01/03/2019 13:20      67.8      66.1       15     18.0      0.00      4.15      53.8     0.41      1019.7     1.2     NNW   341   3.2     NNW   330   9.41    260      275.2
   01/03/2019 13:10      66.4      65.4       15     17.3      0.00      4.15      53.8     0.41      1019.9     1.3     NNE    16   3.0     NNW   341   9.41    260      284.4
   01/03/2019 13:00      67.0      65.5       15     17.2      0.00      4.15      53.8     0.41      1020.1     2.3     NNE    12   4.9      NE    36   9.41    260      293.0
   01/03/2019 12:50      67.0      66.1       15     17.6      0.00      4.15      53.8     0.41      1020.4     0.9       E    86   2.6     NNE    31   9.41    260      301.8
   01/03/2019 12:40      66.3      65.0       15     17.3      0.00      4.15      53.8     0.41      1020.5     1.1       W   259   3.2       N     4   9.41    261      307.9
   01/03/2019 12:30      65.6      64.2       16     17.4      0.00      4.15      53.7     0.41      1020.7     1.6     SSW   205   4.3      SW   219   9.41    261      312.6
   01/03/2019 12:20      65.5      64.8       15     17.1      0.00      4.15      53.7     0.41      1021.0     1.2     NNW   339   3.8     NNE    24   9.42    260      315.1
   01/03/2019 12:10      65.5      64.4       16     17.1      0.00      4.15      53.8     0.41      1021.2     1.1       N     3   4.3     NNE    23   9.42    261      319.6
   01/03/2019 12:00      64.4      63.6       16     17.0      0.00      4.15      53.7     0.41      1021.4     1.8     ESE   107   3.9       S   189   9.42    261      322.7
   01/03/2019 11:50      65.3      63.9       16     17.7      0.00      4.15      53.7     0.41      1021.6     1.7     SSE   156   3.9     ENE    70   9.42    261      321.4
   01/03/2019 11:40      64.7      63.3       16     16.5      0.00      4.15      53.7     0.41      1021.8     0.8     NNW   328   2.2     NNE    13   9.42    261      318.5
   01/03/2019 11:30      64.4      63.1       16     17.0      0.00      4.15      53.8     0.41      1022.0     1.0      NE    54   3.1      NE    43   9.42    261      316.8
   01/03/2019 11:20      63.3      62.0       17     17.0      0.00      4.15      53.8     0.41      1022.2     1.8     NNE    12   4.4     ESE   101   9.42    262      314.3
   01/03/2019 11:10      62.7      61.1       17     16.7      0.00      4.15      53.8     0.41      1022.5     1.1      NE    52   2.9       N     9   9.42    261      311.6
   01/03/2019 11:00      62.5      61.1       17     17.1      0.00      4.15      53.7     0.41      1022.7     1.8       N   357   4.1     NNE    32   9.42    261      307.9
   01/03/2019 10:50      62.5      60.9       18     17.2      0.00      4.15      53.8     0.41      1022.8     0.9       N   356   2.2     NNW   343   9.42    261      300.6
   01/03/2019 10:40      61.4      59.5       18     16.8      0.00      4.15      53.8     0.41      1023.0     0.9     WNW   296   2.2     ENE    67   9.42    261      292.2
   01/03/2019 10:30      60.4      59.4       19     17.3      0.00      4.15      53.8     0.41      1023.2     1.2       E    86   2.5       S   179   9.42    261      242.1
   01/03/2019 10:20      60.9      59.8       19     17.5      0.00      4.15      53.9     0.41      1023.4     1.1     WSW   246   2.5       S   181   9.42    262      266.2
   01/03/2019 10:10      59.9      58.8       19     17.3      0.00      4.15      53.9     0.41      1023.6     0.4       N   357   1.6     NNE    23   9.42    262      257.0
   01/03/2019 10:00      59.5      58.2       19     16.8      0.00      4.15      53.9     0.41      1023.8     0.9       E    90   2.8     NNE    25   9.42    262      245.0
   01/03/2019 09:50      58.6      57.1       20     16.8      0.00      4.15      54.0     0.41      1023.8     1.0      NE    39   3.2      NE    50   9.43    262      231.9
   01/03/2019 09:40      57.8      57.0       19     16.0      0.00      4.15      54.0     0.41      1023.9     1.0       E    88   3.2       E    92   9.43    262      217.1
   01/03/2019 09:30      57.5      55.9       20     16.4      0.00      4.15      54.0     0.41      1023.9     0.8      SE   133   2.3     ENE    68   9.43    262      197.5
   01/03/2019 09:20      56.2      55.0       21     16.6      0.00      4.15      54.0     0.41      1023.9     1.2     SSE   163   2.9     SSW   213   9.43    262      184.5
   01/03/2019 09:10      55.3      52.5       28     21.3      0.00      4.15      54.1     0.41      1023.9     0.9     ESE   108   2.8      SE   133   9.43    263      166.6
   01/03/2019 09:00      53.0      50.6       33     23.5      0.00      4.15      54.1     0.41      1023.8     0.8     SSE   147   1.7     NNE    26   9.43    263      149.5
   01/03/2019 08:50      50.8      48.4       39     25.2      0.00      4.15      54.1     0.41      1023.9     0.7       E    86   2.2       S   169   9.43    263      130.5
   01/03/2019 08:40      49.0      46.2       40     24.9      0.00      4.15      54.1     0.41      1023.8     0.4     ESE   119   2.1       S   183   9.43    263      111.6
   01/03/2019 08:30      46.2      42.5       44     23.7      0.00      4.15      54.2     0.41      1023.7     0.2       E    90   1.0       E    90   9.43    264       94.4
   01/03/2019 08:20      42.6      39.9       48     23.3      0.00      4.15      54.2     0.41      1023.7     0.6      SE   142   1.9     SSE   163   9.43    265       75.0
   01/03/2019 08:10      39.9      36.8       52     22.1      0.00      4.15      54.3     0.41      1023.7     0.4      SE   128   0.9      SE   130   9.43    266       45.2
   01/03/2019 08:00      36.9      35.6       55     21.5      0.00      4.15      54.3     0.41      1023.6     0.0     SSE   156   0.5     SSE   161   9.44    266      -30.4
   01/03/2019 07:50      35.8      35.0       55     21.0      0.00      4.15      54.3     0.41      1023.5     0.3     SSW   197   1.5     SSW   195   9.44    266      -35.9
   01/03/2019 07:40      35.2      34.3       57     20.8      0.00      4.15      54.3     0.41      1023.4     0.1     ESE   102   1.1       E    92   9.44    266      -39.9
   01/03/2019 07:30      34.8      34.4       57     20.8      0.00      4.15      54.4     0.41      1023.3     0.3     ESE   110   1.2       N     0   9.44    266      -42.8
   01/03/2019 07:20      34.5      33.6       59     21.4      0.00      4.15      54.4     0.41      1023.3     0.6     SSW   195   1.9      SE   144   9.44    266      -45.7
   01/03/2019 07:10      34.1      33.2       61     21.4      0.00      4.15      54.4     0.41      1023.1     0.6     SSE   165   1.7       S   183   9.44    266      -48.8
   01/03/2019 07:00      33.6      33.2       61     21.6      0.00      4.15      54.4     0.41      1023.1     0.9     SSE   150   1.6     SSE   150   9.44    266      -52.6
   01/03/2019 06:50      33.4      32.9       61     21.1      0.00      4.15      54.4     0.41      1023.0     0.9     SSE   166   1.7     SSE   165   9.44    266      -54.4
   01/03/2019 06:40      33.2      32.4       63     21.5      0.00      4.15      54.5     0.41      1023.0     0.9       S   180   2.3      SE   143   9.44    266      -55.3
   01/03/2019 06:30      33.0      32.5       62     21.2      0.00      4.15      54.5     0.41      1023.0     1.0     SSE   162   2.1      SE   144   9.44    266      -55.7
   01/03/2019 06:20      33.2      32.7       60     20.7      0.00      4.15      54.5     0.41      1022.9     0.7     SSE   155   2.0      SE   139   9.44    266      -56.4
   01/03/2019 06:10      33.0      32.4       59     20.0      0.00      4.15      54.5     0.41      1023.0     1.1     SSW   191   2.6      SE   138   9.44    266      -55.6
   01/03/2019 06:00      32.9      32.5       59     19.9      0.00      4.15      54.6     0.41      1022.9     0.0       S   172   0.5       S   172   9.44    266      -55.3
   01/03/2019 05:50      33.3      32.4       58     19.6      0.00      4.15      54.5     0.41      1022.8     0.6      SE   139   1.8      SE   141   9.44    266      -55.5
   01/03/2019 05:40      33.9      33.2       56     19.6      0.00      4.15      54.6     0.41      1022.8     0.0     ESE   121   0.6     ESE   121   9.44    266      -54.4
   01/03/2019 05:30      34.0      33.6       56     19.7      0.00      4.15      54.6     0.41      1022.8     0.0      SE   132   0.9      SE   132   9.44    266      -54.7
   01/03/2019 05:20      34.0      33.7       56     19.9      0.00      4.15      54.6     0.41      1022.7     0.0       N     0   0.0     SSW   193   9.44    266      -54.6
   01/03/2019 05:10      33.8      33.2       58     20.2      0.00      4.15      54.7     0.41      1022.8     0.0     SSW   193   0.4     SSW   193   9.44    266      -54.0
   01/03/2019 05:00      33.8      33.2       58     20.4      0.00      4.15      54.7     0.41      1022.8     0.2       S   170   1.3     SSW   203   9.44    266      -55.4
   01/03/2019 04:50      33.8      33.3       57     20.0      0.00      4.15      54.7     0.41      1022.8     0.4     SSE   165   1.4      SE   133   9.44    266      -55.0
   01/03/2019 04:40      33.8      33.3       56     19.4      0.00      4.15      54.8     0.41      1022.9     0.6       S   172   1.2      SE   140   9.44    266      -55.7
   01/03/2019 04:30      34.0      33.4       55     19.3      0.00      4.15      54.8     0.41      1022.9     0.2      SE   129   0.9       E    83   9.44    266      -56.7
   01/03/2019 04:20      34.3      33.4       56     19.6      0.00      4.15      54.8     0.41      1022.8     0.7     SSE   160   1.8      SE   141   9.44    266      -57.2
   01/03/2019 04:10      34.6      33.7       55     19.6      0.00      4.15      54.8     0.41      1022.8     0.7       S   186   1.6     SSE   169   9.44    266      -56.8
   01/03/2019 04:00      34.8      34.4       51     18.3      0.00      4.15      54.9     0.41      1022.9     0.2     SSE   154   0.9     SSE   148   9.44    266      -56.7
   01/03/2019 03:50      35.0      34.6       51     18.4      0.00      4.15      54.9     0.41      1023.0     0.5     SSE   161   1.3       S   169   9.44    266      -56.6
   01/03/2019 03:40      35.4      34.6       50     18.3      0.00      4.15      54.9     0.41      1023.1     0.9       S   175   2.7     SSW   202   9.44    266      -56.9
   01/03/2019 03:30      34.9      34.6       52     18.9      0.00      4.15      54.9     0.41      1023.2     0.2     SSE   158   1.5       S   175   9.44    266      -57.3
   01/03/2019 03:20      35.0      34.5       53     19.3      0.00      4.15      54.9     0.41      1023.3     0.3       S   181   1.4       S   173   9.44    266      -57.3
   01/03/2019 03:10      35.5      34.6       53     19.4      0.00      4.15      54.9     0.41      1023.3     0.2      NE    47   1.3     NNW   347   9.44    266      -57.2
   01/03/2019 03:00      35.7      35.2       52     19.6      0.00      4.15      55.0     0.41      1023.4     0.6      SE   145   1.6     SSE   156   9.44    265      -57.2
   01/03/2019 02:50      36.1      35.4       49     18.5      0.00      4.15      55.0     0.41      1023.5     0.9     SSE   161   2.0      SE   141   9.44    266      -57.4
   01/03/2019 02:40      36.0      34.9       51     19.2      0.00      4.15      55.0     0.41      1023.7     0.8     WSW   245   1.9     SSW   212   9.44    265      -57.4
   01/03/2019 02:30      35.9      35.0       52     19.3      0.00      4.15      55.0     0.41      1023.7     0.4     SSE   155   1.1     SSE   148   9.44    265      -58.0
   01/03/2019 02:20      35.7      35.2       51     19.0      0.00      4.15      55.0     0.41      1023.7     0.3     SSW   196   1.5      SW   215   9.44    265      -57.5
   01/03/2019 02:10      35.9      35.2       52     19.6      0.00      4.15      55.1     0.41      1023.8     0.4     SSE   160   1.1     SSE   161   9.44    265      -58.5
   01/03/2019 02:00      36.8      35.7       49     18.7      0.00      4.15      55.1     0.41      1023.8     0.7       S   176   1.8      SE   133   9.44    265      -57.7
   01/03/2019 01:50      37.1      36.3       48     18.7      0.00      4.15      55.1     0.41      1023.8     0.2     SSE   150   0.8      SE   132   9.44    265      -57.6
   01/03/2019 01:40      37.2      36.5       46     18.1      0.00      4.15      55.1     0.41      1023.8     0.4      SW   218   1.2     WSW   241   9.44    265      -57.7
   01/03/2019 01:30      37.3      36.8       48     19.1      0.00      4.15      55.1     0.41      1023.9     0.2     SSE   157   1.1      SE   145   9.44    265      -58.5
   01/03/2019 01:20      37.9      37.0       46     18.3      0.00      4.15      55.1     0.41      1023.9     1.3       S   180   2.3      SE   141   9.44    265      -59.0
   01/03/2019 01:10      37.5      36.8       47     18.7      0.00      4.15      55.1     0.41      1023.8     0.6      SW   230   1.6       W   261   9.44    265      -60.0
   01/03/2019 01:00      38.0      36.8       47     19.1      0.00      4.15      55.2     0.41      1023.7     0.4     ESE   123   1.4     WSW   253   9.44    265      -59.8
   01/03/2019 00:50      38.2      37.4       46     18.7      0.00      4.15      55.2     0.41      1023.8     0.5     SSE   148   1.6      SE   140   9.44    265      -59.1
   01/03/2019 00:40      38.4      37.7       45     18.4      0.00      4.15      55.2     0.41      1023.9     0.9     SSE   162   1.4       S   172   9.44    265      -59.5
   01/03/2019 00:30      39.1      38.2       43     18.1      0.00      4.15      55.2     0.41      1024.0     0.2     SSE   152   1.1     SSE   155   9.44    265      -59.8
   01/03/2019 00:20      39.3      38.7       42     17.8      0.00      4.15      55.2     0.41      1024.0     0.2       N   349   1.0     NNW   342   9.44    265      -59.9
   01/03/2019 00:10      38.9      38.4       44     18.6      0.00      4.15      55.2     0.41      1024.0     0.4       S   176   1.1       S   184   9.44    265      -60.2
   01/03/2019 00:00      39.3      38.5       44     18.4      0.00      4.15      55.3     0.41      1024.0     0.8      SE   144   2.6      SE   136   9.44    265      -61.5
   01/02/2019 23:50      39.6      38.9       42     18.0      0.00      4.15      55.3     0.41      1023.9     0.6     SSE   164   1.6       S   177   9.44    264      -61.0
   01/02/2019 23:40      40.2      39.3       41     18.1      0.00      4.15      55.3     0.41      1023.9     0.0       N     0   0.0     ESE   112   9.44    264      -60.2
   01/02/2019 23:30      40.4      39.8       40     17.6      0.00      4.15      55.3     0.41      1023.8     0.5     SSE   164   1.8     NNE    18   9.44    264      -61.0
   01/02/2019 23:20      40.7      40.1       40     18.1      0.00      4.15      55.3     0.41      1023.7     0.6     SSE   152   1.9      SE   130   9.44    264      -61.2
   01/02/2019 23:10      41.3      40.3       38     17.0      0.00      4.15      55.3     0.41      1023.6     0.8     SSE   147   2.1      SE   139   9.45    264      -61.6
   01/02/2019 23:00      41.5      41.0       36     16.5      0.00      4.15      55.3     0.41      1023.6     0.8     SSE   168   1.5     SSE   162   9.45    264      -61.3
   01/02/2019 22:50      41.9      41.2       36     16.4      0.00      4.15      55.3     0.41      1023.7     0.2       S   174   1.1     SSW   198   9.45    264      -61.3
   01/02/2019 22:40      42.5      41.5       36     17.1      0.00      4.15      55.3     0.41      1023.7     0.2     ESE   105   1.0     SSE   156   9.45    264      -62.5
   01/02/2019 22:30      42.8      42.2       34     16.4      0.00      4.15      55.3     0.41      1023.7     0.3     SSE   163   1.2     SSE   160   9.45    264      -62.1
   01/02/2019 22:20      42.9      42.5       35     16.7      0.00      4.15      55.3     0.41      1023.8     0.8      SE   144   1.7      SE   142   9.45    264      -62.8
   01/02/2019 22:10      43.3      42.6       35     17.2      0.00      4.15      55.3     0.41      1023.7     0.7     SSE   156   1.9     SSE   147   9.45    264      -64.5
   01/02/2019 22:00      44.5      43.0       34     17.0      0.00      4.15      55.3     0.41      1023.6     1.4     SSE   153   2.9      SE   146   9.45    264      -64.5
   01/02/2019 21:50      44.2      43.4       33     16.6      0.00      4.15      55.4     0.41      1023.6     1.7     SSE   166   2.6       S   173   9.45    264      -64.9
   01/02/2019 21:40      43.8      43.1       34     16.8      0.00      4.15      55.4     0.41      1023.6     1.7     SSE   152   2.8      SE   145   9.45    264      -65.1
   01/02/2019 21:30      43.7      43.0       34     16.8      0.00      4.15      55.4     0.41      1023.7     1.2     SSE   156   4.1      SE   136   9.45    264      -65.1
   01/02/2019 21:20      44.9      43.4       34     17.0      0.00      4.15      55.3     0.41      1023.7     1.2     SSE   155   2.4      SE   139   9.45    263      -66.0
   01/02/2019 21:10      45.3      44.0       32     16.3      0.00      4.15      55.3     0.41      1023.7     1.5     SSE   163   3.6      SE   132   9.45    263      -67.3
   01/02/2019 21:00      47.8      45.1       27     14.4      0.00      4.15      55.3     0.41      1023.7     1.0     SSE   148   2.8     SSE   159   9.45    263      -68.1
   01/02/2019 20:50      47.1      45.6       27     14.3      0.00      4.15      55.3     0.41      1023.9     2.4       S   174   4.1       S   187   9.45    263      -67.5
   01/02/2019 20:40      47.7      45.4       29     15.3      0.00      4.15      55.3     0.41      1024.0     2.3       S   171   4.6       S   179   9.45    263      -68.2
   01/02/2019 20:30      49.4      47.7       23     12.9      0.00      4.15      55.3     0.41      1024.0     1.5      SW   216   3.2       S   185   9.45    263      -67.9
   01/02/2019 20:20      48.7      47.3       23     12.1      0.00      4.15      55.3     0.41      1024.0     0.3     SSW   197   1.2       S   189   9.45    263      -68.2
   01/02/2019 20:10      47.3      46.6       26     13.9      0.00      4.15      55.3     0.41      1023.9     0.6     SSE   163   1.6     ENE    70   9.45    263      -68.5
   01/02/2019 20:00      47.6      46.4       27     14.8      0.00      4.15      55.3     0.41      1023.9     0.7       S   175   2.8      SE   140   9.46    263      -70.9
   01/02/2019 19:50      48.6      47.0       25     13.8      0.00      4.15      55.3     0.41      1023.8     1.9     SSE   150   4.1     SSE   164   9.46    263      -71.6
   01/02/2019 19:40      50.0      48.1       24     13.7      0.00      4.15      55.3     0.41      1023.8     1.0     SSE   164   2.9     SSW   204   9.46    263      -71.0
   01/02/2019 19:30      51.1      49.4       21     12.2      0.00      4.15      55.3     0.41      1023.8     2.4       S   169   4.5       S   186   9.46    262      -73.6
   01/02/2019 19:20      50.5      49.5       22     12.5      0.00      4.15      55.3     0.41      1023.6     2.3       S   173   4.1      SE   145   9.46    263      -73.5
   01/02/2019 19:10      52.0      49.9       21     11.8      0.00      4.15      55.3     0.41      1023.4     1.9     SSE   157   3.5      SE   143   9.46    262      -75.6
   01/02/2019 19:00      53.1      51.6       18     10.2      0.00      4.15      55.2     0.41      1023.3     1.2     ESE   111   3.7     ENE    63   9.46    262      -76.7
   01/02/2019 18:50      54.0      53.0       18     10.4      0.00      4.15      55.2     0.41      1023.2     1.3     NNE    13   4.7       N     0   9.46    262      -77.4
   01/02/2019 18:40      54.5      53.6       16      9.5      0.00      4.15      55.2     0.41      1023.3     2.0       N   356   6.7     NNE    24   9.46    262      -80.1
   01/02/2019 18:30      55.1      54.1       16      9.7      0.00      4.15      55.2     0.41      1023.2     2.7     NNE    22   5.6     NNE    14   9.47    262      -80.5
   01/02/2019 18:20      55.2      54.8       16      9.7      0.00      4.15      55.2     0.41      1023.0     4.1       N    10   6.6       N     6   9.47    262      -80.7
   01/02/2019 18:10      55.5      55.0       16     10.1      0.00      4.15      55.1     0.41      1022.8     2.1     NNE    25   5.7     NNE    12   9.47    262      -80.6
   01/02/2019 18:00      55.6      54.9       16     10.2      0.00      4.15      55.1     0.41      1022.7     3.6     NNE    17   7.0      NE    36   9.47    262      -80.4
   01/02/2019 17:50      55.2      53.5       18     11.7      0.00      4.15      55.1     0.41      1022.8     3.0       N     8   6.2     NNE    13   9.47    262      -78.8
   01/02/2019 17:40      53.5      52.1       22     14.8      0.00      4.15      55.1     0.41      1022.6     1.2       W   277   4.9     NNW   337   9.47    263      -76.2
   01/02/2019 17:30      53.6      52.5       22     15.5      0.00      4.15      55.1     0.41      1022.4     0.4     SSE   166   1.4       S   175   9.47    262      -78.0
   01/02/2019 17:20      53.6      52.7       22     15.5      0.00      4.15      55.0     0.41      1022.1     1.8     WSW   258   4.8     SSW   207   9.47    262      -79.2
   01/02/2019 17:10      53.8      52.9       23     16.1      0.00      4.15      55.0     0.41      1022.1     2.4      SW   230   4.4      SW   236   9.47    262      -77.9
   01/02/2019 17:00      54.9      53.6       23     17.0      0.00      4.15      54.9     0.41      1021.8     1.6     WSW   237   3.9     WSW   242   9.47    262      -78.0
   01/02/2019 16:50      57.5      54.6       20     15.6      0.00      4.15      55.0     0.41      1021.8     0.8     SSE   165   2.2     NNE    14   9.48    262      -76.2
   01/02/2019 16:40      59.0      57.0       18     14.7      0.00      4.15      54.9     0.41      1021.7     0.5     ENE    60   1.6      NE    36   9.48    262      -79.3
   01/02/2019 16:30      60.6      58.9       17     15.2      0.00      4.15      54.9     0.41      1021.4     0.4       E    97   1.7      NE    49   9.48    261      -70.5
   01/02/2019 16:20      61.3      60.3       15     13.3      0.00      4.15      54.9     0.41      1021.2     1.2     ENE    64   2.7      NE    52   9.48    260      -53.4
   01/02/2019 16:10      62.0      61.0       14     12.0      0.00      4.15      54.8     0.41      1021.2     1.2     ENE    78   4.0       E    96   9.48    260      -35.1
   01/02/2019 16:00      61.5      60.8       13     10.5      0.00      4.15      54.8     0.41      1021.1     2.7     NNE    12   7.0       N     5   9.48    260      -14.9
   01/02/2019 15:50      61.6      61.0       13     10.1      0.00      4.15      54.8     0.41      1021.2     3.3       N   357   8.7     NNE    14   9.49    260        5.1
   01/02/2019 15:40      61.3      60.8       13      9.7      0.00      4.15      54.7     0.41      1021.2     3.5       N     2   7.0       N     4   9.49    260       28.3
   01/02/2019 15:30      61.1      60.7       13      9.1      0.00      4.15      54.7     0.41      1021.1     4.7       N     8   8.9     NNE    14   9.49    260       51.3
   01/02/2019 15:20      61.4      60.8       12      8.8      0.00      4.15      54.7     0.41      1021.1     5.0       N   350   8.9      NW   315   9.49    260       73.6
   01/02/2019 15:10      61.6      60.9       12      8.7      0.00      4.15      54.6     0.41      1021.1     4.5       N   353   8.9      NW   317   9.50    260       96.1
   01/02/2019 15:00      61.6      61.0       12      8.7      0.00      4.15      54.6     0.41      1021.0     4.0       N   358   8.6     NNE    31   9.50    259      117.5
   01/02/2019 14:50      61.7      60.9       12      8.2      0.00      4.15      54.5     0.41      1020.9     6.2       N     5  11.4      NW   320   9.50    260      140.5
   01/02/2019 14:40      61.8      61.3       12      8.2      0.00      4.15      54.5     0.41      1021.0     5.3       N     4  12.0       N     5   9.50    260      158.5
   01/02/2019 14:30      62.0      61.4       12      8.1      0.00      4.15      54.5     0.41      1020.9     5.5       N     9  11.0     NNE    23   9.50    260      176.1
   01/02/2019 14:20      62.7      61.6       12      8.3      0.00      4.15      54.5     0.41      1021.1     5.4       N   356  10.5     NNW   329   9.51    260      192.3
   01/02/2019 14:10      62.8      61.9       12      9.1      0.00      4.15      54.4     0.41      1021.0     3.8       N     5   7.6      NW   314   9.51    260      207.6
   01/02/2019 14:00      63.1      62.0       12      9.2      0.00      4.15      54.4     0.41      1021.0     4.3       N   355   9.8      NW   325   9.51    259      222.8
   01/02/2019 13:50      63.2      62.5       11      8.2      0.00      4.15      54.4     0.41      1021.1     2.0     NNE    12   6.0       N   355   9.51    260      234.4
   01/02/2019 13:40      63.6      62.2       11      8.1      0.00      4.15      54.4     0.41      1021.1     1.4     ENE    57   4.1      SE   128   9.51    260      248.0
   01/02/2019 13:30      63.7      62.2       11      8.2      0.00      4.15      54.3     0.41      1021.1     2.9     ENE    59   7.9     NNE    29   9.51    260      260.3
   01/02/2019 13:20      63.7      62.0       11      8.4      0.00      4.15      54.3     0.41      1021.0     1.6     NNE    25   5.0      SE   138   9.52    259      270.4
   01/02/2019 13:10      62.3      61.5       11      7.7      0.00      4.15      54.3     0.41      1020.9     2.0      NE    47   4.6       E    92   9.52    260      281.9
   01/02/2019 13:00      62.1      61.6       12      8.4      0.00      4.15      54.2     0.41      1021.1     2.5       E    82   4.8     ENE    57   9.52    260      291.7
   01/02/2019 12:50      61.9      60.7       12      8.6      0.00      4.15      54.2     0.41      1021.0     2.3      NE    42   5.1     NNE    25   9.52    260      298.1
   01/02/2019 12:40      61.5      60.6       12      8.4      0.00      4.15      54.2     0.41      1021.0     3.6      NE    45   9.8       N     5   9.52    260      306.3
   01/02/2019 12:30      61.3      60.3       12      8.6      0.00      4.15      54.2     0.41      1021.1     3.1      NE    44   8.9      NE    34   9.52    260      311.8
   01/02/2019 12:20      61.2      60.5       12      8.6      0.00      4.15      54.2     0.41      1021.1     6.1       N     5  12.3     NNE    13   9.52    260      319.6
   01/02/2019 12:10      61.5      60.5       12      8.5      0.00      4.15      54.2     0.41      1021.2     5.6     NNE    23  12.9     NNE    11   9.52    260      318.7
   01/02/2019 12:00      61.6      60.9       12      8.4      0.00      4.15      54.2     0.41      1021.4     4.9     NNE    12   9.6     NNW   336   9.53    260      319.4
   01/02/2019 11:50      61.6      60.7       12      7.7      0.00      4.15      54.2     0.41      1021.7     4.4     NNE    13  10.2     NNE    21   9.53    260      318.8
   01/02/2019 11:40      61.1      59.5       12      7.1      0.00      4.15      54.1     0.41      1021.9     4.1       N     3  10.3       N     9   9.53    260      319.0
   01/02/2019 11:30      60.2      59.4       12      6.4      0.00      4.15      54.1     0.41      1021.9     5.2       N   351  11.3       N     1   9.53    261      317.2
   01/02/2019 11:20      59.7      59.1       11      5.6      0.00      4.15      54.2     0.41      1022.1     6.1       N     2  12.8     NNE    12   9.53    261      314.0
   01/02/2019 11:10      59.6      58.6       11      5.3      0.00      4.15      54.1     0.41      1022.2     5.6       N     8  10.8     NNE    13   9.53    261      309.5
   01/02/2019 11:00      59.2      58.4       11      4.6      0.00      4.15      54.1     0.41      1022.3     7.0       N     2  11.5     NNW   331   9.54    261      303.6
   01/02/2019 10:50      59.3      58.6       11      4.7      0.00      4.15      54.1     0.41      1022.5     6.0     NNE    14  11.8     NNE    13   9.54    261      294.8
   01/02/2019 10:40      59.0      58.1       11      4.5      0.00      4.15      54.2     0.41      1022.7     5.4     NNE    13   9.7       N   355   9.54    261      284.7
   01/02/2019 10:30      58.8      57.9       11      4.7      0.00      4.15      54.2     0.41      1022.9     3.6     NNE    26   6.8       N   354   9.54    260      274.0
   01/02/2019 10:20      58.3      57.7       11      4.1      0.00      4.15      54.2     0.41      1023.2     3.4     NNE    31   8.5     NNE    19   9.54    261      263.3
   01/02/2019 10:10      57.9      56.8       11      4.2      0.00      4.15      54.2     0.41      1023.4     2.4     NNE    13   5.1      NE    35   9.54    260      251.2
   01/02/2019 10:00      57.1      56.4       12      5.0      0.00      4.15      54.2     0.41      1023.5     2.9       N   359   6.5     NNW   349   9.54    260      237.7
   01/02/2019 09:50      56.7      55.5       13      5.9      0.00      4.15      54.3     0.41      1023.7     1.0     SSW   205   4.0       E    97   9.54    260      223.3
   01/02/2019 09:40      55.9      54.7       14      6.7      0.00      4.15      54.3     0.41      1023.8     1.8       E   101   4.6       S   171   9.54    260      207.3
   01/02/2019 09:30      55.2      54.6       14      6.3      0.00      4.15      54.3     0.41      1023.9     2.5       E    90   5.7      NE    42   9.54    261      191.0
   01/02/2019 09:20      54.7      53.5       15      6.7      0.00      4.15      54.3     0.41      1023.8     2.2       E    98   5.8      SE   124   9.55    261      174.0
   01/02/2019 09:10      53.8      53.0       14      5.1      0.00      4.15      54.3     0.41      1023.8     2.6     ENE    67   5.5       E    95   9.55    261      155.2
   01/02/2019 09:00      53.2      52.2       13      3.6      0.00      4.15      54.3     0.41      1023.8     3.0      NE    48   5.5      NE    52   9.55    261      135.1
   01/02/2019 08:50      52.5      51.9       14      3.6      0.00      4.15      54.3     0.41      1023.8     3.1      NE    50   7.3     NNE    26   9.55    261      115.1
   01/02/2019 08:40      52.5      51.6       14      4.2      0.00      4.15      54.3     0.41      1023.8     1.6       E    80   4.2      SE   130   9.55    260       94.5
   01/02/2019 08:30      52.0      51.5       14      3.7      0.00      4.15      54.4     0.41      1023.7     2.3       E    94   6.3     ESE   102   9.55    261       75.6
   01/02/2019 08:20      51.9      50.6       13      2.2      0.00      4.15      54.4     0.41      1023.5     1.9     ENE    68   4.1      NE    36   9.55    261       56.5
   01/02/2019 08:10      50.9      49.8       13      1.6      0.00      4.15      54.4     0.41      1023.4     1.2     ENE    76   4.0       E    83   9.55    261       25.6
   01/02/2019 08:00      50.5      49.8       12      0.2      0.00      4.15      54.4     0.41      1023.2     2.4     ENE    58   6.0     NNE    21   9.55    262      -53.1
   01/02/2019 07:50      50.1      49.8       12     -0.5      0.00      4.15      54.4     0.41      1023.1     4.3     NNE    19  10.0      NW   317   9.55    262      -60.0
   01/02/2019 07:40      50.1      49.7       12     -0.9      0.00      4.15      54.4     0.41      1023.0     4.7     NNE    12   8.5     NNE    17   9.55    262      -64.1
   01/02/2019 07:30      50.1      49.7       12     -1.4      0.00      4.15      54.4     0.41      1022.8     4.2       N     6   8.5      NE    43   9.55    262      -67.3
   01/02/2019 07:20      50.5      49.9       11     -1.5      0.00      4.15      54.4     0.41      1022.7     2.9       N    10   7.3      NW   307   9.55    262      -70.8
   01/02/2019 07:10      50.9      50.1       11     -1.9      0.00      4.15      54.5     0.41      1022.5     2.9       N     6   7.4     NNW   337   9.55    262      -75.1
   01/02/2019 07:00      51.1      50.5       11     -2.3      0.00      4.15      54.5     0.41      1022.3     4.2       N     3   9.4       N     5   9.55    262      -78.2
   01/02/2019 06:50      51.1      50.6       11     -2.7      0.00      4.15      54.5     0.41      1022.0     4.4       N   355  12.1     NNW   344   9.55    262      -79.3
   01/02/2019 06:40      50.9      50.1       11     -2.1      0.00      4.15      54.5     0.41      1021.9     4.4       N   357  10.1     NNW   347   9.55    262      -79.8
   01/02/2019 06:30      50.8      50.0       11     -2.0      0.00      4.15      54.5     0.41      1021.7     4.1       N   355  12.1     NNE    16   9.56    262      -80.4
   01/02/2019 06:20      50.4      49.9       11     -1.8      0.00      4.15      54.5     0.41      1021.5     4.4       N   350   7.7      NW   325   9.56    262      -80.6
   01/02/2019 06:10      50.3      49.5       11     -1.6      0.00      4.15      54.6     0.41      1021.3     5.5       N   357  11.3      NE    47   9.56    262      -80.7
   01/02/2019 06:00      50.0      49.6       12     -1.2      0.00      4.15      54.6     0.41      1021.2     5.4     NNW   340  11.7     NNW   345   9.56    262      -80.7
   01/02/2019 05:50      50.0      49.7       12     -1.3      0.00      4.15      54.6     0.41      1021.1     5.0     NNW   341  11.0       N     9   9.56    262      -80.6
   01/02/2019 05:40      50.0      49.6       12     -1.2      0.00      4.15      54.6     0.41      1021.0     4.1       N   351   9.3       N   352   9.56    262      -80.5
   01/02/2019 05:30      50.2      49.7       12     -1.5      0.00      4.15      54.6     0.41      1020.9     4.4       N   350  11.0     NNE    29   9.56    262      -80.2
   01/02/2019 05:20      50.4      49.9       11     -1.8      0.00      4.15      54.7     0.41      1020.9     4.1       N   352   8.9     NNW   330   9.56    262      -79.7
   01/02/2019 05:10      50.3      49.7       11     -2.0      0.00      4.15      54.7     0.41      1020.9     3.6     NNW   344  11.4     NNW   330   9.56    262      -78.9
   01/02/2019 05:00      50.1      49.7       11     -1.8      0.00      4.15      54.6     0.41      1020.8     2.3     NNW   327   6.4      NW   318   9.56    262      -78.5
   01/02/2019 04:50      50.4      49.7       11     -1.9      0.00      4.15      54.7     0.41      1020.7     3.3     NNW   338   9.0      NE    56   9.56    262      -78.5
   01/02/2019 04:40      50.0      49.4       11     -1.9      0.00      4.15      54.8     0.41      1020.7     4.5     NNW   334   9.3     NNE    25   9.56    262      -77.4
   01/02/2019 04:30      49.6      48.9       12     -1.4      0.00      4.15      54.8     0.41      1020.7     3.6      NW   314   9.1     WNW   303   9.56    262      -76.3
   01/02/2019 04:20      49.1      47.2       13     -0.4      0.00      4.15      54.8     0.41      1020.7     2.8       W   267   7.6     NNW   346   9.56    262      -74.8
   01/02/2019 04:10      47.8      46.6       14      1.0      0.00      4.15      54.8     0.41      1020.8     2.7      SW   235   4.9      SW   217   9.56    262      -73.4
   01/02/2019 04:00      48.5      47.6       13     -0.1      0.00      4.15      54.8     0.41      1020.8     3.7      SW   217   5.1      SW   229   9.57    262      -73.6
   01/02/2019 03:50      48.2      47.5       13     -0.4      0.00      4.15      54.8     0.41      1020.8     3.7      SW   223   5.5      SW   231   9.57    263      -71.7
   01/02/2019 03:40      49.6      47.6       13     -0.2      0.00      4.15      54.8     0.41      1020.9     3.2     SSW   206   5.1     SSE   166   9.57    262      -73.9
   01/02/2019 03:30      49.9      49.2       12     -1.2      0.00      4.15      54.9     0.41      1020.9     3.9     SSW   198   6.4      SW   219   9.57    262      -77.8
   01/02/2019 03:20      50.0      49.5       12     -1.3      0.00      4.15      54.9     0.41      1021.0     4.4     SSW   202   7.4     SSW   198   9.57    262      -79.8
   01/02/2019 03:10      50.4      49.1       12     -1.5      0.00      4.15      54.9     0.41      1021.1     5.0       S   181  11.9      SW   231   9.57    262      -78.9
   01/02/2019 03:00      49.4      48.2       12     -0.9      0.00      4.15      54.9     0.41      1021.2     3.2       S   189   7.0       S   189   9.57    262      -76.0
   01/02/2019 02:50      49.0      48.0       13     -0.6      0.00      4.15      54.9     0.41      1021.2     1.8      SW   234   5.2      SW   216   9.57    262      -75.9
   01/02/2019 02:40      48.6      47.7       13     -0.6      0.00      4.15      54.9     0.41      1021.3     1.3     WSW   254   5.0     WSW   238   9.57    263      -74.5
   01/02/2019 02:30      47.9      47.4       13     -0.3      0.00      4.15      54.9     0.41      1021.4     2.2     WNW   298   5.5     NNW   330   9.57    263      -73.1
   01/02/2019 02:20      47.5      45.3       14      0.3      0.00      4.15      55.0     0.41      1021.4     2.0     WNW   288   4.3       N   352   9.57    263      -71.9
   01/02/2019 02:10      46.4      45.0       16      2.1      0.00      4.15      55.0     0.41      1021.5     1.4     SSW   195   3.6      SW   215   9.57    263      -72.2
   01/02/2019 02:00      45.8      42.0       19      3.2      0.00      4.15      55.0     0.41      1021.4     2.6     SSW   193   5.1     SSW   205   9.57    263      -70.9
   01/02/2019 01:50      43.9      41.9       20      4.5      0.00      4.15      55.0     0.41      1021.4     1.0     SSE   160   3.8     SSW   195   9.57    263      -71.6
   01/02/2019 01:40      43.6      40.4       21      4.2      0.00      4.15      55.0     0.41      1021.4     1.2       S   178   2.5      NE    54   9.57    263      -70.2
   01/02/2019 01:30      41.1      40.4       24      6.6      0.00      4.15      55.0     0.41      1021.4     0.9       S   170   2.1       S   184   9.57    263      -71.9
   01/02/2019 01:20      42.3      40.8       22      6.0      0.00      4.15      55.0     0.41      1021.4     1.6     SSE   159   3.5      SE   144   9.57    263      -72.7
   01/02/2019 01:10      43.5      42.1       20      4.4      0.00      4.15      55.0     0.41      1021.5     1.6     SSE   161   3.7     SSW   192   9.58    263      -74.2
   01/02/2019 01:00      45.9      43.2       18      3.8      0.00      4.15      55.1     0.41      1021.5     1.7     SSE   155   3.3     SSE   167   9.58    262      -76.3
   01/02/2019 00:50      48.1      45.8       14      0.9      0.00      4.15      55.1     0.41      1021.5     1.1       S   173   2.9       S   175   9.58    262      -79.3
   01/02/2019 00:40      48.4      47.8       13     -0.3      0.00      4.15      55.1     0.41      1021.6     1.9      NW   321   3.9      NW   325   9.58    262      -80.9
   01/02/2019 00:30      48.6      48.1       13     -0.3      0.00      4.15      55.1     0.41      1021.7     2.6      NW   326   5.6      NW   319   9.58    262      -81.9
   01/02/2019 00:20      48.4      47.8       13     -0.0      0.00      4.15      55.1     0.41      1021.7     3.1     NNW   342   6.4       N     0   9.58    262      -82.2
   01/02/2019 00:10      48.1      47.6       13      0.2      0.00      4.15      55.1     0.41      1021.8     3.4     NNW   331   7.4       N     4   9.58    262      -82.4
   01/02/2019 00:00      48.1      47.7       14      0.2      0.00      4.15      55.1     0.41      1021.9     3.0      NW   322   6.6       N     3   9.58    262      -82.4
   01/01/2019 23:50      48.2      47.8       14      0.4      0.00      4.15      55.1     0.41      1022.0     3.1       W   271   6.4       W   259   9.58    262      -82.7
   01/01/2019 23:40      48.1      47.5       14      0.5      0.00      4.15      55.1     0.41      1021.8     2.9       W   265   6.5     WSW   256   9.58    262      -83.0
   01/01/2019 23:30      47.7      47.2       14      1.0      0.00      4.15      55.1     0.41      1021.8     4.7     WSW   256   7.0     WSW   241   9.58    262      -83.2
   01/01/2019 23:20      47.8      47.4       14      1.0      0.00      4.15      55.2     0.41      1021.8     4.3     WSW   255   7.4       W   272   9.58    262      -83.8
   01/01/2019 23:10      47.8      47.3       14      1.3      0.00      4.15      55.2     0.41      1021.8     3.0     WNW   299   6.7      NW   325   9.58    262      -84.5
   01/01/2019 23:00      47.8      47.5       14      1.3      0.00      4.15      55.2     0.41      1021.7     4.0     WNW   292   6.9     NNW   326   9.58    262      -84.3
   01/01/2019 22:50      48.1      47.5       14      1.4      0.00      4.15      55.2     0.41      1021.6     3.5     WNW   289   6.2     WNW   301   9.59    262      -84.3
   01/01/2019 22:40      48.2      47.6       14      1.4      0.00      4.15      55.2     0.41      1021.4     2.9      NW   323   8.5     WNW   302   9.59    262      -83.7
   01/01/2019 22:30      48.3      47.9       14      1.2      0.00      4.15      55.2     0.41      1021.3     4.6       N     2  11.3     NNW   329   9.59    262      -81.0
   01/01/2019 22:20      48.7      48.0       14      1.1      0.00      4.15      55.2     0.41      1021.3     4.3       N     3   9.9       N   352   9.59    262      -78.7
   01/01/2019 22:10      48.8      48.3       14      0.9      0.00      4.15      55.2     0.41      1021.3     4.1       N     2   7.7     ENE    74   9.59    262      -79.3
   01/01/2019 22:00      48.8      48.3       14      0.9      0.00      4.15      55.2     0.41      1021.3     5.1     NNE    13   9.2     ENE    76   9.59    262      -80.8
   01/01/2019 21:50      48.8      48.4       14      1.0      0.00      4.15      55.3     0.41      1021.3     5.1       N     4   9.8     NNE    13   9.59    262      -78.7
   01/01/2019 21:40      48.9      48.2       14      1.1      0.00      4.15      55.3     0.41      1021.2     6.0     NNE    13  11.1       N     5   9.59    262      -74.6
   01/01/2019 21:30      48.7      48.3       14      1.4      0.00      4.15      55.3     0.41      1021.3     5.6     NNE    12  11.3       N     1   9.59    262      -71.8
   01/01/2019 21:20      48.7      48.0       14      1.4      0.00      4.15      55.3     0.42      1021.5     5.0       N     3   8.3       N   353   9.59    262      -68.7
   01/01/2019 21:10      48.3      47.6       15      1.9      0.00      4.15      55.3     0.41      1021.7     4.1       N   352   8.4       N     5   9.60    262      -65.2
   01/01/2019 21:00      48.0      47.6       15      2.0      0.00      4.15      55.3     0.42      1021.8     4.3     NNW   331   8.2       N     3   9.60    262      -64.6
   01/01/2019 20:50      48.1      47.6       15      2.1      0.00      4.15      55.3     0.42      1021.6     4.2       N   350   9.6     NNE    13   9.60    262      -69.8
   01/01/2019 20:40      48.1      47.8       15      1.9      0.00      4.15      55.3     0.41      1021.6     4.6       N   352   8.6     NNE    31   9.60    262      -81.1
   01/01/2019 20:30      48.2      47.8       15      2.1      0.00      4.15      55.3     0.42      1021.7     4.3       N     0   7.7     NNW   339   9.60    262      -86.2
   01/01/2019 20:20      48.3      47.9       15      1.9      0.00      4.15      55.3     0.42      1021.8     4.5       N   357   8.1     NNE    17   9.60    262      -87.2
   01/01/2019 20:10      48.1      47.7       15      2.3      0.00      4.15      55.3     0.42      1021.8     3.8     NNW   349   7.6     ENE    73   9.60    262      -87.2
   01/01/2019 20:00      48.1      47.8       15      2.4      0.00      4.15      55.3     0.42      1021.7     3.3     NNW   343   6.5       N     5   9.60    262      -87.4
   01/01/2019 19:50      48.5      47.8       15      2.4      0.00      4.15      55.3     0.42      1021.7     3.1     NNW   349   6.2     NNW   338   9.60    262      -87.8
   01/01/2019 19:40      48.6      48.1       15      2.4      0.00      4.15      55.3     0.42      1021.5     3.0     NNW   348   7.4      NW   316   9.60    262      -87.6
   01/01/2019 19:30      48.7      48.2       15      2.4      0.00      4.15      55.3     0.42      1021.4     3.1       N   356   5.2     NNE    15   9.60    262      -87.7
   01/01/2019 19:20      48.7      48.2       15      2.6      0.00      4.15      55.3     0.42      1021.6     2.6     NNW   347   5.3     NNW   339   9.61    262      -88.1
   01/01/2019 19:10      49.0      48.3       15      2.8      0.00      4.15      55.3     0.42      1021.6     2.7     NNW   343   5.1       N     0   9.61    262      -88.8
   01/01/2019 19:00      49.5      48.7       14      2.6      0.00      4.15      55.2     0.42      1021.5     2.6       N   349   7.2     NNW   346   9.61    262      -89.4
   01/01/2019 18:50      49.8      49.2       14      2.8      0.00      4.15      55.3     0.42      1021.4     3.6       N     3   6.1       N    10   9.61    262      -89.6
   01/01/2019 18:40      49.6      49.2       14      2.9      0.00      4.15      55.3     0.42      1021.4     3.9       N   359   6.4       N    10   9.61    262      -89.6
   01/01/2019 18:30      49.5      49.0       15      3.1      0.00      4.15      55.3     0.42      1021.5     3.3       N   352   6.6     NNW   345   9.61    262      -89.0
   01/01/2019 18:20      50.1      49.3       15      3.3      0.00      4.15      55.3     0.42      1021.6     2.4       N   349   5.4       N   355   9.61    262      -89.4
   01/01/2019 18:10      50.5      49.8       14      3.4      0.00      4.15      55.2     0.42      1021.5     2.3       N   352   5.3     NNE    22   9.61    262      -90.9
   01/01/2019 18:00      50.6      50.2       14      3.4      0.00      4.15      55.2     0.42      1021.3     2.8       N   350   7.0     WSW   257   9.61    262      -92.1
   01/01/2019 17:50      51.1      50.3       14      3.3      0.00      4.15      55.2     0.42      1021.1     3.1     NNW   340   6.6     NNW   335   9.62    262      -92.9
   01/01/2019 17:40      51.8      50.8       14      2.9      0.00      4.15      55.2     0.42      1021.0     3.5       N   354   7.4      NW   319   9.62    262      -93.9
   01/01/2019 17:30      52.3      51.5       13      2.3      0.00      4.15      55.2     0.42      1021.0     4.8       N     6   8.3       N   352   9.62    262      -95.0
   01/01/2019 17:20      52.5      51.8       13      2.1      0.00      4.15      55.1     0.42      1021.0     4.8     NNE    14   9.8       N     8   9.62    262      -95.8
   01/01/2019 17:10      52.7      52.0       12      1.9      0.00      4.15      55.2     0.42      1021.0     4.8     NNE    17   8.8     NNE    18   9.62    262      -95.8
   01/01/2019 17:00      53.1      52.5       12      1.9      0.00      4.15      55.1     0.42      1021.0     5.0       N    11   8.5       N     0   9.62    262      -93.9
   01/01/2019 16:50      53.0      52.6       12      2.0      0.00      4.15      55.1     0.42      1021.1     4.9       N     9   9.2     NNE    16   9.62    262      -90.8
   01/01/2019 16:40      53.7      52.8       12      2.2      0.00      4.15      55.1     0.42      1021.1     3.5       N     8   9.0       N    11   9.62    262      -88.5
   01/01/2019 16:30      54.4      53.4       12      1.7      0.00      4.15      55.1     0.42      1021.1     5.6       N     3  12.4     NNW   335   9.62    262      -77.4
   01/01/2019 16:20      54.5      53.9       12      2.5      0.00      4.15      55.1     0.42      1021.0     4.3       N     6   9.2      NE    34   9.62    261      -57.3
   01/01/2019 16:10      54.9      54.3       12      2.3      0.00      4.15      55.0     0.42      1020.9     4.3       N     8   8.1     NNE    20   9.62    260      -38.9
   01/01/2019 16:00      54.8      54.4       11      2.0      0.00      4.15      55.0     0.42      1020.8     4.4     NNE    17   7.8     NNW   346   9.43    261      -17.2
   01/01/2019 15:50      55.0      54.5       11      1.6      0.00      4.15      55.0     0.42      1020.8     6.6       N     6  16.2     NNW   343   9.14    261        4.6
   01/01/2019 15:40      54.9      54.5       11      1.2      0.00      4.15      55.0     0.42      1020.8     7.3     NNE    13  12.4       N     0   9.15    261       28.6
   01/01/2019 15:30      55.3      54.5       11      1.3      0.00      4.15      55.0     0.42      1020.7     8.1     NNE    12  14.6      NE    41   9.15    260       52.3
   01/01/2019 15:20      55.3      54.7       11      1.9      0.00      4.15      54.9     0.42      1020.6     7.1       N    11  11.9     NNE    26   9.15    261       75.9
   01/01/2019 15:10      55.4      54.7       12      2.7      0.00      4.15      54.9     0.42      1020.5     7.0       N     9  14.3     NNW   349   9.15    261       99.2
   01/01/2019 15:00      55.0      54.5       11      2.1      0.00      4.15      54.9     0.42      1020.5     8.6       N     6  17.8       N   354   9.16    260      123.4
   01/01/2019 14:50      55.1      54.6       11      2.3      0.00      4.15      54.9     0.42      1020.6     7.6       N     9  14.1       N     4   9.16    260      144.8
   01/01/2019 14:40      55.5      54.5       11      1.9      0.00      4.15      54.9     0.42      1020.6     8.4     NNE    13  14.7       N     9   9.16    260      164.8
   01/01/2019 14:30      55.5      54.7       12      2.7      0.00      4.15      54.8     0.42      1020.6     6.7       N   356  13.5     NNW   336   9.16    260      182.3
   01/01/2019 14:20      55.6      54.6       12      2.4      0.00      4.15      54.8     0.42      1020.6     7.5       N     3  15.4     NNW   338   9.16    260      200.6
   01/01/2019 14:10      55.5      54.6       12      2.7      0.00      4.15      54.8     0.42      1020.5     5.7       N   358  12.8       N   349   9.17    260      217.2
   01/01/2019 14:00      54.8      54.1       12      3.0      0.00      4.15      54.8     0.42      1020.5     7.3       N   355  15.7     NNE    21   9.17    260      234.2
   01/01/2019 13:50      54.6      54.0       12      3.0      0.00      4.15      54.8     0.42      1020.6     7.5       N   360  15.8     NNW   345   9.17    260      249.3
   01/01/2019 13:40      54.9      54.1       12      3.1      0.00      4.15      54.7     0.42      1020.6     7.8       N     2  14.9      NW   326   9.17    260      262.4
   01/01/2019 13:30      55.3      54.4       12      3.3      0.00      4.15      54.7     0.41      1020.5     7.2       N   355  12.2       N   352   9.17    260      274.8
   01/01/2019 13:20      55.1      53.9       12      3.5      0.00      4.15      54.7     0.42      1020.5     6.0       N     9  11.3      NE    36   9.18    260      285.4
   01/01/2019 13:10      54.5      53.7       12      3.3      0.00      4.15      54.7     0.41      1020.6     6.7       N     4  14.0     NNW   348   9.18    260      297.5
   01/01/2019 13:00      54.5      53.9       12      3.4      0.00      4.15      54.7     0.42      1020.7     6.6       N     6  13.1      NW   307   9.18    261      305.5
   01/01/2019 12:50      54.2      53.5       12      2.9      0.00      4.15      54.7     0.42      1021.0     6.9     NNE    12  13.2     NNE    24   9.18    261      312.6
   01/01/2019 12:40      54.4      53.5       12      3.0      0.00      4.15      54.7     0.42      1021.1     6.9       N     3  13.3     NNE    12   9.18    261      318.4
   01/01/2019 12:30      54.3      53.4       12      2.9      0.00      4.15      54.7     0.42      1021.2     7.3       N    10  14.9     NNW   348   9.18    261      324.3
   01/01/2019 12:20      54.4      53.6       12      3.3      0.00      4.15      54.7     0.41      1021.2     6.5     NNE    24  13.1       N     5   9.18    261      327.3
   01/01/2019 12:10      54.7      53.7       12      3.2      0.00      4.15      54.7     0.42      1021.3     7.1       N    10  12.9     NNE    21   9.18    261      329.4
   01/01/2019 12:00      54.5      53.6       13      3.7      0.00      4.15      54.7     0.42      1021.5     6.3       N     9   9.9      NE    48   9.19    261      329.7
   01/01/2019 11:50      54.5      53.4       13      3.6      0.00      4.15      54.7     0.41      1021.7     5.4      NE    40  11.0      NE    55   9.19    261      330.5
   01/01/2019 11:40      54.3      53.3       13      3.8      0.00      4.15      54.6     0.41      1021.9     5.5      NE    40   9.9     NNE    29   9.19    261      329.5
   01/01/2019 11:30      53.8      52.8       13      3.5      0.00      4.15      54.7     0.41      1021.9     6.6     NNE    23  11.6     NNW   348   9.19    262      327.7
   01/01/2019 11:20      53.8      53.1       13      3.3      0.00      4.15      54.7     0.41      1022.0     8.2      NE    37  14.5     NNE    34   9.19    262      324.4
   01/01/2019 11:10      53.9      52.6       13      3.7      0.00      4.15      54.7     0.41      1022.0     7.2     NNE    30  12.4     NNE    28   9.19    262      319.2
   01/01/2019 11:00      53.4      52.1       13      3.7      0.00      4.15      54.7     0.41      1022.0     8.2     NNE    17  14.4     NNE    28   9.19    262      314.7
   01/01/2019 10:50      52.5      52.1       13      3.1      0.00      4.15      54.7     0.41      1021.9    12.2     NNE    17  23.6     NNE    24   9.20    262      308.1
   01/01/2019 10:40      52.8      52.1       13      3.4      0.00      4.15      54.7     0.41      1021.7     9.7     NNE    19  19.5     ENE    71   9.20    262      295.9
   01/01/2019 10:30      52.8      52.3       13      3.8      0.00      4.15      54.7     0.41      1022.0     7.2     NNE    28  17.3       N     5   9.20    262      281.5
   01/01/2019 10:20      52.6      52.1       14      4.8      0.00      4.15      54.8     0.41      1022.3     5.3     NNE    12  11.4     NNE    20   9.20    262      268.7
   01/01/2019 10:10      52.4      51.5       15      5.2      0.00      4.15      54.8     0.41      1022.5     5.0     NNE    24  10.3       N     3   9.20    262      256.6
   01/01/2019 10:00      51.7      50.7       16      6.1      0.00      4.15      54.8     0.41      1022.6     5.7       N     5  14.8       N     5   9.20    262      242.7
   01/01/2019 09:50      51.3      50.1       16      6.0      0.00      4.15      54.8     0.41      1022.7     4.5       N     3  10.1     NNW   329   9.21    262      228.0
   01/01/2019 09:40      50.3      49.9       16      5.7      0.00      4.15      54.8     0.42      1022.6     6.5       N     0  12.6       N    10   9.21    262      213.0
   01/01/2019 09:30      50.1      49.7       16      5.4      0.00      4.15      54.9     0.41      1022.4     7.7       N     2  13.7       N   353   9.21    262      195.4
   01/01/2019 09:20      49.9      49.5       16      5.4      0.00      4.15      54.9     0.42      1022.4     6.8       N     0  10.4       N     6   9.21    262      176.9
   01/01/2019 09:10      49.5      48.9       16      5.2      0.00      4.15      54.9     0.42      1022.3     7.4       N     9  15.0      NE    44   9.21    262      156.6
   01/01/2019 09:00      49.1      48.7       17      5.3      0.00      4.15      54.9     0.42      1022.2     7.1       N     2  11.9     NNE    12   9.21    262      134.9
   01/01/2019 08:50      48.9      48.5       17      5.3      0.00      4.15      54.9     0.42      1022.1     6.6       N     5  12.3      NW   319   9.21    262      114.4
   01/01/2019 08:40      48.7      48.2       17      5.4      0.00      4.15      54.9     0.42      1021.9     6.0       N     4  10.3      NE    37   9.21    262       93.3
   01/01/2019 08:30      48.6      47.8       17      5.1      0.00      4.15      54.9     0.42      1021.7     6.1       N     6  12.4     NNE    16   9.22    262       73.9
   01/01/2019 08:20      48.0      47.6       17      5.0      0.00      4.15      55.0     0.42      1021.4     6.6       N     5  13.5       N     6   9.22    262       52.7
   01/01/2019 08:10      47.7      47.2       17      4.8      0.00      4.15      55.0     0.42      1021.4     5.3       N   357   9.3       N   352   9.22    262       22.9
   01/01/2019 08:00      47.5      46.9       17      4.1      0.00      4.15      55.0     0.42      1021.3     5.7       N   359  16.4      NE    43   9.22    263      -58.0
   01/01/2019 07:50      47.0      46.3       17      4.2      0.00      4.15      55.0     0.42      1021.1     6.0       N     9  10.7       N   353   9.22    263      -65.3
   01/01/2019 07:40      46.5      45.8       17      4.2      0.00      4.15      55.0     0.42      1020.8     4.9       N     9   8.4       N   349   9.22    263      -69.6
   01/01/2019 07:30      46.1      45.8       18      4.3      0.00      4.15      55.0     0.42      1020.6     4.6       N     9   8.0       N   350   9.22    263      -73.2
   01/01/2019 07:20      46.2      45.6       17      4.0      0.00      4.15      55.0     0.42      1020.3     4.6       N     2  10.4     NNE    17   9.22    263      -77.5
   01/01/2019 07:10      46.1      45.4       18      4.2      0.00      4.15      55.1     0.42      1019.9     4.5       N     0   9.0     NNE    18   9.22    263      -80.8
   01/01/2019 07:00      46.1      45.8       17      4.0      0.00      4.15      55.1     0.42      1019.7     4.3       N     1   7.0       N     5   9.22    263      -84.5
   01/01/2019 06:50      46.6      45.9       17      3.8      0.00      4.15      55.1     0.42      1019.4     5.2       N     0   9.6     NNW   341   9.22    263      -86.8
   01/01/2019 06:40      46.9      46.3       16      3.3      0.00      4.15      55.1     0.42      1019.1     6.0       N    10  10.8     NNE    32   9.22    263      -87.5
   01/01/2019 06:30      46.7      46.3       16      3.2      0.00      4.15      55.1     0.42      1018.8     6.8       N     8  13.4     NNE    13   9.22    263      -87.5
   01/01/2019 06:20      47.0      46.3       16      3.3      0.00      4.15      55.1     0.42      1018.6     7.0       N    11  10.5      SE   129   9.22    263      -87.7
   01/01/2019 06:10      46.9      45.4       17      3.6      0.00      4.15      55.2     0.42      1018.4     6.7     NNE    11  12.8     NNW   327   9.22    263      -87.3
   01/01/2019 06:00      45.8      45.4       18      4.4      0.00      4.15      55.2     0.42      1018.3     4.7       N   354   8.5      NW   316   9.22    263      -87.3
   01/01/2019 05:50      46.4      45.5       18      4.2      0.00      4.15      55.2     0.42      1018.3     5.5     NNW   347   8.5       N     2   9.22    263      -87.8
   01/01/2019 05:40      47.1      46.2       17      3.9      0.00      4.15      55.2     0.42      1018.2     6.2       N   349  10.2     NNW   327   9.22    263      -88.1
   01/01/2019 05:30      47.0      46.3       17      3.8      0.00      4.15      55.3     0.42      1017.8     7.4       N     6  14.9       N     4   9.23    263      -88.1
   01/01/2019 05:20      46.5      45.9       17      4.1      0.00      4.15      55.3     0.42      1017.4     6.2       N     2  12.0     NNW   347   9.23    263      -87.7
   01/01/2019 05:10      46.1      45.5       18      4.6      0.00      4.15      55.3     0.42      1017.3     4.4       N     0  10.4       N     0   9.23    263      -87.5
   01/01/2019 05:00      46.1      45.5       18      4.9      0.00      4.15      55.3     0.42      1017.3     4.8       N   352  11.0       N     8   9.23    263      -87.7
   01/01/2019 04:50      46.4      45.8       18      4.7      0.00      4.15      55.3     0.42      1017.2     6.5       N   355  11.4       N     3   9.23    263      -87.9
   01/01/2019 04:40      46.1      45.4       18      4.9      0.00      4.15      55.3     0.42      1017.1     4.7     NNE    12  11.5      NW   312   9.23    263      -87.6
   01/01/2019 04:30      46.4      45.6       18      4.9      0.00      4.15      55.4     0.42      1017.1     1.8      NE    36   5.8     NNE    15   9.23    263      -87.7
   01/01/2019 04:20      46.7      46.0       18      4.6      0.00      4.15      55.4     0.42      1017.1     2.9      NE    41   8.4      NE    55   9.23    263      -88.2
   01/01/2019 04:10      46.6      46.1       17      4.5      0.00      4.15      55.4     0.42      1016.9     3.8      NE    34   9.9     NNE    17   9.23    263      -88.6
   01/01/2019 04:00      47.1      46.4       17      4.3      0.00      4.15      55.4     0.42      1016.8     3.5     NNE    28   8.7      NE    37   9.23    263      -89.1
   01/01/2019 03:50      47.2      46.9       17      4.0      0.00      4.15      55.4     0.42      1016.6     5.7     NNE    30   9.8      NE    45   9.23    263      -89.8
   01/01/2019 03:40      47.5      46.9       16      3.9      0.00      4.15      55.5     0.42      1016.4     5.8     NNE    24  11.0     NNE    30   9.23    263      -90.2
   01/01/2019 03:30      47.8      47.0       16      3.7      0.00      4.15      55.4     0.42      1016.5     6.4     NNE    31  12.0     NNW   346   9.23    263      -90.3
   01/01/2019 03:20      47.8      47.3       16      3.4      0.00      4.15      55.4     0.42      1016.4     9.2     NNE    20  16.8      NE    48   9.23    263      -90.8
   01/01/2019 03:10      47.8      47.0       16      3.6      0.00      4.15      55.5     0.42      1016.5     6.4     NNE    17  14.5     NNE    16   9.23    263      -90.1
   01/01/2019 03:00      48.0      47.4       16      3.1      0.00      4.15      55.5     0.42      1016.5     8.5     NNE    14  15.0     NNE    13   9.24    263      -90.3
   01/01/2019 02:50      47.9      47.4       16      3.1      0.00      4.15      55.5     0.42      1016.5     8.0       N    11  14.4       N   352   9.24    263      -89.9
   01/01/2019 02:40      47.8      47.4       16      3.3      0.00      4.15      55.5     0.42      1016.5     7.2       N    11  12.2     NNE    17   9.24    263      -89.2
   01/01/2019 02:30      47.6      47.2       16      4.0      0.00      4.15      55.5     0.42      1016.7     5.5     NNE    18  12.4      NE    34   9.24    263      -88.6
   01/01/2019 02:20      47.8      47.3       17      4.2      0.00      4.15      55.5     0.42      1016.8     5.0     NNE    16   9.3      NE    37   9.24    263      -88.2
   01/01/2019 02:10      47.6      46.9       17      4.5      0.00      4.15      55.6     0.42      1016.7     5.7     NNE    16  12.6     NNE    22   9.24    263      -87.6
   01/01/2019 02:00      47.2      46.8       18      5.1      0.00      4.15      55.5     0.42      1016.7     4.4     NNE    12  12.1     NNE    27   9.24    263      -87.3
   01/01/2019 01:50      47.3      46.9       17      5.1      0.00      4.15      55.6     0.42      1016.8     4.8       N     2  10.5     NNE    18   9.24    263      -86.8
   01/01/2019 01:40      47.3      46.9       17      5.0      0.00      4.15      55.6     0.42      1016.8     4.6       N     2  10.0       N     8   9.24    263      -87.0
   01/01/2019 01:30      47.7      46.8       18      5.4      0.00      4.15      55.6     0.42      1016.7     3.3       N     6   6.3       N    11   9.24    263      -87.6
   01/01/2019 01:20      47.8      47.3       17      5.1      0.00      4.15      55.6     0.42      1016.6     5.8     NNE    11  10.3      NE    42   9.24    263      -87.9
   01/01/2019 01:10      47.8      47.4       17      5.3      0.00      4.15      55.6     0.42      1016.4     4.8     NNE    13   9.5     NNE    24   9.24    263      -88.3
   01/01/2019 01:00      48.1      47.5       17      5.4      0.00      4.15      55.6     0.42      1016.2     5.3     NNE    20  12.9     NNE    21   9.24    263      -89.4
   01/01/2019 00:50      48.0      47.5       17      5.5      0.00      4.15      55.7     0.42      1016.0     6.7     NNE    20  15.1     NNE    12   9.24    263      -89.5
   01/01/2019 00:40      48.1      47.5       18      5.7      0.00      4.15      55.7     0.42      1015.9     6.0     NNE    12  11.5     NNE    28   9.24    263      -89.0
   01/01/2019 00:30      48.5      47.7       17      5.8      0.00      4.15      55.7     0.42      1015.9     7.0       N     6  15.2      SW   227   9.24    263      -88.8
   01/01/2019 00:20      48.3      47.8       17      5.5      0.00      4.15      55.7     0.42      1015.9     8.3       N     9  14.0     NNW   349   9.25    263      -88.1
   01/01/2019 00:10      48.0      47.0       18      5.9      0.00      4.15      55.7     0.42      1016.0     6.1       N     7  10.6     NNW   341   9.25    263      -85.6
   01/01/2019 00:00      47.8      47.1       18      6.3      0.00      4.15      55.7     0.42      1016.2     3.2       N   352   7.0     NNE    27   9.25    263      -84.2


Back to data home page